<?xml version='1.0' encoding='UTF-8'?><gpx version="1.1" creator="JPX - https://github.com/jenetics/jpx" xmlns="http://www.topografix.com/GPX/1/1"><trk><trkseg><trkpt lat="44.5011368" lon="8.8989961"><ele>106.00000000000001</ele><time>2026-03-30T12:20:37Z</time></trkpt><trkpt lat="44.5010897" lon="8.8991626"><ele>106.0</ele><time>2026-03-30T12:20:50Z</time></trkpt><trkpt lat="44.5010155" lon="8.8991198"><ele>106.0</ele><time>2026-03-30T12:20:52Z</time></trkpt><trkpt lat="44.5010544" lon="8.89923"><ele>106.0</ele><time>2026-03-30T12:20:59Z</time></trkpt><trkpt lat="44.5010792" lon="8.8993114"><ele>106.00000000000001</ele><time>2026-03-30T12:21:00.999Z</time></trkpt><trkpt lat="44.5010805" lon="8.8994078"><ele>106.0</ele><time>2026-03-30T12:21:04Z</time></trkpt><trkpt lat="44.5009581" lon="8.8996364"><ele>104.0</ele><time>2026-03-30T12:21:27Z</time></trkpt><trkpt lat="44.5008393" lon="8.8997107"><ele>102.0</ele><time>2026-03-30T12:21:29Z</time></trkpt><trkpt lat="44.500782" lon="8.8997781"><ele>100.0</ele><time>2026-03-30T12:21:30Z</time></trkpt><trkpt lat="44.5007228" lon="8.8998424"><ele>98.0</ele><time>2026-03-30T12:21:30.999Z</time></trkpt><trkpt lat="44.5006644" lon="8.8999349"><ele>96.0</ele><time>2026-03-30T12:21:32Z</time></trkpt><trkpt lat="44.5006027" lon="8.9000359"><ele>95.4</ele><time>2026-03-30T12:21:33Z</time></trkpt><trkpt lat="44.5005391" lon="8.9001302"><ele>94.8</ele><time>2026-03-30T12:21:34Z</time></trkpt><trkpt lat="44.5004673" lon="8.9002251"><ele>94.2</ele><time>2026-03-30T12:21:35Z</time></trkpt><trkpt lat="44.5004024" lon="8.900266"><ele>93.60000000000001</ele><time>2026-03-30T12:21:36Z</time></trkpt><trkpt lat="44.5003351" lon="8.9002779"><ele>93.0</ele><time>2026-03-30T12:21:37.122Z</time></trkpt><trkpt lat="44.5001803" lon="8.9003232"><ele>93.0</ele><time>2026-03-30T12:21:38.999Z</time></trkpt><trkpt lat="44.5001141" lon="8.9003266"><ele>93.0</ele><time>2026-03-30T12:21:40.13Z</time></trkpt><trkpt lat="44.5000343" lon="8.9003367"><ele>93.0</ele><time>2026-03-30T12:21:41.131Z</time></trkpt><trkpt lat="44.4999597" lon="8.9003393"><ele>93.0</ele><time>2026-03-30T12:21:42.155Z</time></trkpt><trkpt lat="44.4998174" lon="8.900429"><ele>93.0</ele><time>2026-03-30T12:21:43.999Z</time></trkpt><trkpt lat="44.4997683" lon="8.9004941"><ele>93.0</ele><time>2026-03-30T12:21:45.146Z</time></trkpt><trkpt lat="44.4997081" lon="8.9005615"><ele>93.0</ele><time>2026-03-30T12:21:46.141Z</time></trkpt><trkpt lat="44.4996564" lon="8.9006556"><ele>93.0</ele><time>2026-03-30T12:21:47.157Z</time></trkpt><trkpt lat="44.4995272" lon="8.9008592"><ele>93.0</ele><time>2026-03-30T12:21:49Z</time></trkpt><trkpt lat="44.4994659" lon="8.9009539"><ele>93.0</ele><time>2026-03-30T12:21:50.165Z</time></trkpt><trkpt lat="44.4994016" lon="8.9010294"><ele>92.75</ele><time>2026-03-30T12:21:51.134Z</time></trkpt><trkpt lat="44.4993357" lon="8.901074"><ele>92.5</ele><time>2026-03-30T12:21:52.129Z</time></trkpt><trkpt lat="44.4992158" lon="8.9011441"><ele>92.25</ele><time>2026-03-30T12:21:54.155Z</time></trkpt><trkpt lat="44.4991225" lon="8.9011881"><ele>92.0</ele><time>2026-03-30T12:21:56.141Z</time></trkpt><trkpt lat="44.4989681" lon="8.9012789"><ele>92.0</ele><time>2026-03-30T12:21:59Z</time></trkpt><trkpt lat="44.4989101" lon="8.9013351"><ele>92.0</ele><time>2026-03-30T12:22:00.162Z</time></trkpt><trkpt lat="44.498856" lon="8.9014035"><ele>92.0</ele><time>2026-03-30T12:22:01.142Z</time></trkpt><trkpt lat="44.498802" lon="8.9014904"><ele>92.0</ele><time>2026-03-30T12:22:02.162Z</time></trkpt><trkpt lat="44.4986844" lon="8.9016598"><ele>92.0</ele><time>2026-03-30T12:22:04Z</time></trkpt><trkpt lat="44.498611" lon="8.901738"><ele>91.0</ele><time>2026-03-30T12:22:05.13Z</time></trkpt><trkpt lat="44.4985193" lon="8.9017909"><ele>90.0</ele><time>2026-03-30T12:22:06.146Z</time></trkpt><trkpt lat="44.498323" lon="8.9019201"><ele>89.0</ele><time>2026-03-30T12:22:08Z</time></trkpt><trkpt lat="44.4982095" lon="8.9019461"><ele>88.0</ele><time>2026-03-30T12:22:08.999Z</time></trkpt><trkpt lat="44.4981077" lon="8.9020114"><ele>88.0</ele><time>2026-03-30T12:22:10Z</time></trkpt><trkpt lat="44.4979919" lon="8.902014"><ele>88.0</ele><time>2026-03-30T12:22:11.171Z</time></trkpt><trkpt lat="44.4977565" lon="8.9020406"><ele>88.0</ele><time>2026-03-30T12:22:13Z</time></trkpt><trkpt lat="44.4976438" lon="8.9020542"><ele>87.66666666666666</ele><time>2026-03-30T12:22:14Z</time></trkpt><trkpt lat="44.4975249" lon="8.9020364"><ele>87.33333333333333</ele><time>2026-03-30T12:22:15.139Z</time></trkpt><trkpt lat="44.4973048" lon="8.9020004"><ele>87.0</ele><time>2026-03-30T12:22:17Z</time></trkpt><trkpt lat="44.4971899" lon="8.9019968"><ele>86.19999999999999</ele><time>2026-03-30T12:22:18Z</time></trkpt><trkpt lat="44.4970845" lon="8.9019871"><ele>85.4</ele><time>2026-03-30T12:22:19Z</time></trkpt><trkpt lat="44.4969731" lon="8.9019796"><ele>84.6</ele><time>2026-03-30T12:22:19.999Z</time></trkpt><trkpt lat="44.4968615" lon="8.9019806"><ele>83.80000000000001</ele><time>2026-03-30T12:22:21Z</time></trkpt><trkpt lat="44.4967535" lon="8.901972"><ele>83.0</ele><time>2026-03-30T12:22:22Z</time></trkpt><trkpt lat="44.496646" lon="8.9019571"><ele>83.0</ele><time>2026-03-30T12:22:23Z</time></trkpt><trkpt lat="44.4965279" lon="8.9019571"><ele>83.0</ele><time>2026-03-30T12:22:24Z</time></trkpt><trkpt lat="44.4964002" lon="8.90198"><ele>83.0</ele><time>2026-03-30T12:22:25Z</time></trkpt><trkpt lat="44.496267" lon="8.9020815"><ele>83.0</ele><time>2026-03-30T12:22:25.999Z</time></trkpt><trkpt lat="44.4961433" lon="8.9021885"><ele>83.75</ele><time>2026-03-30T12:22:26.999Z</time></trkpt><trkpt lat="44.4960323" lon="8.9023019"><ele>84.5</ele><time>2026-03-30T12:22:28Z</time></trkpt><trkpt lat="44.4959422" lon="8.9024195"><ele>85.25</ele><time>2026-03-30T12:22:29Z</time></trkpt><trkpt lat="44.4958544" lon="8.9025451"><ele>86.0</ele><time>2026-03-30T12:22:30Z</time></trkpt><trkpt lat="44.4957772" lon="8.9026712"><ele>86.0</ele><time>2026-03-30T12:22:31Z</time></trkpt><trkpt lat="44.4957079" lon="8.9027932"><ele>86.0</ele><time>2026-03-30T12:22:32Z</time></trkpt><trkpt lat="44.495641" lon="8.9028948"><ele>86.0</ele><time>2026-03-30T12:22:33Z</time></trkpt><trkpt lat="44.4955812" lon="8.902998"><ele>86.0</ele><time>2026-03-30T12:22:34Z</time></trkpt><trkpt lat="44.4955246" lon="8.9031052"><ele>86.0</ele><time>2026-03-30T12:22:35Z</time></trkpt><trkpt lat="44.4954641" lon="8.9031825"><ele>85.66666666666667</ele><time>2026-03-30T12:22:36Z</time></trkpt><trkpt lat="44.4953951" lon="8.9032501"><ele>85.33333333333334</ele><time>2026-03-30T12:22:37Z</time></trkpt><trkpt lat="44.4953136" lon="8.9032917"><ele>85.0</ele><time>2026-03-30T12:22:38Z</time></trkpt><trkpt lat="44.4952428" lon="8.9033212"><ele>84.66666666666667</ele><time>2026-03-30T12:22:38.999Z</time></trkpt><trkpt lat="44.4951681" lon="8.9033668"><ele>84.33333333333333</ele><time>2026-03-30T12:22:41Z</time></trkpt><trkpt lat="44.495092" lon="8.9033697"><ele>84.0</ele><time>2026-03-30T12:22:44Z</time></trkpt><trkpt lat="44.4950008" lon="8.9034187"><ele>84.0</ele><time>2026-03-30T12:22:47.14Z</time></trkpt><trkpt lat="44.4948141" lon="8.9034425"><ele>84.0</ele><time>2026-03-30T12:22:49Z</time></trkpt><trkpt lat="44.4947469" lon="8.9034604"><ele>84.0</ele><time>2026-03-30T12:22:49.999Z</time></trkpt><trkpt lat="44.4946655" lon="8.9034884"><ele>84.0</ele><time>2026-03-30T12:22:51Z</time></trkpt><trkpt lat="44.4945644" lon="8.9035289"><ele>84.0</ele><time>2026-03-30T12:22:52Z</time></trkpt><trkpt lat="44.4944673" lon="8.9035407"><ele>84.0</ele><time>2026-03-30T12:22:53.134Z</time></trkpt><trkpt lat="44.4943809" lon="8.9035486"><ele>84.0</ele><time>2026-03-30T12:22:54.135Z</time></trkpt><trkpt lat="44.494283" lon="8.9035529"><ele>84.0</ele><time>2026-03-30T12:22:55.159Z</time></trkpt><trkpt lat="44.4941824" lon="8.9035386"><ele>84.0</ele><time>2026-03-30T12:22:56.154Z</time></trkpt><trkpt lat="44.4940104" lon="8.9034295"><ele>84.6</ele><time>2026-03-30T12:22:58Z</time></trkpt><trkpt lat="44.4939208" lon="8.9033531"><ele>85.2</ele><time>2026-03-30T12:22:59Z</time></trkpt><trkpt lat="44.4938186" lon="8.9033034"><ele>85.8</ele><time>2026-03-30T12:23:00Z</time></trkpt><trkpt lat="44.49373" lon="8.9032302"><ele>86.39999999999999</ele><time>2026-03-30T12:23:01Z</time></trkpt><trkpt lat="44.4936445" lon="8.9031732"><ele>87.0</ele><time>2026-03-30T12:23:02.126Z</time></trkpt><trkpt lat="44.4935608" lon="8.903113"><ele>85.8</ele><time>2026-03-30T12:23:03Z</time></trkpt><trkpt lat="44.4934615" lon="8.9030582"><ele>84.6</ele><time>2026-03-30T12:23:04Z</time></trkpt><trkpt lat="44.4933655" lon="8.9029959"><ele>83.39999999999999</ele><time>2026-03-30T12:23:05.145Z</time></trkpt><trkpt lat="44.4932688" lon="8.9029213"><ele>82.19999999999999</ele><time>2026-03-30T12:23:06.171Z</time></trkpt><trkpt lat="44.4931545" lon="8.9028514"><ele>81.0</ele><time>2026-03-30T12:23:07.133Z</time></trkpt><trkpt lat="44.4929258" lon="8.9027205"><ele>80.25</ele><time>2026-03-30T12:23:09Z</time></trkpt><trkpt lat="44.4928188" lon="8.9026339"><ele>79.5</ele><time>2026-03-30T12:23:10.164Z</time></trkpt><trkpt lat="44.4927201" lon="8.9025513"><ele>78.75</ele><time>2026-03-30T12:23:11.138Z</time></trkpt><trkpt lat="44.4926212" lon="8.9024826"><ele>78.0</ele><time>2026-03-30T12:23:12.127Z</time></trkpt><trkpt lat="44.4924508" lon="8.9023318"><ele>78.0</ele><time>2026-03-30T12:23:14.168Z</time></trkpt><trkpt lat="44.492366" lon="8.9022547"><ele>78.0</ele><time>2026-03-30T12:23:15.135Z</time></trkpt><trkpt lat="44.492277" lon="8.9021713"><ele>78.0</ele><time>2026-03-30T12:23:16.15Z</time></trkpt><trkpt lat="44.492186" lon="8.902082"><ele>78.0</ele><time>2026-03-30T12:23:17.176Z</time></trkpt><trkpt lat="44.4919853" lon="8.9018804"><ele>78.0</ele><time>2026-03-30T12:23:19Z</time></trkpt><trkpt lat="44.4918782" lon="8.9017809"><ele>78.0</ele><time>2026-03-30T12:23:20.111Z</time></trkpt><trkpt lat="44.4917678" lon="8.9016736"><ele>78.0</ele><time>2026-03-30T12:23:21.122Z</time></trkpt><trkpt lat="44.4916538" lon="8.9015639"><ele>78.0</ele><time>2026-03-30T12:23:22.145Z</time></trkpt><trkpt lat="44.4914332" lon="8.9013553"><ele>78.25</ele><time>2026-03-30T12:23:24Z</time></trkpt><trkpt lat="44.4913317" lon="8.9012516"><ele>78.5</ele><time>2026-03-30T12:23:25.122Z</time></trkpt><trkpt lat="44.4912213" lon="8.9011357"><ele>78.75</ele><time>2026-03-30T12:23:26.142Z</time></trkpt><trkpt lat="44.4911166" lon="8.9010327"><ele>79.0</ele><time>2026-03-30T12:23:27.149Z</time></trkpt><trkpt lat="44.4909063" lon="8.9008264"><ele>78.25</ele><time>2026-03-30T12:23:29Z</time></trkpt><trkpt lat="44.4907981" lon="8.9007214"><ele>77.5</ele><time>2026-03-30T12:23:30.156Z</time></trkpt><trkpt lat="44.4906896" lon="8.9006164"><ele>76.75</ele><time>2026-03-30T12:23:31.139Z</time></trkpt><trkpt lat="44.4905825" lon="8.9005108"><ele>76.0</ele><time>2026-03-30T12:23:32.15Z</time></trkpt><trkpt lat="44.4903695" lon="8.9002933"><ele>76.5</ele><time>2026-03-30T12:23:34Z</time></trkpt><trkpt lat="44.4902685" lon="8.9001972"><ele>77.0</ele><time>2026-03-30T12:23:35Z</time></trkpt><trkpt lat="44.4901635" lon="8.9001125"><ele>77.5</ele><time>2026-03-30T12:23:36Z</time></trkpt><trkpt lat="44.4900625" lon="8.9000278"><ele>78.0</ele><time>2026-03-30T12:23:37.124Z</time></trkpt><trkpt lat="44.4898564" lon="8.8998797"><ele>78.0</ele><time>2026-03-30T12:23:38.999Z</time></trkpt><trkpt lat="44.4897668" lon="8.8998091"><ele>78.0</ele><time>2026-03-30T12:23:40.159Z</time></trkpt><trkpt lat="44.4895932" lon="8.8996853"><ele>78.0</ele><time>2026-03-30T12:23:42.102Z</time></trkpt><trkpt lat="44.4894652" lon="8.8995932"><ele>78.0</ele><time>2026-03-30T12:23:44Z</time></trkpt><trkpt lat="44.4893749" lon="8.8995254"><ele>77.16666666666667</ele><time>2026-03-30T12:23:46.118Z</time></trkpt><trkpt lat="44.4893057" lon="8.8994518"><ele>76.33333333333333</ele><time>2026-03-30T12:23:49Z</time></trkpt><trkpt lat="44.4892737" lon="8.8993391"><ele>75.5</ele><time>2026-03-30T12:23:56Z</time></trkpt><trkpt lat="44.4892513" lon="8.8992462"><ele>74.66666666666666</ele><time>2026-03-30T12:23:58Z</time></trkpt><trkpt lat="44.4891876" lon="8.8991553"><ele>73.83333333333333</ele><time>2026-03-30T12:24:02Z</time></trkpt><trkpt lat="44.4891213" lon="8.899158"><ele>73.0</ele><time>2026-03-30T12:24:05Z</time></trkpt><trkpt lat="44.4890172" lon="8.8992058"><ele>72.75</ele><time>2026-03-30T12:24:08Z</time></trkpt><trkpt lat="44.4889333" lon="8.8992204"><ele>72.5</ele><time>2026-03-30T12:24:11Z</time></trkpt><trkpt lat="44.488871" lon="8.8991771"><ele>72.25</ele><time>2026-03-30T12:24:14.12Z</time></trkpt><trkpt lat="44.4886958" lon="8.8989907"><ele>72.0</ele><time>2026-03-30T12:24:16Z</time></trkpt><trkpt lat="44.488606" lon="8.898944"><ele>72.0</ele><time>2026-03-30T12:24:17.999Z</time></trkpt><trkpt lat="44.4885024" lon="8.8988851"><ele>72.0</ele><time>2026-03-30T12:24:20Z</time></trkpt><trkpt lat="44.4883794" lon="8.8988161"><ele>72.0</ele><time>2026-03-30T12:24:22Z</time></trkpt><trkpt lat="44.4882992" lon="8.8987636"><ele>72.0</ele><time>2026-03-30T12:24:23Z</time></trkpt><trkpt lat="44.4882239" lon="8.8987059"><ele>72.0</ele><time>2026-03-30T12:24:24Z</time></trkpt><trkpt lat="44.4881437" lon="8.8986691"><ele>72.0</ele><time>2026-03-30T12:24:25Z</time></trkpt><trkpt lat="44.4880625" lon="8.8986362"><ele>72.0</ele><time>2026-03-30T12:24:26Z</time></trkpt><trkpt lat="44.4878002" lon="8.8985239"><ele>72.0</ele><time>2026-03-30T12:24:29Z</time></trkpt><trkpt lat="44.4877122" lon="8.8984911"><ele>71.8</ele><time>2026-03-30T12:24:30.14Z</time></trkpt><trkpt lat="44.4875435" lon="8.8984285"><ele>71.6</ele><time>2026-03-30T12:24:32Z</time></trkpt><trkpt lat="44.4874641" lon="8.8984011"><ele>71.39999999999999</ele><time>2026-03-30T12:24:33Z</time></trkpt><trkpt lat="44.4873816" lon="8.8983635"><ele>71.2</ele><time>2026-03-30T12:24:34Z</time></trkpt><trkpt lat="44.4873007" lon="8.8983332"><ele>71.0</ele><time>2026-03-30T12:24:35Z</time></trkpt><trkpt lat="44.4872153" lon="8.8983023"><ele>70.6</ele><time>2026-03-30T12:24:36.148Z</time></trkpt><trkpt lat="44.4871339" lon="8.8982774"><ele>70.19999999999999</ele><time>2026-03-30T12:24:37.127Z</time></trkpt><trkpt lat="44.4869666" lon="8.8982369"><ele>69.80000000000001</ele><time>2026-03-30T12:24:38.997Z</time></trkpt><trkpt lat="44.4868939" lon="8.8982098"><ele>69.4</ele><time>2026-03-30T12:24:40Z</time></trkpt><trkpt lat="44.4868112" lon="8.8981853"><ele>69.0</ele><time>2026-03-30T12:24:41Z</time></trkpt><trkpt lat="44.486729" lon="8.898163"><ele>69.0</ele><time>2026-03-30T12:24:42Z</time></trkpt><trkpt lat="44.4866452" lon="8.8981516"><ele>69.0</ele><time>2026-03-30T12:24:43Z</time></trkpt><trkpt lat="44.4865595" lon="8.8981422"><ele>69.0</ele><time>2026-03-30T12:24:44Z</time></trkpt><trkpt lat="44.4864768" lon="8.8981261"><ele>69.0</ele><time>2026-03-30T12:24:45Z</time></trkpt><trkpt lat="44.4863953" lon="8.8981189"><ele>69.0</ele><time>2026-03-30T12:24:46Z</time></trkpt><trkpt lat="44.4863143" lon="8.8981129"><ele>69.0</ele><time>2026-03-30T12:24:47Z</time></trkpt><trkpt lat="44.4862321" lon="8.8981046"><ele>68.5</ele><time>2026-03-30T12:24:48Z</time></trkpt><trkpt lat="44.4861515" lon="8.8981004"><ele>68.0</ele><time>2026-03-30T12:24:48.999Z</time></trkpt><trkpt lat="44.4860731" lon="8.8980924"><ele>67.5</ele><time>2026-03-30T12:24:50Z</time></trkpt><trkpt lat="44.4859856" lon="8.898092"><ele>67.0</ele><time>2026-03-30T12:24:51Z</time></trkpt><trkpt lat="44.4859052" lon="8.8980864"><ele>66.5</ele><time>2026-03-30T12:24:52Z</time></trkpt><trkpt lat="44.4858125" lon="8.8980884"><ele>66.0</ele><time>2026-03-30T12:24:52.999Z</time></trkpt><trkpt lat="44.4857194" lon="8.8980905"><ele>66.0</ele><time>2026-03-30T12:24:54Z</time></trkpt><trkpt lat="44.4856241" lon="8.8980967"><ele>66.0</ele><time>2026-03-30T12:24:55Z</time></trkpt><trkpt lat="44.4855303" lon="8.898105"><ele>66.0</ele><time>2026-03-30T12:24:56Z</time></trkpt><trkpt lat="44.4854366" lon="8.8981128"><ele>66.0</ele><time>2026-03-30T12:24:57Z</time></trkpt><trkpt lat="44.4853443" lon="8.8981297"><ele>66.0</ele><time>2026-03-30T12:24:58Z</time></trkpt><trkpt lat="44.4852532" lon="8.8981399"><ele>67.0</ele><time>2026-03-30T12:24:59Z</time></trkpt><trkpt lat="44.4851621" lon="8.8981603"><ele>68.0</ele><time>2026-03-30T12:25:00Z</time></trkpt><trkpt lat="44.4850667" lon="8.8981764"><ele>69.0</ele><time>2026-03-30T12:25:01Z</time></trkpt><trkpt lat="44.4849765" lon="8.8981918"><ele>70.0</ele><time>2026-03-30T12:25:02Z</time></trkpt><trkpt lat="44.4848876" lon="8.8982131"><ele>71.0</ele><time>2026-03-30T12:25:03Z</time></trkpt><trkpt lat="44.4847972" lon="8.8982346"><ele>71.0</ele><time>2026-03-30T12:25:04Z</time></trkpt><trkpt lat="44.4847056" lon="8.8982617"><ele>71.0</ele><time>2026-03-30T12:25:05Z</time></trkpt><trkpt lat="44.4846102" lon="8.8982783"><ele>71.0</ele><time>2026-03-30T12:25:06.136Z</time></trkpt><trkpt lat="44.4845209" lon="8.8983008"><ele>71.0</ele><time>2026-03-30T12:25:07.137Z</time></trkpt><trkpt lat="44.4843461" lon="8.8983353"><ele>71.0</ele><time>2026-03-30T12:25:08.999Z</time></trkpt><trkpt lat="44.4842561" lon="8.8983549"><ele>71.0</ele><time>2026-03-30T12:25:09.999Z</time></trkpt><trkpt lat="44.4841688" lon="8.8983811"><ele>71.0</ele><time>2026-03-30T12:25:11.129Z</time></trkpt><trkpt lat="44.4840711" lon="8.898402"><ele>71.0</ele><time>2026-03-30T12:25:12.125Z</time></trkpt><trkpt lat="44.4838716" lon="8.8984547"><ele>71.0</ele><time>2026-03-30T12:25:14Z</time></trkpt><trkpt lat="44.4837717" lon="8.8984816"><ele>71.0</ele><time>2026-03-30T12:25:15.13Z</time></trkpt><trkpt lat="44.4836765" lon="8.8985017"><ele>71.0</ele><time>2026-03-30T12:25:16.127Z</time></trkpt><trkpt lat="44.4835835" lon="8.8985214"><ele>71.0</ele><time>2026-03-30T12:25:17.12Z</time></trkpt><trkpt lat="44.4833868" lon="8.8985649"><ele>70.0</ele><time>2026-03-30T12:25:19Z</time></trkpt><trkpt lat="44.4832888" lon="8.8985914"><ele>69.0</ele><time>2026-03-30T12:25:20.127Z</time></trkpt><trkpt lat="44.4831005" lon="8.8986418"><ele>68.0</ele><time>2026-03-30T12:25:22.129Z</time></trkpt><trkpt lat="44.4829145" lon="8.8986792"><ele>67.0</ele><time>2026-03-30T12:25:24Z</time></trkpt><trkpt lat="44.482814" lon="8.8987015"><ele>66.0</ele><time>2026-03-30T12:25:25.135Z</time></trkpt><trkpt lat="44.4826061" lon="8.8987482"><ele>65.0</ele><time>2026-03-30T12:25:27.145Z</time></trkpt><trkpt lat="44.482394" lon="8.8988046"><ele>65.0</ele><time>2026-03-30T12:25:29Z</time></trkpt><trkpt lat="44.4823017" lon="8.8988223"><ele>65.0</ele><time>2026-03-30T12:25:30.171Z</time></trkpt><trkpt lat="44.4821999" lon="8.8988426"><ele>65.0</ele><time>2026-03-30T12:25:31.163Z</time></trkpt><trkpt lat="44.4820957" lon="8.898863"><ele>65.0</ele><time>2026-03-30T12:25:32.166Z</time></trkpt><trkpt lat="44.4818882" lon="8.8988999"><ele>65.0</ele><time>2026-03-30T12:25:34Z</time></trkpt><trkpt lat="44.4817878" lon="8.8989163"><ele>65.0</ele><time>2026-03-30T12:25:35.135Z</time></trkpt><trkpt lat="44.4816889" lon="8.898937"><ele>65.0</ele><time>2026-03-30T12:25:36.148Z</time></trkpt><trkpt lat="44.4815886" lon="8.8989555"><ele>65.0</ele><time>2026-03-30T12:25:37.157Z</time></trkpt><trkpt lat="44.4813896" lon="8.8990006"><ele>65.0</ele><time>2026-03-30T12:25:38.999Z</time></trkpt><trkpt lat="44.4812864" lon="8.8990325"><ele>65.0</ele><time>2026-03-30T12:25:40.165Z</time></trkpt><trkpt lat="44.4811823" lon="8.8990587"><ele>65.0</ele><time>2026-03-30T12:25:41.13Z</time></trkpt><trkpt lat="44.4810811" lon="8.8990857"><ele>65.0</ele><time>2026-03-30T12:25:42.138Z</time></trkpt><trkpt lat="44.4808721" lon="8.8991307"><ele>65.0</ele><time>2026-03-30T12:25:44Z</time></trkpt><trkpt lat="44.480763" lon="8.8991537"><ele>65.0</ele><time>2026-03-30T12:25:44.999Z</time></trkpt><trkpt lat="44.4806529" lon="8.8991759"><ele>65.0</ele><time>2026-03-30T12:25:46.139Z</time></trkpt><trkpt lat="44.4805596" lon="8.8992006"><ele>65.0</ele><time>2026-03-30T12:25:47.133Z</time></trkpt><trkpt lat="44.480372" lon="8.8992472"><ele>65.25</ele><time>2026-03-30T12:25:49Z</time></trkpt><trkpt lat="44.4802727" lon="8.899266"><ele>65.5</ele><time>2026-03-30T12:25:49.999Z</time></trkpt><trkpt lat="44.4801736" lon="8.8992885"><ele>65.75</ele><time>2026-03-30T12:25:51.168Z</time></trkpt><trkpt lat="44.4800768" lon="8.8993083"><ele>66.0</ele><time>2026-03-30T12:25:52.121Z</time></trkpt><trkpt lat="44.4798958" lon="8.89935"><ele>66.0</ele><time>2026-03-30T12:25:54Z</time></trkpt><trkpt lat="44.4798157" lon="8.8993772"><ele>66.0</ele><time>2026-03-30T12:25:55.168Z</time></trkpt><trkpt lat="44.4797333" lon="8.8993934"><ele>66.0</ele><time>2026-03-30T12:25:56.137Z</time></trkpt><trkpt lat="44.4796553" lon="8.8994131"><ele>66.0</ele><time>2026-03-30T12:25:57.131Z</time></trkpt><trkpt lat="44.4794817" lon="8.89945"><ele>66.0</ele><time>2026-03-30T12:25:59Z</time></trkpt><trkpt lat="44.479387" lon="8.899469"><ele>65.25</ele><time>2026-03-30T12:26:00.128Z</time></trkpt><trkpt lat="44.4792945" lon="8.8994838"><ele>64.5</ele><time>2026-03-30T12:26:01.139Z</time></trkpt><trkpt lat="44.4791944" lon="8.8994899"><ele>63.75</ele><time>2026-03-30T12:26:02.117Z</time></trkpt><trkpt lat="44.479012" lon="8.8995174"><ele>63.0</ele><time>2026-03-30T12:26:04Z</time></trkpt><trkpt lat="44.4789177" lon="8.8995326"><ele>63.0</ele><time>2026-03-30T12:26:05.15Z</time></trkpt><trkpt lat="44.4788349" lon="8.8995631"><ele>63.0</ele><time>2026-03-30T12:26:06.121Z</time></trkpt><trkpt lat="44.4787542" lon="8.899599"><ele>63.0</ele><time>2026-03-30T12:26:07.128Z</time></trkpt><trkpt lat="44.478586" lon="8.8996345"><ele>63.0</ele><time>2026-03-30T12:26:08.999Z</time></trkpt><trkpt lat="44.4785063" lon="8.8996462"><ele>63.0</ele><time>2026-03-30T12:26:10.167Z</time></trkpt><trkpt lat="44.4783484" lon="8.8996838"><ele>63.166666666666664</ele><time>2026-03-30T12:26:11.999Z</time></trkpt><trkpt lat="44.4782757" lon="8.8996959"><ele>63.33333333333333</ele><time>2026-03-30T12:26:13Z</time></trkpt><trkpt lat="44.4782134" lon="8.8997161"><ele>63.5</ele><time>2026-03-30T12:26:14Z</time></trkpt><trkpt lat="44.4781388" lon="8.8997118"><ele>63.666666666666664</ele><time>2026-03-30T12:26:15.155Z</time></trkpt><trkpt lat="44.4780058" lon="8.8997011"><ele>63.83333333333333</ele><time>2026-03-30T12:26:17Z</time></trkpt><trkpt lat="44.4779344" lon="8.8996953"><ele>64.0</ele><time>2026-03-30T12:26:18Z</time></trkpt><trkpt lat="44.4778569" lon="8.8996867"><ele>64.33333333333333</ele><time>2026-03-30T12:26:19Z</time></trkpt><trkpt lat="44.4777258" lon="8.8996565"><ele>64.66666666666667</ele><time>2026-03-30T12:26:21.144Z</time></trkpt><trkpt lat="44.4775755" lon="8.8996057"><ele>65.0</ele><time>2026-03-30T12:26:24Z</time></trkpt><trkpt lat="44.4773965" lon="8.8995223"><ele>65.0</ele><time>2026-03-30T12:26:39Z</time></trkpt><trkpt lat="44.4772733" lon="8.8995034"><ele>65.0</ele><time>2026-03-30T12:26:40Z</time></trkpt><trkpt lat="44.4771692" lon="8.8994759"><ele>65.0</ele><time>2026-03-30T12:26:41Z</time></trkpt><trkpt lat="44.4770726" lon="8.8994623"><ele>65.0</ele><time>2026-03-30T12:26:42Z</time></trkpt><trkpt lat="44.4769686" lon="8.8994288"><ele>65.0</ele><time>2026-03-30T12:26:43Z</time></trkpt><trkpt lat="44.4768673" lon="8.8993992"><ele>63.333333333333336</ele><time>2026-03-30T12:26:44.165Z</time></trkpt><trkpt lat="44.4767624" lon="8.8993718"><ele>61.66666666666667</ele><time>2026-03-30T12:26:45.139Z</time></trkpt><trkpt lat="44.476646" lon="8.8993401"><ele>60.0</ele><time>2026-03-30T12:26:46.166Z</time></trkpt><trkpt lat="44.4764234" lon="8.8992842"><ele>60.25</ele><time>2026-03-30T12:26:48Z</time></trkpt><trkpt lat="44.4763041" lon="8.899245"><ele>60.5</ele><time>2026-03-30T12:26:49Z</time></trkpt><trkpt lat="44.4762003" lon="8.8992065"><ele>60.75</ele><time>2026-03-30T12:26:50Z</time></trkpt><trkpt lat="44.4760764" lon="8.8991744"><ele>61.0</ele><time>2026-03-30T12:26:51Z</time></trkpt><trkpt lat="44.4759579" lon="8.8991431"><ele>61.0</ele><time>2026-03-30T12:26:52.162Z</time></trkpt><trkpt lat="44.4757347" lon="8.8990778"><ele>61.0</ele><time>2026-03-30T12:26:54Z</time></trkpt><trkpt lat="44.4756267" lon="8.8990451"><ele>61.0</ele><time>2026-03-30T12:26:55.17Z</time></trkpt><trkpt lat="44.4755304" lon="8.8990258"><ele>61.0</ele><time>2026-03-30T12:26:56.143Z</time></trkpt><trkpt lat="44.4754377" lon="8.8990106"><ele>61.0</ele><time>2026-03-30T12:26:57.134Z</time></trkpt><trkpt lat="44.4752424" lon="8.8990029"><ele>61.0</ele><time>2026-03-30T12:26:59Z</time></trkpt><trkpt lat="44.4751468" lon="8.8990151"><ele>61.0</ele><time>2026-03-30T12:27:00.146Z</time></trkpt><trkpt lat="44.4750643" lon="8.8990307"><ele>61.0</ele><time>2026-03-30T12:27:01.115Z</time></trkpt><trkpt lat="44.4749456" lon="8.8990678"><ele>61.0</ele><time>2026-03-30T12:27:03Z</time></trkpt><trkpt lat="44.4748839" lon="8.8990947"><ele>60.99999999999999</ele><time>2026-03-30T12:27:05.139Z</time></trkpt><trkpt lat="44.4748168" lon="8.8991077"><ele>60.99999999999999</ele><time>2026-03-30T12:27:11Z</time></trkpt><trkpt lat="44.4747539" lon="8.8991231"><ele>61.0</ele><time>2026-03-30T12:27:29Z</time></trkpt><trkpt lat="44.4746171" lon="8.899218"><ele>61.0</ele><time>2026-03-30T12:27:32Z</time></trkpt><trkpt lat="44.4744972" lon="8.8992888"><ele>60.666666666666664</ele><time>2026-03-30T12:27:34Z</time></trkpt><trkpt lat="44.4744247" lon="8.8993207"><ele>60.33333333333333</ele><time>2026-03-30T12:27:35Z</time></trkpt><trkpt lat="44.4743424" lon="8.8993633"><ele>60.0</ele><time>2026-03-30T12:27:36Z</time></trkpt><trkpt lat="44.4742611" lon="8.8994053"><ele>59.66666666666667</ele><time>2026-03-30T12:27:37Z</time></trkpt><trkpt lat="44.474176" lon="8.8994475"><ele>59.333333333333336</ele><time>2026-03-30T12:27:38Z</time></trkpt><trkpt lat="44.4740944" lon="8.8994925"><ele>59.0</ele><time>2026-03-30T12:27:39Z</time></trkpt><trkpt lat="44.4740065" lon="8.8995462"><ele>59.00000000000001</ele><time>2026-03-30T12:27:40Z</time></trkpt><trkpt lat="44.4739274" lon="8.8995968"><ele>59.0</ele><time>2026-03-30T12:27:40.999Z</time></trkpt><trkpt lat="44.4738575" lon="8.8996514"><ele>59.0</ele><time>2026-03-30T12:27:42Z</time></trkpt><trkpt lat="44.4737853" lon="8.8997066"><ele>59.0</ele><time>2026-03-30T12:27:43Z</time></trkpt><trkpt lat="44.4737171" lon="8.8997665"><ele>59.00000000000001</ele><time>2026-03-30T12:27:44Z</time></trkpt><trkpt lat="44.4736431" lon="8.8998329"><ele>59.0</ele><time>2026-03-30T12:27:45Z</time></trkpt><trkpt lat="44.4735563" lon="8.8998929"><ele>58.66666666666667</ele><time>2026-03-30T12:27:45.999Z</time></trkpt><trkpt lat="44.4734783" lon="8.8999512"><ele>58.333333333333336</ele><time>2026-03-30T12:27:47Z</time></trkpt><trkpt lat="44.4734058" lon="8.9000148"><ele>58.0</ele><time>2026-03-30T12:27:48Z</time></trkpt><trkpt lat="44.4733313" lon="8.900083"><ele>57.66666666666667</ele><time>2026-03-30T12:27:49Z</time></trkpt><trkpt lat="44.4732554" lon="8.9001498"><ele>57.333333333333336</ele><time>2026-03-30T12:27:50Z</time></trkpt><trkpt lat="44.4731762" lon="8.9002198"><ele>57.0</ele><time>2026-03-30T12:27:51Z</time></trkpt><trkpt lat="44.4730986" lon="8.9002872"><ele>57.0</ele><time>2026-03-30T12:27:52Z</time></trkpt><trkpt lat="44.4730095" lon="8.9003651"><ele>57.0</ele><time>2026-03-30T12:27:53Z</time></trkpt><trkpt lat="44.4729187" lon="8.9004426"><ele>57.0</ele><time>2026-03-30T12:27:54Z</time></trkpt><trkpt lat="44.4728303" lon="8.9005184"><ele>57.0</ele><time>2026-03-30T12:27:55Z</time></trkpt><trkpt lat="44.4727415" lon="8.9006006"><ele>57.0</ele><time>2026-03-30T12:27:56Z</time></trkpt><trkpt lat="44.4726582" lon="8.9006783"><ele>57.2</ele><time>2026-03-30T12:27:57Z</time></trkpt><trkpt lat="44.4725735" lon="8.9007605"><ele>57.400000000000006</ele><time>2026-03-30T12:27:58Z</time></trkpt><trkpt lat="44.4724897" lon="8.9008292"><ele>57.599999999999994</ele><time>2026-03-30T12:27:59Z</time></trkpt><trkpt lat="44.4724016" lon="8.9008823"><ele>57.8</ele><time>2026-03-30T12:28:00Z</time></trkpt><trkpt lat="44.4723216" lon="8.9009375"><ele>58.0</ele><time>2026-03-30T12:28:01Z</time></trkpt><trkpt lat="44.4722501" lon="8.9009692"><ele>57.99999999999999</ele><time>2026-03-30T12:28:02Z</time></trkpt><trkpt lat="44.4721839" lon="8.9010071"><ele>58.0</ele><time>2026-03-30T12:28:02.999Z</time></trkpt><trkpt lat="44.4721218" lon="8.9010265"><ele>58.0</ele><time>2026-03-30T12:28:03.999Z</time></trkpt><trkpt lat="44.4720171" lon="8.9010552"><ele>58.0</ele><time>2026-03-30T12:28:06Z</time></trkpt><trkpt lat="44.4719328" lon="8.9010883"><ele>57.99999999999999</ele><time>2026-03-30T12:28:07.999Z</time></trkpt><trkpt lat="44.4718646" lon="8.9011128"><ele>58.0</ele><time>2026-03-30T12:28:11Z</time></trkpt><trkpt lat="44.4717908" lon="8.9011289"><ele>57.75</ele><time>2026-03-30T12:28:20Z</time></trkpt><trkpt lat="44.4716602" lon="8.9012003"><ele>57.5</ele><time>2026-03-30T12:28:24Z</time></trkpt><trkpt lat="44.4715698" lon="8.9012269"><ele>57.25</ele><time>2026-03-30T12:28:26Z</time></trkpt><trkpt lat="44.4714326" lon="8.9012203"><ele>57.0</ele><time>2026-03-30T12:28:28Z</time></trkpt><trkpt lat="44.4713241" lon="8.9012398"><ele>56.33333333333333</ele><time>2026-03-30T12:28:30.142Z</time></trkpt><trkpt lat="44.4711522" lon="8.9012712"><ele>55.666666666666664</ele><time>2026-03-30T12:28:33Z</time></trkpt><trkpt lat="44.4710316" lon="8.9012877"><ele>55.0</ele><time>2026-03-30T12:28:35.112Z</time></trkpt><trkpt lat="44.47085" lon="8.9012917"><ele>55.0</ele><time>2026-03-30T12:28:38Z</time></trkpt><trkpt lat="44.4707376" lon="8.9013013"><ele>55.0</ele><time>2026-03-30T12:28:40.139Z</time></trkpt><trkpt lat="44.4706656" lon="8.9013"><ele>55.0</ele><time>2026-03-30T12:28:41.136Z</time></trkpt><trkpt lat="44.4704841" lon="8.9013176"><ele>55.0</ele><time>2026-03-30T12:28:44Z</time></trkpt><trkpt lat="44.4704097" lon="8.9013206"><ele>55.0</ele><time>2026-03-30T12:28:45.131Z</time></trkpt><trkpt lat="44.4703184" lon="8.9013085"><ele>55.0</ele><time>2026-03-30T12:28:46.151Z</time></trkpt><trkpt lat="44.4702432" lon="8.9013145"><ele>55.0</ele><time>2026-03-30T12:28:47.161Z</time></trkpt><trkpt lat="44.4700767" lon="8.9013053"><ele>55.0</ele><time>2026-03-30T12:28:49Z</time></trkpt><trkpt lat="44.4699729" lon="8.901303"><ele>55.0</ele><time>2026-03-30T12:28:50.153Z</time></trkpt><trkpt lat="44.4698778" lon="8.9012916"><ele>55.0</ele><time>2026-03-30T12:28:51.142Z</time></trkpt><trkpt lat="44.4697634" lon="8.9012832"><ele>54.5</ele><time>2026-03-30T12:28:52.175Z</time></trkpt><trkpt lat="44.4695362" lon="8.9012502"><ele>54.0</ele><time>2026-03-30T12:28:54Z</time></trkpt><trkpt lat="44.4694303" lon="8.9012389"><ele>53.5</ele><time>2026-03-30T12:28:55.131Z</time></trkpt><trkpt lat="44.4693308" lon="8.9012273"><ele>53.0</ele><time>2026-03-30T12:28:56.129Z</time></trkpt><trkpt lat="44.4692336" lon="8.9012073"><ele>53.0</ele><time>2026-03-30T12:28:57.132Z</time></trkpt><trkpt lat="44.4690328" lon="8.9011682"><ele>53.0</ele><time>2026-03-30T12:28:59Z</time></trkpt><trkpt lat="44.4689397" lon="8.9011386"><ele>53.0</ele><time>2026-03-30T12:29:00.167Z</time></trkpt><trkpt lat="44.4688416" lon="8.9011096"><ele>53.0</ele><time>2026-03-30T12:29:01.143Z</time></trkpt><trkpt lat="44.4687472" lon="8.9010889"><ele>52.75</ele><time>2026-03-30T12:29:02.14Z</time></trkpt><trkpt lat="44.4685528" lon="8.9010438"><ele>52.5</ele><time>2026-03-30T12:29:04Z</time></trkpt><trkpt lat="44.4684482" lon="8.9010128"><ele>52.25</ele><time>2026-03-30T12:29:05Z</time></trkpt><trkpt lat="44.4683419" lon="8.9009758"><ele>52.0</ele><time>2026-03-30T12:29:06Z</time></trkpt><trkpt lat="44.4682395" lon="8.9009409"><ele>52.400000000000006</ele><time>2026-03-30T12:29:07.124Z</time></trkpt><trkpt lat="44.4680596" lon="8.9008635"><ele>52.800000000000004</ele><time>2026-03-30T12:29:09Z</time></trkpt><trkpt lat="44.4679802" lon="8.900818"><ele>53.2</ele><time>2026-03-30T12:29:10.172Z</time></trkpt><trkpt lat="44.4679162" lon="8.9007574"><ele>53.6</ele><time>2026-03-30T12:29:11.174Z</time></trkpt><trkpt lat="44.4678695" lon="8.9006704"><ele>54.0</ele><time>2026-03-30T12:29:12.172Z</time></trkpt><trkpt lat="44.4678417" lon="8.9004693"><ele>54.0</ele><time>2026-03-30T12:29:14Z</time></trkpt><trkpt lat="44.4678619" lon="8.9003624"><ele>54.00000000000001</ele><time>2026-03-30T12:29:15.142Z</time></trkpt><trkpt lat="44.467912" lon="8.9002752"><ele>54.00000000000001</ele><time>2026-03-30T12:29:16.175Z</time></trkpt><trkpt lat="44.4679665" lon="8.9001785"><ele>54.0</ele><time>2026-03-30T12:29:17.135Z</time></trkpt><trkpt lat="44.4680744" lon="8.8999669"><ele>54.0</ele><time>2026-03-30T12:29:19Z</time></trkpt><trkpt lat="44.4681305" lon="8.8998579"><ele>54.0</ele><time>2026-03-30T12:29:20.138Z</time></trkpt><trkpt lat="44.4681825" lon="8.8997619"><ele>54.00000000000001</ele><time>2026-03-30T12:29:21.157Z</time></trkpt><trkpt lat="44.4682873" lon="8.8995712"><ele>54.00000000000001</ele><time>2026-03-30T12:29:23Z</time></trkpt><trkpt lat="44.4683458" lon="8.8994884"><ele>54.0</ele><time>2026-03-30T12:29:24.158Z</time></trkpt><trkpt lat="44.4684058" lon="8.8994164"><ele>54.0</ele><time>2026-03-30T12:29:25.111Z</time></trkpt><trkpt lat="44.4684683" lon="8.8993631"><ele>54.0</ele><time>2026-03-30T12:29:26.131Z</time></trkpt><trkpt lat="44.4686202" lon="8.899311"><ele>54.0</ele><time>2026-03-30T12:29:29Z</time></trkpt><trkpt lat="44.468732" lon="8.8992916"><ele>54.0</ele><time>2026-03-30T12:29:32Z</time></trkpt><trkpt lat="44.4688132" lon="8.8992801"><ele>54.0</ele><time>2026-03-30T12:29:34Z</time></trkpt><trkpt lat="44.4689292" lon="8.8992789"><ele>55.2</ele><time>2026-03-30T12:29:37Z</time></trkpt><trkpt lat="44.4690062" lon="8.899292"><ele>56.400000000000006</ele><time>2026-03-30T12:29:38Z</time></trkpt><trkpt lat="44.4690773" lon="8.8993073"><ele>57.6</ele><time>2026-03-30T12:29:39Z</time></trkpt><trkpt lat="44.469216" lon="8.8993443"><ele>58.8</ele><time>2026-03-30T12:29:41Z</time></trkpt><trkpt lat="44.4693104" lon="8.8993882"><ele>60.0</ele><time>2026-03-30T12:29:42Z</time></trkpt><trkpt lat="44.4693937" lon="8.8994387"><ele>60.0</ele><time>2026-03-30T12:29:43Z</time></trkpt><trkpt lat="44.4694827" lon="8.8994852"><ele>60.0</ele><time>2026-03-30T12:29:44Z</time></trkpt><trkpt lat="44.4695725" lon="8.8995292"><ele>60.0</ele><time>2026-03-30T12:29:45Z</time></trkpt><trkpt lat="44.4696583" lon="8.8995638"><ele>60.0</ele><time>2026-03-30T12:29:46Z</time></trkpt><trkpt lat="44.4697416" lon="8.8996049"><ele>60.0</ele><time>2026-03-30T12:29:47Z</time></trkpt><trkpt lat="44.4698198" lon="8.8996498"><ele>59.833333333333336</ele><time>2026-03-30T12:29:48Z</time></trkpt><trkpt lat="44.4698847" lon="8.8997153"><ele>59.66666666666667</ele><time>2026-03-30T12:29:49Z</time></trkpt><trkpt lat="44.4699449" lon="8.8998045"><ele>59.5</ele><time>2026-03-30T12:29:50Z</time></trkpt><trkpt lat="44.4699921" lon="8.8999138"><ele>59.333333333333336</ele><time>2026-03-30T12:29:50.999Z</time></trkpt><trkpt lat="44.4700164" lon="8.900036"><ele>59.16666666666667</ele><time>2026-03-30T12:29:52Z</time></trkpt><trkpt lat="44.4700339" lon="8.9001419"><ele>59.0</ele><time>2026-03-30T12:29:53Z</time></trkpt><trkpt lat="44.4700352" lon="8.9003186"><ele>58.6</ele><time>2026-03-30T12:29:55.165Z</time></trkpt><trkpt lat="44.4700218" lon="8.9004144"><ele>58.2</ele><time>2026-03-30T12:29:56.173Z</time></trkpt><trkpt lat="44.4700159" lon="8.9006456"><ele>57.800000000000004</ele><time>2026-03-30T12:29:59Z</time></trkpt><trkpt lat="44.4700236" lon="8.900754"><ele>57.400000000000006</ele><time>2026-03-30T12:30:01Z</time></trkpt><trkpt lat="44.4700213" lon="8.9009179"><ele>57.0</ele><time>2026-03-30T12:30:03Z</time></trkpt><trkpt lat="44.4700252" lon="8.9010149"><ele>56.6</ele><time>2026-03-30T12:30:04Z</time></trkpt><trkpt lat="44.4700277" lon="8.901231"><ele>56.2</ele><time>2026-03-30T12:30:05.999Z</time></trkpt><trkpt lat="44.4700305" lon="8.9013375"><ele>55.8</ele><time>2026-03-30T12:30:07Z</time></trkpt><trkpt lat="44.4700352" lon="8.9014482"><ele>55.4</ele><time>2026-03-30T12:30:08Z</time></trkpt><trkpt lat="44.4700423" lon="8.901541"><ele>55.0</ele><time>2026-03-30T12:30:09Z</time></trkpt><trkpt lat="44.4700626" lon="8.9017714"><ele>55.0</ele><time>2026-03-30T12:30:12.142Z</time></trkpt><trkpt lat="44.4700766" lon="8.9019182"><ele>55.0</ele><time>2026-03-30T12:30:14Z</time></trkpt><trkpt lat="44.4701052" lon="8.9021315"><ele>55.0</ele><time>2026-03-30T12:30:16Z</time></trkpt><trkpt lat="44.4701244" lon="8.9022466"><ele>55.0</ele><time>2026-03-30T12:30:17Z</time></trkpt><trkpt lat="44.4701485" lon="8.9023441"><ele>55.0</ele><time>2026-03-30T12:30:18Z</time></trkpt><trkpt lat="44.4701697" lon="8.9024476"><ele>55.0</ele><time>2026-03-30T12:30:19Z</time></trkpt><trkpt lat="44.4701896" lon="8.9025487"><ele>55.0</ele><time>2026-03-30T12:30:20.12Z</time></trkpt><trkpt lat="44.4702271" lon="8.9027123"><ele>55.0</ele><time>2026-03-30T12:30:22.151Z</time></trkpt><trkpt lat="44.4702634" lon="8.9028889"><ele>55.0</ele><time>2026-03-30T12:30:24Z</time></trkpt><trkpt lat="44.470284" lon="8.9029777"><ele>55.0</ele><time>2026-03-30T12:30:25.154Z</time></trkpt><trkpt lat="44.4703186" lon="8.9031109"><ele>55.0</ele><time>2026-03-30T12:30:27.149Z</time></trkpt><trkpt lat="44.4703316" lon="8.9032438"><ele>55.0</ele><time>2026-03-30T12:30:29Z</time></trkpt><trkpt lat="44.4702668" lon="8.903439"><ele>55.0</ele><time>2026-03-30T12:30:32Z</time></trkpt><trkpt lat="44.4702252" lon="8.9035115"><ele>55.0</ele><time>2026-03-30T12:30:32.999Z</time></trkpt><trkpt lat="44.4701431" lon="8.9036168"><ele>55.0</ele><time>2026-03-30T12:30:35Z</time></trkpt><trkpt lat="44.4700981" lon="8.9036927"><ele>55.0</ele><time>2026-03-30T12:30:36Z</time></trkpt><trkpt lat="44.470049" lon="8.9037566"><ele>55.0</ele><time>2026-03-30T12:30:37.141Z</time></trkpt><trkpt lat="44.4699166" lon="8.9039077"><ele>55.0</ele><time>2026-03-30T12:30:39Z</time></trkpt><trkpt lat="44.4698493" lon="8.9039739"><ele>55.0</ele><time>2026-03-30T12:30:40.174Z</time></trkpt><trkpt lat="44.4697105" lon="8.9041078"><ele>55.0</ele><time>2026-03-30T12:30:42.178Z</time></trkpt><trkpt lat="44.4695699" lon="8.9042368"><ele>55.0</ele><time>2026-03-30T12:30:44Z</time></trkpt><trkpt lat="44.4695023" lon="8.9042993"><ele>55.0</ele><time>2026-03-30T12:30:45Z</time></trkpt><trkpt lat="44.4694367" lon="8.904352"><ele>55.0</ele><time>2026-03-30T12:30:46Z</time></trkpt><trkpt lat="44.4693725" lon="8.9044032"><ele>55.0</ele><time>2026-03-30T12:30:47Z</time></trkpt><trkpt lat="44.4693163" lon="8.9044502"><ele>54.5</ele><time>2026-03-30T12:30:47.999Z</time></trkpt><trkpt lat="44.4692625" lon="8.9044984"><ele>54.0</ele><time>2026-03-30T12:30:49.148Z</time></trkpt><trkpt lat="44.4691815" lon="8.9045685"><ele>53.5</ele><time>2026-03-30T12:30:51.159Z</time></trkpt><trkpt lat="44.4691641" lon="8.9047104"><ele>53.0</ele><time>2026-03-30T12:30:54Z</time></trkpt><trkpt lat="44.4692746" lon="8.9049463"><ele>53.0</ele><time>2026-03-30T12:30:58Z</time></trkpt><trkpt lat="44.4693383" lon="8.9050665"><ele>53.0</ele><time>2026-03-30T12:30:59Z</time></trkpt><trkpt lat="44.4693997" lon="8.9051417"><ele>53.0</ele><time>2026-03-30T12:31:00.134Z</time></trkpt><trkpt lat="44.4694716" lon="8.9052276"><ele>53.0</ele><time>2026-03-30T12:31:01.18Z</time></trkpt><trkpt lat="44.4695472" lon="8.9052854"><ele>53.0</ele><time>2026-03-30T12:31:02.116Z</time></trkpt><trkpt lat="44.4696963" lon="8.9052715"><ele>53.0</ele><time>2026-03-30T12:31:04Z</time></trkpt><trkpt lat="44.4697651" lon="8.9052087"><ele>53.0</ele><time>2026-03-30T12:31:05.136Z</time></trkpt><trkpt lat="44.4698881" lon="8.9050389"><ele>53.0</ele><time>2026-03-30T12:31:07.144Z</time></trkpt><trkpt lat="44.4700045" lon="8.9048685"><ele>53.0</ele><time>2026-03-30T12:31:09Z</time></trkpt><trkpt lat="44.4701101" lon="8.9047953"><ele>53.75</ele><time>2026-03-30T12:31:10.149Z</time></trkpt><trkpt lat="44.4702113" lon="8.9046429"><ele>54.5</ele><time>2026-03-30T12:31:12.149Z</time></trkpt><trkpt lat="44.4702988" lon="8.9045139"><ele>55.25</ele><time>2026-03-30T12:31:14Z</time></trkpt><trkpt lat="44.4704224" lon="8.9044243"><ele>56.0</ele><time>2026-03-30T12:31:16.124Z</time></trkpt><trkpt lat="44.4705703" lon="8.9044083"><ele>56.333333333333336</ele><time>2026-03-30T12:31:18Z</time></trkpt><trkpt lat="44.4706472" lon="8.9044474"><ele>56.66666666666667</ele><time>2026-03-30T12:31:19Z</time></trkpt><trkpt lat="44.4706709" lon="8.9045356"><ele>57.0</ele><time>2026-03-30T12:31:20Z</time></trkpt><trkpt lat="44.4707344" lon="8.9046006"><ele>57.33333333333333</ele><time>2026-03-30T12:31:21.151Z</time></trkpt><trkpt lat="44.4707914" lon="8.9046679"><ele>57.666666666666664</ele><time>2026-03-30T12:31:22.103Z</time></trkpt><trkpt lat="44.4708925" lon="8.9047932"><ele>58.0</ele><time>2026-03-30T12:31:24Z</time></trkpt><trkpt lat="44.4709389" lon="8.9048553"><ele>58.0</ele><time>2026-03-30T12:31:25.142Z</time></trkpt><trkpt lat="44.4710302" lon="8.9049772"><ele>58.0</ele><time>2026-03-30T12:31:27.17Z</time></trkpt><trkpt lat="44.4711058" lon="8.905086"><ele>58.0</ele><time>2026-03-30T12:31:29Z</time></trkpt><trkpt lat="44.471194" lon="8.9051923"><ele>58.0</ele><time>2026-03-30T12:31:31Z</time></trkpt><trkpt lat="44.471339" lon="8.9053476"><ele>58.666666666666664</ele><time>2026-03-30T12:31:34Z</time></trkpt><trkpt lat="44.4713857" lon="8.9054073"><ele>59.33333333333333</ele><time>2026-03-30T12:31:35.168Z</time></trkpt><trkpt lat="44.4715278" lon="8.905572"><ele>60.0</ele><time>2026-03-30T12:31:37.999Z</time></trkpt><trkpt lat="44.471575" lon="8.9056338"><ele>60.66666666666667</ele><time>2026-03-30T12:31:39Z</time></trkpt><trkpt lat="44.4716234" lon="8.9057011"><ele>61.333333333333336</ele><time>2026-03-30T12:31:40Z</time></trkpt><trkpt lat="44.4716703" lon="8.9057619"><ele>62.0</ele><time>2026-03-30T12:31:41.139Z</time></trkpt><trkpt lat="44.4717654" lon="8.9058987"><ele>60.8</ele><time>2026-03-30T12:31:44Z</time></trkpt><trkpt lat="44.4718289" lon="8.9059746"><ele>59.6</ele><time>2026-03-30T12:31:47.999Z</time></trkpt><trkpt lat="44.4718746" lon="8.9060364"><ele>58.39999999999999</ele><time>2026-03-30T12:31:50.154Z</time></trkpt><trkpt lat="44.4719198" lon="8.9061066"><ele>57.199999999999996</ele><time>2026-03-30T12:31:51.187Z</time></trkpt><trkpt lat="44.4720077" lon="8.9062761"><ele>56.0</ele><time>2026-03-30T12:31:54Z</time></trkpt><trkpt lat="44.4720654" lon="8.9064081"><ele>58.25</ele><time>2026-03-30T12:31:56Z</time></trkpt><trkpt lat="44.4721269" lon="8.9065371"><ele>60.5</ele><time>2026-03-30T12:31:57.999Z</time></trkpt><trkpt lat="44.4722005" lon="8.9066655"><ele>62.75</ele><time>2026-03-30T12:32:00.148Z</time></trkpt><trkpt lat="44.472262" lon="8.9068068"><ele>65.0</ele><time>2026-03-30T12:32:02.124Z</time></trkpt><trkpt lat="44.4723031" lon="8.9069727"><ele>65.0</ele><time>2026-03-30T12:32:04Z</time></trkpt><trkpt lat="44.4723161" lon="8.9070682"><ele>65.0</ele><time>2026-03-30T12:32:05.149Z</time></trkpt><trkpt lat="44.4723219" lon="8.907239"><ele>65.0</ele><time>2026-03-30T12:32:07.127Z</time></trkpt><trkpt lat="44.4723216" lon="8.9073711"><ele>65.0</ele><time>2026-03-30T12:32:09Z</time></trkpt><trkpt lat="44.472319" lon="8.9075263"><ele>65.0</ele><time>2026-03-30T12:32:11Z</time></trkpt><trkpt lat="44.4723035" lon="8.9076233"><ele>64.0</ele><time>2026-03-30T12:32:14Z</time></trkpt><trkpt lat="44.4722234" lon="8.9077448"><ele>63.0</ele><time>2026-03-30T12:32:15.156Z</time></trkpt><trkpt lat="44.4721759" lon="8.9078099"><ele>62.0</ele><time>2026-03-30T12:32:16.169Z</time></trkpt><trkpt lat="44.4720226" lon="8.9079753"><ele>61.0</ele><time>2026-03-30T12:32:19Z</time></trkpt><trkpt lat="44.4719681" lon="8.9080334"><ele>60.0</ele><time>2026-03-30T12:32:20Z</time></trkpt><trkpt lat="44.4719147" lon="8.9080858"><ele>59.6</ele><time>2026-03-30T12:32:21.172Z</time></trkpt><trkpt lat="44.4717971" lon="8.9082094"><ele>59.2</ele><time>2026-03-30T12:32:24Z</time></trkpt><trkpt lat="44.471725" lon="8.9082924"><ele>58.8</ele><time>2026-03-30T12:32:26Z</time></trkpt><trkpt lat="44.4716794" lon="8.9083712"><ele>58.4</ele><time>2026-03-30T12:32:28Z</time></trkpt><trkpt lat="44.4716789" lon="8.9084712"><ele>58.0</ele><time>2026-03-30T12:32:30Z</time></trkpt><trkpt lat="44.4716847" lon="8.9085671"><ele>57.99999999999999</ele><time>2026-03-30T12:32:31Z</time></trkpt><trkpt lat="44.471751" lon="8.9086746"><ele>58.0</ele><time>2026-03-30T12:32:33Z</time></trkpt><trkpt lat="44.4718002" lon="8.9087396"><ele>58.0</ele><time>2026-03-30T12:32:34Z</time></trkpt><trkpt lat="44.4718545" lon="8.9088022"><ele>58.0</ele><time>2026-03-30T12:32:35Z</time></trkpt><trkpt lat="44.4719079" lon="8.9088682"><ele>57.99999999999999</ele><time>2026-03-30T12:32:36Z</time></trkpt><trkpt lat="44.47197" lon="8.908938"><ele>58.0</ele><time>2026-03-30T12:32:37Z</time></trkpt><trkpt lat="44.472028" lon="8.9090008"><ele>58.0</ele><time>2026-03-30T12:32:38Z</time></trkpt><trkpt lat="44.4720843" lon="8.9090615"><ele>58.0</ele><time>2026-03-30T12:32:39Z</time></trkpt><trkpt lat="44.4721454" lon="8.9091232"><ele>58.0</ele><time>2026-03-30T12:32:40Z</time></trkpt><trkpt lat="44.4722547" lon="8.9092037"><ele>58.0</ele><time>2026-03-30T12:32:42.14Z</time></trkpt><trkpt lat="44.4723946" lon="8.9093"><ele>58.0</ele><time>2026-03-30T12:32:44Z</time></trkpt><trkpt lat="44.4724622" lon="8.909347"><ele>58.166666666666664</ele><time>2026-03-30T12:32:45.138Z</time></trkpt><trkpt lat="44.4725245" lon="8.909394"><ele>58.33333333333333</ele><time>2026-03-30T12:32:46.12Z</time></trkpt><trkpt lat="44.472592" lon="8.9094425"><ele>58.5</ele><time>2026-03-30T12:32:47.102Z</time></trkpt><trkpt lat="44.4727228" lon="8.9095399"><ele>58.66666666666667</ele><time>2026-03-30T12:32:49Z</time></trkpt><trkpt lat="44.4727932" lon="8.9095924"><ele>58.833333333333336</ele><time>2026-03-30T12:32:50Z</time></trkpt><trkpt lat="44.4728555" lon="8.9096323"><ele>59.0</ele><time>2026-03-30T12:32:51.134Z</time></trkpt><trkpt lat="44.4729231" lon="8.9096745"><ele>59.0</ele><time>2026-03-30T12:32:52.143Z</time></trkpt><trkpt lat="44.4730486" lon="8.9097844"><ele>59.00000000000001</ele><time>2026-03-30T12:32:54Z</time></trkpt><trkpt lat="44.4731012" lon="8.9098507"><ele>59.00000000000001</ele><time>2026-03-30T12:32:55.166Z</time></trkpt><trkpt lat="44.4731533" lon="8.9099309"><ele>59.0</ele><time>2026-03-30T12:32:56.14Z</time></trkpt><trkpt lat="44.4732018" lon="8.910081"><ele>59.0</ele><time>2026-03-30T12:32:58Z</time></trkpt><trkpt lat="44.473241" lon="8.9101603"><ele>59.00000000000001</ele><time>2026-03-30T12:32:59Z</time></trkpt><trkpt lat="44.4732836" lon="8.9102583"><ele>59.0</ele><time>2026-03-30T12:33:00.128Z</time></trkpt><trkpt lat="44.4733137" lon="8.9103491"><ele>59.0</ele><time>2026-03-30T12:33:01.136Z</time></trkpt><trkpt lat="44.4733483" lon="8.9104298"><ele>59.0</ele><time>2026-03-30T12:33:02.147Z</time></trkpt><trkpt lat="44.4734382" lon="8.9105718"><ele>59.00000000000001</ele><time>2026-03-30T12:33:04Z</time></trkpt><trkpt lat="44.473489" lon="8.9106255"><ele>59.0</ele><time>2026-03-30T12:33:05.134Z</time></trkpt><trkpt lat="44.4735872" lon="8.9107294"><ele>59.0</ele><time>2026-03-30T12:33:07.148Z</time></trkpt><trkpt lat="44.4736883" lon="8.9108644"><ele>59.00000000000001</ele><time>2026-03-30T12:33:09Z</time></trkpt><trkpt lat="44.4737374" lon="8.9109319"><ele>59.00000000000001</ele><time>2026-03-30T12:33:10.169Z</time></trkpt><trkpt lat="44.4737944" lon="8.9110033"><ele>59.0</ele><time>2026-03-30T12:33:11.135Z</time></trkpt><trkpt lat="44.4738509" lon="8.911076"><ele>59.0</ele><time>2026-03-30T12:33:12.161Z</time></trkpt><trkpt lat="44.473957" lon="8.9112086"><ele>59.0</ele><time>2026-03-30T12:33:14Z</time></trkpt><trkpt lat="44.4740107" lon="8.9112717"><ele>59.00000000000001</ele><time>2026-03-30T12:33:15.165Z</time></trkpt><trkpt lat="44.4740647" lon="8.9113332"><ele>59.00000000000001</ele><time>2026-03-30T12:33:16.138Z</time></trkpt><trkpt lat="44.4741154" lon="8.9113935"><ele>59.0</ele><time>2026-03-30T12:33:17.176Z</time></trkpt><trkpt lat="44.474221" lon="8.9115148"><ele>59.0</ele><time>2026-03-30T12:33:19Z</time></trkpt><trkpt lat="44.4743221" lon="8.9116223"><ele>59.0</ele><time>2026-03-30T12:33:21.17Z</time></trkpt><trkpt lat="44.4743752" lon="8.9116785"><ele>59.00000000000001</ele><time>2026-03-30T12:33:22.139Z</time></trkpt><trkpt lat="44.474472" lon="8.9117872"><ele>59.00000000000001</ele><time>2026-03-30T12:33:24Z</time></trkpt><trkpt lat="44.4745248" lon="8.9118441"><ele>59.0</ele><time>2026-03-30T12:33:25.14Z</time></trkpt><trkpt lat="44.4746115" lon="8.9119501"><ele>59.0</ele><time>2026-03-30T12:33:27.173Z</time></trkpt><trkpt lat="44.4747017" lon="8.9120438"><ele>59.800000000000004</ele><time>2026-03-30T12:33:29Z</time></trkpt><trkpt lat="44.4747834" lon="8.9121353"><ele>60.60000000000001</ele><time>2026-03-30T12:33:31.178Z</time></trkpt><trkpt lat="44.4748775" lon="8.9122432"><ele>61.4</ele><time>2026-03-30T12:33:34Z</time></trkpt><trkpt lat="44.4749249" lon="8.9123064"><ele>62.2</ele><time>2026-03-30T12:33:36Z</time></trkpt><trkpt lat="44.4749762" lon="8.9123631"><ele>63.0</ele><time>2026-03-30T12:33:38Z</time></trkpt><trkpt lat="44.4750494" lon="8.9124529"><ele>63.0</ele><time>2026-03-30T12:33:41Z</time></trkpt><trkpt lat="44.4750931" lon="8.9125185"><ele>63.0</ele><time>2026-03-30T12:33:43Z</time></trkpt><trkpt lat="44.4752289" lon="8.9126572"><ele>63.0</ele><time>2026-03-30T12:33:46.106Z</time></trkpt><trkpt lat="44.4753687" lon="8.9128034"><ele>63.0</ele><time>2026-03-30T12:33:48Z</time></trkpt><trkpt lat="44.4754448" lon="8.9128864"><ele>63.0</ele><time>2026-03-30T12:33:49Z</time></trkpt><trkpt lat="44.4755188" lon="8.9129763"><ele>63.0</ele><time>2026-03-30T12:33:50Z</time></trkpt><trkpt lat="44.4755832" lon="8.9130696"><ele>63.0</ele><time>2026-03-30T12:33:51Z</time></trkpt><trkpt lat="44.4756313" lon="8.9131792"><ele>63.0</ele><time>2026-03-30T12:33:52.154Z</time></trkpt><trkpt lat="44.4756593" lon="8.9132823"><ele>63.0</ele><time>2026-03-30T12:33:52.999Z</time></trkpt><trkpt lat="44.4756755" lon="8.9134029"><ele>63.0</ele><time>2026-03-30T12:33:54Z</time></trkpt><trkpt lat="44.4756986" lon="8.9135307"><ele>63.0</ele><time>2026-03-30T12:33:55Z</time></trkpt><trkpt lat="44.4757273" lon="8.9136276"><ele>63.0</ele><time>2026-03-30T12:33:56Z</time></trkpt><trkpt lat="44.4757594" lon="8.9137182"><ele>63.0</ele><time>2026-03-30T12:33:57Z</time></trkpt><trkpt lat="44.4758058" lon="8.9138128"><ele>63.0</ele><time>2026-03-30T12:33:58Z</time></trkpt><trkpt lat="44.4758713" lon="8.9138944"><ele>63.0</ele><time>2026-03-30T12:33:59Z</time></trkpt><trkpt lat="44.4759475" lon="8.913974"><ele>63.0</ele><time>2026-03-30T12:34:00.12Z</time></trkpt><trkpt lat="44.4760831" lon="8.9141745"><ele>62.75</ele><time>2026-03-30T12:34:02Z</time></trkpt><trkpt lat="44.4761379" lon="8.9143109"><ele>62.5</ele><time>2026-03-30T12:34:03Z</time></trkpt><trkpt lat="44.4761996" lon="8.9144751"><ele>62.25</ele><time>2026-03-30T12:34:04Z</time></trkpt><trkpt lat="44.4762618" lon="8.9146312"><ele>62.0</ele><time>2026-03-30T12:34:05Z</time></trkpt><trkpt lat="44.4763311" lon="8.9148031"><ele>63.66666666666667</ele><time>2026-03-30T12:34:06.102Z</time></trkpt><trkpt lat="44.4764762" lon="8.9151618"><ele>65.33333333333333</ele><time>2026-03-30T12:34:08Z</time></trkpt><trkpt lat="44.4765499" lon="8.9153532"><ele>67.0</ele><time>2026-03-30T12:34:09Z</time></trkpt><trkpt lat="44.4766217" lon="8.9155397"><ele>67.0</ele><time>2026-03-30T12:34:10Z</time></trkpt><trkpt lat="44.4766914" lon="8.9157236"><ele>67.0</ele><time>2026-03-30T12:34:11Z</time></trkpt><trkpt lat="44.4767629" lon="8.9158992"><ele>67.0</ele><time>2026-03-30T12:34:12Z</time></trkpt><trkpt lat="44.4768275" lon="8.9160734"><ele>67.0</ele><time>2026-03-30T12:34:13Z</time></trkpt><trkpt lat="44.4768983" lon="8.9162541"><ele>66.75</ele><time>2026-03-30T12:34:13.999Z</time></trkpt><trkpt lat="44.4769761" lon="8.9164217"><ele>66.5</ele><time>2026-03-30T12:34:15Z</time></trkpt><trkpt lat="44.4770624" lon="8.9165765"><ele>66.25</ele><time>2026-03-30T12:34:16Z</time></trkpt><trkpt lat="44.4771608" lon="8.9167282"><ele>66.0</ele><time>2026-03-30T12:34:17Z</time></trkpt><trkpt lat="44.477261" lon="8.9168755"><ele>66.66666666666667</ele><time>2026-03-30T12:34:18Z</time></trkpt><trkpt lat="44.4773705" lon="8.9170217"><ele>67.33333333333334</ele><time>2026-03-30T12:34:19Z</time></trkpt><trkpt lat="44.4774852" lon="8.9171549"><ele>68.0</ele><time>2026-03-30T12:34:20Z</time></trkpt><trkpt lat="44.4776077" lon="8.917282"><ele>68.0</ele><time>2026-03-30T12:34:21Z</time></trkpt><trkpt lat="44.4777249" lon="8.9173969"><ele>68.0</ele><time>2026-03-30T12:34:22Z</time></trkpt><trkpt lat="44.4778433" lon="8.9175012"><ele>68.0</ele><time>2026-03-30T12:34:23Z</time></trkpt><trkpt lat="44.477972" lon="8.9175917"><ele>68.0</ele><time>2026-03-30T12:34:23.999Z</time></trkpt><trkpt lat="44.4781079" lon="8.9176505"><ele>67.33333333333334</ele><time>2026-03-30T12:34:25Z</time></trkpt><trkpt lat="44.4782525" lon="8.9177072"><ele>66.66666666666667</ele><time>2026-03-30T12:34:26.125Z</time></trkpt><trkpt lat="44.4783979" lon="8.9177438"><ele>66.0</ele><time>2026-03-30T12:34:27.13Z</time></trkpt><trkpt lat="44.4786818" lon="8.9178251"><ele>68.25</ele><time>2026-03-30T12:34:29Z</time></trkpt><trkpt lat="44.4788173" lon="8.9178867"><ele>70.5</ele><time>2026-03-30T12:34:30.169Z</time></trkpt><trkpt lat="44.4789468" lon="8.9179745"><ele>72.75</ele><time>2026-03-30T12:34:31.153Z</time></trkpt><trkpt lat="44.4790719" lon="8.9180752"><ele>75.0</ele><time>2026-03-30T12:34:32.15Z</time></trkpt><trkpt lat="44.4793035" lon="8.9183121"><ele>74.75</ele><time>2026-03-30T12:34:34Z</time></trkpt><trkpt lat="44.4794221" lon="8.9184478"><ele>74.5</ele><time>2026-03-30T12:34:35.16Z</time></trkpt><trkpt lat="44.4795401" lon="8.9185797"><ele>74.25</ele><time>2026-03-30T12:34:36.147Z</time></trkpt><trkpt lat="44.479643" lon="8.9187084"><ele>74.0</ele><time>2026-03-30T12:34:37.163Z</time></trkpt><trkpt lat="44.479846" lon="8.9189238"><ele>74.0</ele><time>2026-03-30T12:34:39Z</time></trkpt><trkpt lat="44.4799462" lon="8.9190317"><ele>74.0</ele><time>2026-03-30T12:34:40.164Z</time></trkpt><trkpt lat="44.4800471" lon="8.9190928"><ele>74.0</ele><time>2026-03-30T12:34:41.116Z</time></trkpt><trkpt lat="44.4801618" lon="8.9190866"><ele>74.0</ele><time>2026-03-30T12:34:42.151Z</time></trkpt><trkpt lat="44.4803927" lon="8.919088"><ele>74.25</ele><time>2026-03-30T12:34:44Z</time></trkpt><trkpt lat="44.4804929" lon="8.9191281"><ele>74.5</ele><time>2026-03-30T12:34:45.169Z</time></trkpt><trkpt lat="44.4805969" lon="8.9191932"><ele>74.75</ele><time>2026-03-30T12:34:46.106Z</time></trkpt><trkpt lat="44.4806861" lon="8.9192774"><ele>75.0</ele><time>2026-03-30T12:34:47.151Z</time></trkpt><trkpt lat="44.4808556" lon="8.9194188"><ele>75.0</ele><time>2026-03-30T12:34:49Z</time></trkpt><trkpt lat="44.4809398" lon="8.9195085"><ele>75.0</ele><time>2026-03-30T12:34:50.173Z</time></trkpt><trkpt lat="44.4810221" lon="8.9195779"><ele>75.0</ele><time>2026-03-30T12:34:51.171Z</time></trkpt><trkpt lat="44.4811043" lon="8.9196424"><ele>75.0</ele><time>2026-03-30T12:34:52.175Z</time></trkpt><trkpt lat="44.4812645" lon="8.9197666"><ele>76.0</ele><time>2026-03-30T12:34:54Z</time></trkpt><trkpt lat="44.4813422" lon="8.9198298"><ele>77.0</ele><time>2026-03-30T12:34:55.141Z</time></trkpt><trkpt lat="44.4814294" lon="8.9198993"><ele>78.0</ele><time>2026-03-30T12:34:56.181Z</time></trkpt><trkpt lat="44.481516" lon="8.919973"><ele>79.0</ele><time>2026-03-30T12:34:57.169Z</time></trkpt><trkpt lat="44.481682" lon="8.9200932"><ele>79.0</ele><time>2026-03-30T12:34:59Z</time></trkpt><trkpt lat="44.4817599" lon="8.9201496"><ele>79.0</ele><time>2026-03-30T12:35:00.172Z</time></trkpt><trkpt lat="44.4818342" lon="8.9201991"><ele>79.0</ele><time>2026-03-30T12:35:01.141Z</time></trkpt><trkpt lat="44.4819025" lon="8.9202415"><ele>79.0</ele><time>2026-03-30T12:35:02.142Z</time></trkpt><trkpt lat="44.4820461" lon="8.9203338"><ele>79.0</ele><time>2026-03-30T12:35:04Z</time></trkpt><trkpt lat="44.4821192" lon="8.9203813"><ele>78.5</ele><time>2026-03-30T12:35:05.143Z</time></trkpt><trkpt lat="44.482193" lon="8.9204281"><ele>78.0</ele><time>2026-03-30T12:35:06.135Z</time></trkpt><trkpt lat="44.4823633" lon="8.9205295"><ele>77.5</ele><time>2026-03-30T12:35:08Z</time></trkpt><trkpt lat="44.4824624" lon="8.9206028"><ele>77.0</ele><time>2026-03-30T12:35:09.144Z</time></trkpt><trkpt lat="44.4825605" lon="8.9206777"><ele>77.0</ele><time>2026-03-30T12:35:10.122Z</time></trkpt><trkpt lat="44.4826581" lon="8.9207538"><ele>77.0</ele><time>2026-03-30T12:35:11.12Z</time></trkpt><trkpt lat="44.4827575" lon="8.9208291"><ele>77.0</ele><time>2026-03-30T12:35:12.113Z</time></trkpt><trkpt lat="44.4829641" lon="8.9209755"><ele>76.75</ele><time>2026-03-30T12:35:14Z</time></trkpt><trkpt lat="44.4830573" lon="8.9210501"><ele>76.5</ele><time>2026-03-30T12:35:15.165Z</time></trkpt><trkpt lat="44.4831512" lon="8.9211174"><ele>76.25</ele><time>2026-03-30T12:35:16.151Z</time></trkpt><trkpt lat="44.4832488" lon="8.9211767"><ele>76.0</ele><time>2026-03-30T12:35:17.126Z</time></trkpt><trkpt lat="44.4834477" lon="8.9212357"><ele>76.0</ele><time>2026-03-30T12:35:19Z</time></trkpt><trkpt lat="44.4835483" lon="8.9212506"><ele>76.0</ele><time>2026-03-30T12:35:20.137Z</time></trkpt><trkpt lat="44.4836426" lon="8.921254"><ele>76.0</ele><time>2026-03-30T12:35:21.152Z</time></trkpt><trkpt lat="44.4837348" lon="8.921252"><ele>76.0</ele><time>2026-03-30T12:35:22.16Z</time></trkpt><trkpt lat="44.4839094" lon="8.9212601"><ele>76.25</ele><time>2026-03-30T12:35:24Z</time></trkpt><trkpt lat="44.4839992" lon="8.9212618"><ele>76.5</ele><time>2026-03-30T12:35:25.172Z</time></trkpt><trkpt lat="44.4841522" lon="8.9212715"><ele>76.75</ele><time>2026-03-30T12:35:27.158Z</time></trkpt><trkpt lat="44.4843136" lon="8.9212753"><ele>77.0</ele><time>2026-03-30T12:35:29Z</time></trkpt><trkpt lat="44.4843972" lon="8.9212828"><ele>77.0</ele><time>2026-03-30T12:35:30.136Z</time></trkpt><trkpt lat="44.4844823" lon="8.9212898"><ele>77.0</ele><time>2026-03-30T12:35:31.172Z</time></trkpt><trkpt lat="44.4845665" lon="8.9212924"><ele>77.0</ele><time>2026-03-30T12:35:32.144Z</time></trkpt><trkpt lat="44.4847497" lon="8.9213017"><ele>77.0</ele><time>2026-03-30T12:35:33.999Z</time></trkpt><trkpt lat="44.4848506" lon="8.9213065"><ele>77.0</ele><time>2026-03-30T12:35:35.165Z</time></trkpt><trkpt lat="44.4849452" lon="8.9213132"><ele>77.0</ele><time>2026-03-30T12:35:36.143Z</time></trkpt><trkpt lat="44.4850227" lon="8.9213143"><ele>77.0</ele><time>2026-03-30T12:35:37.164Z</time></trkpt><trkpt lat="44.4851597" lon="8.9213192"><ele>77.0</ele><time>2026-03-30T12:35:39Z</time></trkpt><trkpt lat="44.4852382" lon="8.9213188"><ele>77.0</ele><time>2026-03-30T12:35:40Z</time></trkpt><trkpt lat="44.4853106" lon="8.9213199"><ele>77.0</ele><time>2026-03-30T12:35:41Z</time></trkpt><trkpt lat="44.4853791" lon="8.9213234"><ele>77.0</ele><time>2026-03-30T12:35:42Z</time></trkpt><trkpt lat="44.4854449" lon="8.9213294"><ele>77.0</ele><time>2026-03-30T12:35:43Z</time></trkpt><trkpt lat="44.4855668" lon="8.9213461"><ele>77.0</ele><time>2026-03-30T12:35:45Z</time></trkpt><trkpt lat="44.4856319" lon="8.9213492"><ele>77.0</ele><time>2026-03-30T12:35:46Z</time></trkpt><trkpt lat="44.4857038" lon="8.9213526"><ele>77.0</ele><time>2026-03-30T12:35:47Z</time></trkpt><trkpt lat="44.4857805" lon="8.9213587"><ele>77.5</ele><time>2026-03-30T12:35:48Z</time></trkpt><trkpt lat="44.485854" lon="8.9213681"><ele>78.0</ele><time>2026-03-30T12:35:48.999Z</time></trkpt><trkpt lat="44.4859346" lon="8.9213707"><ele>78.5</ele><time>2026-03-30T12:35:50Z</time></trkpt><trkpt lat="44.4860078" lon="8.9213743"><ele>79.0</ele><time>2026-03-30T12:35:51Z</time></trkpt><trkpt lat="44.4860988" lon="8.9213856"><ele>79.5</ele><time>2026-03-30T12:35:52Z</time></trkpt><trkpt lat="44.4862004" lon="8.921392"><ele>80.0</ele><time>2026-03-30T12:35:53Z</time></trkpt><trkpt lat="44.4863034" lon="8.9213961"><ele>80.25</ele><time>2026-03-30T12:35:54Z</time></trkpt><trkpt lat="44.4864031" lon="8.9214074"><ele>80.5</ele><time>2026-03-30T12:35:54.999Z</time></trkpt><trkpt lat="44.4864961" lon="8.9214148"><ele>80.75</ele><time>2026-03-30T12:35:55.999Z</time></trkpt><trkpt lat="44.4865908" lon="8.9214163"><ele>81.0</ele><time>2026-03-30T12:35:57.155Z</time></trkpt><trkpt lat="44.4867869" lon="8.921431"><ele>81.0</ele><time>2026-03-30T12:35:59Z</time></trkpt><trkpt lat="44.4868946" lon="8.921441"><ele>81.0</ele><time>2026-03-30T12:36:00Z</time></trkpt><trkpt lat="44.4870024" lon="8.9214486"><ele>81.0</ele><time>2026-03-30T12:36:01.166Z</time></trkpt><trkpt lat="44.4871164" lon="8.9214586"><ele>81.0</ele><time>2026-03-30T12:36:02.147Z</time></trkpt><trkpt lat="44.4873535" lon="8.9214797"><ele>81.33333333333333</ele><time>2026-03-30T12:36:04Z</time></trkpt><trkpt lat="44.4874706" lon="8.9214885"><ele>81.66666666666666</ele><time>2026-03-30T12:36:05.135Z</time></trkpt><trkpt lat="44.487591" lon="8.9215039"><ele>82.0</ele><time>2026-03-30T12:36:06.158Z</time></trkpt><trkpt lat="44.4878225" lon="8.9215206"><ele>83.33333333333333</ele><time>2026-03-30T12:36:08Z</time></trkpt><trkpt lat="44.4879332" lon="8.9215299"><ele>84.66666666666667</ele><time>2026-03-30T12:36:09Z</time></trkpt><trkpt lat="44.4880475" lon="8.9215402"><ele>86.0</ele><time>2026-03-30T12:36:10.117Z</time></trkpt><trkpt lat="44.4882756" lon="8.921561"><ele>86.0</ele><time>2026-03-30T12:36:12.111Z</time></trkpt><trkpt lat="44.4885016" lon="8.9215842"><ele>86.0</ele><time>2026-03-30T12:36:14Z</time></trkpt><trkpt lat="44.4886153" lon="8.9215982"><ele>86.0</ele><time>2026-03-30T12:36:15Z</time></trkpt><trkpt lat="44.4887337" lon="8.9216095"><ele>85.5</ele><time>2026-03-30T12:36:16Z</time></trkpt><trkpt lat="44.4888534" lon="8.9216179"><ele>85.0</ele><time>2026-03-30T12:36:17.147Z</time></trkpt><trkpt lat="44.4890747" lon="8.9216359"><ele>84.5</ele><time>2026-03-30T12:36:19Z</time></trkpt><trkpt lat="44.489179" lon="8.921648"><ele>84.0</ele><time>2026-03-30T12:36:20.114Z</time></trkpt><trkpt lat="44.4892714" lon="8.9216558"><ele>84.0</ele><time>2026-03-30T12:36:21.124Z</time></trkpt><trkpt lat="44.48947" lon="8.9216766"><ele>84.0</ele><time>2026-03-30T12:36:23Z</time></trkpt><trkpt lat="44.4895618" lon="8.9216821"><ele>84.0</ele><time>2026-03-30T12:36:24Z</time></trkpt><trkpt lat="44.4896454" lon="8.92169"><ele>84.0</ele><time>2026-03-30T12:36:25.127Z</time></trkpt><trkpt lat="44.4897198" lon="8.9217035"><ele>84.5</ele><time>2026-03-30T12:36:26.136Z</time></trkpt><trkpt lat="44.4897885" lon="8.9217203"><ele>85.0</ele><time>2026-03-30T12:36:27.15Z</time></trkpt><trkpt lat="44.4898848" lon="8.9217459"><ele>85.5</ele><time>2026-03-30T12:36:28.999Z</time></trkpt><trkpt lat="44.4901259" lon="8.9218047"><ele>86.0</ele><time>2026-03-30T12:36:58Z</time></trkpt><trkpt lat="44.4901935" lon="8.9218244"><ele>86.0</ele><time>2026-03-30T12:36:59Z</time></trkpt><trkpt lat="44.4902859" lon="8.9218603"><ele>86.0</ele><time>2026-03-30T12:36:59.999Z</time></trkpt><trkpt lat="44.4903726" lon="8.9218919"><ele>86.0</ele><time>2026-03-30T12:37:01Z</time></trkpt><trkpt lat="44.4904659" lon="8.9219201"><ele>86.0</ele><time>2026-03-30T12:37:02.168Z</time></trkpt><trkpt lat="44.4906701" lon="8.9219823"><ele>87.25</ele><time>2026-03-30T12:37:04.105Z</time></trkpt><trkpt lat="44.4908938" lon="8.922063"><ele>88.5</ele><time>2026-03-30T12:37:06Z</time></trkpt><trkpt lat="44.4909893" lon="8.9220935"><ele>89.75</ele><time>2026-03-30T12:37:07Z</time></trkpt><trkpt lat="44.4910888" lon="8.9221265"><ele>91.0</ele><time>2026-03-30T12:37:08Z</time></trkpt><trkpt lat="44.4911844" lon="8.9221552"><ele>90.6</ele><time>2026-03-30T12:37:09Z</time></trkpt><trkpt lat="44.4912795" lon="8.9221766"><ele>90.19999999999999</ele><time>2026-03-30T12:37:10Z</time></trkpt><trkpt lat="44.4913742" lon="8.922188"><ele>89.80000000000001</ele><time>2026-03-30T12:37:11Z</time></trkpt><trkpt lat="44.4914622" lon="8.922187"><ele>89.4</ele><time>2026-03-30T12:37:12Z</time></trkpt><trkpt lat="44.4915642" lon="8.922163"><ele>89.0</ele><time>2026-03-30T12:37:12.999Z</time></trkpt><trkpt lat="44.4916556" lon="8.9221228"><ele>89.0</ele><time>2026-03-30T12:37:14Z</time></trkpt><trkpt lat="44.4917435" lon="8.922068"><ele>89.0</ele><time>2026-03-30T12:37:15Z</time></trkpt><trkpt lat="44.491831" lon="8.9220002"><ele>89.0</ele><time>2026-03-30T12:37:16Z</time></trkpt><trkpt lat="44.4919081" lon="8.9218979"><ele>89.0</ele><time>2026-03-30T12:37:17Z</time></trkpt><trkpt lat="44.4919859" lon="8.921798"><ele>89.0</ele><time>2026-03-30T12:37:18Z</time></trkpt><trkpt lat="44.4920304" lon="8.9216594"><ele>90.0</ele><time>2026-03-30T12:37:19Z</time></trkpt><trkpt lat="44.4920693" lon="8.9215282"><ele>91.0</ele><time>2026-03-30T12:37:20Z</time></trkpt><trkpt lat="44.4921158" lon="8.9213985"><ele>92.0</ele><time>2026-03-30T12:37:21Z</time></trkpt><trkpt lat="44.4921708" lon="8.921278"><ele>93.0</ele><time>2026-03-30T12:37:22Z</time></trkpt><trkpt lat="44.4922177" lon="8.9211744"><ele>94.0</ele><time>2026-03-30T12:37:23Z</time></trkpt><trkpt lat="44.4922722" lon="8.9210737"><ele>94.0</ele><time>2026-03-30T12:37:23.999Z</time></trkpt><trkpt lat="44.4923281" lon="8.9209847"><ele>94.0</ele><time>2026-03-30T12:37:25Z</time></trkpt><trkpt lat="44.4924387" lon="8.9209358"><ele>94.0</ele><time>2026-03-30T12:37:26Z</time></trkpt><trkpt lat="44.492536" lon="8.920877"><ele>94.0</ele><time>2026-03-30T12:37:27Z</time></trkpt><trkpt lat="44.4926402" lon="8.920819"><ele>94.0</ele><time>2026-03-30T12:37:27.999Z</time></trkpt><trkpt lat="44.4927432" lon="8.9207644"><ele>94.75</ele><time>2026-03-30T12:37:29Z</time></trkpt><trkpt lat="44.4928525" lon="8.9207093"><ele>95.5</ele><time>2026-03-30T12:37:30Z</time></trkpt><trkpt lat="44.4929657" lon="8.9206564"><ele>96.25</ele><time>2026-03-30T12:37:31Z</time></trkpt><trkpt lat="44.4930784" lon="8.9206048"><ele>97.0</ele><time>2026-03-30T12:37:32Z</time></trkpt><trkpt lat="44.4931857" lon="8.9205598"><ele>97.0</ele><time>2026-03-30T12:37:33Z</time></trkpt><trkpt lat="44.4932813" lon="8.9205202"><ele>97.0</ele><time>2026-03-30T12:37:34Z</time></trkpt><trkpt lat="44.493376" lon="8.9204808"><ele>97.0</ele><time>2026-03-30T12:37:35Z</time></trkpt><trkpt lat="44.4934741" lon="8.9204571"><ele>97.0</ele><time>2026-03-30T12:37:35.999Z</time></trkpt><trkpt lat="44.4935678" lon="8.9204411"><ele>97.0</ele><time>2026-03-30T12:37:37Z</time></trkpt><trkpt lat="44.4936539" lon="8.9204272"><ele>97.00000000000001</ele><time>2026-03-30T12:37:38Z</time></trkpt><trkpt lat="44.4937393" lon="8.9204126"><ele>97.0</ele><time>2026-03-30T12:37:38.999Z</time></trkpt><trkpt lat="44.4938153" lon="8.9203981"><ele>97.0</ele><time>2026-03-30T12:37:40Z</time></trkpt><trkpt lat="44.4939026" lon="8.920389"><ele>97.0</ele><time>2026-03-30T12:37:41Z</time></trkpt><trkpt lat="44.4939828" lon="8.9203814"><ele>97.00000000000001</ele><time>2026-03-30T12:37:42Z</time></trkpt><trkpt lat="44.4940739" lon="8.9203792"><ele>97.0</ele><time>2026-03-30T12:37:43Z</time></trkpt><trkpt lat="44.4941659" lon="8.9203808"><ele>96.83333333333334</ele><time>2026-03-30T12:37:44Z</time></trkpt><trkpt lat="44.4942633" lon="8.9203823"><ele>96.66666666666667</ele><time>2026-03-30T12:37:45Z</time></trkpt><trkpt lat="44.4943607" lon="8.9203891"><ele>96.5</ele><time>2026-03-30T12:37:46Z</time></trkpt><trkpt lat="44.4944456" lon="8.9203893"><ele>96.33333333333334</ele><time>2026-03-30T12:37:46.999Z</time></trkpt><trkpt lat="44.4945152" lon="8.920396"><ele>96.16666666666667</ele><time>2026-03-30T12:37:48Z</time></trkpt><trkpt lat="44.4946018" lon="8.9204005"><ele>96.0</ele><time>2026-03-30T12:37:49.999Z</time></trkpt><trkpt lat="44.4946719" lon="8.9204007"><ele>96.0</ele><time>2026-03-30T12:37:53Z</time></trkpt><trkpt lat="44.4947363" lon="8.9204704"><ele>96.0</ele><time>2026-03-30T12:38:03.999Z</time></trkpt><trkpt lat="44.4948089" lon="8.9204187"><ele>96.0</ele><time>2026-03-30T12:38:05Z</time></trkpt><trkpt lat="44.494907" lon="8.920431"><ele>96.0</ele><time>2026-03-30T12:38:06.999Z</time></trkpt><trkpt lat="44.4949954" lon="8.9204538"><ele>96.0</ele><time>2026-03-30T12:38:09Z</time></trkpt><trkpt lat="44.4951213" lon="8.9204578"><ele>96.0</ele><time>2026-03-30T12:38:11Z</time></trkpt><trkpt lat="44.4951902" lon="8.9204661"><ele>96.0</ele><time>2026-03-30T12:38:12Z</time></trkpt><trkpt lat="44.4952849" lon="8.9204672"><ele>96.0</ele><time>2026-03-30T12:38:13Z</time></trkpt><trkpt lat="44.4953705" lon="8.9204781"><ele>96.0</ele><time>2026-03-30T12:38:14Z</time></trkpt><trkpt lat="44.495463" lon="8.9204946"><ele>96.0</ele><time>2026-03-30T12:38:15Z</time></trkpt><trkpt lat="44.4955456" lon="8.9205123"><ele>96.0</ele><time>2026-03-30T12:38:16Z</time></trkpt><trkpt lat="44.4956246" lon="8.9205313"><ele>96.0</ele><time>2026-03-30T12:38:17Z</time></trkpt><trkpt lat="44.495701" lon="8.9205567"><ele>96.0</ele><time>2026-03-30T12:38:18Z</time></trkpt><trkpt lat="44.4957809" lon="8.9205899"><ele>96.0</ele><time>2026-03-30T12:38:19Z</time></trkpt><trkpt lat="44.4958594" lon="8.9206214"><ele>96.0</ele><time>2026-03-30T12:38:20Z</time></trkpt><trkpt lat="44.4959356" lon="8.9206644"><ele>96.0</ele><time>2026-03-30T12:38:21Z</time></trkpt><trkpt lat="44.4960128" lon="8.9207204"><ele>96.0</ele><time>2026-03-30T12:38:22.105Z</time></trkpt><trkpt lat="44.4961692" lon="8.9208214"><ele>96.0</ele><time>2026-03-30T12:38:24Z</time></trkpt><trkpt lat="44.4962407" lon="8.9208668"><ele>96.0</ele><time>2026-03-30T12:38:25.113Z</time></trkpt><trkpt lat="44.4963054" lon="8.9209231"><ele>96.0</ele><time>2026-03-30T12:38:26.15Z</time></trkpt><trkpt lat="44.4963667" lon="8.9209745"><ele>96.0</ele><time>2026-03-30T12:38:27.118Z</time></trkpt><trkpt lat="44.4964893" lon="8.9210714"><ele>96.0</ele><time>2026-03-30T12:38:29Z</time></trkpt><trkpt lat="44.4965523" lon="8.9211256"><ele>96.0</ele><time>2026-03-30T12:38:30.116Z</time></trkpt><trkpt lat="44.4966237" lon="8.9211835"><ele>96.75</ele><time>2026-03-30T12:38:31.148Z</time></trkpt><trkpt lat="44.4966987" lon="8.9212414"><ele>97.5</ele><time>2026-03-30T12:38:32.114Z</time></trkpt><trkpt lat="44.4968522" lon="8.9213736"><ele>98.25</ele><time>2026-03-30T12:38:34Z</time></trkpt><trkpt lat="44.4969279" lon="8.9214411"><ele>99.0</ele><time>2026-03-30T12:38:35.147Z</time></trkpt><trkpt lat="44.4970095" lon="8.9215075"><ele>99.0</ele><time>2026-03-30T12:38:36.143Z</time></trkpt><trkpt lat="44.4970913" lon="8.9215715"><ele>99.0</ele><time>2026-03-30T12:38:37.133Z</time></trkpt><trkpt lat="44.4972619" lon="8.9217233"><ele>99.0</ele><time>2026-03-30T12:38:39Z</time></trkpt><trkpt lat="44.4973431" lon="8.921793"><ele>99.0</ele><time>2026-03-30T12:38:40.16Z</time></trkpt><trkpt lat="44.4974159" lon="8.9218574"><ele>99.0</ele><time>2026-03-30T12:38:41.151Z</time></trkpt><trkpt lat="44.4974742" lon="8.9219008"><ele>99.0</ele><time>2026-03-30T12:38:42.131Z</time></trkpt><trkpt lat="44.4975852" lon="8.9219918"><ele>99.0</ele><time>2026-03-30T12:38:44Z</time></trkpt><trkpt lat="44.4976388" lon="8.9220388"><ele>99.0</ele><time>2026-03-30T12:38:45.162Z</time></trkpt><trkpt lat="44.4977533" lon="8.9221146"><ele>99.0</ele><time>2026-03-30T12:38:47.161Z</time></trkpt><trkpt lat="44.4978879" lon="8.9222213"><ele>99.2</ele><time>2026-03-30T12:38:49Z</time></trkpt><trkpt lat="44.4979644" lon="8.922294"><ele>99.4</ele><time>2026-03-30T12:38:50Z</time></trkpt><trkpt lat="44.4980482" lon="8.9223736"><ele>99.6</ele><time>2026-03-30T12:38:51Z</time></trkpt><trkpt lat="44.4981397" lon="8.922466"><ele>99.8</ele><time>2026-03-30T12:38:52Z</time></trkpt><trkpt lat="44.4982374" lon="8.9225532"><ele>100.0</ele><time>2026-03-30T12:38:53Z</time></trkpt><trkpt lat="44.4983298" lon="8.9226459"><ele>100.0</ele><time>2026-03-30T12:38:54Z</time></trkpt><trkpt lat="44.4984242" lon="8.9227288"><ele>100.0</ele><time>2026-03-30T12:38:55Z</time></trkpt><trkpt lat="44.4985216" lon="8.9228217"><ele>100.0</ele><time>2026-03-30T12:38:55.999Z</time></trkpt><trkpt lat="44.4986208" lon="8.9229211"><ele>100.0</ele><time>2026-03-30T12:38:57Z</time></trkpt><trkpt lat="44.4987252" lon="8.9230301"><ele>101.25</ele><time>2026-03-30T12:38:58Z</time></trkpt><trkpt lat="44.4988369" lon="8.9231443"><ele>102.5</ele><time>2026-03-30T12:38:59Z</time></trkpt><trkpt lat="44.4989426" lon="8.92325"><ele>103.75</ele><time>2026-03-30T12:39:00Z</time></trkpt><trkpt lat="44.4990518" lon="8.9233691"><ele>105.0</ele><time>2026-03-30T12:39:01Z</time></trkpt><trkpt lat="44.4991686" lon="8.9234782"><ele>105.0</ele><time>2026-03-30T12:39:02Z</time></trkpt><trkpt lat="44.4992815" lon="8.9235936"><ele>105.0</ele><time>2026-03-30T12:39:02.998Z</time></trkpt><trkpt lat="44.4993948" lon="8.9237108"><ele>105.0</ele><time>2026-03-30T12:39:04Z</time></trkpt><trkpt lat="44.4995091" lon="8.9238299"><ele>105.0</ele><time>2026-03-30T12:39:05Z</time></trkpt><trkpt lat="44.4996249" lon="8.9239457"><ele>105.5</ele><time>2026-03-30T12:39:06Z</time></trkpt><trkpt lat="44.4997366" lon="8.9240661"><ele>106.0</ele><time>2026-03-30T12:39:07Z</time></trkpt><trkpt lat="44.4998545" lon="8.9241843"><ele>106.5</ele><time>2026-03-30T12:39:08Z</time></trkpt><trkpt lat="44.4999696" lon="8.9243069"><ele>107.0</ele><time>2026-03-30T12:39:09Z</time></trkpt><trkpt lat="44.5000818" lon="8.9244167"><ele>107.0</ele><time>2026-03-30T12:39:10Z</time></trkpt><trkpt lat="44.5001942" lon="8.9245382"><ele>107.0</ele><time>2026-03-30T12:39:11Z</time></trkpt><trkpt lat="44.5003011" lon="8.9246496"><ele>107.0</ele><time>2026-03-30T12:39:12Z</time></trkpt><trkpt lat="44.5004113" lon="8.9247578"><ele>107.0</ele><time>2026-03-30T12:39:13Z</time></trkpt><trkpt lat="44.5005203" lon="8.9248664"><ele>107.0</ele><time>2026-03-30T12:39:14Z</time></trkpt><trkpt lat="44.5006275" lon="8.9249745"><ele>107.0</ele><time>2026-03-30T12:39:15Z</time></trkpt><trkpt lat="44.5007373" lon="8.9250941"><ele>107.0</ele><time>2026-03-30T12:39:16Z</time></trkpt><trkpt lat="44.5008474" lon="8.9252037"><ele>107.0</ele><time>2026-03-30T12:39:17Z</time></trkpt><trkpt lat="44.500956" lon="8.9253138"><ele>107.0</ele><time>2026-03-30T12:39:18Z</time></trkpt><trkpt lat="44.5010666" lon="8.9254188"><ele>107.0</ele><time>2026-03-30T12:39:19Z</time></trkpt><trkpt lat="44.5011754" lon="8.925527"><ele>107.0</ele><time>2026-03-30T12:39:20Z</time></trkpt><trkpt lat="44.5012819" lon="8.9256286"><ele>107.0</ele><time>2026-03-30T12:39:21Z</time></trkpt><trkpt lat="44.5013862" lon="8.9257309"><ele>108.0</ele><time>2026-03-30T12:39:22Z</time></trkpt><trkpt lat="44.5014929" lon="8.9258379"><ele>109.0</ele><time>2026-03-30T12:39:23Z</time></trkpt><trkpt lat="44.5015974" lon="8.9259204"><ele>110.0</ele><time>2026-03-30T12:39:23.999Z</time></trkpt><trkpt lat="44.5017024" lon="8.926005"><ele>111.0</ele><time>2026-03-30T12:39:25Z</time></trkpt><trkpt lat="44.5018077" lon="8.926101"><ele>111.0</ele><time>2026-03-30T12:39:26Z</time></trkpt><trkpt lat="44.501911" lon="8.9261985"><ele>111.0</ele><time>2026-03-30T12:39:27Z</time></trkpt><trkpt lat="44.5020155" lon="8.9263022"><ele>111.0</ele><time>2026-03-30T12:39:28Z</time></trkpt><trkpt lat="44.5021206" lon="8.9264027"><ele>111.0</ele><time>2026-03-30T12:39:29Z</time></trkpt><trkpt lat="44.5022319" lon="8.9265071"><ele>111.25</ele><time>2026-03-30T12:39:30Z</time></trkpt><trkpt lat="44.5023453" lon="8.9266075"><ele>111.5</ele><time>2026-03-30T12:39:31Z</time></trkpt><trkpt lat="44.5024588" lon="8.9267113"><ele>111.75</ele><time>2026-03-30T12:39:32Z</time></trkpt><trkpt lat="44.5025772" lon="8.9268188"><ele>112.0</ele><time>2026-03-30T12:39:33Z</time></trkpt><trkpt lat="44.5026984" lon="8.9269332"><ele>112.0</ele><time>2026-03-30T12:39:34Z</time></trkpt><trkpt lat="44.5028218" lon="8.9270484"><ele>112.0</ele><time>2026-03-30T12:39:35Z</time></trkpt><trkpt lat="44.5029418" lon="8.927159"><ele>112.0</ele><time>2026-03-30T12:39:36Z</time></trkpt><trkpt lat="44.5030603" lon="8.9272678"><ele>112.0</ele><time>2026-03-30T12:39:37Z</time></trkpt><trkpt lat="44.5031833" lon="8.9273746"><ele>112.75</ele><time>2026-03-30T12:39:38Z</time></trkpt><trkpt lat="44.5033013" lon="8.9274871"><ele>113.5</ele><time>2026-03-30T12:39:38.999Z</time></trkpt><trkpt lat="44.5034201" lon="8.927599"><ele>114.25</ele><time>2026-03-30T12:39:40Z</time></trkpt><trkpt lat="44.5035372" lon="8.927713"><ele>115.0</ele><time>2026-03-30T12:39:41Z</time></trkpt><trkpt lat="44.5036526" lon="8.927815"><ele>115.5</ele><time>2026-03-30T12:39:42Z</time></trkpt><trkpt lat="44.5037616" lon="8.9279159"><ele>116.0</ele><time>2026-03-30T12:39:43Z</time></trkpt><trkpt lat="44.5038648" lon="8.9280147"><ele>116.5</ele><time>2026-03-30T12:39:44Z</time></trkpt><trkpt lat="44.503963" lon="8.9281189"><ele>117.0</ele><time>2026-03-30T12:39:45Z</time></trkpt><trkpt lat="44.5040543" lon="8.9282198"><ele>117.0</ele><time>2026-03-30T12:39:45.999Z</time></trkpt><trkpt lat="44.5041403" lon="8.9283258"><ele>116.99999999999999</ele><time>2026-03-30T12:39:46.999Z</time></trkpt><trkpt lat="44.5042135" lon="8.9284422"><ele>116.99999999999999</ele><time>2026-03-30T12:39:47.999Z</time></trkpt><trkpt lat="44.5042906" lon="8.9285553"><ele>117.0</ele><time>2026-03-30T12:39:49Z</time></trkpt><trkpt lat="44.5043695" lon="8.928667"><ele>117.0</ele><time>2026-03-30T12:39:50Z</time></trkpt><trkpt lat="44.5044457" lon="8.9287855"><ele>117.5</ele><time>2026-03-30T12:39:51Z</time></trkpt><trkpt lat="44.5045216" lon="8.9289031"><ele>118.0</ele><time>2026-03-30T12:39:52Z</time></trkpt><trkpt lat="44.5045978" lon="8.9290169"><ele>118.5</ele><time>2026-03-30T12:39:53Z</time></trkpt><trkpt lat="44.5046726" lon="8.9291355"><ele>119.0</ele><time>2026-03-30T12:39:54Z</time></trkpt><trkpt lat="44.5047486" lon="8.9292541"><ele>119.4</ele><time>2026-03-30T12:39:55Z</time></trkpt><trkpt lat="44.5048256" lon="8.9293698"><ele>119.80000000000001</ele><time>2026-03-30T12:39:56Z</time></trkpt><trkpt lat="44.5049013" lon="8.9294869"><ele>120.19999999999999</ele><time>2026-03-30T12:39:57Z</time></trkpt><trkpt lat="44.5049778" lon="8.9295955"><ele>120.6</ele><time>2026-03-30T12:39:58Z</time></trkpt><trkpt lat="44.5050535" lon="8.9297163"><ele>121.0</ele><time>2026-03-30T12:39:58.999Z</time></trkpt><trkpt lat="44.5051325" lon="8.9298425"><ele>121.0</ele><time>2026-03-30T12:40:00Z</time></trkpt><trkpt lat="44.505209" lon="8.9299472"><ele>121.0</ele><time>2026-03-30T12:40:01Z</time></trkpt><trkpt lat="44.5052843" lon="8.9300749"><ele>121.0</ele><time>2026-03-30T12:40:02Z</time></trkpt><trkpt lat="44.5053607" lon="8.9301955"><ele>121.0</ele><time>2026-03-30T12:40:03Z</time></trkpt><trkpt lat="44.5054347" lon="8.9303192"><ele>121.6</ele><time>2026-03-30T12:40:04Z</time></trkpt><trkpt lat="44.5055097" lon="8.9304338"><ele>122.19999999999999</ele><time>2026-03-30T12:40:05Z</time></trkpt><trkpt lat="44.5055825" lon="8.9305442"><ele>122.80000000000001</ele><time>2026-03-30T12:40:06Z</time></trkpt><trkpt lat="44.505653" lon="8.9306562"><ele>123.4</ele><time>2026-03-30T12:40:07Z</time></trkpt><trkpt lat="44.5057225" lon="8.9307589"><ele>124.0</ele><time>2026-03-30T12:40:08Z</time></trkpt><trkpt lat="44.5057908" lon="8.9308669"><ele>124.0</ele><time>2026-03-30T12:40:09Z</time></trkpt><trkpt lat="44.505857" lon="8.9309885"><ele>124.0</ele><time>2026-03-30T12:40:10Z</time></trkpt><trkpt lat="44.5059238" lon="8.9310925"><ele>124.0</ele><time>2026-03-30T12:40:10.999Z</time></trkpt><trkpt lat="44.5059881" lon="8.9312051"><ele>124.0</ele><time>2026-03-30T12:40:12Z</time></trkpt><trkpt lat="44.5060486" lon="8.9313191"><ele>124.0</ele><time>2026-03-30T12:40:13Z</time></trkpt><trkpt lat="44.5061099" lon="8.9314319"><ele>124.0</ele><time>2026-03-30T12:40:14Z</time></trkpt><trkpt lat="44.506174" lon="8.9315465"><ele>124.0</ele><time>2026-03-30T12:40:15Z</time></trkpt><trkpt lat="44.5062294" lon="8.931662"><ele>124.0</ele><time>2026-03-30T12:40:16Z</time></trkpt><trkpt lat="44.5062958" lon="8.9317773"><ele>124.0</ele><time>2026-03-30T12:40:17Z</time></trkpt><trkpt lat="44.506359" lon="8.9318877"><ele>124.0</ele><time>2026-03-30T12:40:18Z</time></trkpt><trkpt lat="44.506421" lon="8.9319963"><ele>123.66666666666667</ele><time>2026-03-30T12:40:19.138Z</time></trkpt><trkpt lat="44.5064794" lon="8.9321042"><ele>123.33333333333334</ele><time>2026-03-30T12:40:20.109Z</time></trkpt><trkpt lat="44.5065921" lon="8.932331"><ele>123.0</ele><time>2026-03-30T12:40:22.134Z</time></trkpt><trkpt lat="44.5067042" lon="8.9325596"><ele>123.0</ele><time>2026-03-30T12:40:24Z</time></trkpt><trkpt lat="44.5067642" lon="8.9326745"><ele>123.0</ele><time>2026-03-30T12:40:25.119Z</time></trkpt><trkpt lat="44.5068867" lon="8.9328977"><ele>123.0</ele><time>2026-03-30T12:40:27.149Z</time></trkpt><trkpt lat="44.5070024" lon="8.9331209"><ele>123.0</ele><time>2026-03-30T12:40:29Z</time></trkpt><trkpt lat="44.5070512" lon="8.9332406"><ele>123.0</ele><time>2026-03-30T12:40:30Z</time></trkpt><trkpt lat="44.5070992" lon="8.9333595"><ele>123.0</ele><time>2026-03-30T12:40:31Z</time></trkpt><trkpt lat="44.5071483" lon="8.9334773"><ele>123.0</ele><time>2026-03-30T12:40:32.125Z</time></trkpt><trkpt lat="44.5072341" lon="8.9337563"><ele>125.33333333333334</ele><time>2026-03-30T12:40:34Z</time></trkpt><trkpt lat="44.5072788" lon="8.9339001"><ele>127.66666666666667</ele><time>2026-03-30T12:40:35.123Z</time></trkpt><trkpt lat="44.5073241" lon="8.9340439"><ele>130.0</ele><time>2026-03-30T12:40:36.16Z</time></trkpt><trkpt lat="44.5074029" lon="8.9343442"><ele>129.8</ele><time>2026-03-30T12:40:38Z</time></trkpt><trkpt lat="44.5074372" lon="8.9344701"><ele>129.6</ele><time>2026-03-30T12:40:39.132Z</time></trkpt><trkpt lat="44.5074734" lon="8.9346159"><ele>129.4</ele><time>2026-03-30T12:40:40.15Z</time></trkpt><trkpt lat="44.5075049" lon="8.9347618"><ele>129.2</ele><time>2026-03-30T12:40:41.138Z</time></trkpt><trkpt lat="44.5075364" lon="8.9348988"><ele>129.0</ele><time>2026-03-30T12:40:42.16Z</time></trkpt><trkpt lat="44.5075833" lon="8.9351885"><ele>129.0</ele><time>2026-03-30T12:40:44Z</time></trkpt><trkpt lat="44.5076002" lon="8.9353316"><ele>129.0</ele><time>2026-03-30T12:40:45.164Z</time></trkpt><trkpt lat="44.5076188" lon="8.9354649"><ele>129.0</ele><time>2026-03-30T12:40:46.155Z</time></trkpt><trkpt lat="44.5076317" lon="8.9356019"><ele>129.0</ele><time>2026-03-30T12:40:47.16Z</time></trkpt><trkpt lat="44.5076679" lon="8.9358714"><ele>130.0</ele><time>2026-03-30T12:40:49Z</time></trkpt><trkpt lat="44.5076819" lon="8.9360048"><ele>131.0</ele><time>2026-03-30T12:40:50.162Z</time></trkpt><trkpt lat="44.507699" lon="8.9361419"><ele>132.0</ele><time>2026-03-30T12:40:50.999Z</time></trkpt><trkpt lat="44.5077211" lon="8.9362818"><ele>133.0</ele><time>2026-03-30T12:40:52.172Z</time></trkpt><trkpt lat="44.5077728" lon="8.9365344"><ele>133.0</ele><time>2026-03-30T12:40:53.999Z</time></trkpt><trkpt lat="44.5078411" lon="8.9366425"><ele>133.0</ele><time>2026-03-30T12:40:55.161Z</time></trkpt><trkpt lat="44.5078892" lon="8.9367522"><ele>133.0</ele><time>2026-03-30T12:40:56.163Z</time></trkpt><trkpt lat="44.5079318" lon="8.9368606"><ele>133.0</ele><time>2026-03-30T12:40:57.173Z</time></trkpt><trkpt lat="44.5080014" lon="8.9370674"><ele>133.0</ele><time>2026-03-30T12:40:59Z</time></trkpt><trkpt lat="44.508042" lon="8.9371643"><ele>133.20000000000002</ele><time>2026-03-30T12:41:00Z</time></trkpt><trkpt lat="44.5080904" lon="8.937248"><ele>133.4</ele><time>2026-03-30T12:41:01.123Z</time></trkpt><trkpt lat="44.5081528" lon="8.9373117"><ele>133.60000000000002</ele><time>2026-03-30T12:41:02.182Z</time></trkpt><trkpt lat="44.5083188" lon="8.9373856"><ele>133.8</ele><time>2026-03-30T12:41:04Z</time></trkpt><trkpt lat="44.508412" lon="8.9373982"><ele>134.0</ele><time>2026-03-30T12:41:05.169Z</time></trkpt><trkpt lat="44.5085079" lon="8.9374138"><ele>134.0</ele><time>2026-03-30T12:41:06.149Z</time></trkpt><trkpt lat="44.5086027" lon="8.9374166"><ele>134.0</ele><time>2026-03-30T12:41:07.155Z</time></trkpt><trkpt lat="44.508794" lon="8.9374378"><ele>134.0</ele><time>2026-03-30T12:41:09Z</time></trkpt><trkpt lat="44.5088878" lon="8.9374617"><ele>134.0</ele><time>2026-03-30T12:41:10.169Z</time></trkpt><trkpt lat="44.5090696" lon="8.9375153"><ele>134.8</ele><time>2026-03-30T12:41:12Z</time></trkpt><trkpt lat="44.5091545" lon="8.9375478"><ele>135.60000000000002</ele><time>2026-03-30T12:41:13Z</time></trkpt><trkpt lat="44.5092459" lon="8.9375837"><ele>136.4</ele><time>2026-03-30T12:41:14Z</time></trkpt><trkpt lat="44.5093308" lon="8.9376209"><ele>137.20000000000002</ele><time>2026-03-30T12:41:14.999Z</time></trkpt><trkpt lat="44.5094156" lon="8.9376628"><ele>138.0</ele><time>2026-03-30T12:41:16.177Z</time></trkpt><trkpt lat="44.5095103" lon="8.937699"><ele>138.5</ele><time>2026-03-30T12:41:17.172Z</time></trkpt><trkpt lat="44.5096846" lon="8.9377861"><ele>139.0</ele><time>2026-03-30T12:41:19Z</time></trkpt><trkpt lat="44.5097582" lon="8.937859"><ele>139.5</ele><time>2026-03-30T12:41:20.156Z</time></trkpt><trkpt lat="44.5098351" lon="8.9379276"><ele>140.0</ele><time>2026-03-30T12:41:21.148Z</time></trkpt><trkpt lat="44.5099086" lon="8.9380038"><ele>140.0</ele><time>2026-03-30T12:41:22.113Z</time></trkpt><trkpt lat="44.5100665" lon="8.9381698"><ele>140.0</ele><time>2026-03-30T12:41:24Z</time></trkpt><trkpt lat="44.5101529" lon="8.9382552"><ele>140.0</ele><time>2026-03-30T12:41:25.142Z</time></trkpt><trkpt lat="44.5102371" lon="8.9383425"><ele>140.0</ele><time>2026-03-30T12:41:26.136Z</time></trkpt><trkpt lat="44.5103255" lon="8.9384268"><ele>140.75</ele><time>2026-03-30T12:41:27.147Z</time></trkpt><trkpt lat="44.5105014" lon="8.9386037"><ele>141.5</ele><time>2026-03-30T12:41:29Z</time></trkpt><trkpt lat="44.5105909" lon="8.9386955"><ele>142.25</ele><time>2026-03-30T12:41:30.148Z</time></trkpt><trkpt lat="44.5106848" lon="8.9387919"><ele>143.0</ele><time>2026-03-30T12:41:31.151Z</time></trkpt><trkpt lat="44.5107717" lon="8.9388723"><ele>143.0</ele><time>2026-03-30T12:41:32.156Z</time></trkpt><trkpt lat="44.5109478" lon="8.9390572"><ele>143.0</ele><time>2026-03-30T12:41:34Z</time></trkpt><trkpt lat="44.5110308" lon="8.9391407"><ele>143.0</ele><time>2026-03-30T12:41:35Z</time></trkpt><trkpt lat="44.5111322" lon="8.9392325"><ele>143.0</ele><time>2026-03-30T12:41:36.134Z</time></trkpt><trkpt lat="44.5112335" lon="8.9393344"><ele>144.5</ele><time>2026-03-30T12:41:37.152Z</time></trkpt><trkpt lat="44.5114057" lon="8.9395274"><ele>146.0</ele><time>2026-03-30T12:41:39Z</time></trkpt><trkpt lat="44.5114926" lon="8.9396332"><ele>147.5</ele><time>2026-03-30T12:41:40.159Z</time></trkpt><trkpt lat="44.5115759" lon="8.939732"><ele>149.0</ele><time>2026-03-30T12:41:41.137Z</time></trkpt><trkpt lat="44.5116333" lon="8.9398451"><ele>150.25</ele><time>2026-03-30T12:41:42.166Z</time></trkpt><trkpt lat="44.5117594" lon="8.9400665"><ele>151.5</ele><time>2026-03-30T12:41:44Z</time></trkpt><trkpt lat="44.5118298" lon="8.9401735"><ele>152.75</ele><time>2026-03-30T12:41:45Z</time></trkpt><trkpt lat="44.5118879" lon="8.9402798"><ele>154.0</ele><time>2026-03-30T12:41:46Z</time></trkpt><trkpt lat="44.511941" lon="8.9403814"><ele>154.0</ele><time>2026-03-30T12:41:47.108Z</time></trkpt><trkpt lat="44.5120513" lon="8.9405605"><ele>154.0</ele><time>2026-03-30T12:41:48.999Z</time></trkpt><trkpt lat="44.5121031" lon="8.9406443"><ele>154.0</ele><time>2026-03-30T12:41:50.134Z</time></trkpt><trkpt lat="44.5122079" lon="8.9407945"><ele>154.0</ele><time>2026-03-30T12:41:52Z</time></trkpt><trkpt lat="44.5122511" lon="8.940887"><ele>153.75</ele><time>2026-03-30T12:41:53Z</time></trkpt><trkpt lat="44.5123008" lon="8.9409769"><ele>153.5</ele><time>2026-03-30T12:41:54.134Z</time></trkpt><trkpt lat="44.5123393" lon="8.9410836"><ele>153.25</ele><time>2026-03-30T12:41:55.162Z</time></trkpt><trkpt lat="44.5123836" lon="8.9411875"><ele>153.0</ele><time>2026-03-30T12:41:56.131Z</time></trkpt><trkpt lat="44.5124642" lon="8.9414581"><ele>153.0</ele><time>2026-03-30T12:41:58Z</time></trkpt><trkpt lat="44.5125095" lon="8.9415976"><ele>153.0</ele><time>2026-03-30T12:41:59Z</time></trkpt><trkpt lat="44.512546" lon="8.9417262"><ele>153.0</ele><time>2026-03-30T12:42:00.152Z</time></trkpt><trkpt lat="44.5125779" lon="8.9418643"><ele>153.0</ele><time>2026-03-30T12:42:01.147Z</time></trkpt><trkpt lat="44.5126038" lon="8.9420239"><ele>153.0</ele><time>2026-03-30T12:42:02.149Z</time></trkpt><trkpt lat="44.5126309" lon="8.942323"><ele>152.75</ele><time>2026-03-30T12:42:04Z</time></trkpt><trkpt lat="44.5126311" lon="8.9424823"><ele>152.5</ele><time>2026-03-30T12:42:05.157Z</time></trkpt><trkpt lat="44.5126293" lon="8.9426453"><ele>152.25</ele><time>2026-03-30T12:42:06.151Z</time></trkpt><trkpt lat="44.5126259" lon="8.9428104"><ele>152.0</ele><time>2026-03-30T12:42:07.136Z</time></trkpt><trkpt lat="44.5126066" lon="8.943182"><ele>153.0</ele><time>2026-03-30T12:42:09Z</time></trkpt><trkpt lat="44.5126024" lon="8.94336"><ele>154.0</ele><time>2026-03-30T12:42:10.127Z</time></trkpt><trkpt lat="44.5126018" lon="8.9435273"><ele>155.0</ele><time>2026-03-30T12:42:11.143Z</time></trkpt><trkpt lat="44.5126025" lon="8.9436954"><ele>156.0</ele><time>2026-03-30T12:42:12.142Z</time></trkpt><trkpt lat="44.5125875" lon="8.9440842"><ele>160.75</ele><time>2026-03-30T12:42:14Z</time></trkpt><trkpt lat="44.5125721" lon="8.9442933"><ele>165.5</ele><time>2026-03-30T12:42:15.143Z</time></trkpt><trkpt lat="44.5125549" lon="8.9444847"><ele>170.25</ele><time>2026-03-30T12:42:16.151Z</time></trkpt><trkpt lat="44.512538" lon="8.9446934"><ele>175.0</ele><time>2026-03-30T12:42:17.146Z</time></trkpt><trkpt lat="44.5125031" lon="8.9451259"><ele>175.75</ele><time>2026-03-30T12:42:19Z</time></trkpt><trkpt lat="44.512487" lon="8.945336"><ele>176.5</ele><time>2026-03-30T12:42:20Z</time></trkpt><trkpt lat="44.5124728" lon="8.9455278"><ele>177.25</ele><time>2026-03-30T12:42:21Z</time></trkpt><trkpt lat="44.5124591" lon="8.945728"><ele>178.0</ele><time>2026-03-30T12:42:22.161Z</time></trkpt><trkpt lat="44.5124337" lon="8.9460856"><ele>177.0</ele><time>2026-03-30T12:42:23.999Z</time></trkpt><trkpt lat="44.5124172" lon="8.946264"><ele>176.0</ele><time>2026-03-30T12:42:25.156Z</time></trkpt><trkpt lat="44.5124029" lon="8.9464354"><ele>175.0</ele><time>2026-03-30T12:42:26.116Z</time></trkpt><trkpt lat="44.5123896" lon="8.9467979"><ele>175.0</ele><time>2026-03-30T12:42:27.999Z</time></trkpt><trkpt lat="44.5124499" lon="8.9469494"><ele>175.0</ele><time>2026-03-30T12:42:29Z</time></trkpt><trkpt lat="44.5124912" lon="8.9471178"><ele>175.0</ele><time>2026-03-30T12:42:30.119Z</time></trkpt><trkpt lat="44.5125235" lon="8.9472891"><ele>175.0</ele><time>2026-03-30T12:42:31.111Z</time></trkpt><trkpt lat="44.5125541" lon="8.9474527"><ele>175.33333333333334</ele><time>2026-03-30T12:42:32.115Z</time></trkpt><trkpt lat="44.5125989" lon="8.9477692"><ele>175.66666666666666</ele><time>2026-03-30T12:42:34Z</time></trkpt><trkpt lat="44.5126443" lon="8.9478898"><ele>176.0</ele><time>2026-03-30T12:42:35.121Z</time></trkpt><trkpt lat="44.5127828" lon="8.9481849"><ele>176.33333333333331</ele><time>2026-03-30T12:42:37.125Z</time></trkpt><trkpt lat="44.5129366" lon="8.9484675"><ele>176.66666666666666</ele><time>2026-03-30T12:42:39Z</time></trkpt><trkpt lat="44.5130108" lon="8.9486113"><ele>177.0</ele><time>2026-03-30T12:42:40.152Z</time></trkpt><trkpt lat="44.5130825" lon="8.9487582"><ele>177.0</ele><time>2026-03-30T12:42:41.134Z</time></trkpt><trkpt lat="44.5131567" lon="8.9489041"><ele>177.0</ele><time>2026-03-30T12:42:42.153Z</time></trkpt><trkpt lat="44.5132944" lon="8.9492182"><ele>177.0</ele><time>2026-03-30T12:42:44Z</time></trkpt><trkpt lat="44.5133582" lon="8.949367"><ele>180.33333333333334</ele><time>2026-03-30T12:42:45.153Z</time></trkpt><trkpt lat="44.5134306" lon="8.9495128"><ele>183.66666666666669</ele><time>2026-03-30T12:42:46.117Z</time></trkpt><trkpt lat="44.5134912" lon="8.9496587"><ele>187.0</ele><time>2026-03-30T12:42:47.152Z</time></trkpt><trkpt lat="44.5136334" lon="8.9499385"><ele>186.75</ele><time>2026-03-30T12:42:49Z</time></trkpt><trkpt lat="44.5137052" lon="8.9500865"><ele>186.5</ele><time>2026-03-30T12:42:50.15Z</time></trkpt><trkpt lat="44.513781" lon="8.95023"><ele>186.25</ele><time>2026-03-30T12:42:51.137Z</time></trkpt><trkpt lat="44.5138492" lon="8.9503484"><ele>186.0</ele><time>2026-03-30T12:42:52.133Z</time></trkpt><trkpt lat="44.5139646" lon="8.9505594"><ele>186.0</ele><time>2026-03-30T12:42:54Z</time></trkpt><trkpt lat="44.5140082" lon="8.9506828"><ele>186.0</ele><time>2026-03-30T12:42:55.128Z</time></trkpt><trkpt lat="44.5140156" lon="8.9508172"><ele>186.0</ele><time>2026-03-30T12:42:56.153Z</time></trkpt><trkpt lat="44.5139988" lon="8.9509357"><ele>186.0</ele><time>2026-03-30T12:42:57.165Z</time></trkpt><trkpt lat="44.5139179" lon="8.9511577"><ele>186.83333333333334</ele><time>2026-03-30T12:42:59Z</time></trkpt><trkpt lat="44.5138706" lon="8.9512457"><ele>187.66666666666666</ele><time>2026-03-30T12:43:00.12Z</time></trkpt><trkpt lat="44.5138167" lon="8.9513109"><ele>188.5</ele><time>2026-03-30T12:43:01.119Z</time></trkpt><trkpt lat="44.5137528" lon="8.9513385"><ele>189.33333333333331</ele><time>2026-03-30T12:43:02.15Z</time></trkpt><trkpt lat="44.5136506" lon="8.9513131"><ele>190.16666666666666</ele><time>2026-03-30T12:43:04Z</time></trkpt><trkpt lat="44.5135861" lon="8.9511609"><ele>191.0</ele><time>2026-03-30T12:43:05.171Z</time></trkpt><trkpt lat="44.5135301" lon="8.9510385"><ele>192.75</ele><time>2026-03-30T12:43:06.141Z</time></trkpt><trkpt lat="44.5134783" lon="8.9509287"><ele>194.5</ele><time>2026-03-30T12:43:07.141Z</time></trkpt><trkpt lat="44.513342" lon="8.9506749"><ele>196.25</ele><time>2026-03-30T12:43:09Z</time></trkpt><trkpt lat="44.513276" lon="8.9505387"><ele>198.0</ele><time>2026-03-30T12:43:10.163Z</time></trkpt><trkpt lat="44.5132068" lon="8.950405"><ele>198.0</ele><time>2026-03-30T12:43:11.163Z</time></trkpt><trkpt lat="44.513123" lon="8.9502644"><ele>198.0</ele><time>2026-03-30T12:43:12.162Z</time></trkpt><trkpt lat="44.512969" lon="8.9499916"><ele>198.0</ele><time>2026-03-30T12:43:14Z</time></trkpt><trkpt lat="44.5128896" lon="8.9498419"><ele>204.66666666666669</ele><time>2026-03-30T12:43:15.137Z</time></trkpt><trkpt lat="44.5128129" lon="8.949698"><ele>211.33333333333334</ele><time>2026-03-30T12:43:16.142Z</time></trkpt><trkpt lat="44.5126516" lon="8.9494565"><ele>218.0</ele><time>2026-03-30T12:43:18Z</time></trkpt><trkpt lat="44.5125647" lon="8.949335"><ele>218.0</ele><time>2026-03-30T12:43:19Z</time></trkpt><trkpt lat="44.5124773" lon="8.9492179"><ele>218.0</ele><time>2026-03-30T12:43:20.109Z</time></trkpt><trkpt lat="44.5123956" lon="8.9491031"><ele>218.0</ele><time>2026-03-30T12:43:21.149Z</time></trkpt><trkpt lat="44.5123156" lon="8.9489932"><ele>218.0</ele><time>2026-03-30T12:43:22.149Z</time></trkpt><trkpt lat="44.5121509" lon="8.9487875"><ele>220.66666666666669</ele><time>2026-03-30T12:43:24Z</time></trkpt><trkpt lat="44.5120594" lon="8.9486867"><ele>223.33333333333331</ele><time>2026-03-30T12:43:25.142Z</time></trkpt><trkpt lat="44.5119998" lon="8.9485594"><ele>226.0</ele><time>2026-03-30T12:43:26.145Z</time></trkpt><trkpt lat="44.5119124" lon="8.9482313"><ele>226.0</ele><time>2026-03-30T12:43:28Z</time></trkpt><trkpt lat="44.5118672" lon="8.9480864"><ele>226.0</ele><time>2026-03-30T12:43:29.152Z</time></trkpt><trkpt lat="44.51183" lon="8.9479489"><ele>226.0</ele><time>2026-03-30T12:43:30.144Z</time></trkpt><trkpt lat="44.511782" lon="8.9477705"><ele>226.0</ele><time>2026-03-30T12:43:31.14Z</time></trkpt><trkpt lat="44.5117447" lon="8.9476149"><ele>221.33333333333331</ele><time>2026-03-30T12:43:32.163Z</time></trkpt><trkpt lat="44.511695" lon="8.94726"><ele>216.66666666666669</ele><time>2026-03-30T12:43:34Z</time></trkpt><trkpt lat="44.5116821" lon="8.947064"><ele>212.0</ele><time>2026-03-30T12:43:35.149Z</time></trkpt><trkpt lat="44.5116713" lon="8.9469016"><ele>212.0</ele><time>2026-03-30T12:43:36.147Z</time></trkpt><trkpt lat="44.5116649" lon="8.9467126"><ele>212.0</ele><time>2026-03-30T12:43:37.119Z</time></trkpt><trkpt lat="44.5116023" lon="8.946361"><ele>212.0</ele><time>2026-03-30T12:43:39Z</time></trkpt><trkpt lat="44.5115521" lon="8.9462045"><ele>209.0</ele><time>2026-03-30T12:43:40Z</time></trkpt><trkpt lat="44.5115011" lon="8.9460519"><ele>206.0</ele><time>2026-03-30T12:43:41.13Z</time></trkpt><trkpt lat="44.511448" lon="8.9458808"><ele>203.0</ele><time>2026-03-30T12:43:42.151Z</time></trkpt><trkpt lat="44.5113331" lon="8.9455339"><ele>202.5</ele><time>2026-03-30T12:43:44Z</time></trkpt><trkpt lat="44.5112771" lon="8.9453741"><ele>202.0</ele><time>2026-03-30T12:43:45.13Z</time></trkpt><trkpt lat="44.5112218" lon="8.9452072"><ele>201.5</ele><time>2026-03-30T12:43:46.152Z</time></trkpt><trkpt lat="44.511176" lon="8.9450346"><ele>201.0</ele><time>2026-03-30T12:43:47Z</time></trkpt><trkpt lat="44.5111531" lon="8.9448741"><ele>208.75</ele><time>2026-03-30T12:43:48Z</time></trkpt><trkpt lat="44.511145" lon="8.9446955"><ele>216.5</ele><time>2026-03-30T12:43:49Z</time></trkpt><trkpt lat="44.5111397" lon="8.9445078"><ele>224.25</ele><time>2026-03-30T12:43:50.158Z</time></trkpt><trkpt lat="44.5111357" lon="8.9443466"><ele>232.0</ele><time>2026-03-30T12:43:51.136Z</time></trkpt><trkpt lat="44.5111283" lon="8.9441858"><ele>232.0</ele><time>2026-03-30T12:43:52.171Z</time></trkpt><trkpt lat="44.511064" lon="8.9438702"><ele>232.0</ele><time>2026-03-30T12:43:54Z</time></trkpt><trkpt lat="44.5110223" lon="8.9437023"><ele>232.0</ele><time>2026-03-30T12:43:55.151Z</time></trkpt><trkpt lat="44.510988" lon="8.9435463"><ele>232.0</ele><time>2026-03-30T12:43:56.118Z</time></trkpt><trkpt lat="44.5109687" lon="8.9433928"><ele>232.0</ele><time>2026-03-30T12:43:57.162Z</time></trkpt><trkpt lat="44.5109481" lon="8.9431042"><ele>232.0</ele><time>2026-03-30T12:43:59Z</time></trkpt><trkpt lat="44.5109258" lon="8.9429581"><ele>232.0</ele><time>2026-03-30T12:44:00Z</time></trkpt><trkpt lat="44.5108807" lon="8.9428559"><ele>230.25</ele><time>2026-03-30T12:44:01Z</time></trkpt><trkpt lat="44.510803" lon="8.9427561"><ele>228.5</ele><time>2026-03-30T12:44:02.117Z</time></trkpt><trkpt lat="44.5106505" lon="8.9425766"><ele>226.75</ele><time>2026-03-30T12:44:04Z</time></trkpt><trkpt lat="44.5105785" lon="8.9424893"><ele>225.0</ele><time>2026-03-30T12:44:05.133Z</time></trkpt><trkpt lat="44.5104284" lon="8.9422737"><ele>227.0</ele><time>2026-03-30T12:44:07Z</time></trkpt><trkpt lat="44.5103544" lon="8.9421736"><ele>229.0</ele><time>2026-03-30T12:44:08Z</time></trkpt><trkpt lat="44.5102756" lon="8.9420803"><ele>231.0</ele><time>2026-03-30T12:44:09.136Z</time></trkpt><trkpt lat="44.5101903" lon="8.942017"><ele>233.0</ele><time>2026-03-30T12:44:10.147Z</time></trkpt><trkpt lat="44.5100974" lon="8.941991"><ele>235.0</ele><time>2026-03-30T12:44:11.152Z</time></trkpt><trkpt lat="44.5099888" lon="8.9419831"><ele>235.0</ele><time>2026-03-30T12:44:12.138Z</time></trkpt><trkpt lat="44.5097747" lon="8.9420178"><ele>235.0</ele><time>2026-03-30T12:44:14Z</time></trkpt><trkpt lat="44.5096647" lon="8.9420146"><ele>235.0</ele><time>2026-03-30T12:44:15.17Z</time></trkpt><trkpt lat="44.5095603" lon="8.9420019"><ele>235.0</ele><time>2026-03-30T12:44:16.133Z</time></trkpt><trkpt lat="44.5094559" lon="8.9419979"><ele>236.75</ele><time>2026-03-30T12:44:17.141Z</time></trkpt><trkpt lat="44.5092728" lon="8.9420701"><ele>238.5</ele><time>2026-03-30T12:44:19Z</time></trkpt><trkpt lat="44.5091914" lon="8.9421469"><ele>240.25</ele><time>2026-03-30T12:44:20Z</time></trkpt><trkpt lat="44.5091267" lon="8.9422601"><ele>242.0</ele><time>2026-03-30T12:44:21.131Z</time></trkpt><trkpt lat="44.5090157" lon="8.9425564"><ele>242.0</ele><time>2026-03-30T12:44:23Z</time></trkpt><trkpt lat="44.5089752" lon="8.9427017"><ele>242.0</ele><time>2026-03-30T12:44:24Z</time></trkpt><trkpt lat="44.5089434" lon="8.942862"><ele>242.0</ele><time>2026-03-30T12:44:25.144Z</time></trkpt><trkpt lat="44.5089123" lon="8.9430156"><ele>242.0</ele><time>2026-03-30T12:44:26.133Z</time></trkpt><trkpt lat="44.5088723" lon="8.943172"><ele>248.0</ele><time>2026-03-30T12:44:27.113Z</time></trkpt><trkpt lat="44.508789" lon="8.9434818"><ele>254.0</ele><time>2026-03-30T12:44:29Z</time></trkpt><trkpt lat="44.508748" lon="8.9436285"><ele>260.0</ele><time>2026-03-30T12:44:30.117Z</time></trkpt><trkpt lat="44.5086943" lon="8.9437884"><ele>253.0</ele><time>2026-03-30T12:44:31.155Z</time></trkpt><trkpt lat="44.5086326" lon="8.9439232"><ele>246.0</ele><time>2026-03-30T12:44:32.125Z</time></trkpt><trkpt lat="44.5085049" lon="8.9442032"><ele>239.0</ele><time>2026-03-30T12:44:34Z</time></trkpt><trkpt lat="44.5084474" lon="8.944332"><ele>239.0</ele><time>2026-03-30T12:44:35Z</time></trkpt><trkpt lat="44.5084049" lon="8.9444805"><ele>239.0</ele><time>2026-03-30T12:44:36Z</time></trkpt><trkpt lat="44.5083829" lon="8.944632"><ele>239.0</ele><time>2026-03-30T12:44:37.127Z</time></trkpt><trkpt lat="44.5083454" lon="8.9449498"><ele>242.5</ele><time>2026-03-30T12:44:39Z</time></trkpt><trkpt lat="44.5083094" lon="8.9450872"><ele>246.0</ele><time>2026-03-30T12:44:40.161Z</time></trkpt><trkpt lat="44.5082661" lon="8.9452408"><ele>249.5</ele><time>2026-03-30T12:44:41.149Z</time></trkpt><trkpt lat="44.5082074" lon="8.9454175"><ele>253.0</ele><time>2026-03-30T12:44:42.13Z</time></trkpt><trkpt lat="44.508106" lon="8.9457246"><ele>253.0</ele><time>2026-03-30T12:44:44Z</time></trkpt><trkpt lat="44.5080529" lon="8.9458634"><ele>253.0</ele><time>2026-03-30T12:44:45.151Z</time></trkpt><trkpt lat="44.5079983" lon="8.9459897"><ele>253.0</ele><time>2026-03-30T12:44:46.153Z</time></trkpt><trkpt lat="44.5079411" lon="8.9461299"><ele>253.0</ele><time>2026-03-30T12:44:47.162Z</time></trkpt><trkpt lat="44.5078622" lon="8.9464149"><ele>248.5</ele><time>2026-03-30T12:44:49Z</time></trkpt><trkpt lat="44.5078324" lon="8.9465982"><ele>244.0</ele><time>2026-03-30T12:44:50.169Z</time></trkpt><trkpt lat="44.5078106" lon="8.9467547"><ele>239.5</ele><time>2026-03-30T12:44:51.149Z</time></trkpt><trkpt lat="44.50779" lon="8.9469126"><ele>235.0</ele><time>2026-03-30T12:44:52.17Z</time></trkpt><trkpt lat="44.5077483" lon="8.9472522"><ele>235.0</ele><time>2026-03-30T12:44:54Z</time></trkpt><trkpt lat="44.5077346" lon="8.9473798"><ele>235.0</ele><time>2026-03-30T12:44:55.147Z</time></trkpt><trkpt lat="44.5077081" lon="8.947561"><ele>235.0</ele><time>2026-03-30T12:44:56.158Z</time></trkpt><trkpt lat="44.507691" lon="8.9477007"><ele>235.0</ele><time>2026-03-30T12:44:57.169Z</time></trkpt><trkpt lat="44.5076218" lon="8.9479833"><ele>242.0</ele><time>2026-03-30T12:44:59Z</time></trkpt><trkpt lat="44.5075555" lon="8.9481297"><ele>249.0</ele><time>2026-03-30T12:45:00Z</time></trkpt><trkpt lat="44.5074818" lon="8.9482493"><ele>256.0</ele><time>2026-03-30T12:45:01.133Z</time></trkpt><trkpt lat="44.5073866" lon="8.9485225"><ele>253.25</ele><time>2026-03-30T12:45:02.999Z</time></trkpt><trkpt lat="44.5073418" lon="8.9486693"><ele>250.5</ele><time>2026-03-30T12:45:04Z</time></trkpt><trkpt lat="44.5072842" lon="8.948809"><ele>247.75</ele><time>2026-03-30T12:45:05.167Z</time></trkpt><trkpt lat="44.5072055" lon="8.9489495"><ele>245.0</ele><time>2026-03-30T12:45:06.165Z</time></trkpt><trkpt lat="44.5070348" lon="8.9491069"><ele>245.0</ele><time>2026-03-30T12:45:08Z</time></trkpt><trkpt lat="44.5069371" lon="8.9491351"><ele>245.0</ele><time>2026-03-30T12:45:09Z</time></trkpt><trkpt lat="44.5068476" lon="8.9491729"><ele>245.0</ele><time>2026-03-30T12:45:10Z</time></trkpt><trkpt lat="44.5067817" lon="8.9492333"><ele>245.0</ele><time>2026-03-30T12:45:11Z</time></trkpt><trkpt lat="44.5067423" lon="8.9493263"><ele>245.0</ele><time>2026-03-30T12:45:12.18Z</time></trkpt><trkpt lat="44.5067435" lon="8.9495493"><ele>247.25</ele><time>2026-03-30T12:45:14Z</time></trkpt><trkpt lat="44.5068223" lon="8.9495971"><ele>249.5</ele><time>2026-03-30T12:45:15.138Z</time></trkpt><trkpt lat="44.5068561" lon="8.9497457"><ele>251.75</ele><time>2026-03-30T12:45:16.166Z</time></trkpt><trkpt lat="44.5069071" lon="8.94986"><ele>254.0</ele><time>2026-03-30T12:45:17.14Z</time></trkpt><trkpt lat="44.5069343" lon="8.9501128"><ele>257.25</ele><time>2026-03-30T12:45:19Z</time></trkpt><trkpt lat="44.5069074" lon="8.9502495"><ele>260.5</ele><time>2026-03-30T12:45:20Z</time></trkpt><trkpt lat="44.5068557" lon="8.9503957"><ele>263.75</ele><time>2026-03-30T12:45:21.145Z</time></trkpt><trkpt lat="44.5067809" lon="8.9505071"><ele>267.0</ele><time>2026-03-30T12:45:22.153Z</time></trkpt><trkpt lat="44.5065914" lon="8.9506342"><ele>267.0</ele><time>2026-03-30T12:45:24.124Z</time></trkpt><trkpt lat="44.5063859" lon="8.9507022"><ele>267.0</ele><time>2026-03-30T12:45:26Z</time></trkpt><trkpt lat="44.5062874" lon="8.9507389"><ele>267.0</ele><time>2026-03-30T12:45:26.999Z</time></trkpt><trkpt lat="44.506192" lon="8.9507986"><ele>267.0</ele><time>2026-03-30T12:45:27.999Z</time></trkpt><trkpt lat="44.5061013" lon="8.9508745"><ele>264.75</ele><time>2026-03-30T12:45:29Z</time></trkpt><trkpt lat="44.5060249" lon="8.9509558"><ele>262.5</ele><time>2026-03-30T12:45:30.136Z</time></trkpt><trkpt lat="44.5059393" lon="8.95114"><ele>260.25</ele><time>2026-03-30T12:45:32.148Z</time></trkpt><trkpt lat="44.505954" lon="8.9513161"><ele>258.0</ele><time>2026-03-30T12:45:34Z</time></trkpt><trkpt lat="44.5059808" lon="8.9515276"><ele>258.0</ele><time>2026-03-30T12:45:35Z</time></trkpt><trkpt lat="44.5060067" lon="8.9516804"><ele>258.0</ele><time>2026-03-30T12:45:36Z</time></trkpt><trkpt lat="44.5060263" lon="8.9518349"><ele>258.0</ele><time>2026-03-30T12:45:37Z</time></trkpt><trkpt lat="44.506054" lon="8.9519817"><ele>258.0</ele><time>2026-03-30T12:45:38Z</time></trkpt><trkpt lat="44.5060904" lon="8.9521295"><ele>258.0</ele><time>2026-03-30T12:45:39Z</time></trkpt><trkpt lat="44.5061265" lon="8.9522607"><ele>258.0</ele><time>2026-03-30T12:45:40Z</time></trkpt><trkpt lat="44.5061443" lon="8.9523838"><ele>258.0</ele><time>2026-03-30T12:45:41.101Z</time></trkpt><trkpt lat="44.5061367" lon="8.9525009"><ele>258.0</ele><time>2026-03-30T12:45:42Z</time></trkpt><trkpt lat="44.506098" lon="8.952617"><ele>258.0</ele><time>2026-03-30T12:45:43Z</time></trkpt><trkpt lat="44.5060486" lon="8.9527115"><ele>258.0</ele><time>2026-03-30T12:45:44Z</time></trkpt><trkpt lat="44.5059942" lon="8.9528114"><ele>258.0</ele><time>2026-03-30T12:45:45Z</time></trkpt><trkpt lat="44.5059623" lon="8.9529334"><ele>261.8</ele><time>2026-03-30T12:45:46Z</time></trkpt><trkpt lat="44.5059561" lon="8.9530565"><ele>265.6</ele><time>2026-03-30T12:45:47Z</time></trkpt><trkpt lat="44.5059565" lon="8.9531734"><ele>269.4</ele><time>2026-03-30T12:45:48Z</time></trkpt><trkpt lat="44.5059448" lon="8.9533001"><ele>273.2</ele><time>2026-03-30T12:45:49Z</time></trkpt><trkpt lat="44.5059356" lon="8.9535045"><ele>277.0</ele><time>2026-03-30T12:45:50Z</time></trkpt><trkpt lat="44.5059497" lon="8.953649"><ele>281.0</ele><time>2026-03-30T12:45:51Z</time></trkpt><trkpt lat="44.5059714" lon="8.953782"><ele>285.0</ele><time>2026-03-30T12:45:52Z</time></trkpt><trkpt lat="44.5059881" lon="8.9539098"><ele>289.0</ele><time>2026-03-30T12:45:53Z</time></trkpt><trkpt lat="44.5059846" lon="8.9540281"><ele>293.0</ele><time>2026-03-30T12:45:54Z</time></trkpt><trkpt lat="44.5059558" lon="8.954126"><ele>297.0</ele><time>2026-03-30T12:45:55Z</time></trkpt><trkpt lat="44.5058976" lon="8.9542126"><ele>301.0</ele><time>2026-03-30T12:45:56Z</time></trkpt><trkpt lat="44.5058333" lon="8.9542635"><ele>307.16666666666663</ele><time>2026-03-30T12:45:57Z</time></trkpt><trkpt lat="44.5057463" lon="8.9543218"><ele>313.3333333333333</ele><time>2026-03-30T12:45:58Z</time></trkpt><trkpt lat="44.5056596" lon="8.9543603"><ele>319.5</ele><time>2026-03-30T12:45:59Z</time></trkpt><trkpt lat="44.5055783" lon="8.9543811"><ele>325.6666666666667</ele><time>2026-03-30T12:46:00Z</time></trkpt><trkpt lat="44.5055015" lon="8.9544173"><ele>331.83333333333337</ele><time>2026-03-30T12:46:01.105Z</time></trkpt><trkpt lat="44.5054224" lon="8.9544218"><ele>338.0</ele><time>2026-03-30T12:46:02.126Z</time></trkpt><trkpt lat="44.5052274" lon="8.9542826"><ele>338.0</ele><time>2026-03-30T12:46:04Z</time></trkpt><trkpt lat="44.5051258" lon="8.9542772"><ele>338.0</ele><time>2026-03-30T12:46:05.121Z</time></trkpt><trkpt lat="44.5050235" lon="8.9542923"><ele>338.0</ele><time>2026-03-30T12:46:06.126Z</time></trkpt><trkpt lat="44.504925" lon="8.9543235"><ele>338.0</ele><time>2026-03-30T12:46:07.137Z</time></trkpt><trkpt lat="44.504717" lon="8.9543546"><ele>338.0</ele><time>2026-03-30T12:46:09.153Z</time></trkpt><trkpt lat="44.5046121" lon="8.9543774"><ele>338.0</ele><time>2026-03-30T12:46:10Z</time></trkpt><trkpt lat="44.5044942" lon="8.9543849"><ele>338.0</ele><time>2026-03-30T12:46:11.15Z</time></trkpt><trkpt lat="44.5043864" lon="8.9543861"><ele>338.0</ele><time>2026-03-30T12:46:12.154Z</time></trkpt><trkpt lat="44.5042107" lon="8.9544068"><ele>331.79999999999995</ele><time>2026-03-30T12:46:14Z</time></trkpt><trkpt lat="44.5041323" lon="8.954442"><ele>325.59999999999997</ele><time>2026-03-30T12:46:15.156Z</time></trkpt><trkpt lat="44.5040335" lon="8.9545824"><ele>319.4</ele><time>2026-03-30T12:46:17Z</time></trkpt><trkpt lat="44.5040318" lon="8.9547006"><ele>313.2</ele><time>2026-03-30T12:46:18Z</time></trkpt><trkpt lat="44.5040508" lon="8.9548055"><ele>307.0</ele><time>2026-03-30T12:46:19Z</time></trkpt><trkpt lat="44.5040967" lon="8.9549202"><ele>307.0</ele><time>2026-03-30T12:46:20.128Z</time></trkpt><trkpt lat="44.5041502" lon="8.9550191"><ele>307.0</ele><time>2026-03-30T12:46:21.107Z</time></trkpt><trkpt lat="44.5042153" lon="8.9552729"><ele>307.0</ele><time>2026-03-30T12:46:23Z</time></trkpt><trkpt lat="44.5042135" lon="8.9554033"><ele>307.0</ele><time>2026-03-30T12:46:24Z</time></trkpt><trkpt lat="44.5042072" lon="8.9555346"><ele>311.0</ele><time>2026-03-30T12:46:24.999Z</time></trkpt><trkpt lat="44.5041576" lon="8.9556576"><ele>315.0</ele><time>2026-03-30T12:46:26Z</time></trkpt><trkpt lat="44.5040435" lon="8.9560746"><ele>319.0</ele><time>2026-03-30T12:46:29Z</time></trkpt><trkpt lat="44.5040063" lon="8.9562014"><ele>320.25</ele><time>2026-03-30T12:46:30.121Z</time></trkpt><trkpt lat="44.5039919" lon="8.9563312"><ele>321.5</ele><time>2026-03-30T12:46:31.16Z</time></trkpt><trkpt lat="44.5039877" lon="8.9564763"><ele>322.75</ele><time>2026-03-30T12:46:32.125Z</time></trkpt><trkpt lat="44.5040056" lon="8.9567674"><ele>324.0</ele><time>2026-03-30T12:46:34Z</time></trkpt><trkpt lat="44.5040398" lon="8.9569099"><ele>324.0</ele><time>2026-03-30T12:46:35.132Z</time></trkpt><trkpt lat="44.5040805" lon="8.9570402"><ele>324.0</ele><time>2026-03-30T12:46:36.171Z</time></trkpt><trkpt lat="44.504124" lon="8.957161"><ele>324.0</ele><time>2026-03-30T12:46:37.14Z</time></trkpt><trkpt lat="44.5041897" lon="8.9573764"><ele>324.0</ele><time>2026-03-30T12:46:39Z</time></trkpt><trkpt lat="44.5042025" lon="8.9574859"><ele>324.0</ele><time>2026-03-30T12:46:40.143Z</time></trkpt><trkpt lat="44.504134" lon="8.9576045"><ele>323.5</ele><time>2026-03-30T12:46:41.156Z</time></trkpt><trkpt lat="44.5040884" lon="8.957696"><ele>323.0</ele><time>2026-03-30T12:46:42.136Z</time></trkpt><trkpt lat="44.5040378" lon="8.957917"><ele>322.5</ele><time>2026-03-30T12:46:44Z</time></trkpt><trkpt lat="44.5040615" lon="8.9580234"><ele>322.0</ele><time>2026-03-30T12:46:45.139Z</time></trkpt><trkpt lat="44.5041754" lon="8.9582456"><ele>322.0</ele><time>2026-03-30T12:46:47Z</time></trkpt><trkpt lat="44.5042487" lon="8.9583452"><ele>322.0</ele><time>2026-03-30T12:46:48Z</time></trkpt><trkpt lat="44.504309" lon="8.9584545"><ele>322.0</ele><time>2026-03-30T12:46:49Z</time></trkpt><trkpt lat="44.5043475" lon="8.9585574"><ele>322.0</ele><time>2026-03-30T12:46:50Z</time></trkpt><trkpt lat="44.5043901" lon="8.9586596"><ele>322.0</ele><time>2026-03-30T12:46:51Z</time></trkpt><trkpt lat="44.5043905" lon="8.958775"><ele>327.5</ele><time>2026-03-30T12:46:52.144Z</time></trkpt><trkpt lat="44.5043215" lon="8.9589422"><ele>333.0</ele><time>2026-03-30T12:46:54Z</time></trkpt><trkpt lat="44.5042511" lon="8.9589804"><ele>338.5</ele><time>2026-03-30T12:46:55.147Z</time></trkpt><trkpt lat="44.5040852" lon="8.9590114"><ele>344.0</ele><time>2026-03-30T12:46:57.144Z</time></trkpt><trkpt lat="44.5038763" lon="8.9590621"><ele>344.0</ele><time>2026-03-30T12:46:59Z</time></trkpt><trkpt lat="44.5037733" lon="8.9591089"><ele>344.0</ele><time>2026-03-30T12:47:00.12Z</time></trkpt><trkpt lat="44.503672" lon="8.9591354"><ele>344.0</ele><time>2026-03-30T12:47:01.14Z</time></trkpt><trkpt lat="44.5034721" lon="8.9591616"><ele>344.0</ele><time>2026-03-30T12:47:03Z</time></trkpt><trkpt lat="44.5033779" lon="8.9592175"><ele>344.5</ele><time>2026-03-30T12:47:04Z</time></trkpt><trkpt lat="44.5032995" lon="8.9592809"><ele>345.0</ele><time>2026-03-30T12:47:05.11Z</time></trkpt><trkpt lat="44.5032709" lon="8.9593697"><ele>345.5</ele><time>2026-03-30T12:47:06.134Z</time></trkpt><trkpt lat="44.5032494" lon="8.9596723"><ele>346.0</ele><time>2026-03-30T12:47:09Z</time></trkpt><trkpt lat="44.5032335" lon="8.9598697"><ele>346.0</ele><time>2026-03-30T12:47:10.123Z</time></trkpt><trkpt lat="44.5032266" lon="8.9600236"><ele>346.0</ele><time>2026-03-30T12:47:11.156Z</time></trkpt><trkpt lat="44.5032094" lon="8.9601915"><ele>346.0</ele><time>2026-03-30T12:47:12.129Z</time></trkpt><trkpt lat="44.5031605" lon="8.9604796"><ele>346.0</ele><time>2026-03-30T12:47:14Z</time></trkpt><trkpt lat="44.5031201" lon="8.9605908"><ele>347.4</ele><time>2026-03-30T12:47:15.156Z</time></trkpt><trkpt lat="44.5030592" lon="8.9606727"><ele>348.8</ele><time>2026-03-30T12:47:16.146Z</time></trkpt><trkpt lat="44.5029856" lon="8.9607484"><ele>350.2</ele><time>2026-03-30T12:47:17.153Z</time></trkpt><trkpt lat="44.5028163" lon="8.9608101"><ele>351.59999999999997</ele><time>2026-03-30T12:47:19Z</time></trkpt><trkpt lat="44.5027478" lon="8.9608665"><ele>353.0</ele><time>2026-03-30T12:47:20.157Z</time></trkpt><trkpt lat="44.5026872" lon="8.9609461"><ele>353.0</ele><time>2026-03-30T12:47:21.141Z</time></trkpt><trkpt lat="44.502648" lon="8.9610649"><ele>353.0</ele><time>2026-03-30T12:47:22.153Z</time></trkpt><trkpt lat="44.5026283" lon="8.9613312"><ele>353.0</ele><time>2026-03-30T12:47:24Z</time></trkpt><trkpt lat="44.502604" lon="8.9614672"><ele>353.0</ele><time>2026-03-30T12:47:24.999Z</time></trkpt><trkpt lat="44.5025626" lon="8.9615931"><ele>360.2</ele><time>2026-03-30T12:47:26Z</time></trkpt><trkpt lat="44.5025099" lon="8.9617171"><ele>367.4</ele><time>2026-03-30T12:47:27Z</time></trkpt><trkpt lat="44.5024415" lon="8.961812"><ele>374.59999999999997</ele><time>2026-03-30T12:47:27.999Z</time></trkpt><trkpt lat="44.5023448" lon="8.9618616"><ele>381.79999999999995</ele><time>2026-03-30T12:47:29Z</time></trkpt><trkpt lat="44.5022615" lon="8.9618668"><ele>389.0</ele><time>2026-03-30T12:47:30Z</time></trkpt><trkpt lat="44.5021697" lon="8.96188"><ele>381.0</ele><time>2026-03-30T12:47:31Z</time></trkpt><trkpt lat="44.5020703" lon="8.9619181"><ele>373.0</ele><time>2026-03-30T12:47:32Z</time></trkpt><trkpt lat="44.5019947" lon="8.9619807"><ele>365.0</ele><time>2026-03-30T12:47:33Z</time></trkpt><trkpt lat="44.501946" lon="8.9620577"><ele>357.0</ele><time>2026-03-30T12:47:34.114Z</time></trkpt><trkpt lat="44.5018907" lon="8.9621794"><ele>349.0</ele><time>2026-03-30T12:47:35.169Z</time></trkpt><trkpt lat="44.5018491" lon="8.9622957"><ele>349.0</ele><time>2026-03-30T12:47:36.17Z</time></trkpt><trkpt lat="44.5018135" lon="8.9624017"><ele>349.0</ele><time>2026-03-30T12:47:37.114Z</time></trkpt><trkpt lat="44.501731" lon="8.9626038"><ele>349.0</ele><time>2026-03-30T12:47:38.999Z</time></trkpt><trkpt lat="44.5016798" lon="8.9627005"><ele>349.0</ele><time>2026-03-30T12:47:40.136Z</time></trkpt><trkpt lat="44.5016368" lon="8.9627715"><ele>349.0</ele><time>2026-03-30T12:47:41.118Z</time></trkpt><trkpt lat="44.5015994" lon="8.9628512"><ele>350.0</ele><time>2026-03-30T12:47:42.158Z</time></trkpt><trkpt lat="44.5015775" lon="8.9630296"><ele>351.0</ele><time>2026-03-30T12:47:43.999Z</time></trkpt><trkpt lat="44.5016281" lon="8.9631673"><ele>352.0</ele><time>2026-03-30T12:47:46.149Z</time></trkpt><trkpt lat="44.5017397" lon="8.9633306"><ele>353.0</ele><time>2026-03-30T12:47:49.166Z</time></trkpt><trkpt lat="44.5018375" lon="8.9634569"><ele>355.4</ele><time>2026-03-30T12:47:51.161Z</time></trkpt><trkpt lat="44.5018951" lon="8.9635004"><ele>357.79999999999995</ele><time>2026-03-30T12:47:52.124Z</time></trkpt><trkpt lat="44.5020527" lon="8.9635868"><ele>360.2</ele><time>2026-03-30T12:47:54Z</time></trkpt><trkpt lat="44.5021297" lon="8.9636229"><ele>362.6</ele><time>2026-03-30T12:47:55.142Z</time></trkpt><trkpt lat="44.5022" lon="8.9636672"><ele>365.0</ele><time>2026-03-30T12:47:56.141Z</time></trkpt><trkpt lat="44.502264" lon="8.9636982"><ele>365.0</ele><time>2026-03-30T12:47:57.121Z</time></trkpt><trkpt lat="44.5024251" lon="8.9637708"><ele>365.0</ele><time>2026-03-30T12:47:58.999Z</time></trkpt><trkpt lat="44.5025029" lon="8.9637991"><ele>365.0</ele><time>2026-03-30T12:48:00.152Z</time></trkpt><trkpt lat="44.502575" lon="8.9638235"><ele>365.0</ele><time>2026-03-30T12:48:01.116Z</time></trkpt><trkpt lat="44.5026399" lon="8.9638416"><ele>365.0</ele><time>2026-03-30T12:48:02.153Z</time></trkpt><trkpt lat="44.5028146" lon="8.9638041"><ele>365.0</ele><time>2026-03-30T12:48:04Z</time></trkpt><trkpt lat="44.5028836" lon="8.9638229"><ele>365.0</ele><time>2026-03-30T12:48:05.165Z</time></trkpt><trkpt lat="44.5029459" lon="8.9638579"><ele>365.0</ele><time>2026-03-30T12:48:06.121Z</time></trkpt><trkpt lat="44.5030027" lon="8.964092"><ele>365.0</ele><time>2026-03-30T12:48:09Z</time></trkpt><trkpt lat="44.5029826" lon="8.9641916"><ele>365.0</ele><time>2026-03-30T12:48:10.157Z</time></trkpt><trkpt lat="44.5029347" lon="8.9642906"><ele>361.75</ele><time>2026-03-30T12:48:11.148Z</time></trkpt><trkpt lat="44.50289" lon="8.9644603"><ele>358.5</ele><time>2026-03-30T12:48:12.133Z</time></trkpt><trkpt lat="44.5028094" lon="8.9646908"><ele>355.25</ele><time>2026-03-30T12:48:14Z</time></trkpt><trkpt lat="44.502783" lon="8.9648147"><ele>352.0</ele><time>2026-03-30T12:48:15.162Z</time></trkpt><trkpt lat="44.5027694" lon="8.9649315"><ele>351.0</ele><time>2026-03-30T12:48:16.15Z</time></trkpt><trkpt lat="44.5027719" lon="8.9650404"><ele>350.0</ele><time>2026-03-30T12:48:17.131Z</time></trkpt><trkpt lat="44.502818" lon="8.9652767"><ele>349.0</ele><time>2026-03-30T12:48:19Z</time></trkpt><trkpt lat="44.502868" lon="8.9653828"><ele>348.0</ele><time>2026-03-30T12:48:20.164Z</time></trkpt><trkpt lat="44.5029158" lon="8.9654738"><ele>347.0</ele><time>2026-03-30T12:48:21.129Z</time></trkpt><trkpt lat="44.502956" lon="8.9655672"><ele>360.25</ele><time>2026-03-30T12:48:22.143Z</time></trkpt><trkpt lat="44.5029901" lon="8.9657795"><ele>373.5</ele><time>2026-03-30T12:48:24Z</time></trkpt><trkpt lat="44.5029898" lon="8.9659433"><ele>386.75</ele><time>2026-03-30T12:48:25.157Z</time></trkpt><trkpt lat="44.5029946" lon="8.9660749"><ele>400.0</ele><time>2026-03-30T12:48:26.157Z</time></trkpt><trkpt lat="44.5030064" lon="8.9662085"><ele>400.0</ele><time>2026-03-30T12:48:27.157Z</time></trkpt><trkpt lat="44.503044" lon="8.9664374"><ele>400.0</ele><time>2026-03-30T12:48:29Z</time></trkpt><trkpt lat="44.5030742" lon="8.9665428"><ele>400.0</ele><time>2026-03-30T12:48:30.166Z</time></trkpt><trkpt lat="44.5031167" lon="8.9666497"><ele>400.0</ele><time>2026-03-30T12:48:31.149Z</time></trkpt><trkpt lat="44.5031781" lon="8.9668639"><ele>397.0</ele><time>2026-03-30T12:48:32.999Z</time></trkpt><trkpt lat="44.5031901" lon="8.9669785"><ele>394.0</ele><time>2026-03-30T12:48:34.174Z</time></trkpt><trkpt lat="44.5032092" lon="8.9670661"><ele>391.0</ele><time>2026-03-30T12:48:35.128Z</time></trkpt><trkpt lat="44.5032414" lon="8.9672643"><ele>388.0</ele><time>2026-03-30T12:48:37.126Z</time></trkpt><trkpt lat="44.5033275" lon="8.9674355"><ele>385.0</ele><time>2026-03-30T12:48:39Z</time></trkpt><trkpt lat="44.5033814" lon="8.9675115"><ele>384.00000000000006</ele><time>2026-03-30T12:48:40.182Z</time></trkpt><trkpt lat="44.5034361" lon="8.9675822"><ele>383.0</ele><time>2026-03-30T12:48:41.141Z</time></trkpt><trkpt lat="44.5035466" lon="8.9677291"><ele>382.0</ele><time>2026-03-30T12:48:42.999Z</time></trkpt><trkpt lat="44.5036002" lon="8.9678052"><ele>381.0</ele><time>2026-03-30T12:48:44Z</time></trkpt><trkpt lat="44.503651" lon="8.9678753"><ele>380.0</ele><time>2026-03-30T12:48:45.127Z</time></trkpt><trkpt lat="44.5037026" lon="8.9679446"><ele>379.0</ele><time>2026-03-30T12:48:46.137Z</time></trkpt><trkpt lat="44.5037546" lon="8.9680081"><ele>379.0</ele><time>2026-03-30T12:48:47.13Z</time></trkpt><trkpt lat="44.5038913" lon="8.9681028"><ele>379.0</ele><time>2026-03-30T12:48:49Z</time></trkpt><trkpt lat="44.5039635" lon="8.9680886"><ele>379.0</ele><time>2026-03-30T12:48:50.15Z</time></trkpt><trkpt lat="44.5040391" lon="8.9680718"><ele>379.0</ele><time>2026-03-30T12:48:51.155Z</time></trkpt><trkpt lat="44.5041276" lon="8.968029"><ele>379.0</ele><time>2026-03-30T12:48:52.12Z</time></trkpt><trkpt lat="44.5043002" lon="8.9679507"><ele>379.0</ele><time>2026-03-30T12:48:54Z</time></trkpt><trkpt lat="44.5043773" lon="8.9679067"><ele>379.0</ele><time>2026-03-30T12:48:55.118Z</time></trkpt><trkpt lat="44.5044643" lon="8.9678787"><ele>379.0</ele><time>2026-03-30T12:48:56.139Z</time></trkpt><trkpt lat="44.5045509" lon="8.9678533"><ele>379.0</ele><time>2026-03-30T12:48:57.144Z</time></trkpt><trkpt lat="44.5047459" lon="8.9678535"><ele>379.75</ele><time>2026-03-30T12:48:59Z</time></trkpt><trkpt lat="44.5048523" lon="8.9678573"><ele>380.5</ele><time>2026-03-30T12:49:00.151Z</time></trkpt><trkpt lat="44.5049608" lon="8.967841"><ele>381.25</ele><time>2026-03-30T12:49:01.15Z</time></trkpt><trkpt lat="44.5050579" lon="8.9678212"><ele>382.0</ele><time>2026-03-30T12:49:02.134Z</time></trkpt><trkpt lat="44.5052326" lon="8.9678214"><ele>382.0</ele><time>2026-03-30T12:49:04Z</time></trkpt><trkpt lat="44.5053141" lon="8.96784"><ele>382.0</ele><time>2026-03-30T12:49:05Z</time></trkpt><trkpt lat="44.5054" lon="8.9678635"><ele>382.0</ele><time>2026-03-30T12:49:05.999Z</time></trkpt><trkpt lat="44.5054823" lon="8.9678712"><ele>382.0</ele><time>2026-03-30T12:49:07Z</time></trkpt><trkpt lat="44.505578" lon="8.967864"><ele>382.0</ele><time>2026-03-30T12:49:07.999Z</time></trkpt><trkpt lat="44.5056625" lon="8.9678475"><ele>382.0</ele><time>2026-03-30T12:49:09Z</time></trkpt><trkpt lat="44.5057495" lon="8.9678261"><ele>383.75</ele><time>2026-03-30T12:49:10Z</time></trkpt><trkpt lat="44.5058499" lon="8.9677988"><ele>385.5</ele><time>2026-03-30T12:49:11.175Z</time></trkpt><trkpt lat="44.5059428" lon="8.9677639"><ele>387.25</ele><time>2026-03-30T12:49:12.121Z</time></trkpt><trkpt lat="44.5061034" lon="8.9676598"><ele>389.0</ele><time>2026-03-30T12:49:14Z</time></trkpt><trkpt lat="44.5061772" lon="8.967613"><ele>392.6</ele><time>2026-03-30T12:49:15.165Z</time></trkpt><trkpt lat="44.5062477" lon="8.9675811"><ele>396.2</ele><time>2026-03-30T12:49:16.164Z</time></trkpt><trkpt lat="44.5063204" lon="8.9675761"><ele>399.8</ele><time>2026-03-30T12:49:17.154Z</time></trkpt><trkpt lat="44.5064971" lon="8.9676379"><ele>403.40000000000003</ele><time>2026-03-30T12:49:19Z</time></trkpt><trkpt lat="44.5065747" lon="8.9676787"><ele>407.0</ele><time>2026-03-30T12:49:20.162Z</time></trkpt><trkpt lat="44.5066397" lon="8.9677387"><ele>407.0</ele><time>2026-03-30T12:49:21.152Z</time></trkpt><trkpt lat="44.506697" lon="8.9678144"><ele>407.0</ele><time>2026-03-30T12:49:22.159Z</time></trkpt><trkpt lat="44.5067768" lon="8.9680701"><ele>407.0</ele><time>2026-03-30T12:49:24Z</time></trkpt><trkpt lat="44.5068119" lon="8.9681903"><ele>407.0</ele><time>2026-03-30T12:49:25.174Z</time></trkpt><trkpt lat="44.5068482" lon="8.9683057"><ele>404.5</ele><time>2026-03-30T12:49:26.167Z</time></trkpt><trkpt lat="44.5069113" lon="8.9685159"><ele>402.0</ele><time>2026-03-30T12:49:28Z</time></trkpt><trkpt lat="44.50693" lon="8.9686243"><ele>399.5</ele><time>2026-03-30T12:49:29Z</time></trkpt><trkpt lat="44.5069321" lon="8.9687325"><ele>397.0</ele><time>2026-03-30T12:49:30.144Z</time></trkpt><trkpt lat="44.5068671" lon="8.9689321"><ele>397.0</ele><time>2026-03-30T12:49:32.154Z</time></trkpt><trkpt lat="44.5068541" lon="8.9691263"><ele>397.0</ele><time>2026-03-30T12:49:34Z</time></trkpt><trkpt lat="44.5068832" lon="8.9692203"><ele>397.0</ele><time>2026-03-30T12:49:35.165Z</time></trkpt><trkpt lat="44.5069283" lon="8.9693062"><ele>397.0</ele><time>2026-03-30T12:49:36.138Z</time></trkpt><trkpt lat="44.506978" lon="8.9693974"><ele>397.0</ele><time>2026-03-30T12:49:37.171Z</time></trkpt><trkpt lat="44.507047" lon="8.9696049"><ele>399.0</ele><time>2026-03-30T12:49:39Z</time></trkpt><trkpt lat="44.5070202" lon="8.9697286"><ele>401.0</ele><time>2026-03-30T12:49:40Z</time></trkpt><trkpt lat="44.506995" lon="8.9698325"><ele>403.0</ele><time>2026-03-30T12:49:41Z</time></trkpt><trkpt lat="44.5069494" lon="8.969961"><ele>405.0</ele><time>2026-03-30T12:49:42.106Z</time></trkpt><trkpt lat="44.506849" lon="8.9701812"><ele>408.2</ele><time>2026-03-30T12:49:44Z</time></trkpt><trkpt lat="44.5067952" lon="8.9702733"><ele>411.4</ele><time>2026-03-30T12:49:45.119Z</time></trkpt><trkpt lat="44.5066734" lon="8.9704501"><ele>414.6</ele><time>2026-03-30T12:49:46.999Z</time></trkpt><trkpt lat="44.5066242" lon="8.970543"><ele>417.8</ele><time>2026-03-30T12:49:47.999Z</time></trkpt><trkpt lat="44.5065896" lon="8.9706443"><ele>421.0</ele><time>2026-03-30T12:49:49.11Z</time></trkpt><trkpt lat="44.5065765" lon="8.9707487"><ele>424.0</ele><time>2026-03-30T12:49:50.124Z</time></trkpt><trkpt lat="44.5065941" lon="8.9709843"><ele>427.0</ele><time>2026-03-30T12:49:52.145Z</time></trkpt><trkpt lat="44.5066219" lon="8.97122"><ele>430.0</ele><time>2026-03-30T12:49:54Z</time></trkpt><trkpt lat="44.5066128" lon="8.971356"><ele>433.0</ele><time>2026-03-30T12:49:55.151Z</time></trkpt><trkpt lat="44.5065894" lon="8.9714783"><ele>433.0</ele><time>2026-03-30T12:49:56.151Z</time></trkpt><trkpt lat="44.5065356" lon="8.9716052"><ele>433.0</ele><time>2026-03-30T12:49:57.117Z</time></trkpt><trkpt lat="44.5063905" lon="8.9717642"><ele>433.0</ele><time>2026-03-30T12:49:59Z</time></trkpt><trkpt lat="44.5063148" lon="8.9718201"><ele>433.0</ele><time>2026-03-30T12:50:00.159Z</time></trkpt><trkpt lat="44.50625" lon="8.9718956"><ele>427.75</ele><time>2026-03-30T12:50:01.137Z</time></trkpt><trkpt lat="44.5062042" lon="8.9719756"><ele>422.5</ele><time>2026-03-30T12:50:02.146Z</time></trkpt><trkpt lat="44.5061309" lon="8.9721886"><ele>417.25</ele><time>2026-03-30T12:50:04Z</time></trkpt><trkpt lat="44.5060927" lon="8.9723854"><ele>412.0</ele><time>2026-03-30T12:50:06.125Z</time></trkpt><trkpt lat="44.5060789" lon="8.9725036"><ele>413.0</ele><time>2026-03-30T12:50:07.125Z</time></trkpt><trkpt lat="44.5060567" lon="8.9727196"><ele>414.0</ele><time>2026-03-30T12:50:08.999Z</time></trkpt><trkpt lat="44.5060405" lon="8.9728223"><ele>415.0</ele><time>2026-03-30T12:50:10.152Z</time></trkpt><trkpt lat="44.5060218" lon="8.9729371"><ele>416.0</ele><time>2026-03-30T12:50:11.155Z</time></trkpt><trkpt lat="44.5060108" lon="8.9730492"><ele>417.0</ele><time>2026-03-30T12:50:12.12Z</time></trkpt><trkpt lat="44.5060273" lon="8.9732711"><ele>414.8</ele><time>2026-03-30T12:50:14Z</time></trkpt><trkpt lat="44.5060523" lon="8.9733854"><ele>412.6</ele><time>2026-03-30T12:50:15Z</time></trkpt><trkpt lat="44.5060822" lon="8.973498"><ele>410.40000000000003</ele><time>2026-03-30T12:50:16Z</time></trkpt><trkpt lat="44.5061325" lon="8.9735915"><ele>408.20000000000005</ele><time>2026-03-30T12:50:17.116Z</time></trkpt><trkpt lat="44.506278" lon="8.9737265"><ele>406.0</ele><time>2026-03-30T12:50:19Z</time></trkpt><trkpt lat="44.5063594" lon="8.973758"><ele>409.6666666666667</ele><time>2026-03-30T12:50:20Z</time></trkpt><trkpt lat="44.5064436" lon="8.9737539"><ele>413.33333333333337</ele><time>2026-03-30T12:50:20.999Z</time></trkpt><trkpt lat="44.5065345" lon="8.973751"><ele>417.0</ele><time>2026-03-30T12:50:22Z</time></trkpt><trkpt lat="44.5066131" lon="8.9737412"><ele>420.66666666666663</ele><time>2026-03-30T12:50:23Z</time></trkpt><trkpt lat="44.5066951" lon="8.9737152"><ele>424.3333333333333</ele><time>2026-03-30T12:50:24Z</time></trkpt><trkpt lat="44.5067719" lon="8.9736933"><ele>428.0</ele><time>2026-03-30T12:50:25Z</time></trkpt><trkpt lat="44.5068457" lon="8.9737005"><ele>427.99999999999994</ele><time>2026-03-30T12:50:26.121Z</time></trkpt><trkpt lat="44.5069649" lon="8.973836"><ele>428.0</ele><time>2026-03-30T12:50:28Z</time></trkpt><trkpt lat="44.5070013" lon="8.9739186"><ele>428.0</ele><time>2026-03-30T12:50:29Z</time></trkpt><trkpt lat="44.5070158" lon="8.9740184"><ele>428.0</ele><time>2026-03-30T12:50:30Z</time></trkpt><trkpt lat="44.5070512" lon="8.9741085"><ele>427.99999999999994</ele><time>2026-03-30T12:50:31Z</time></trkpt><trkpt lat="44.5071081" lon="8.9741821"><ele>428.0</ele><time>2026-03-30T12:50:32Z</time></trkpt><trkpt lat="44.5071722" lon="8.9742455"><ele>426.49999999999994</ele><time>2026-03-30T12:50:33Z</time></trkpt><trkpt lat="44.5072547" lon="8.9742732"><ele>425.0</ele><time>2026-03-30T12:50:34Z</time></trkpt><trkpt lat="44.5073391" lon="8.9742894"><ele>423.5</ele><time>2026-03-30T12:50:35Z</time></trkpt><trkpt lat="44.5074224" lon="8.9742957"><ele>422.0</ele><time>2026-03-30T12:50:36Z</time></trkpt><trkpt lat="44.5075062" lon="8.9742885"><ele>420.49999999999994</ele><time>2026-03-30T12:50:37Z</time></trkpt><trkpt lat="44.5075894" lon="8.9742654"><ele>419.0</ele><time>2026-03-30T12:50:38Z</time></trkpt><trkpt lat="44.5076715" lon="8.9742272"><ele>420.16666666666663</ele><time>2026-03-30T12:50:39Z</time></trkpt><trkpt lat="44.5077492" lon="8.974171"><ele>421.3333333333333</ele><time>2026-03-30T12:50:40Z</time></trkpt><trkpt lat="44.5078145" lon="8.9740997"><ele>422.5</ele><time>2026-03-30T12:50:41Z</time></trkpt><trkpt lat="44.5078694" lon="8.974004"><ele>423.66666666666663</ele><time>2026-03-30T12:50:42Z</time></trkpt><trkpt lat="44.5079078" lon="8.9738817"><ele>424.8333333333333</ele><time>2026-03-30T12:50:43Z</time></trkpt><trkpt lat="44.5079414" lon="8.9737594"><ele>426.0</ele><time>2026-03-30T12:50:43.999Z</time></trkpt><trkpt lat="44.507967" lon="8.9736355"><ele>426.0</ele><time>2026-03-30T12:50:45Z</time></trkpt><trkpt lat="44.5080023" lon="8.9735179"><ele>426.0</ele><time>2026-03-30T12:50:46.136Z</time></trkpt><trkpt lat="44.5080342" lon="8.9734012"><ele>426.0</ele><time>2026-03-30T12:50:47.127Z</time></trkpt><trkpt lat="44.5081028" lon="8.9731722"><ele>426.0</ele><time>2026-03-30T12:50:49Z</time></trkpt><trkpt lat="44.5081472" lon="8.9730679"><ele>426.0</ele><time>2026-03-30T12:50:50.165Z</time></trkpt><trkpt lat="44.5082046" lon="8.9729968"><ele>429.5</ele><time>2026-03-30T12:50:51.178Z</time></trkpt><trkpt lat="44.508338" lon="8.9729608"><ele>433.0</ele><time>2026-03-30T12:50:52.999Z</time></trkpt><trkpt lat="44.5083954" lon="8.9729993"><ele>436.5</ele><time>2026-03-30T12:50:54Z</time></trkpt><trkpt lat="44.508445" lon="8.9730542"><ele>440.0</ele><time>2026-03-30T12:50:55.165Z</time></trkpt><trkpt lat="44.5085031" lon="8.9730944"><ele>443.5</ele><time>2026-03-30T12:50:56.174Z</time></trkpt><trkpt lat="44.5085748" lon="8.9731209"><ele>447.0</ele><time>2026-03-30T12:50:57.143Z</time></trkpt><trkpt lat="44.5087215" lon="8.9731263"><ele>447.8</ele><time>2026-03-30T12:50:59Z</time></trkpt><trkpt lat="44.5087998" lon="8.9731191"><ele>448.6</ele><time>2026-03-30T12:51:00.167Z</time></trkpt><trkpt lat="44.5088803" lon="8.973107"><ele>449.40000000000003</ele><time>2026-03-30T12:51:01.153Z</time></trkpt><trkpt lat="44.5089612" lon="8.9730869"><ele>450.20000000000005</ele><time>2026-03-30T12:51:02.121Z</time></trkpt><trkpt lat="44.5091258" lon="8.9730253"><ele>451.0</ele><time>2026-03-30T12:51:04Z</time></trkpt><trkpt lat="44.5092137" lon="8.9730374"><ele>451.0</ele><time>2026-03-30T12:51:05.172Z</time></trkpt><trkpt lat="44.5093017" lon="8.9730847"><ele>451.0</ele><time>2026-03-30T12:51:06.176Z</time></trkpt><trkpt lat="44.5093859" lon="8.9731426"><ele>451.0</ele><time>2026-03-30T12:51:07.158Z</time></trkpt><trkpt lat="44.509525" lon="8.9733037"><ele>451.0</ele><time>2026-03-30T12:51:08.999Z</time></trkpt><trkpt lat="44.5095786" lon="8.9734027"><ele>449.0</ele><time>2026-03-30T12:51:10.173Z</time></trkpt><trkpt lat="44.5096332" lon="8.973504"><ele>447.0</ele><time>2026-03-30T12:51:11.176Z</time></trkpt><trkpt lat="44.5096862" lon="8.9736031"><ele>445.0</ele><time>2026-03-30T12:51:12.16Z</time></trkpt><trkpt lat="44.5098305" lon="8.973726"><ele>443.0</ele><time>2026-03-30T12:51:14Z</time></trkpt><trkpt lat="44.5099194" lon="8.9737485"><ele>441.0</ele><time>2026-03-30T12:51:15.122Z</time></trkpt><trkpt lat="44.5100063" lon="8.9737303"><ele>441.0</ele><time>2026-03-30T12:51:16.146Z</time></trkpt><trkpt lat="44.5100884" lon="8.9736973"><ele>441.0</ele><time>2026-03-30T12:51:17.13Z</time></trkpt><trkpt lat="44.5102565" lon="8.9736083"><ele>441.0</ele><time>2026-03-30T12:51:19Z</time></trkpt><trkpt lat="44.5103338" lon="8.9735508"><ele>441.0</ele><time>2026-03-30T12:51:20.158Z</time></trkpt><trkpt lat="44.5104036" lon="8.9734746"><ele>441.0</ele><time>2026-03-30T12:51:21.159Z</time></trkpt><trkpt lat="44.5105428" lon="8.9733289"><ele>446.0</ele><time>2026-03-30T12:51:23Z</time></trkpt><trkpt lat="44.5106262" lon="8.9733008"><ele>451.0</ele><time>2026-03-30T12:51:24.155Z</time></trkpt><trkpt lat="44.5107072" lon="8.9732425"><ele>456.0</ele><time>2026-03-30T12:51:25.121Z</time></trkpt><trkpt lat="44.51079" lon="8.9731998"><ele>461.0</ele><time>2026-03-30T12:51:26.137Z</time></trkpt><trkpt lat="44.5108721" lon="8.973181"><ele>466.0</ele><time>2026-03-30T12:51:27.154Z</time></trkpt><trkpt lat="44.511035" lon="8.973224"><ele>466.0</ele><time>2026-03-30T12:51:29Z</time></trkpt><trkpt lat="44.5111161" lon="8.9732615"><ele>466.0</ele><time>2026-03-30T12:51:30.155Z</time></trkpt><trkpt lat="44.5111912" lon="8.9733184"><ele>466.0</ele><time>2026-03-30T12:51:31.133Z</time></trkpt><trkpt lat="44.5112702" lon="8.9733683"><ele>466.0</ele><time>2026-03-30T12:51:32.153Z</time></trkpt><trkpt lat="44.5114258" lon="8.9735042"><ele>466.0</ele><time>2026-03-30T12:51:34Z</time></trkpt><trkpt lat="44.5114964" lon="8.973604"><ele>464.25</ele><time>2026-03-30T12:51:35.162Z</time></trkpt><trkpt lat="44.5115556" lon="8.9737109"><ele>462.5</ele><time>2026-03-30T12:51:36.148Z</time></trkpt><trkpt lat="44.5116128" lon="8.9738125"><ele>460.75</ele><time>2026-03-30T12:51:37.142Z</time></trkpt><trkpt lat="44.5117605" lon="8.9739923"><ele>459.0</ele><time>2026-03-30T12:51:38.999Z</time></trkpt><trkpt lat="44.5118479" lon="8.9740489"><ele>459.0</ele><time>2026-03-30T12:51:40.13Z</time></trkpt><trkpt lat="44.5119379" lon="8.974088"><ele>459.0</ele><time>2026-03-30T12:51:41.122Z</time></trkpt><trkpt lat="44.5120316" lon="8.9740936"><ele>459.0</ele><time>2026-03-30T12:51:42.129Z</time></trkpt><trkpt lat="44.5122238" lon="8.9740933"><ele>459.0</ele><time>2026-03-30T12:51:44Z</time></trkpt><trkpt lat="44.5123198" lon="8.9741017"><ele>458.0</ele><time>2026-03-30T12:51:45.162Z</time></trkpt><trkpt lat="44.5124129" lon="8.974132"><ele>457.0</ele><time>2026-03-30T12:51:46.165Z</time></trkpt><trkpt lat="44.5124992" lon="8.974184"><ele>456.0</ele><time>2026-03-30T12:51:47.159Z</time></trkpt><trkpt lat="44.5126422" lon="8.9743151"><ele>455.0</ele><time>2026-03-30T12:51:49Z</time></trkpt><trkpt lat="44.5127273" lon="8.9743673"><ele>455.0</ele><time>2026-03-30T12:51:50.151Z</time></trkpt><trkpt lat="44.5128229" lon="8.9743991"><ele>455.0</ele><time>2026-03-30T12:51:51.16Z</time></trkpt><trkpt lat="44.5129161" lon="8.9743998"><ele>455.0</ele><time>2026-03-30T12:51:52.133Z</time></trkpt><trkpt lat="44.5130901" lon="8.9743545"><ele>455.0</ele><time>2026-03-30T12:51:54Z</time></trkpt><trkpt lat="44.5131775" lon="8.974332"><ele>457.2</ele><time>2026-03-30T12:51:55.169Z</time></trkpt><trkpt lat="44.5133405" lon="8.9743679"><ele>459.4</ele><time>2026-03-30T12:51:56.999Z</time></trkpt><trkpt lat="44.5134113" lon="8.9744487"><ele>461.6</ele><time>2026-03-30T12:51:58Z</time></trkpt><trkpt lat="44.5134723" lon="8.974559"><ele>463.8</ele><time>2026-03-30T12:51:58.999Z</time></trkpt><trkpt lat="44.5135187" lon="8.9746701"><ele>466.0</ele><time>2026-03-30T12:52:00.142Z</time></trkpt><trkpt lat="44.5135618" lon="8.9747741"><ele>466.0</ele><time>2026-03-30T12:52:01.167Z</time></trkpt><trkpt lat="44.5136123" lon="8.9748648"><ele>466.0</ele><time>2026-03-30T12:52:02.14Z</time></trkpt><trkpt lat="44.5137062" lon="8.974969"><ele>466.0</ele><time>2026-03-30T12:52:04Z</time></trkpt><trkpt lat="44.5137716" lon="8.9750068"><ele>466.0</ele><time>2026-03-30T12:52:06.181Z</time></trkpt><trkpt lat="44.5138596" lon="8.9751115"><ele>466.0</ele><time>2026-03-30T12:56:01Z</time></trkpt><trkpt lat="44.513925" lon="8.9751454"><ele>465.4</ele><time>2026-03-30T12:56:01.999Z</time></trkpt><trkpt lat="44.5140009" lon="8.9751943"><ele>464.8</ele><time>2026-03-30T12:56:03Z</time></trkpt><trkpt lat="44.5140836" lon="8.9752479"><ele>464.19999999999993</ele><time>2026-03-30T12:56:04Z</time></trkpt><trkpt lat="44.5141684" lon="8.9753108"><ele>463.59999999999997</ele><time>2026-03-30T12:56:05Z</time></trkpt><trkpt lat="44.5142546" lon="8.975381"><ele>463.0</ele><time>2026-03-30T12:56:06Z</time></trkpt><trkpt lat="44.514343" lon="8.9754516"><ele>463.0</ele><time>2026-03-30T12:56:07Z</time></trkpt><trkpt lat="44.5144262" lon="8.975526"><ele>462.99999999999994</ele><time>2026-03-30T12:56:08Z</time></trkpt><trkpt lat="44.5145099" lon="8.975598"><ele>462.99999999999994</ele><time>2026-03-30T12:56:09Z</time></trkpt><trkpt lat="44.5145867" lon="8.975669"><ele>463.0</ele><time>2026-03-30T12:56:10Z</time></trkpt><trkpt lat="44.514664" lon="8.9757376"><ele>463.0</ele><time>2026-03-30T12:56:11Z</time></trkpt><trkpt lat="44.5147438" lon="8.9758062"><ele>463.59999999999997</ele><time>2026-03-30T12:56:12Z</time></trkpt><trkpt lat="44.5148261" lon="8.9758747"><ele>464.19999999999993</ele><time>2026-03-30T12:56:13Z</time></trkpt><trkpt lat="44.5149128" lon="8.9759436"><ele>464.8</ele><time>2026-03-30T12:56:14Z</time></trkpt><trkpt lat="44.5149978" lon="8.9760188"><ele>465.4</ele><time>2026-03-30T12:56:15Z</time></trkpt><trkpt lat="44.5150824" lon="8.9760925"><ele>466.0</ele><time>2026-03-30T12:56:16Z</time></trkpt><trkpt lat="44.5151661" lon="8.9761667"><ele>466.0</ele><time>2026-03-30T12:56:17Z</time></trkpt><trkpt lat="44.5152512" lon="8.9762397"><ele>466.0</ele><time>2026-03-30T12:56:18Z</time></trkpt><trkpt lat="44.5153407" lon="8.976312"><ele>466.0</ele><time>2026-03-30T12:56:19Z</time></trkpt><trkpt lat="44.515427" lon="8.9763873"><ele>466.0</ele><time>2026-03-30T12:56:20Z</time></trkpt><trkpt lat="44.5155121" lon="8.9764578"><ele>466.0</ele><time>2026-03-30T12:56:21Z</time></trkpt><trkpt lat="44.5155965" lon="8.97653"><ele>466.4</ele><time>2026-03-30T12:56:22Z</time></trkpt><trkpt lat="44.5156818" lon="8.9766081"><ele>466.8</ele><time>2026-03-30T12:56:23Z</time></trkpt><trkpt lat="44.5157637" lon="8.9766965"><ele>467.19999999999993</ele><time>2026-03-30T12:56:23.999Z</time></trkpt><trkpt lat="44.5158405" lon="8.9767936"><ele>467.59999999999997</ele><time>2026-03-30T12:56:25Z</time></trkpt><trkpt lat="44.5159126" lon="8.9768982"><ele>468.0</ele><time>2026-03-30T12:56:26Z</time></trkpt><trkpt lat="44.5159873" lon="8.9770062"><ele>468.0</ele><time>2026-03-30T12:56:27Z</time></trkpt><trkpt lat="44.5160628" lon="8.977121"><ele>467.99999999999994</ele><time>2026-03-30T12:56:28Z</time></trkpt><trkpt lat="44.5161512" lon="8.9772297"><ele>467.99999999999994</ele><time>2026-03-30T12:56:29Z</time></trkpt><trkpt lat="44.5162242" lon="8.9773332"><ele>468.0</ele><time>2026-03-30T12:56:30Z</time></trkpt><trkpt lat="44.5163017" lon="8.9774331"><ele>468.0</ele><time>2026-03-30T12:56:31Z</time></trkpt><trkpt lat="44.5163581" lon="8.9775642"><ele>469.59999999999997</ele><time>2026-03-30T12:56:32Z</time></trkpt><trkpt lat="44.5163996" lon="8.977711"><ele>471.19999999999993</ele><time>2026-03-30T12:56:33Z</time></trkpt><trkpt lat="44.5164229" lon="8.9778589"><ele>472.8</ele><time>2026-03-30T12:56:34Z</time></trkpt><trkpt lat="44.5164539" lon="8.978009"><ele>474.4</ele><time>2026-03-30T12:56:35Z</time></trkpt><trkpt lat="44.5164921" lon="8.978148"><ele>476.0</ele><time>2026-03-30T12:56:36Z</time></trkpt><trkpt lat="44.5165331" lon="8.9782837"><ele>474.4</ele><time>2026-03-30T12:56:37Z</time></trkpt><trkpt lat="44.516594" lon="8.9784105"><ele>472.8</ele><time>2026-03-30T12:56:38Z</time></trkpt><trkpt lat="44.5166535" lon="8.9785372"><ele>471.19999999999993</ele><time>2026-03-30T12:56:39Z</time></trkpt><trkpt lat="44.5167086" lon="8.9786737"><ele>469.59999999999997</ele><time>2026-03-30T12:56:39.999Z</time></trkpt><trkpt lat="44.5167454" lon="8.9788097"><ele>468.0</ele><time>2026-03-30T12:56:41Z</time></trkpt><trkpt lat="44.5167585" lon="8.9789524"><ele>468.0</ele><time>2026-03-30T12:56:42Z</time></trkpt><trkpt lat="44.5167571" lon="8.979078"><ele>468.0</ele><time>2026-03-30T12:56:43Z</time></trkpt><trkpt lat="44.5167552" lon="8.979196"><ele>468.0</ele><time>2026-03-30T12:56:44Z</time></trkpt><trkpt lat="44.5167542" lon="8.9793265"><ele>468.0</ele><time>2026-03-30T12:56:45Z</time></trkpt><trkpt lat="44.5167752" lon="8.9794353"><ele>468.0</ele><time>2026-03-30T12:56:46Z</time></trkpt><trkpt lat="44.5168091" lon="8.9795293"><ele>468.0</ele><time>2026-03-30T12:56:47.105Z</time></trkpt><trkpt lat="44.5169138" lon="8.9797037"><ele>467.4</ele><time>2026-03-30T12:56:49Z</time></trkpt><trkpt lat="44.5169571" lon="8.9797848"><ele>466.79999999999995</ele><time>2026-03-30T12:56:50.16Z</time></trkpt><trkpt lat="44.5169604" lon="8.9799379"><ele>466.2</ele><time>2026-03-30T12:56:52.157Z</time></trkpt><trkpt lat="44.5168693" lon="8.9801561"><ele>465.6</ele><time>2026-03-30T12:56:54Z</time></trkpt><trkpt lat="44.5168322" lon="8.9802646"><ele>465.0</ele><time>2026-03-30T12:56:55.158Z</time></trkpt><trkpt lat="44.5168001" lon="8.9804801"><ele>463.5</ele><time>2026-03-30T12:56:57.134Z</time></trkpt><trkpt lat="44.5168211" lon="8.9807531"><ele>462.0</ele><time>2026-03-30T12:56:59Z</time></trkpt><trkpt lat="44.5168327" lon="8.9808973"><ele>460.5</ele><time>2026-03-30T12:57:00.173Z</time></trkpt><trkpt lat="44.5168477" lon="8.9810355"><ele>459.0</ele><time>2026-03-30T12:57:01.163Z</time></trkpt><trkpt lat="44.5168767" lon="8.9811738"><ele>460.75</ele><time>2026-03-30T12:57:02.166Z</time></trkpt><trkpt lat="44.5169693" lon="8.9814388"><ele>462.5</ele><time>2026-03-30T12:57:04.171Z</time></trkpt><trkpt lat="44.51703" lon="8.9815736"><ele>464.25</ele><time>2026-03-30T12:57:05.164Z</time></trkpt><trkpt lat="44.5170977" lon="8.9817173"><ele>466.0</ele><time>2026-03-30T12:57:06.155Z</time></trkpt><trkpt lat="44.5171708" lon="8.9818508"><ele>466.0</ele><time>2026-03-30T12:57:07.169Z</time></trkpt><trkpt lat="44.5173123" lon="8.9820885"><ele>466.0</ele><time>2026-03-30T12:57:09Z</time></trkpt><trkpt lat="44.5173571" lon="8.9822664"><ele>466.0</ele><time>2026-03-30T12:57:10.168Z</time></trkpt><trkpt lat="44.5173992" lon="8.9823936"><ele>466.0</ele><time>2026-03-30T12:57:11.133Z</time></trkpt><trkpt lat="44.5174317" lon="8.9825012"><ele>466.0</ele><time>2026-03-30T12:57:12.178Z</time></trkpt><trkpt lat="44.5175436" lon="8.982707"><ele>466.0</ele><time>2026-03-30T12:57:14Z</time></trkpt><trkpt lat="44.5176355" lon="8.9827451"><ele>466.0</ele><time>2026-03-30T12:57:15Z</time></trkpt><trkpt lat="44.5177305" lon="8.9827632"><ele>469.0</ele><time>2026-03-30T12:57:16.142Z</time></trkpt><trkpt lat="44.5178208" lon="8.9827886"><ele>472.0</ele><time>2026-03-30T12:57:17.172Z</time></trkpt><trkpt lat="44.5179781" lon="8.9829149"><ele>475.0</ele><time>2026-03-30T12:57:18.999Z</time></trkpt><trkpt lat="44.5179674" lon="8.9830548"><ele>478.0</ele><time>2026-03-30T12:57:20.163Z</time></trkpt><trkpt lat="44.5179583" lon="8.9831711"><ele>478.0</ele><time>2026-03-30T12:57:21.144Z</time></trkpt><trkpt lat="44.5179445" lon="8.9832855"><ele>478.0</ele><time>2026-03-30T12:57:22.14Z</time></trkpt><trkpt lat="44.517966" lon="8.9835349"><ele>478.0</ele><time>2026-03-30T12:57:24Z</time></trkpt><trkpt lat="44.5180095" lon="8.9836424"><ele>478.0</ele><time>2026-03-30T12:57:25.186Z</time></trkpt><trkpt lat="44.5180754" lon="8.9837573"><ele>473.0</ele><time>2026-03-30T12:57:26.148Z</time></trkpt><trkpt lat="44.5181586" lon="8.9838274"><ele>468.0</ele><time>2026-03-30T12:57:27.172Z</time></trkpt><trkpt lat="44.518322" lon="8.9839504"><ele>463.0</ele><time>2026-03-30T12:57:29Z</time></trkpt><trkpt lat="44.5184645" lon="8.9839955"><ele>458.0</ele><time>2026-03-30T12:57:31.123Z</time></trkpt><trkpt lat="44.5185655" lon="8.9840065"><ele>459.4</ele><time>2026-03-30T12:57:32.151Z</time></trkpt><trkpt lat="44.5187344" lon="8.9839479"><ele>460.79999999999995</ele><time>2026-03-30T12:57:34Z</time></trkpt><trkpt lat="44.5188136" lon="8.98397"><ele>462.2</ele><time>2026-03-30T12:57:35.144Z</time></trkpt><trkpt lat="44.5188856" lon="8.984035"><ele>463.6</ele><time>2026-03-30T12:57:36.145Z</time></trkpt><trkpt lat="44.5189441" lon="8.9841298"><ele>465.0</ele><time>2026-03-30T12:57:37.13Z</time></trkpt><trkpt lat="44.5190135" lon="8.9843839"><ele>465.0</ele><time>2026-03-30T12:57:39.157Z</time></trkpt><trkpt lat="44.5190425" lon="8.9845323"><ele>465.0</ele><time>2026-03-30T12:57:40.119Z</time></trkpt><trkpt lat="44.519072" lon="8.9846735"><ele>465.0</ele><time>2026-03-30T12:57:41.118Z</time></trkpt><trkpt lat="44.5191023" lon="8.9848113"><ele>465.0</ele><time>2026-03-30T12:57:42.165Z</time></trkpt><trkpt lat="44.5191825" lon="8.985057"><ele>461.75</ele><time>2026-03-30T12:57:44Z</time></trkpt><trkpt lat="44.5192366" lon="8.9851682"><ele>458.5</ele><time>2026-03-30T12:57:45.137Z</time></trkpt><trkpt lat="44.519306" lon="8.985261"><ele>455.25</ele><time>2026-03-30T12:57:46.131Z</time></trkpt><trkpt lat="44.5193748" lon="8.9853423"><ele>452.0</ele><time>2026-03-30T12:57:47.164Z</time></trkpt><trkpt lat="44.5195054" lon="8.9855107"><ele>452.0</ele><time>2026-03-30T12:57:49Z</time></trkpt><trkpt lat="44.5195418" lon="8.9856316"><ele>452.0</ele><time>2026-03-30T12:57:50.134Z</time></trkpt><trkpt lat="44.5195637" lon="8.985751"><ele>452.0</ele><time>2026-03-30T12:57:51.147Z</time></trkpt><trkpt lat="44.5195707" lon="8.9860055"><ele>452.0</ele><time>2026-03-30T12:57:53Z</time></trkpt><trkpt lat="44.5195725" lon="8.9861455"><ele>453.25</ele><time>2026-03-30T12:57:54.185Z</time></trkpt><trkpt lat="44.5195761" lon="8.9862787"><ele>454.5</ele><time>2026-03-30T12:57:55.152Z</time></trkpt><trkpt lat="44.5195806" lon="8.9864211"><ele>455.75</ele><time>2026-03-30T12:57:56.154Z</time></trkpt><trkpt lat="44.5195817" lon="8.9865631"><ele>457.0</ele><time>2026-03-30T12:57:57.144Z</time></trkpt><trkpt lat="44.5195628" lon="8.9868321"><ele>457.0</ele><time>2026-03-30T12:57:59Z</time></trkpt><trkpt lat="44.5195631" lon="8.986964"><ele>457.0</ele><time>2026-03-30T12:58:00.164Z</time></trkpt><trkpt lat="44.5195714" lon="8.9870895"><ele>457.0</ele><time>2026-03-30T12:58:01.174Z</time></trkpt><trkpt lat="44.5195881" lon="8.9872195"><ele>457.0</ele><time>2026-03-30T12:58:02.146Z</time></trkpt><trkpt lat="44.5196261" lon="8.9874808"><ele>459.8</ele><time>2026-03-30T12:58:04Z</time></trkpt><trkpt lat="44.5196363" lon="8.9875944"><ele>462.6</ele><time>2026-03-30T12:58:05.139Z</time></trkpt><trkpt lat="44.5196548" lon="8.9876881"><ele>465.40000000000003</ele><time>2026-03-30T12:58:06.187Z</time></trkpt><trkpt lat="44.5197588" lon="8.9878416"><ele>468.20000000000005</ele><time>2026-03-30T12:58:09Z</time></trkpt><trkpt lat="44.5198669" lon="8.9879097"><ele>471.0</ele><time>2026-03-30T12:58:12Z</time></trkpt><trkpt lat="44.5199776" lon="8.9878826"><ele>471.0</ele><time>2026-03-30T12:58:14Z</time></trkpt><trkpt lat="44.5200453" lon="8.9878826"><ele>471.0</ele><time>2026-03-30T12:58:15Z</time></trkpt><trkpt lat="44.5201297" lon="8.9878502"><ele>471.0</ele><time>2026-03-30T12:58:16Z</time></trkpt><trkpt lat="44.5202168" lon="8.9878253"><ele>471.0</ele><time>2026-03-30T12:58:17.172Z</time></trkpt><trkpt lat="44.520394" lon="8.9877898"><ele>471.0</ele><time>2026-03-30T12:58:19Z</time></trkpt><trkpt lat="44.5204958" lon="8.9877662"><ele>469.6</ele><time>2026-03-30T12:58:20.157Z</time></trkpt><trkpt lat="44.5205959" lon="8.9877461"><ele>468.20000000000005</ele><time>2026-03-30T12:58:21.119Z</time></trkpt><trkpt lat="44.5206868" lon="8.9877257"><ele>466.79999999999995</ele><time>2026-03-30T12:58:22.152Z</time></trkpt><trkpt lat="44.5207886" lon="8.9877107"><ele>465.4</ele><time>2026-03-30T12:58:23Z</time></trkpt><trkpt lat="44.5208882" lon="8.9876984"><ele>464.0</ele><time>2026-03-30T12:58:24Z</time></trkpt><trkpt lat="44.5209872" lon="8.9876808"><ele>464.0</ele><time>2026-03-30T12:58:25.124Z</time></trkpt><trkpt lat="44.5210914" lon="8.9876678"><ele>464.0</ele><time>2026-03-30T12:58:26.163Z</time></trkpt><trkpt lat="44.5212026" lon="8.9876498"><ele>464.0</ele><time>2026-03-30T12:58:27.116Z</time></trkpt><trkpt lat="44.5214237" lon="8.9876184"><ele>464.0</ele><time>2026-03-30T12:58:29Z</time></trkpt><trkpt lat="44.5215375" lon="8.9876191"><ele>462.75</ele><time>2026-03-30T12:58:30.171Z</time></trkpt><trkpt lat="44.5216491" lon="8.9876326"><ele>461.5</ele><time>2026-03-30T12:58:31.162Z</time></trkpt><trkpt lat="44.5217527" lon="8.9876613"><ele>460.25</ele><time>2026-03-30T12:58:32.162Z</time></trkpt><trkpt lat="44.5219626" lon="8.9877585"><ele>459.0</ele><time>2026-03-30T12:58:34Z</time></trkpt><trkpt lat="44.5220606" lon="8.9878136"><ele>458.6</ele><time>2026-03-30T12:58:35.172Z</time></trkpt><trkpt lat="44.5221488" lon="8.9878643"><ele>458.2</ele><time>2026-03-30T12:58:36.16Z</time></trkpt><trkpt lat="44.5222298" lon="8.9879092"><ele>457.80000000000007</ele><time>2026-03-30T12:58:37.13Z</time></trkpt><trkpt lat="44.5223907" lon="8.9880007"><ele>457.40000000000003</ele><time>2026-03-30T12:58:39Z</time></trkpt><trkpt lat="44.5224628" lon="8.9880465"><ele>457.0</ele><time>2026-03-30T12:58:40.169Z</time></trkpt><trkpt lat="44.5225267" lon="8.9880809"><ele>457.0</ele><time>2026-03-30T12:58:41.166Z</time></trkpt><trkpt lat="44.5226463" lon="8.9882674"><ele>457.0</ele><time>2026-03-30T12:58:44Z</time></trkpt><trkpt lat="44.5227299" lon="8.9883759"><ele>457.0</ele><time>2026-03-30T12:58:46.129Z</time></trkpt><trkpt lat="44.5228511" lon="8.9884485"><ele>457.0</ele><time>2026-03-30T12:58:49Z</time></trkpt><trkpt lat="44.5228767" lon="8.9885354"><ele>456.1428571428572</ele><time>2026-03-30T12:59:12Z</time></trkpt><trkpt lat="44.5229409" lon="8.988483"><ele>455.28571428571433</ele><time>2026-03-30T13:02:30.15Z</time></trkpt><trkpt lat="44.5230031" lon="8.9885069"><ele>454.42857142857144</ele><time>2026-03-30T13:05:04Z</time></trkpt><trkpt lat="44.52299" lon="8.9884184"><ele>453.5714285714286</ele><time>2026-03-30T13:05:21Z</time></trkpt><trkpt lat="44.5230517" lon="8.988399"><ele>452.7142857142858</ele><time>2026-03-30T13:17:25Z</time></trkpt><trkpt lat="44.5230036" lon="8.9884564"><ele>451.85714285714283</ele><time>2026-03-30T13:18:08Z</time></trkpt><trkpt lat="44.5229898" lon="8.9883628"><ele>451.0</ele><time>2026-03-30T13:32:04Z</time></trkpt><trkpt lat="44.5230502" lon="8.9883973"><ele>451.00000000000006</ele><time>2026-03-30T13:32:56Z</time></trkpt><trkpt lat="44.5231128" lon="8.9883565"><ele>451.0</ele><time>2026-03-30T13:33:02Z</time></trkpt><trkpt lat="44.5232329" lon="8.9883656"><ele>451.0</ele><time>2026-03-30T13:33:04Z</time></trkpt><trkpt lat="44.5233101" lon="8.9884132"><ele>451.0</ele><time>2026-03-30T13:33:05Z</time></trkpt><trkpt lat="44.5233899" lon="8.9884725"><ele>451.00000000000006</ele><time>2026-03-30T13:33:05.999Z</time></trkpt><trkpt lat="44.5234723" lon="8.9885026"><ele>451.0</ele><time>2026-03-30T13:33:07.141Z</time></trkpt><trkpt lat="44.5236234" lon="8.9885877"><ele>451.0</ele><time>2026-03-30T13:33:09Z</time></trkpt><trkpt lat="44.5237073" lon="8.9886302"><ele>451.0</ele><time>2026-03-30T13:33:10.133Z</time></trkpt><trkpt lat="44.5237946" lon="8.9886712"><ele>451.0</ele><time>2026-03-30T13:33:11.143Z</time></trkpt><trkpt lat="44.5238835" lon="8.9887276"><ele>451.0</ele><time>2026-03-30T13:33:12.134Z</time></trkpt><trkpt lat="44.5240577" lon="8.9888681"><ele>451.0</ele><time>2026-03-30T13:33:14Z</time></trkpt><trkpt lat="44.5241404" lon="8.9889579"><ele>451.0</ele><time>2026-03-30T13:33:15.16Z</time></trkpt><trkpt lat="44.5242251" lon="8.9890482"><ele>451.0</ele><time>2026-03-30T13:33:16.155Z</time></trkpt><trkpt lat="44.5243143" lon="8.9891348"><ele>451.0</ele><time>2026-03-30T13:33:17.152Z</time></trkpt><trkpt lat="44.5245066" lon="8.9893036"><ele>448.75</ele><time>2026-03-30T13:33:19Z</time></trkpt><trkpt lat="44.5246091" lon="8.9893854"><ele>446.5</ele><time>2026-03-30T13:33:20Z</time></trkpt><trkpt lat="44.5247155" lon="8.9894656"><ele>444.25</ele><time>2026-03-30T13:33:21.135Z</time></trkpt><trkpt lat="44.5248188" lon="8.9895509"><ele>442.0</ele><time>2026-03-30T13:33:22.138Z</time></trkpt><trkpt lat="44.5250287" lon="8.9897282"><ele>442.0</ele><time>2026-03-30T13:33:24Z</time></trkpt><trkpt lat="44.5251318" lon="8.9898119"><ele>442.0</ele><time>2026-03-30T13:33:25Z</time></trkpt><trkpt lat="44.5252342" lon="8.9899005"><ele>442.0</ele><time>2026-03-30T13:33:26Z</time></trkpt><trkpt lat="44.5253403" lon="8.9899816"><ele>442.0</ele><time>2026-03-30T13:33:27Z</time></trkpt><trkpt lat="44.5254358" lon="8.9900613"><ele>439.25</ele><time>2026-03-30T13:33:28Z</time></trkpt><trkpt lat="44.5255436" lon="8.9901377"><ele>436.5</ele><time>2026-03-30T13:33:29Z</time></trkpt><trkpt lat="44.5256594" lon="8.990209"><ele>433.75</ele><time>2026-03-30T13:33:29.999Z</time></trkpt><trkpt lat="44.525782" lon="8.9902781"><ele>431.0</ele><time>2026-03-30T13:33:30.999Z</time></trkpt><trkpt lat="44.5259053" lon="8.9903564"><ele>431.0</ele><time>2026-03-30T13:33:32Z</time></trkpt><trkpt lat="44.5260258" lon="8.9904225"><ele>431.0</ele><time>2026-03-30T13:33:33Z</time></trkpt><trkpt lat="44.5261494" lon="8.9904899"><ele>431.0</ele><time>2026-03-30T13:33:34Z</time></trkpt><trkpt lat="44.5262687" lon="8.9905608"><ele>431.0</ele><time>2026-03-30T13:33:35Z</time></trkpt><trkpt lat="44.5263858" lon="8.9906279"><ele>431.0</ele><time>2026-03-30T13:33:36Z</time></trkpt><trkpt lat="44.5265055" lon="8.9906995"><ele>431.0</ele><time>2026-03-30T13:33:37Z</time></trkpt><trkpt lat="44.526629" lon="8.9907742"><ele>431.0</ele><time>2026-03-30T13:33:37.999Z</time></trkpt><trkpt lat="44.5267427" lon="8.9908459"><ele>431.0</ele><time>2026-03-30T13:33:39Z</time></trkpt><trkpt lat="44.5268589" lon="8.9909292"><ele>430.75</ele><time>2026-03-30T13:33:40Z</time></trkpt><trkpt lat="44.5269729" lon="8.9910079"><ele>430.5</ele><time>2026-03-30T13:33:41Z</time></trkpt><trkpt lat="44.5270829" lon="8.9910858"><ele>430.25</ele><time>2026-03-30T13:33:42Z</time></trkpt><trkpt lat="44.5271997" lon="8.9911634"><ele>430.0</ele><time>2026-03-30T13:33:43Z</time></trkpt><trkpt lat="44.5273169" lon="8.9912413"><ele>429.25</ele><time>2026-03-30T13:33:44Z</time></trkpt><trkpt lat="44.5274312" lon="8.9913166"><ele>428.5</ele><time>2026-03-30T13:33:45Z</time></trkpt><trkpt lat="44.5275477" lon="8.9913966"><ele>427.75</ele><time>2026-03-30T13:33:46Z</time></trkpt><trkpt lat="44.5276609" lon="8.9914874"><ele>427.0</ele><time>2026-03-30T13:33:47Z</time></trkpt><trkpt lat="44.5277829" lon="8.9915898"><ele>424.0</ele><time>2026-03-30T13:33:48Z</time></trkpt><trkpt lat="44.5279002" lon="8.9916912"><ele>421.0</ele><time>2026-03-30T13:33:49Z</time></trkpt><trkpt lat="44.528015" lon="8.9918024"><ele>418.0</ele><time>2026-03-30T13:33:50Z</time></trkpt><trkpt lat="44.5281268" lon="8.9919136"><ele>415.0</ele><time>2026-03-30T13:33:51.111Z</time></trkpt><trkpt lat="44.5282401" lon="8.9920178"><ele>415.0</ele><time>2026-03-30T13:33:52.131Z</time></trkpt><trkpt lat="44.5283512" lon="8.992129"><ele>415.0</ele><time>2026-03-30T13:33:52.999Z</time></trkpt><trkpt lat="44.5284568" lon="8.9922287"><ele>415.0</ele><time>2026-03-30T13:33:54Z</time></trkpt><trkpt lat="44.5285582" lon="8.992325"><ele>415.0</ele><time>2026-03-30T13:33:55.15Z</time></trkpt><trkpt lat="44.5287586" lon="8.9924706"><ele>414.5</ele><time>2026-03-30T13:33:57Z</time></trkpt><trkpt lat="44.5288792" lon="8.9925059"><ele>414.0</ele><time>2026-03-30T13:33:58Z</time></trkpt><trkpt lat="44.5290015" lon="8.9925252"><ele>413.5</ele><time>2026-03-30T13:33:59Z</time></trkpt><trkpt lat="44.5291225" lon="8.9925396"><ele>413.0</ele><time>2026-03-30T13:34:00.109Z</time></trkpt><trkpt lat="44.5292475" lon="8.9925583"><ele>410.66666666666663</ele><time>2026-03-30T13:34:01.144Z</time></trkpt><trkpt lat="44.5293644" lon="8.9925782"><ele>408.33333333333337</ele><time>2026-03-30T13:34:02.138Z</time></trkpt><trkpt lat="44.5296143" lon="8.9925959"><ele>406.0</ele><time>2026-03-30T13:34:04Z</time></trkpt><trkpt lat="44.5297407" lon="8.9926005"><ele>404.33333333333337</ele><time>2026-03-30T13:34:05.124Z</time></trkpt><trkpt lat="44.5298648" lon="8.9926129"><ele>402.66666666666663</ele><time>2026-03-30T13:34:06.117Z</time></trkpt><trkpt lat="44.5299931" lon="8.9926329"><ele>401.0</ele><time>2026-03-30T13:34:07.13Z</time></trkpt><trkpt lat="44.5302433" lon="8.9927129"><ele>401.0</ele><time>2026-03-30T13:34:09Z</time></trkpt><trkpt lat="44.5303699" lon="8.9927651"><ele>401.0</ele><time>2026-03-30T13:34:10.124Z</time></trkpt><trkpt lat="44.5304964" lon="8.9928196"><ele>401.0</ele><time>2026-03-30T13:34:11.122Z</time></trkpt><trkpt lat="44.5306257" lon="8.9928883"><ele>401.0</ele><time>2026-03-30T13:34:12.145Z</time></trkpt><trkpt lat="44.5308878" lon="8.9929989"><ele>399.75</ele><time>2026-03-30T13:34:14Z</time></trkpt><trkpt lat="44.5310281" lon="8.9930598"><ele>398.5</ele><time>2026-03-30T13:34:15.163Z</time></trkpt><trkpt lat="44.5311663" lon="8.9931183"><ele>397.25</ele><time>2026-03-30T13:34:16.169Z</time></trkpt><trkpt lat="44.5312998" lon="8.9931734"><ele>396.0</ele><time>2026-03-30T13:34:17.156Z</time></trkpt><trkpt lat="44.531537" lon="8.993277"><ele>396.0</ele><time>2026-03-30T13:34:19Z</time></trkpt><trkpt lat="44.5316428" lon="8.99332"><ele>396.0</ele><time>2026-03-30T13:34:20.163Z</time></trkpt><trkpt lat="44.5317126" lon="8.9933446"><ele>396.0</ele><time>2026-03-30T13:34:21.171Z</time></trkpt><trkpt lat="44.5318251" lon="8.9933675"><ele>396.0</ele><time>2026-03-30T13:34:24Z</time></trkpt><trkpt lat="44.5319017" lon="8.9934103"><ele>396.0</ele><time>2026-03-30T13:34:26Z</time></trkpt><trkpt lat="44.5320453" lon="8.9934023"><ele>396.8</ele><time>2026-03-30T13:34:29Z</time></trkpt><trkpt lat="44.5320746" lon="8.9933212"><ele>397.6</ele><time>2026-03-30T13:34:30.107Z</time></trkpt><trkpt lat="44.5320974" lon="8.9932219"><ele>398.4</ele><time>2026-03-30T13:34:31.109Z</time></trkpt><trkpt lat="44.5321489" lon="8.9930073"><ele>399.2</ele><time>2026-03-30T13:34:33Z</time></trkpt><trkpt lat="44.5321791" lon="8.9928812"><ele>400.0</ele><time>2026-03-30T13:34:34Z</time></trkpt><trkpt lat="44.5322228" lon="8.9927464"><ele>400.0</ele><time>2026-03-30T13:34:35.148Z</time></trkpt><trkpt lat="44.5323056" lon="8.9926085"><ele>400.0</ele><time>2026-03-30T13:34:36.139Z</time></trkpt><trkpt lat="44.5323791" lon="8.9924784"><ele>400.0</ele><time>2026-03-30T13:34:37.15Z</time></trkpt><trkpt lat="44.5325532" lon="8.9921926"><ele>399.5</ele><time>2026-03-30T13:34:39Z</time></trkpt><trkpt lat="44.5326532" lon="8.9920615"><ele>399.0</ele><time>2026-03-30T13:34:40.118Z</time></trkpt><trkpt lat="44.5327498" lon="8.9919385"><ele>398.5</ele><time>2026-03-30T13:34:41.151Z</time></trkpt><trkpt lat="44.5328632" lon="8.9918166"><ele>398.0</ele><time>2026-03-30T13:34:42.151Z</time></trkpt><trkpt lat="44.5330984" lon="8.9915745"><ele>397.3333333333333</ele><time>2026-03-30T13:34:44Z</time></trkpt><trkpt lat="44.5332217" lon="8.9914436"><ele>396.66666666666663</ele><time>2026-03-30T13:34:45.123Z</time></trkpt><trkpt lat="44.5333493" lon="8.9913067"><ele>396.0</ele><time>2026-03-30T13:34:46.127Z</time></trkpt><trkpt lat="44.5334821" lon="8.9911804"><ele>396.0</ele><time>2026-03-30T13:34:47.135Z</time></trkpt><trkpt lat="44.5337492" lon="8.9909995"><ele>396.0</ele><time>2026-03-30T13:34:49Z</time></trkpt><trkpt lat="44.5338913" lon="8.9909359"><ele>396.0</ele><time>2026-03-30T13:34:50.14Z</time></trkpt><trkpt lat="44.5340373" lon="8.9908916"><ele>396.0</ele><time>2026-03-30T13:34:51.127Z</time></trkpt><trkpt lat="44.5341782" lon="8.9908597"><ele>396.0</ele><time>2026-03-30T13:34:52.134Z</time></trkpt><trkpt lat="44.5344638" lon="8.9908604"><ele>396.0</ele><time>2026-03-30T13:34:54Z</time></trkpt><trkpt lat="44.5346024" lon="8.9908879"><ele>396.66666666666663</ele><time>2026-03-30T13:34:55.126Z</time></trkpt><trkpt lat="44.5348805" lon="8.9909464"><ele>397.3333333333333</ele><time>2026-03-30T13:34:57Z</time></trkpt><trkpt lat="44.5350204" lon="8.9909744"><ele>398.0</ele><time>2026-03-30T13:34:58Z</time></trkpt><trkpt lat="44.535158" lon="8.9909951"><ele>398.0</ele><time>2026-03-30T13:34:59Z</time></trkpt><trkpt lat="44.5352919" lon="8.9910186"><ele>398.0</ele><time>2026-03-30T13:35:00.136Z</time></trkpt><trkpt lat="44.5354237" lon="8.9910482"><ele>398.0</ele><time>2026-03-30T13:35:01.137Z</time></trkpt><trkpt lat="44.535558" lon="8.9910819"><ele>398.0</ele><time>2026-03-30T13:35:02.142Z</time></trkpt><trkpt lat="44.5358205" lon="8.991156"><ele>398.0</ele><time>2026-03-30T13:35:04Z</time></trkpt><trkpt lat="44.5359548" lon="8.9911796"><ele>398.0</ele><time>2026-03-30T13:35:05.169Z</time></trkpt><trkpt lat="44.5360876" lon="8.9912099"><ele>398.0</ele><time>2026-03-30T13:35:06.129Z</time></trkpt><trkpt lat="44.5362195" lon="8.9912326"><ele>398.0</ele><time>2026-03-30T13:35:07.155Z</time></trkpt><trkpt lat="44.5364915" lon="8.9912902"><ele>396.3333333333333</ele><time>2026-03-30T13:35:09Z</time></trkpt><trkpt lat="44.536623" lon="8.9913179"><ele>394.66666666666663</ele><time>2026-03-30T13:35:10.132Z</time></trkpt><trkpt lat="44.5368941" lon="8.9913716"><ele>393.0</ele><time>2026-03-30T13:35:12.165Z</time></trkpt><trkpt lat="44.5371555" lon="8.9914228"><ele>392.5</ele><time>2026-03-30T13:35:14Z</time></trkpt><trkpt lat="44.5372925" lon="8.9914453"><ele>392.0</ele><time>2026-03-30T13:35:15.135Z</time></trkpt><trkpt lat="44.5374244" lon="8.9914723"><ele>391.5</ele><time>2026-03-30T13:35:16.165Z</time></trkpt><trkpt lat="44.5375607" lon="8.9915038"><ele>391.0</ele><time>2026-03-30T13:35:17.167Z</time></trkpt><trkpt lat="44.5378318" lon="8.9915646"><ele>391.5</ele><time>2026-03-30T13:35:19Z</time></trkpt><trkpt lat="44.53797" lon="8.9915958"><ele>392.0</ele><time>2026-03-30T13:35:20.124Z</time></trkpt><trkpt lat="44.538107" lon="8.9916226"><ele>392.5</ele><time>2026-03-30T13:35:21.164Z</time></trkpt><trkpt lat="44.5382424" lon="8.9916475"><ele>393.0</ele><time>2026-03-30T13:35:22.134Z</time></trkpt><trkpt lat="44.5385235" lon="8.9916187"><ele>393.0</ele><time>2026-03-30T13:35:24Z</time></trkpt><trkpt lat="44.5386575" lon="8.991556"><ele>393.0</ele><time>2026-03-30T13:35:25.151Z</time></trkpt><trkpt lat="44.5387793" lon="8.99147"><ele>393.0</ele><time>2026-03-30T13:35:26.133Z</time></trkpt><trkpt lat="44.5390089" lon="8.99126"><ele>393.75</ele><time>2026-03-30T13:35:27.999Z</time></trkpt><trkpt lat="44.539125" lon="8.9911545"><ele>394.5</ele><time>2026-03-30T13:35:29Z</time></trkpt><trkpt lat="44.5392421" lon="8.9910385"><ele>395.25</ele><time>2026-03-30T13:35:29.999Z</time></trkpt><trkpt lat="44.5393575" lon="8.9909279"><ele>396.0</ele><time>2026-03-30T13:35:31Z</time></trkpt><trkpt lat="44.539466" lon="8.9908372"><ele>400.75</ele><time>2026-03-30T13:35:32Z</time></trkpt><trkpt lat="44.5395782" lon="8.9907208"><ele>405.5</ele><time>2026-03-30T13:35:32.999Z</time></trkpt><trkpt lat="44.5396832" lon="8.9906118"><ele>410.25</ele><time>2026-03-30T13:35:34Z</time></trkpt><trkpt lat="44.5397921" lon="8.9905128"><ele>415.0</ele><time>2026-03-30T13:35:35Z</time></trkpt><trkpt lat="44.5398949" lon="8.9904258"><ele>415.0</ele><time>2026-03-30T13:35:36Z</time></trkpt><trkpt lat="44.5399966" lon="8.9903375"><ele>415.0</ele><time>2026-03-30T13:35:37Z</time></trkpt><trkpt lat="44.5401109" lon="8.9901788"><ele>415.0</ele><time>2026-03-30T13:35:38Z</time></trkpt><trkpt lat="44.5402151" lon="8.9900121"><ele>415.0</ele><time>2026-03-30T13:35:39.16Z</time></trkpt><trkpt lat="44.5403094" lon="8.9898646"><ele>412.33333333333337</ele><time>2026-03-30T13:35:40.108Z</time></trkpt><trkpt lat="44.5403955" lon="8.9897188"><ele>409.66666666666663</ele><time>2026-03-30T13:35:41.146Z</time></trkpt><trkpt lat="44.5404835" lon="8.9895641"><ele>407.0</ele><time>2026-03-30T13:35:42.138Z</time></trkpt><trkpt lat="44.5406502" lon="8.9892453"><ele>404.75</ele><time>2026-03-30T13:35:44Z</time></trkpt><trkpt lat="44.540732" lon="8.9890616"><ele>402.5</ele><time>2026-03-30T13:35:45.12Z</time></trkpt><trkpt lat="44.5408143" lon="8.9888949"><ele>400.25</ele><time>2026-03-30T13:35:46.158Z</time></trkpt><trkpt lat="44.5408975" lon="8.9887322"><ele>398.0</ele><time>2026-03-30T13:35:47.155Z</time></trkpt><trkpt lat="44.5410679" lon="8.9883953"><ele>396.5</ele><time>2026-03-30T13:35:49Z</time></trkpt><trkpt lat="44.5411544" lon="8.9882202"><ele>395.0</ele><time>2026-03-30T13:35:50.166Z</time></trkpt><trkpt lat="44.5412407" lon="8.9880494"><ele>393.5</ele><time>2026-03-30T13:35:51.137Z</time></trkpt><trkpt lat="44.5413246" lon="8.9878801"><ele>392.0</ele><time>2026-03-30T13:35:52.141Z</time></trkpt><trkpt lat="44.5414122" lon="8.9877132"><ele>394.5</ele><time>2026-03-30T13:35:53Z</time></trkpt><trkpt lat="44.5414981" lon="8.987549"><ele>397.0</ele><time>2026-03-30T13:35:54Z</time></trkpt><trkpt lat="44.541583" lon="8.9873976"><ele>399.5</ele><time>2026-03-30T13:35:55.121Z</time></trkpt><trkpt lat="44.5416703" lon="8.987236"><ele>402.0</ele><time>2026-03-30T13:35:56.154Z</time></trkpt><trkpt lat="44.5418422" lon="8.9869175"><ele>402.0</ele><time>2026-03-30T13:35:58Z</time></trkpt><trkpt lat="44.5419258" lon="8.9867624"><ele>402.0</ele><time>2026-03-30T13:35:59Z</time></trkpt><trkpt lat="44.5420084" lon="8.9866004"><ele>402.0</ele><time>2026-03-30T13:36:00.141Z</time></trkpt><trkpt lat="44.5420855" lon="8.9864575"><ele>402.0</ele><time>2026-03-30T13:36:01.156Z</time></trkpt><trkpt lat="44.5421724" lon="8.9863216"><ele>400.66666666666663</ele><time>2026-03-30T13:36:02.14Z</time></trkpt><trkpt lat="44.5423706" lon="8.986095"><ele>399.3333333333333</ele><time>2026-03-30T13:36:04Z</time></trkpt><trkpt lat="44.542478" lon="8.9860002"><ele>398.0</ele><time>2026-03-30T13:36:05Z</time></trkpt><trkpt lat="44.5425857" lon="8.9859206"><ele>398.0</ele><time>2026-03-30T13:36:05.999Z</time></trkpt><trkpt lat="44.5426948" lon="8.9858337"><ele>398.0</ele><time>2026-03-30T13:36:07Z</time></trkpt><trkpt lat="44.5428" lon="8.985758"><ele>398.0</ele><time>2026-03-30T13:36:08Z</time></trkpt><trkpt lat="44.5429043" lon="8.9856837"><ele>398.0</ele><time>2026-03-30T13:36:09Z</time></trkpt><trkpt lat="44.5430111" lon="8.9856064"><ele>398.0</ele><time>2026-03-30T13:36:10Z</time></trkpt><trkpt lat="44.5431163" lon="8.9855044"><ele>398.0</ele><time>2026-03-30T13:36:11.152Z</time></trkpt><trkpt lat="44.5432009" lon="8.9853803"><ele>398.0</ele><time>2026-03-30T13:36:12.166Z</time></trkpt><trkpt lat="44.5433154" lon="8.9850715"><ele>397.0</ele><time>2026-03-30T13:36:14Z</time></trkpt><trkpt lat="44.5433383" lon="8.9849054"><ele>396.0</ele><time>2026-03-30T13:36:15.161Z</time></trkpt><trkpt lat="44.5433461" lon="8.9847318"><ele>395.0</ele><time>2026-03-30T13:36:16.174Z</time></trkpt><trkpt lat="44.5433408" lon="8.9845651"><ele>394.0</ele><time>2026-03-30T13:36:17.146Z</time></trkpt><trkpt lat="44.5432834" lon="8.9842343"><ele>392.5</ele><time>2026-03-30T13:36:19Z</time></trkpt><trkpt lat="44.5432552" lon="8.9840689"><ele>391.0</ele><time>2026-03-30T13:36:20.158Z</time></trkpt><trkpt lat="44.5432259" lon="8.9839017"><ele>389.5</ele><time>2026-03-30T13:36:21.143Z</time></trkpt><trkpt lat="44.5431964" lon="8.9837219"><ele>388.0</ele><time>2026-03-30T13:36:22.156Z</time></trkpt><trkpt lat="44.5431274" lon="8.9833544"><ele>388.0</ele><time>2026-03-30T13:36:23.999Z</time></trkpt><trkpt lat="44.5430911" lon="8.983169"><ele>388.0</ele><time>2026-03-30T13:36:25.167Z</time></trkpt><trkpt lat="44.5430566" lon="8.9829825"><ele>388.0</ele><time>2026-03-30T13:36:26.144Z</time></trkpt><trkpt lat="44.5430177" lon="8.9827956"><ele>388.0</ele><time>2026-03-30T13:36:27.146Z</time></trkpt><trkpt lat="44.5429471" lon="8.9824194"><ele>388.0</ele><time>2026-03-30T13:36:28.999Z</time></trkpt><trkpt lat="44.5429175" lon="8.9822345"><ele>388.0</ele><time>2026-03-30T13:36:30.164Z</time></trkpt><trkpt lat="44.5428992" lon="8.9820466"><ele>388.0</ele><time>2026-03-30T13:36:31.133Z</time></trkpt><trkpt lat="44.542936" lon="8.9816664"><ele>388.5</ele><time>2026-03-30T13:36:33Z</time></trkpt><trkpt lat="44.5429848" lon="8.9814877"><ele>389.0</ele><time>2026-03-30T13:36:34Z</time></trkpt><trkpt lat="44.5430534" lon="8.9813191"><ele>389.5</ele><time>2026-03-30T13:36:35Z</time></trkpt><trkpt lat="44.5431213" lon="8.9811415"><ele>390.0</ele><time>2026-03-30T13:36:36Z</time></trkpt><trkpt lat="44.5431862" lon="8.9809628"><ele>390.25</ele><time>2026-03-30T13:36:37Z</time></trkpt><trkpt lat="44.543255" lon="8.9807891"><ele>390.5</ele><time>2026-03-30T13:36:38Z</time></trkpt><trkpt lat="44.5433259" lon="8.9806207"><ele>390.75</ele><time>2026-03-30T13:36:39Z</time></trkpt><trkpt lat="44.5433976" lon="8.9804329"><ele>391.0</ele><time>2026-03-30T13:36:40Z</time></trkpt><trkpt lat="44.5434763" lon="8.9802661"><ele>391.0</ele><time>2026-03-30T13:36:41.124Z</time></trkpt><trkpt lat="44.5435492" lon="8.9800829"><ele>391.0</ele><time>2026-03-30T13:36:42.152Z</time></trkpt><trkpt lat="44.543705" lon="8.9797297"><ele>391.0</ele><time>2026-03-30T13:36:44.125Z</time></trkpt><trkpt lat="44.5437815" lon="8.9795429"><ele>391.33333333333337</ele><time>2026-03-30T13:36:45.15Z</time></trkpt><trkpt lat="44.5438565" lon="8.9793489"><ele>391.66666666666663</ele><time>2026-03-30T13:36:46.162Z</time></trkpt><trkpt lat="44.5439434" lon="8.9791673"><ele>392.0</ele><time>2026-03-30T13:36:47.15Z</time></trkpt><trkpt lat="44.5441559" lon="8.978857"><ele>391.5</ele><time>2026-03-30T13:36:49Z</time></trkpt><trkpt lat="44.5442822" lon="8.9787342"><ele>391.0</ele><time>2026-03-30T13:36:50.147Z</time></trkpt><trkpt lat="44.5444094" lon="8.978641"><ele>390.5</ele><time>2026-03-30T13:36:51.128Z</time></trkpt><trkpt lat="44.5445421" lon="8.9785529"><ele>390.0</ele><time>2026-03-30T13:36:52.148Z</time></trkpt><trkpt lat="44.5448306" lon="8.978445"><ele>388.66666666666663</ele><time>2026-03-30T13:36:54Z</time></trkpt><trkpt lat="44.5449759" lon="8.9784051"><ele>387.3333333333333</ele><time>2026-03-30T13:36:55.138Z</time></trkpt><trkpt lat="44.5451218" lon="8.9783669"><ele>386.0</ele><time>2026-03-30T13:36:56Z</time></trkpt><trkpt lat="44.5452776" lon="8.9783117"><ele>387.0</ele><time>2026-03-30T13:36:57.117Z</time></trkpt><trkpt lat="44.5455598" lon="8.9782446"><ele>388.0</ele><time>2026-03-30T13:36:59Z</time></trkpt><trkpt lat="44.5457036" lon="8.9782118"><ele>389.0</ele><time>2026-03-30T13:37:00.164Z</time></trkpt><trkpt lat="44.5458346" lon="8.978177"><ele>389.0</ele><time>2026-03-30T13:37:01.122Z</time></trkpt><trkpt lat="44.5459618" lon="8.9781421"><ele>389.0</ele><time>2026-03-30T13:37:02.153Z</time></trkpt><trkpt lat="44.5462269" lon="8.9780636"><ele>389.0</ele><time>2026-03-30T13:37:04Z</time></trkpt><trkpt lat="44.5463524" lon="8.9780291"><ele>387.66666666666663</ele><time>2026-03-30T13:37:05.132Z</time></trkpt><trkpt lat="44.5464809" lon="8.977986"><ele>386.33333333333337</ele><time>2026-03-30T13:37:06.167Z</time></trkpt><trkpt lat="44.5466074" lon="8.9779515"><ele>385.0</ele><time>2026-03-30T13:37:07.19Z</time></trkpt><trkpt lat="44.546871" lon="8.9778511"><ele>385.0</ele><time>2026-03-30T13:37:09Z</time></trkpt><trkpt lat="44.5469863" lon="8.9778048"><ele>385.0</ele><time>2026-03-30T13:37:10.14Z</time></trkpt><trkpt lat="44.5470951" lon="8.9777486"><ele>385.0</ele><time>2026-03-30T13:37:11.162Z</time></trkpt><trkpt lat="44.5473208" lon="8.9775789"><ele>385.75</ele><time>2026-03-30T13:37:12.999Z</time></trkpt><trkpt lat="44.547417" lon="8.9774906"><ele>386.5</ele><time>2026-03-30T13:37:14Z</time></trkpt><trkpt lat="44.547532" lon="8.9774031"><ele>387.25</ele><time>2026-03-30T13:37:15Z</time></trkpt><trkpt lat="44.5476365" lon="8.9773248"><ele>388.0</ele><time>2026-03-30T13:37:16.154Z</time></trkpt><trkpt lat="44.5477661" lon="8.9772578"><ele>386.33333333333337</ele><time>2026-03-30T13:37:17.156Z</time></trkpt><trkpt lat="44.5480032" lon="8.9771422"><ele>384.6666666666667</ele><time>2026-03-30T13:37:19Z</time></trkpt><trkpt lat="44.5481185" lon="8.9770938"><ele>383.0</ele><time>2026-03-30T13:37:20.144Z</time></trkpt><trkpt lat="44.5482261" lon="8.9770602"><ele>383.0</ele><time>2026-03-30T13:37:21.164Z</time></trkpt><trkpt lat="44.54833" lon="8.9770293"><ele>383.0</ele><time>2026-03-30T13:37:22.138Z</time></trkpt><trkpt lat="44.5485769" lon="8.9769548"><ele>383.0</ele><time>2026-03-30T13:37:24Z</time></trkpt><trkpt lat="44.5487023" lon="8.9769207"><ele>384.6666666666667</ele><time>2026-03-30T13:37:25.135Z</time></trkpt><trkpt lat="44.5488364" lon="8.9768801"><ele>386.33333333333337</ele><time>2026-03-30T13:37:26.167Z</time></trkpt><trkpt lat="44.5489704" lon="8.9768306"><ele>388.0</ele><time>2026-03-30T13:37:27.175Z</time></trkpt><trkpt lat="44.5492278" lon="8.976741"><ele>388.0</ele><time>2026-03-30T13:37:29Z</time></trkpt><trkpt lat="44.549359" lon="8.9767048"><ele>388.0</ele><time>2026-03-30T13:37:30.143Z</time></trkpt><trkpt lat="44.5494985" lon="8.9766641"><ele>388.0</ele><time>2026-03-30T13:37:31.144Z</time></trkpt><trkpt lat="44.5496384" lon="8.976623"><ele>388.0</ele><time>2026-03-30T13:37:32.141Z</time></trkpt><trkpt lat="44.5499352" lon="8.9765466"><ele>388.0</ele><time>2026-03-30T13:37:34Z</time></trkpt><trkpt lat="44.5500844" lon="8.9765358"><ele>388.0</ele><time>2026-03-30T13:37:35.118Z</time></trkpt><trkpt lat="44.5502348" lon="8.9765351"><ele>388.0</ele><time>2026-03-30T13:37:36.127Z</time></trkpt><trkpt lat="44.5503783" lon="8.9765394"><ele>388.0</ele><time>2026-03-30T13:37:37.126Z</time></trkpt><trkpt lat="44.5505267" lon="8.9765533"><ele>388.0</ele><time>2026-03-30T13:37:38Z</time></trkpt><trkpt lat="44.5506757" lon="8.9765641"><ele>388.0</ele><time>2026-03-30T13:37:39Z</time></trkpt><trkpt lat="44.5508185" lon="8.9765715"><ele>388.0</ele><time>2026-03-30T13:37:40.117Z</time></trkpt><trkpt lat="44.5509679" lon="8.9765777"><ele>388.0</ele><time>2026-03-30T13:37:41.14Z</time></trkpt><trkpt lat="44.5511165" lon="8.9765947"><ele>385.5</ele><time>2026-03-30T13:37:42.137Z</time></trkpt><trkpt lat="44.5514138" lon="8.9766668"><ele>383.0</ele><time>2026-03-30T13:37:43.999Z</time></trkpt><trkpt lat="44.5515548" lon="8.9767406"><ele>383.0</ele><time>2026-03-30T13:37:45.15Z</time></trkpt><trkpt lat="44.5518142" lon="8.9769533"><ele>383.0</ele><time>2026-03-30T13:37:47Z</time></trkpt><trkpt lat="44.5519378" lon="8.9770741"><ele>382.6666666666667</ele><time>2026-03-30T13:37:48Z</time></trkpt><trkpt lat="44.5520578" lon="8.9771985"><ele>382.3333333333333</ele><time>2026-03-30T13:37:49Z</time></trkpt><trkpt lat="44.5521715" lon="8.9773348"><ele>382.0</ele><time>2026-03-30T13:37:50.147Z</time></trkpt><trkpt lat="44.552383" lon="8.9776251"><ele>382.0</ele><time>2026-03-30T13:37:52Z</time></trkpt><trkpt lat="44.5524971" lon="8.977765"><ele>382.0</ele><time>2026-03-30T13:37:53Z</time></trkpt><trkpt lat="44.5526115" lon="8.9778955"><ele>382.0</ele><time>2026-03-30T13:37:54Z</time></trkpt><trkpt lat="44.5527294" lon="8.9780221"><ele>382.0</ele><time>2026-03-30T13:37:55Z</time></trkpt><trkpt lat="44.5528485" lon="8.9781327"><ele>381.25</ele><time>2026-03-30T13:37:56Z</time></trkpt><trkpt lat="44.5529734" lon="8.978227"><ele>380.5</ele><time>2026-03-30T13:37:57Z</time></trkpt><trkpt lat="44.5530949" lon="8.9782976"><ele>379.75</ele><time>2026-03-30T13:37:57.999Z</time></trkpt><trkpt lat="44.5532362" lon="8.9783457"><ele>379.0</ele><time>2026-03-30T13:37:59Z</time></trkpt><trkpt lat="44.5533759" lon="8.9783745"><ele>379.0</ele><time>2026-03-30T13:38:00Z</time></trkpt><trkpt lat="44.5535228" lon="8.9783977"><ele>379.0</ele><time>2026-03-30T13:38:01Z</time></trkpt><trkpt lat="44.5536647" lon="8.978425"><ele>379.0</ele><time>2026-03-30T13:38:02Z</time></trkpt><trkpt lat="44.5538034" lon="8.9784513"><ele>379.0</ele><time>2026-03-30T13:38:03Z</time></trkpt><trkpt lat="44.5539578" lon="8.9784722"><ele>377.75</ele><time>2026-03-30T13:38:04Z</time></trkpt><trkpt lat="44.5541039" lon="8.9785078"><ele>376.5</ele><time>2026-03-30T13:38:05Z</time></trkpt><trkpt lat="44.5542396" lon="8.9785411"><ele>375.25</ele><time>2026-03-30T13:38:06Z</time></trkpt><trkpt lat="44.5543757" lon="8.9785879"><ele>374.0</ele><time>2026-03-30T13:38:07Z</time></trkpt><trkpt lat="44.5545056" lon="8.9786423"><ele>374.25</ele><time>2026-03-30T13:38:08Z</time></trkpt><trkpt lat="44.5546374" lon="8.9786885"><ele>374.5</ele><time>2026-03-30T13:38:09Z</time></trkpt><trkpt lat="44.5547683" lon="8.978738"><ele>374.75</ele><time>2026-03-30T13:38:10Z</time></trkpt><trkpt lat="44.5549014" lon="8.9787873"><ele>375.0</ele><time>2026-03-30T13:38:11Z</time></trkpt><trkpt lat="44.5550265" lon="8.9788432"><ele>375.0</ele><time>2026-03-30T13:38:12Z</time></trkpt><trkpt lat="44.5551605" lon="8.9788971"><ele>375.0</ele><time>2026-03-30T13:38:13Z</time></trkpt><trkpt lat="44.5552903" lon="8.9789429"><ele>375.0</ele><time>2026-03-30T13:38:14Z</time></trkpt><trkpt lat="44.5554219" lon="8.9789852"><ele>375.0</ele><time>2026-03-30T13:38:15Z</time></trkpt><trkpt lat="44.555551" lon="8.9790097"><ele>376.0</ele><time>2026-03-30T13:38:16.131Z</time></trkpt><trkpt lat="44.5556704" lon="8.979012"><ele>377.0</ele><time>2026-03-30T13:38:17.165Z</time></trkpt><trkpt lat="44.5558888" lon="8.9789826"><ele>378.0</ele><time>2026-03-30T13:38:19Z</time></trkpt><trkpt lat="44.5559992" lon="8.9789346"><ele>378.0</ele><time>2026-03-30T13:38:20Z</time></trkpt><trkpt lat="44.5560992" lon="8.9788723"><ele>378.0</ele><time>2026-03-30T13:38:21Z</time></trkpt><trkpt lat="44.5561909" lon="8.9788082"><ele>378.0</ele><time>2026-03-30T13:38:22Z</time></trkpt><trkpt lat="44.5562707" lon="8.9787347"><ele>378.0</ele><time>2026-03-30T13:38:23Z</time></trkpt><trkpt lat="44.5563527" lon="8.9786534"><ele>378.0</ele><time>2026-03-30T13:38:24Z</time></trkpt><trkpt lat="44.5564332" lon="8.978555"><ele>377.6666666666667</ele><time>2026-03-30T13:38:25.123Z</time></trkpt><trkpt lat="44.556602" lon="8.9783705"><ele>377.33333333333337</ele><time>2026-03-30T13:38:27Z</time></trkpt><trkpt lat="44.5566953" lon="8.978261"><ele>377.0</ele><time>2026-03-30T13:38:28Z</time></trkpt><trkpt lat="44.556785" lon="8.9781587"><ele>377.40000000000003</ele><time>2026-03-30T13:38:29Z</time></trkpt><trkpt lat="44.5568726" lon="8.9780566"><ele>377.8</ele><time>2026-03-30T13:38:30Z</time></trkpt><trkpt lat="44.5569678" lon="8.9779533"><ele>378.2</ele><time>2026-03-30T13:38:31Z</time></trkpt><trkpt lat="44.5570575" lon="8.9778674"><ele>378.6</ele><time>2026-03-30T13:38:32Z</time></trkpt><trkpt lat="44.5571448" lon="8.9777824"><ele>379.0</ele><time>2026-03-30T13:38:33Z</time></trkpt><trkpt lat="44.5572491" lon="8.9776367"><ele>379.0</ele><time>2026-03-30T13:38:34Z</time></trkpt><trkpt lat="44.557351" lon="8.9775096"><ele>379.0</ele><time>2026-03-30T13:38:35.134Z</time></trkpt><trkpt lat="44.5574621" lon="8.9773587"><ele>379.0</ele><time>2026-03-30T13:38:36.126Z</time></trkpt><trkpt lat="44.5575656" lon="8.9772247"><ele>379.0</ele><time>2026-03-30T13:38:37.141Z</time></trkpt><trkpt lat="44.5577597" lon="8.9769365"><ele>379.0</ele><time>2026-03-30T13:38:39Z</time></trkpt><trkpt lat="44.5578526" lon="8.9767956"><ele>379.0</ele><time>2026-03-30T13:38:40.163Z</time></trkpt><trkpt lat="44.55794" lon="8.9766576"><ele>379.0</ele><time>2026-03-30T13:38:41.135Z</time></trkpt><trkpt lat="44.5580194" lon="8.9765169"><ele>379.0</ele><time>2026-03-30T13:38:42.162Z</time></trkpt><trkpt lat="44.5581656" lon="8.9762296"><ele>379.25</ele><time>2026-03-30T13:38:44Z</time></trkpt><trkpt lat="44.558235" lon="8.9760878"><ele>379.5</ele><time>2026-03-30T13:38:45.141Z</time></trkpt><trkpt lat="44.5583039" lon="8.9759413"><ele>379.75</ele><time>2026-03-30T13:38:46.165Z</time></trkpt><trkpt lat="44.5583682" lon="8.9757959"><ele>380.0</ele><time>2026-03-30T13:38:47.162Z</time></trkpt><trkpt lat="44.5584953" lon="8.9754931"><ele>380.0</ele><time>2026-03-30T13:38:49Z</time></trkpt><trkpt lat="44.5585514" lon="8.9753411"><ele>380.0</ele><time>2026-03-30T13:38:50Z</time></trkpt><trkpt lat="44.5586075" lon="8.9751937"><ele>380.0</ele><time>2026-03-30T13:38:51Z</time></trkpt><trkpt lat="44.5586647" lon="8.9750466"><ele>380.0</ele><time>2026-03-30T13:38:52.156Z</time></trkpt><trkpt lat="44.5587761" lon="8.9747402"><ele>378.6666666666667</ele><time>2026-03-30T13:38:54Z</time></trkpt><trkpt lat="44.5588374" lon="8.9745916"><ele>377.3333333333333</ele><time>2026-03-30T13:38:55Z</time></trkpt><trkpt lat="44.5589555" lon="8.9742782"><ele>376.0</ele><time>2026-03-30T13:38:57.136Z</time></trkpt><trkpt lat="44.5590721" lon="8.9739704"><ele>376.0</ele><time>2026-03-30T13:38:59Z</time></trkpt><trkpt lat="44.5591312" lon="8.9738136"><ele>376.0</ele><time>2026-03-30T13:39:00.139Z</time></trkpt><trkpt lat="44.5591915" lon="8.9736553"><ele>376.0</ele><time>2026-03-30T13:39:01.156Z</time></trkpt><trkpt lat="44.5592505" lon="8.9735"><ele>376.0</ele><time>2026-03-30T13:39:02.125Z</time></trkpt><trkpt lat="44.5593032" lon="8.9733556"><ele>377.0</ele><time>2026-03-30T13:39:03Z</time></trkpt><trkpt lat="44.5593594" lon="8.9732078"><ele>378.0</ele><time>2026-03-30T13:39:04Z</time></trkpt><trkpt lat="44.559414" lon="8.9730577"><ele>379.0</ele><time>2026-03-30T13:39:05.116Z</time></trkpt><trkpt lat="44.5594643" lon="8.9729054"><ele>380.0</ele><time>2026-03-30T13:39:06.134Z</time></trkpt><trkpt lat="44.5595234" lon="8.9727431"><ele>378.5</ele><time>2026-03-30T13:39:07.119Z</time></trkpt><trkpt lat="44.5596598" lon="8.972365"><ele>377.0</ele><time>2026-03-30T13:39:09Z</time></trkpt><trkpt lat="44.5597402" lon="8.9721651"><ele>377.0</ele><time>2026-03-30T13:39:10.138Z</time></trkpt><trkpt lat="44.5598287" lon="8.9719683"><ele>377.0</ele><time>2026-03-30T13:39:11.128Z</time></trkpt><trkpt lat="44.5599169" lon="8.9717561"><ele>377.0</ele><time>2026-03-30T13:39:12.116Z</time></trkpt><trkpt lat="44.5600767" lon="8.9713441"><ele>377.0</ele><time>2026-03-30T13:39:14Z</time></trkpt><trkpt lat="44.5601529" lon="8.9711569"><ele>377.0</ele><time>2026-03-30T13:39:15.155Z</time></trkpt><trkpt lat="44.5602264" lon="8.9709612"><ele>377.0</ele><time>2026-03-30T13:39:16.139Z</time></trkpt><trkpt lat="44.5603019" lon="8.9707674"><ele>375.6666666666667</ele><time>2026-03-30T13:39:17.15Z</time></trkpt><trkpt lat="44.5604361" lon="8.9704062"><ele>374.3333333333333</ele><time>2026-03-30T13:39:19Z</time></trkpt><trkpt lat="44.5605109" lon="8.9702274"><ele>373.0</ele><time>2026-03-30T13:39:20.133Z</time></trkpt><trkpt lat="44.5605844" lon="8.9700601"><ele>374.0</ele><time>2026-03-30T13:39:21.173Z</time></trkpt><trkpt lat="44.5606509" lon="8.9698718"><ele>375.0</ele><time>2026-03-30T13:39:22.156Z</time></trkpt><trkpt lat="44.5607884" lon="8.9695071"><ele>376.0</ele><time>2026-03-30T13:39:23.999Z</time></trkpt><trkpt lat="44.5608564" lon="8.9693287"><ele>376.3333333333333</ele><time>2026-03-30T13:39:25.139Z</time></trkpt><trkpt lat="44.5609292" lon="8.9691499"><ele>376.6666666666667</ele><time>2026-03-30T13:39:26.174Z</time></trkpt><trkpt lat="44.561063" lon="8.9688043"><ele>377.0</ele><time>2026-03-30T13:39:28Z</time></trkpt><trkpt lat="44.5611349" lon="8.9686273"><ele>375.75</ele><time>2026-03-30T13:39:29.115Z</time></trkpt><trkpt lat="44.5612122" lon="8.9684629"><ele>374.5</ele><time>2026-03-30T13:39:30.136Z</time></trkpt><trkpt lat="44.5612994" lon="8.9682941"><ele>373.25</ele><time>2026-03-30T13:39:31.14Z</time></trkpt><trkpt lat="44.5613912" lon="8.9681245"><ele>372.0</ele><time>2026-03-30T13:39:32.151Z</time></trkpt><trkpt lat="44.5615964" lon="8.967816"><ele>372.0</ele><time>2026-03-30T13:39:34Z</time></trkpt><trkpt lat="44.5616982" lon="8.967669"><ele>372.0</ele><time>2026-03-30T13:39:35.144Z</time></trkpt><trkpt lat="44.5618025" lon="8.9675325"><ele>372.0</ele><time>2026-03-30T13:39:36.158Z</time></trkpt><trkpt lat="44.5619072" lon="8.9674018"><ele>372.0</ele><time>2026-03-30T13:39:37.165Z</time></trkpt><trkpt lat="44.5621192" lon="8.9671601"><ele>371.75</ele><time>2026-03-30T13:39:39Z</time></trkpt><trkpt lat="44.562215" lon="8.9670293"><ele>371.5</ele><time>2026-03-30T13:39:40.167Z</time></trkpt><trkpt lat="44.5623042" lon="8.966892"><ele>371.25</ele><time>2026-03-30T13:39:41.17Z</time></trkpt><trkpt lat="44.5623852" lon="8.9667527"><ele>371.0</ele><time>2026-03-30T13:39:42.132Z</time></trkpt><trkpt lat="44.5625371" lon="8.9664814"><ele>373.0</ele><time>2026-03-30T13:39:44.131Z</time></trkpt><trkpt lat="44.5626113" lon="8.9663336"><ele>375.0</ele><time>2026-03-30T13:39:45.154Z</time></trkpt><trkpt lat="44.5626979" lon="8.9662169"><ele>377.0</ele><time>2026-03-30T13:39:46.142Z</time></trkpt><trkpt lat="44.562791" lon="8.966101"><ele>379.0</ele><time>2026-03-30T13:39:47.159Z</time></trkpt><trkpt lat="44.562968" lon="8.9658232"><ele>379.0</ele><time>2026-03-30T13:39:49Z</time></trkpt><trkpt lat="44.5630591" lon="8.9656972"><ele>379.0</ele><time>2026-03-30T13:39:50.172Z</time></trkpt><trkpt lat="44.5631515" lon="8.9655702"><ele>379.0</ele><time>2026-03-30T13:39:51.144Z</time></trkpt><trkpt lat="44.5632464" lon="8.9655166"><ele>379.0</ele><time>2026-03-30T13:39:52.125Z</time></trkpt><trkpt lat="44.5634274" lon="8.9653192"><ele>379.0</ele><time>2026-03-30T13:39:54Z</time></trkpt><trkpt lat="44.5635454" lon="8.9652469"><ele>379.0</ele><time>2026-03-30T13:39:55.145Z</time></trkpt><trkpt lat="44.5636587" lon="8.9652226"><ele>379.0</ele><time>2026-03-30T13:39:56.127Z</time></trkpt><trkpt lat="44.5637802" lon="8.9652266"><ele>379.0</ele><time>2026-03-30T13:39:57.118Z</time></trkpt><trkpt lat="44.5640329" lon="8.9652463"><ele>377.66666666666663</ele><time>2026-03-30T13:39:59Z</time></trkpt><trkpt lat="44.5641858" lon="8.9652833"><ele>376.3333333333333</ele><time>2026-03-30T13:40:00.127Z</time></trkpt><trkpt lat="44.5643122" lon="8.9653399"><ele>375.0</ele><time>2026-03-30T13:40:01.118Z</time></trkpt><trkpt lat="44.5645786" lon="8.9654679"><ele>375.0</ele><time>2026-03-30T13:40:03Z</time></trkpt><trkpt lat="44.5647034" lon="8.9655236"><ele>375.0</ele><time>2026-03-30T13:40:04.122Z</time></trkpt><trkpt lat="44.5648252" lon="8.9655779"><ele>375.0</ele><time>2026-03-30T13:40:05.158Z</time></trkpt><trkpt lat="44.5649536" lon="8.9656105"><ele>375.0</ele><time>2026-03-30T13:40:06.155Z</time></trkpt><trkpt lat="44.5650885" lon="8.9655948"><ele>375.0</ele><time>2026-03-30T13:40:07.159Z</time></trkpt><trkpt lat="44.5653498" lon="8.9654864"><ele>375.0</ele><time>2026-03-30T13:40:09Z</time></trkpt><trkpt lat="44.565465" lon="8.9654102"><ele>375.0</ele><time>2026-03-30T13:40:10.162Z</time></trkpt><trkpt lat="44.5656041" lon="8.9653173"><ele>374.3333333333333</ele><time>2026-03-30T13:40:11.161Z</time></trkpt><trkpt lat="44.5656905" lon="8.9651928"><ele>373.66666666666663</ele><time>2026-03-30T13:40:12.171Z</time></trkpt><trkpt lat="44.5658592" lon="8.9649308"><ele>373.0</ele><time>2026-03-30T13:40:13.999Z</time></trkpt><trkpt lat="44.5659294" lon="8.9647815"><ele>376.66666666666663</ele><time>2026-03-30T13:40:15.148Z</time></trkpt><trkpt lat="44.56599" lon="8.9646242"><ele>380.3333333333333</ele><time>2026-03-30T13:40:16.157Z</time></trkpt><trkpt lat="44.5660508" lon="8.9644585"><ele>384.0</ele><time>2026-03-30T13:40:17.13Z</time></trkpt><trkpt lat="44.5661723" lon="8.9641232"><ele>382.25</ele><time>2026-03-30T13:40:19Z</time></trkpt><trkpt lat="44.5662235" lon="8.9639606"><ele>380.5</ele><time>2026-03-30T13:40:20.171Z</time></trkpt><trkpt lat="44.5662711" lon="8.9637983"><ele>378.75</ele><time>2026-03-30T13:40:21.171Z</time></trkpt><trkpt lat="44.5663054" lon="8.9636303"><ele>377.0</ele><time>2026-03-30T13:40:22.181Z</time></trkpt><trkpt lat="44.566355" lon="8.9633189"><ele>377.0</ele><time>2026-03-30T13:40:24Z</time></trkpt><trkpt lat="44.5663686" lon="8.9631649"><ele>377.0</ele><time>2026-03-30T13:40:25Z</time></trkpt><trkpt lat="44.5664024" lon="8.9630388"><ele>377.0</ele><time>2026-03-30T13:40:26Z</time></trkpt><trkpt lat="44.5664308" lon="8.9629079"><ele>377.0</ele><time>2026-03-30T13:40:27.146Z</time></trkpt><trkpt lat="44.566495" lon="8.962682"><ele>377.0</ele><time>2026-03-30T13:40:29Z</time></trkpt><trkpt lat="44.5665277" lon="8.9625721"><ele>377.0</ele><time>2026-03-30T13:40:30Z</time></trkpt><trkpt lat="44.5665512" lon="8.9624777"><ele>377.0</ele><time>2026-03-30T13:40:31Z</time></trkpt><trkpt lat="44.5665856" lon="8.962351"><ele>377.0</ele><time>2026-03-30T13:40:33Z</time></trkpt><trkpt lat="44.5666076" lon="8.962263"><ele>377.0</ele><time>2026-03-30T13:40:36Z</time></trkpt><trkpt lat="44.5666648" lon="8.9621876"><ele>377.0</ele><time>2026-03-30T13:40:59Z</time></trkpt><trkpt lat="44.5667054" lon="8.9620503"><ele>377.6</ele><time>2026-03-30T13:41:01Z</time></trkpt><trkpt lat="44.566754" lon="8.961888"><ele>378.20000000000005</ele><time>2026-03-30T13:41:03Z</time></trkpt><trkpt lat="44.5667918" lon="8.9617706"><ele>378.8</ele><time>2026-03-30T13:41:04Z</time></trkpt><trkpt lat="44.5668322" lon="8.9616488"><ele>379.4</ele><time>2026-03-30T13:41:04.999Z</time></trkpt><trkpt lat="44.5668739" lon="8.9615565"><ele>380.0</ele><time>2026-03-30T13:41:06Z</time></trkpt><trkpt lat="44.5669413" lon="8.9614334"><ele>381.6666666666667</ele><time>2026-03-30T13:41:07Z</time></trkpt><trkpt lat="44.56697" lon="8.9612871"><ele>383.33333333333337</ele><time>2026-03-30T13:41:08Z</time></trkpt><trkpt lat="44.5670026" lon="8.9611131"><ele>385.0</ele><time>2026-03-30T13:41:09.112Z</time></trkpt><trkpt lat="44.567081" lon="8.9607907"><ele>382.0</ele><time>2026-03-30T13:41:11Z</time></trkpt><trkpt lat="44.5671279" lon="8.960625"><ele>379.0</ele><time>2026-03-30T13:41:12Z</time></trkpt><trkpt lat="44.56718" lon="8.9604589"><ele>376.0</ele><time>2026-03-30T13:41:12.999Z</time></trkpt><trkpt lat="44.5672324" lon="8.9602969"><ele>373.0</ele><time>2026-03-30T13:41:14Z</time></trkpt><trkpt lat="44.5672852" lon="8.9601305"><ele>375.0</ele><time>2026-03-30T13:41:15Z</time></trkpt><trkpt lat="44.5673434" lon="8.9599653"><ele>377.0</ele><time>2026-03-30T13:41:16Z</time></trkpt><trkpt lat="44.5674024" lon="8.9597842"><ele>379.0</ele><time>2026-03-30T13:41:17Z</time></trkpt><trkpt lat="44.5674587" lon="8.9596058"><ele>381.0</ele><time>2026-03-30T13:41:18Z</time></trkpt><trkpt lat="44.5675158" lon="8.9594382"><ele>382.33333333333337</ele><time>2026-03-30T13:41:19Z</time></trkpt><trkpt lat="44.5675968" lon="8.9590521"><ele>383.6666666666667</ele><time>2026-03-30T13:41:21.129Z</time></trkpt><trkpt lat="44.5676188" lon="8.9588497"><ele>385.0</ele><time>2026-03-30T13:41:22.173Z</time></trkpt><trkpt lat="44.5676085" lon="8.9584495"><ele>385.75</ele><time>2026-03-30T13:41:24Z</time></trkpt><trkpt lat="44.5675966" lon="8.9582511"><ele>386.5</ele><time>2026-03-30T13:41:25.132Z</time></trkpt><trkpt lat="44.5675844" lon="8.9580554"><ele>387.25</ele><time>2026-03-30T13:41:26.169Z</time></trkpt><trkpt lat="44.5675677" lon="8.9578514"><ele>388.0</ele><time>2026-03-30T13:41:27.139Z</time></trkpt><trkpt lat="44.5675384" lon="8.9574325"><ele>385.5</ele><time>2026-03-30T13:41:29Z</time></trkpt><trkpt lat="44.567525" lon="8.9572265"><ele>383.0</ele><time>2026-03-30T13:41:30.144Z</time></trkpt><trkpt lat="44.5674963" lon="8.9570342"><ele>380.5</ele><time>2026-03-30T13:41:31.172Z</time></trkpt><trkpt lat="44.567467" lon="8.9568307"><ele>378.0</ele><time>2026-03-30T13:41:32.174Z</time></trkpt><trkpt lat="44.5674187" lon="8.9564141"><ele>375.25</ele><time>2026-03-30T13:41:34Z</time></trkpt><trkpt lat="44.5673935" lon="8.9562273"><ele>372.5</ele><time>2026-03-30T13:41:35.134Z</time></trkpt><trkpt lat="44.5673635" lon="8.9560308"><ele>369.75</ele><time>2026-03-30T13:41:36.143Z</time></trkpt><trkpt lat="44.5673374" lon="8.9558298"><ele>367.0</ele><time>2026-03-30T13:41:37.139Z</time></trkpt><trkpt lat="44.5673242" lon="8.9554502"><ele>366.5</ele><time>2026-03-30T13:41:38.999Z</time></trkpt><trkpt lat="44.5673234" lon="8.9552674"><ele>366.0</ele><time>2026-03-30T13:41:40Z</time></trkpt><trkpt lat="44.5673297" lon="8.9550871"><ele>365.5</ele><time>2026-03-30T13:41:41Z</time></trkpt><trkpt lat="44.567336" lon="8.9549177"><ele>365.0</ele><time>2026-03-30T13:41:42.133Z</time></trkpt><trkpt lat="44.5673469" lon="8.9545834"><ele>365.0</ele><time>2026-03-30T13:41:44Z</time></trkpt><trkpt lat="44.5673522" lon="8.9544202"><ele>365.0</ele><time>2026-03-30T13:41:46.154Z</time></trkpt><trkpt lat="44.5673586" lon="8.9541464"><ele>365.0</ele><time>2026-03-30T13:41:47.154Z</time></trkpt><trkpt lat="44.5673754" lon="8.953946"><ele>364.8</ele><time>2026-03-30T13:41:49Z</time></trkpt><trkpt lat="44.5674358" lon="8.9538202"><ele>364.6</ele><time>2026-03-30T13:41:51.171Z</time></trkpt><trkpt lat="44.5675027" lon="8.9537852"><ele>364.4</ele><time>2026-03-30T13:41:52.139Z</time></trkpt><trkpt lat="44.5676532" lon="8.9537288"><ele>364.2</ele><time>2026-03-30T13:41:54Z</time></trkpt><trkpt lat="44.5677134" lon="8.9536585"><ele>364.0</ele><time>2026-03-30T13:41:55.166Z</time></trkpt><trkpt lat="44.5677621" lon="8.953559"><ele>364.0</ele><time>2026-03-30T13:41:56.145Z</time></trkpt><trkpt lat="44.5677986" lon="8.9534368"><ele>364.0</ele><time>2026-03-30T13:41:57.141Z</time></trkpt><trkpt lat="44.5678471" lon="8.953158"><ele>364.0</ele><time>2026-03-30T13:41:59Z</time></trkpt><trkpt lat="44.5678788" lon="8.9530086"><ele>364.0</ele><time>2026-03-30T13:42:00.166Z</time></trkpt><trkpt lat="44.5679182" lon="8.9528519"><ele>362.0</ele><time>2026-03-30T13:42:01.151Z</time></trkpt><trkpt lat="44.5679563" lon="8.9526979"><ele>360.0</ele><time>2026-03-30T13:42:02.122Z</time></trkpt><trkpt lat="44.5680455" lon="8.9523913"><ele>358.0</ele><time>2026-03-30T13:42:04Z</time></trkpt><trkpt lat="44.5680943" lon="8.9522373"><ele>358.0</ele><time>2026-03-30T13:42:05Z</time></trkpt><trkpt lat="44.56815" lon="8.9520806"><ele>358.0</ele><time>2026-03-30T13:42:06.114Z</time></trkpt><trkpt lat="44.5682121" lon="8.951928"><ele>358.0</ele><time>2026-03-30T13:42:07.116Z</time></trkpt><trkpt lat="44.5683562" lon="8.9516384"><ele>358.0</ele><time>2026-03-30T13:42:09Z</time></trkpt><trkpt lat="44.5684446" lon="8.9514946"><ele>358.0</ele><time>2026-03-30T13:42:10Z</time></trkpt><trkpt lat="44.5685316" lon="8.9513522"><ele>358.0</ele><time>2026-03-30T13:42:11.126Z</time></trkpt><trkpt lat="44.5686228" lon="8.9512257"><ele>358.0</ele><time>2026-03-30T13:42:12.132Z</time></trkpt><trkpt lat="44.5688009" lon="8.9509881"><ele>357.0</ele><time>2026-03-30T13:42:14Z</time></trkpt><trkpt lat="44.5688954" lon="8.9508686"><ele>356.0</ele><time>2026-03-30T13:42:15Z</time></trkpt><trkpt lat="44.5689868" lon="8.9507575"><ele>355.0</ele><time>2026-03-30T13:42:16.137Z</time></trkpt><trkpt lat="44.5690757" lon="8.9506247"><ele>354.0</ele><time>2026-03-30T13:42:17.153Z</time></trkpt><trkpt lat="44.569239" lon="8.9503827"><ele>354.0</ele><time>2026-03-30T13:42:19Z</time></trkpt><trkpt lat="44.5693176" lon="8.9502723"><ele>354.0</ele><time>2026-03-30T13:42:20.153Z</time></trkpt><trkpt lat="44.569404" lon="8.9501643"><ele>354.0</ele><time>2026-03-30T13:42:21.121Z</time></trkpt><trkpt lat="44.5694878" lon="8.950063"><ele>354.0</ele><time>2026-03-30T13:42:22.119Z</time></trkpt><trkpt lat="44.5696352" lon="8.9498538"><ele>354.25</ele><time>2026-03-30T13:42:24Z</time></trkpt><trkpt lat="44.5697067" lon="8.9497521"><ele>354.5</ele><time>2026-03-30T13:42:25.146Z</time></trkpt><trkpt lat="44.5697712" lon="8.9496549"><ele>354.75</ele><time>2026-03-30T13:42:26.165Z</time></trkpt><trkpt lat="44.5698241" lon="8.9495565"><ele>355.0</ele><time>2026-03-30T13:42:27.148Z</time></trkpt><trkpt lat="44.5699035" lon="8.9493437"><ele>355.0</ele><time>2026-03-30T13:42:29Z</time></trkpt><trkpt lat="44.5699041" lon="8.9492303"><ele>355.0</ele><time>2026-03-30T13:42:30.161Z</time></trkpt><trkpt lat="44.569891" lon="8.9491314"><ele>355.0</ele><time>2026-03-30T13:42:31.151Z</time></trkpt><trkpt lat="44.5698642" lon="8.9488806"><ele>355.0</ele><time>2026-03-30T13:42:34Z</time></trkpt><trkpt lat="44.5699157" lon="8.9487335"><ele>355.75</ele><time>2026-03-30T13:42:36.142Z</time></trkpt><trkpt lat="44.5700397" lon="8.9485597"><ele>356.5</ele><time>2026-03-30T13:42:39Z</time></trkpt><trkpt lat="44.5700729" lon="8.9484312"><ele>357.25</ele><time>2026-03-30T13:42:41.164Z</time></trkpt><trkpt lat="44.570021" lon="8.948251"><ele>358.0</ele><time>2026-03-30T13:42:44Z</time></trkpt><trkpt lat="44.56987" lon="8.9481926"><ele>358.75</ele><time>2026-03-30T13:42:47Z</time></trkpt><trkpt lat="44.5697713" lon="8.9482172"><ele>359.5</ele><time>2026-03-30T13:42:49.117Z</time></trkpt><trkpt lat="44.5696571" lon="8.9482876"><ele>360.25</ele><time>2026-03-30T13:42:51.114Z</time></trkpt><trkpt lat="44.5695835" lon="8.9483341"><ele>361.0</ele><time>2026-03-30T13:42:52.164Z</time></trkpt><trkpt lat="44.569433" lon="8.9484237"><ele>361.16666666666663</ele><time>2026-03-30T13:42:54Z</time></trkpt><trkpt lat="44.5693602" lon="8.9484684"><ele>361.3333333333333</ele><time>2026-03-30T13:42:55.132Z</time></trkpt><trkpt lat="44.5692994" lon="8.9485028"><ele>361.5</ele><time>2026-03-30T13:42:56.16Z</time></trkpt><trkpt lat="44.5691947" lon="8.9485707"><ele>361.6666666666667</ele><time>2026-03-30T13:42:59Z</time></trkpt><trkpt lat="44.5691187" lon="8.9486178"><ele>361.83333333333337</ele><time>2026-03-30T13:43:01Z</time></trkpt><trkpt lat="44.5690582" lon="8.9486446"><ele>362.0</ele><time>2026-03-30T13:43:02Z</time></trkpt><trkpt lat="44.5689378" lon="8.948718"><ele>362.0</ele><time>2026-03-30T13:43:03.999Z</time></trkpt><trkpt lat="44.5688744" lon="8.9487407"><ele>362.0</ele><time>2026-03-30T13:43:05Z</time></trkpt><trkpt lat="44.5688011" lon="8.948765"><ele>362.0</ele><time>2026-03-30T13:43:06Z</time></trkpt><trkpt lat="44.5687264" lon="8.9487952"><ele>362.0</ele><time>2026-03-30T13:43:07Z</time></trkpt><trkpt lat="44.5686432" lon="8.9488107"><ele>362.0</ele><time>2026-03-30T13:43:08Z</time></trkpt><trkpt lat="44.5685649" lon="8.9488243"><ele>362.0</ele><time>2026-03-30T13:43:09Z</time></trkpt><trkpt lat="44.5684883" lon="8.9488261"><ele>362.8</ele><time>2026-03-30T13:43:09.999Z</time></trkpt><trkpt lat="44.5684189" lon="8.9488163"><ele>363.6</ele><time>2026-03-30T13:43:11Z</time></trkpt><trkpt lat="44.5683043" lon="8.9488102"><ele>364.40000000000003</ele><time>2026-03-30T13:43:13Z</time></trkpt><trkpt lat="44.568183" lon="8.9487963"><ele>365.20000000000005</ele><time>2026-03-30T13:43:15Z</time></trkpt><trkpt lat="44.5681195" lon="8.9487832"><ele>366.0</ele><time>2026-03-30T13:43:15.999Z</time></trkpt><trkpt lat="44.5680071" lon="8.9487263"><ele>366.0</ele><time>2026-03-30T13:43:18Z</time></trkpt><trkpt lat="44.5679506" lon="8.9486068"><ele>366.0</ele><time>2026-03-30T13:43:20Z</time></trkpt><trkpt lat="44.5679789" lon="8.9484677"><ele>366.0</ele><time>2026-03-30T13:43:22Z</time></trkpt><trkpt lat="44.5680519" lon="8.9483144"><ele>366.0</ele><time>2026-03-30T13:43:24Z</time></trkpt><trkpt lat="44.5681392" lon="8.9481873"><ele>365.3333333333333</ele><time>2026-03-30T13:43:26Z</time></trkpt><trkpt lat="44.5682141" lon="8.9480948"><ele>364.6666666666667</ele><time>2026-03-30T13:43:28Z</time></trkpt><trkpt lat="44.5682624" lon="8.9480264"><ele>364.0</ele><time>2026-03-30T13:43:30Z</time></trkpt><trkpt lat="44.5683334" lon="8.9479695"><ele>363.33333333333337</ele><time>2026-03-30T13:43:33Z</time></trkpt><trkpt lat="44.5683873" lon="8.9479171"><ele>362.6666666666667</ele><time>2026-03-30T13:43:43Z</time></trkpt><trkpt lat="44.5684318" lon="8.9478505"><ele>362.0</ele><time>2026-03-30T13:43:44Z</time></trkpt><trkpt lat="44.5685077" lon="8.9477562"><ele>362.0</ele><time>2026-03-30T13:43:46Z</time></trkpt><trkpt lat="44.5685622" lon="8.9476883"><ele>362.0</ele><time>2026-03-30T13:43:48Z</time></trkpt><trkpt lat="44.5686436" lon="8.9476062"><ele>362.0</ele><time>2026-03-30T13:43:50Z</time></trkpt><trkpt lat="44.568717" lon="8.9475105"><ele>362.0</ele><time>2026-03-30T13:43:51.999Z</time></trkpt><trkpt lat="44.5688261" lon="8.9474139"><ele>362.0</ele><time>2026-03-30T13:43:54Z</time></trkpt><trkpt lat="44.5688901" lon="8.9473593"><ele>362.33333333333337</ele><time>2026-03-30T13:43:55Z</time></trkpt><trkpt lat="44.5689504" lon="8.9473144"><ele>362.6666666666667</ele><time>2026-03-30T13:43:56Z</time></trkpt><trkpt lat="44.569017" lon="8.9472618"><ele>363.0</ele><time>2026-03-30T13:43:56.999Z</time></trkpt><trkpt lat="44.5691113" lon="8.9472233"><ele>363.3333333333333</ele><time>2026-03-30T13:43:58Z</time></trkpt><trkpt lat="44.569186" lon="8.9471768"><ele>363.66666666666663</ele><time>2026-03-30T13:43:59Z</time></trkpt><trkpt lat="44.5692968" lon="8.9470981"><ele>364.0</ele><time>2026-03-30T13:44:01.129Z</time></trkpt><trkpt lat="44.5693571" lon="8.9470528"><ele>364.0</ele><time>2026-03-30T13:44:02.122Z</time></trkpt><trkpt lat="44.5694507" lon="8.9469597"><ele>364.0</ele><time>2026-03-30T13:44:04Z</time></trkpt><trkpt lat="44.5695111" lon="8.9468994"><ele>364.0</ele><time>2026-03-30T13:44:05.145Z</time></trkpt><trkpt lat="44.5695585" lon="8.9468407"><ele>364.0</ele><time>2026-03-30T13:44:06.152Z</time></trkpt><trkpt lat="44.5696091" lon="8.9467834"><ele>364.0</ele><time>2026-03-30T13:44:07.161Z</time></trkpt><trkpt lat="44.5697261" lon="8.9466807"><ele>364.8333333333333</ele><time>2026-03-30T13:44:09Z</time></trkpt><trkpt lat="44.5697976" lon="8.9466198"><ele>365.66666666666663</ele><time>2026-03-30T13:44:10.161Z</time></trkpt><trkpt lat="44.5698578" lon="8.9465604"><ele>366.5</ele><time>2026-03-30T13:44:11.149Z</time></trkpt><trkpt lat="44.5699266" lon="8.9465086"><ele>367.3333333333333</ele><time>2026-03-30T13:44:12.144Z</time></trkpt><trkpt lat="44.5700479" lon="8.9464128"><ele>368.1666666666667</ele><time>2026-03-30T13:44:14Z</time></trkpt><trkpt lat="44.5701122" lon="8.9463649"><ele>369.0</ele><time>2026-03-30T13:44:15.169Z</time></trkpt><trkpt lat="44.5701698" lon="8.9463203"><ele>369.0</ele><time>2026-03-30T13:44:16.138Z</time></trkpt><trkpt lat="44.5702286" lon="8.9462719"><ele>369.0</ele><time>2026-03-30T13:44:17.135Z</time></trkpt><trkpt lat="44.5703463" lon="8.9461789"><ele>369.0</ele><time>2026-03-30T13:44:19Z</time></trkpt><trkpt lat="44.570405" lon="8.9461331"><ele>369.0</ele><time>2026-03-30T13:44:20.136Z</time></trkpt><trkpt lat="44.5705005" lon="8.9460386"><ele>369.0</ele><time>2026-03-30T13:44:22.165Z</time></trkpt><trkpt lat="44.5705931" lon="8.9459544"><ele>369.79999999999995</ele><time>2026-03-30T13:44:24Z</time></trkpt><trkpt lat="44.5706768" lon="8.9458836"><ele>370.59999999999997</ele><time>2026-03-30T13:44:27Z</time></trkpt><trkpt lat="44.5707517" lon="8.9457887"><ele>371.4</ele><time>2026-03-30T13:44:29Z</time></trkpt><trkpt lat="44.5708232" lon="8.9457284"><ele>372.2</ele><time>2026-03-30T13:44:31Z</time></trkpt><trkpt lat="44.5709623" lon="8.9456042"><ele>373.0</ele><time>2026-03-30T13:44:33.999Z</time></trkpt><trkpt lat="44.5711805" lon="8.9454779"><ele>372.5</ele><time>2026-03-30T13:44:37Z</time></trkpt><trkpt lat="44.5712621" lon="8.9454259"><ele>372.0</ele><time>2026-03-30T13:44:38Z</time></trkpt><trkpt lat="44.5713666" lon="8.9453843"><ele>371.5</ele><time>2026-03-30T13:44:39Z</time></trkpt><trkpt lat="44.5714493" lon="8.9453233"><ele>371.0</ele><time>2026-03-30T13:44:40.108Z</time></trkpt><trkpt lat="44.5716195" lon="8.9452105"><ele>371.0</ele><time>2026-03-30T13:44:42Z</time></trkpt><trkpt lat="44.5717118" lon="8.945163"><ele>371.0</ele><time>2026-03-30T13:44:43Z</time></trkpt><trkpt lat="44.5717955" lon="8.9451089"><ele>371.0</ele><time>2026-03-30T13:44:44Z</time></trkpt><trkpt lat="44.5718825" lon="8.9450608"><ele>371.0</ele><time>2026-03-30T13:44:44.999Z</time></trkpt><trkpt lat="44.571964" lon="8.9450186"><ele>371.0</ele><time>2026-03-30T13:44:46.124Z</time></trkpt><trkpt lat="44.5720348" lon="8.9449921"><ele>371.0</ele><time>2026-03-30T13:44:47Z</time></trkpt><trkpt lat="44.5721091" lon="8.9449482"><ele>369.7142857142857</ele><time>2026-03-30T13:44:48Z</time></trkpt><trkpt lat="44.5721799" lon="8.9449048"><ele>368.42857142857144</ele><time>2026-03-30T13:44:49Z</time></trkpt><trkpt lat="44.5722529" lon="8.9448706"><ele>367.1428571428571</ele><time>2026-03-30T13:44:50Z</time></trkpt><trkpt lat="44.5723232" lon="8.9448384"><ele>365.8571428571429</ele><time>2026-03-30T13:44:51Z</time></trkpt><trkpt lat="44.5723881" lon="8.9447999"><ele>364.57142857142856</ele><time>2026-03-30T13:44:52Z</time></trkpt><trkpt lat="44.5724552" lon="8.9447559"><ele>363.2857142857143</ele><time>2026-03-30T13:44:53Z</time></trkpt><trkpt lat="44.5725268" lon="8.9447194"><ele>362.0</ele><time>2026-03-30T13:44:54Z</time></trkpt><trkpt lat="44.5725975" lon="8.9446924"><ele>362.0</ele><time>2026-03-30T13:44:55Z</time></trkpt><trkpt lat="44.5726596" lon="8.9446497"><ele>362.0</ele><time>2026-03-30T13:44:56Z</time></trkpt><trkpt lat="44.5727221" lon="8.944613"><ele>362.0</ele><time>2026-03-30T13:44:57Z</time></trkpt><trkpt lat="44.5727866" lon="8.9445749"><ele>362.0</ele><time>2026-03-30T13:44:58Z</time></trkpt><trkpt lat="44.5728501" lon="8.944534"><ele>362.0</ele><time>2026-03-30T13:44:59Z</time></trkpt><trkpt lat="44.5729187" lon="8.9444946"><ele>362.0</ele><time>2026-03-30T13:44:59.999Z</time></trkpt><trkpt lat="44.5729917" lon="8.9444534"><ele>362.0</ele><time>2026-03-30T13:45:01Z</time></trkpt><trkpt lat="44.5730639" lon="8.9444105"><ele>362.1666666666667</ele><time>2026-03-30T13:45:02Z</time></trkpt><trkpt lat="44.5731408" lon="8.9443755"><ele>362.33333333333337</ele><time>2026-03-30T13:45:02.999Z</time></trkpt><trkpt lat="44.5732168" lon="8.9443375"><ele>362.5</ele><time>2026-03-30T13:45:04Z</time></trkpt><trkpt lat="44.5733128" lon="8.9442923"><ele>362.6666666666667</ele><time>2026-03-30T13:45:06.118Z</time></trkpt><trkpt lat="44.5733944" lon="8.9442553"><ele>362.8333333333333</ele><time>2026-03-30T13:45:09Z</time></trkpt><trkpt lat="44.5734638" lon="8.9442194"><ele>363.0</ele><time>2026-03-30T13:45:11Z</time></trkpt><trkpt lat="44.573558" lon="8.9441826"><ele>363.0</ele><time>2026-03-30T13:45:12.999Z</time></trkpt><trkpt lat="44.573651" lon="8.94413"><ele>363.0</ele><time>2026-03-30T13:45:15.14Z</time></trkpt><trkpt lat="44.5737759" lon="8.9440695"><ele>363.0</ele><time>2026-03-30T13:45:17.13Z</time></trkpt><trkpt lat="44.5739381" lon="8.9440001"><ele>363.0</ele><time>2026-03-30T13:45:19Z</time></trkpt><trkpt lat="44.5740259" lon="8.9439618"><ele>363.75</ele><time>2026-03-30T13:45:20Z</time></trkpt><trkpt lat="44.5741105" lon="8.9439168"><ele>364.5</ele><time>2026-03-30T13:45:21.147Z</time></trkpt><trkpt lat="44.5741957" lon="8.9438743"><ele>365.25</ele><time>2026-03-30T13:45:22.148Z</time></trkpt><trkpt lat="44.5743762" lon="8.9437854"><ele>366.0</ele><time>2026-03-30T13:45:24Z</time></trkpt><trkpt lat="44.5744701" lon="8.9437369"><ele>363.6666666666667</ele><time>2026-03-30T13:45:25.143Z</time></trkpt><trkpt lat="44.5746835" lon="8.9436221"><ele>361.33333333333337</ele><time>2026-03-30T13:45:27.16Z</time></trkpt><trkpt lat="44.5748648" lon="8.9435265"><ele>359.0</ele><time>2026-03-30T13:45:29Z</time></trkpt><trkpt lat="44.5749496" lon="8.9434776"><ele>359.0</ele><time>2026-03-30T13:45:30.173Z</time></trkpt><trkpt lat="44.5750273" lon="8.9434292"><ele>359.0</ele><time>2026-03-30T13:45:31.139Z</time></trkpt><trkpt lat="44.5751062" lon="8.9433874"><ele>359.0</ele><time>2026-03-30T13:45:32.172Z</time></trkpt><trkpt lat="44.5752782" lon="8.9433026"><ele>359.0</ele><time>2026-03-30T13:45:34Z</time></trkpt><trkpt lat="44.5753674" lon="8.9432616"><ele>359.0</ele><time>2026-03-30T13:45:35.174Z</time></trkpt><trkpt lat="44.5754542" lon="8.943213"><ele>360.0</ele><time>2026-03-30T13:45:36.139Z</time></trkpt><trkpt lat="44.5755728" lon="8.9431533"><ele>361.0</ele><time>2026-03-30T13:45:37.139Z</time></trkpt><trkpt lat="44.5757746" lon="8.9430309"><ele>362.0</ele><time>2026-03-30T13:45:39Z</time></trkpt><trkpt lat="44.5758684" lon="8.9429938"><ele>363.0</ele><time>2026-03-30T13:45:40.177Z</time></trkpt><trkpt lat="44.5759689" lon="8.9429226"><ele>363.0</ele><time>2026-03-30T13:45:41.142Z</time></trkpt><trkpt lat="44.5760621" lon="8.9428507"><ele>363.0</ele><time>2026-03-30T13:45:42.166Z</time></trkpt><trkpt lat="44.5762421" lon="8.9427165"><ele>363.0</ele><time>2026-03-30T13:45:44Z</time></trkpt><trkpt lat="44.576326" lon="8.9426347"><ele>363.0</ele><time>2026-03-30T13:45:45Z</time></trkpt><trkpt lat="44.5764139" lon="8.942504"><ele>362.25</ele><time>2026-03-30T13:45:46Z</time></trkpt><trkpt lat="44.5764957" lon="8.9423802"><ele>361.5</ele><time>2026-03-30T13:45:47Z</time></trkpt><trkpt lat="44.5765763" lon="8.9422668"><ele>360.75</ele><time>2026-03-30T13:45:48Z</time></trkpt><trkpt lat="44.5766576" lon="8.9421331"><ele>360.0</ele><time>2026-03-30T13:45:49Z</time></trkpt><trkpt lat="44.5767326" lon="8.9420259"><ele>360.0</ele><time>2026-03-30T13:45:49.999Z</time></trkpt><trkpt lat="44.5768097" lon="8.941935"><ele>360.0</ele><time>2026-03-30T13:45:51Z</time></trkpt><trkpt lat="44.5769031" lon="8.9418228"><ele>360.0</ele><time>2026-03-30T13:45:52Z</time></trkpt><trkpt lat="44.5769919" lon="8.9417231"><ele>360.0</ele><time>2026-03-30T13:45:53Z</time></trkpt><trkpt lat="44.5770876" lon="8.9416283"><ele>359.5</ele><time>2026-03-30T13:45:54Z</time></trkpt><trkpt lat="44.5771991" lon="8.941538"><ele>359.0</ele><time>2026-03-30T13:45:55Z</time></trkpt><trkpt lat="44.5773047" lon="8.9414459"><ele>358.5</ele><time>2026-03-30T13:45:56Z</time></trkpt><trkpt lat="44.5774255" lon="8.9413533"><ele>358.0</ele><time>2026-03-30T13:45:57Z</time></trkpt><trkpt lat="44.5775285" lon="8.9412899"><ele>358.0</ele><time>2026-03-30T13:45:58Z</time></trkpt><trkpt lat="44.5776454" lon="8.9412021"><ele>358.0</ele><time>2026-03-30T13:45:59Z</time></trkpt><trkpt lat="44.5777584" lon="8.9411214"><ele>358.0</ele><time>2026-03-30T13:46:00Z</time></trkpt><trkpt lat="44.5778647" lon="8.9410304"><ele>358.0</ele><time>2026-03-30T13:46:01Z</time></trkpt><trkpt lat="44.5779952" lon="8.9409274"><ele>358.66666666666663</ele><time>2026-03-30T13:46:02Z</time></trkpt><trkpt lat="44.5781354" lon="8.9408309"><ele>359.3333333333333</ele><time>2026-03-30T13:46:03Z</time></trkpt><trkpt lat="44.5782729" lon="8.9407341"><ele>360.0</ele><time>2026-03-30T13:46:04Z</time></trkpt><trkpt lat="44.5784175" lon="8.9406461"><ele>360.0</ele><time>2026-03-30T13:46:05Z</time></trkpt><trkpt lat="44.5785517" lon="8.9405445"><ele>360.0</ele><time>2026-03-30T13:46:05.999Z</time></trkpt><trkpt lat="44.5786924" lon="8.9404484"><ele>360.0</ele><time>2026-03-30T13:46:07Z</time></trkpt><trkpt lat="44.5788305" lon="8.9403497"><ele>359.6666666666667</ele><time>2026-03-30T13:46:08Z</time></trkpt><trkpt lat="44.5789724" lon="8.9402516"><ele>359.33333333333337</ele><time>2026-03-30T13:46:09Z</time></trkpt><trkpt lat="44.5791213" lon="8.9401524"><ele>359.0</ele><time>2026-03-30T13:46:10Z</time></trkpt><trkpt lat="44.5792656" lon="8.9400498"><ele>359.0</ele><time>2026-03-30T13:46:11Z</time></trkpt><trkpt lat="44.5794102" lon="8.9399498"><ele>359.0</ele><time>2026-03-30T13:46:12Z</time></trkpt><trkpt lat="44.5795504" lon="8.9398469"><ele>359.0</ele><time>2026-03-30T13:46:13Z</time></trkpt><trkpt lat="44.5796927" lon="8.9397484"><ele>358.0</ele><time>2026-03-30T13:46:14Z</time></trkpt><trkpt lat="44.5798323" lon="8.9396482"><ele>357.0</ele><time>2026-03-30T13:46:15Z</time></trkpt><trkpt lat="44.5799752" lon="8.9395518"><ele>356.0</ele><time>2026-03-30T13:46:16Z</time></trkpt><trkpt lat="44.5801203" lon="8.9394487"><ele>356.0</ele><time>2026-03-30T13:46:17Z</time></trkpt><trkpt lat="44.5802628" lon="8.9393465"><ele>356.0</ele><time>2026-03-30T13:46:18Z</time></trkpt><trkpt lat="44.5804065" lon="8.9392437"><ele>356.0</ele><time>2026-03-30T13:46:19Z</time></trkpt><trkpt lat="44.5805613" lon="8.9391489"><ele>357.6666666666667</ele><time>2026-03-30T13:46:20Z</time></trkpt><trkpt lat="44.5807141" lon="8.9390738"><ele>359.3333333333333</ele><time>2026-03-30T13:46:21Z</time></trkpt><trkpt lat="44.5808645" lon="8.9390304"><ele>361.0</ele><time>2026-03-30T13:46:22Z</time></trkpt><trkpt lat="44.5810183" lon="8.9389994"><ele>361.0</ele><time>2026-03-30T13:46:23Z</time></trkpt><trkpt lat="44.581175" lon="8.939002"><ele>361.0</ele><time>2026-03-30T13:46:24Z</time></trkpt><trkpt lat="44.5813294" lon="8.9390133"><ele>361.0</ele><time>2026-03-30T13:46:25.137Z</time></trkpt><trkpt lat="44.581483" lon="8.9390356"><ele>359.5</ele><time>2026-03-30T13:46:26.115Z</time></trkpt><trkpt lat="44.5816326" lon="8.9390536"><ele>358.0</ele><time>2026-03-30T13:46:27.138Z</time></trkpt><trkpt lat="44.5819513" lon="8.9390446"><ele>358.0</ele><time>2026-03-30T13:46:29Z</time></trkpt><trkpt lat="44.5821096" lon="8.9390172"><ele>358.0</ele><time>2026-03-30T13:46:30Z</time></trkpt><trkpt lat="44.5822653" lon="8.9389921"><ele>358.0</ele><time>2026-03-30T13:46:31.125Z</time></trkpt><trkpt lat="44.5824234" lon="8.9389669"><ele>358.0</ele><time>2026-03-30T13:46:32.144Z</time></trkpt><trkpt lat="44.5827296" lon="8.938914"><ele>358.0</ele><time>2026-03-30T13:46:34Z</time></trkpt><trkpt lat="44.582884" lon="8.9388852"><ele>357.0</ele><time>2026-03-30T13:46:35Z</time></trkpt><trkpt lat="44.583169" lon="8.9388177"><ele>356.0</ele><time>2026-03-30T13:46:37.125Z</time></trkpt><trkpt lat="44.5834263" lon="8.938756"><ele>356.0</ele><time>2026-03-30T13:46:39Z</time></trkpt><trkpt lat="44.5835416" lon="8.9387273"><ele>356.0</ele><time>2026-03-30T13:46:40.136Z</time></trkpt><trkpt lat="44.5836563" lon="8.938701"><ele>356.0</ele><time>2026-03-30T13:46:41.149Z</time></trkpt><trkpt lat="44.5837656" lon="8.9386735"><ele>356.0</ele><time>2026-03-30T13:46:42.146Z</time></trkpt><trkpt lat="44.5839723" lon="8.9386192"><ele>355.75</ele><time>2026-03-30T13:46:44Z</time></trkpt><trkpt lat="44.5840739" lon="8.9385956"><ele>355.5</ele><time>2026-03-30T13:46:45.12Z</time></trkpt><trkpt lat="44.5841754" lon="8.9385737"><ele>355.25</ele><time>2026-03-30T13:46:46.164Z</time></trkpt><trkpt lat="44.5842756" lon="8.9385502"><ele>355.0</ele><time>2026-03-30T13:46:47.149Z</time></trkpt><trkpt lat="44.5844802" lon="8.9385002"><ele>355.0</ele><time>2026-03-30T13:46:49Z</time></trkpt><trkpt lat="44.584586" lon="8.93848"><ele>355.0</ele><time>2026-03-30T13:46:50.135Z</time></trkpt><trkpt lat="44.5846884" lon="8.9384569"><ele>355.0</ele><time>2026-03-30T13:46:51.136Z</time></trkpt><trkpt lat="44.5847916" lon="8.9384346"><ele>355.0</ele><time>2026-03-30T13:46:52.145Z</time></trkpt><trkpt lat="44.5849975" lon="8.9383876"><ele>355.6</ele><time>2026-03-30T13:46:53.999Z</time></trkpt><trkpt lat="44.5851017" lon="8.938367"><ele>356.2</ele><time>2026-03-30T13:46:55Z</time></trkpt><trkpt lat="44.5851956" lon="8.9383447"><ele>356.79999999999995</ele><time>2026-03-30T13:46:56Z</time></trkpt><trkpt lat="44.5852839" lon="8.9383247"><ele>357.4</ele><time>2026-03-30T13:46:57.118Z</time></trkpt><trkpt lat="44.5854296" lon="8.9382958"><ele>358.0</ele><time>2026-03-30T13:46:58.999Z</time></trkpt><trkpt lat="44.585563" lon="8.9382689"><ele>358.0</ele><time>2026-03-30T13:47:02.15Z</time></trkpt><trkpt lat="44.5856543" lon="8.9382608"><ele>358.0</ele><time>2026-03-30T13:47:05Z</time></trkpt><trkpt lat="44.5857334" lon="8.9382746"><ele>358.0</ele><time>2026-03-30T13:47:07Z</time></trkpt><trkpt lat="44.5858143" lon="8.9382428"><ele>358.0</ele><time>2026-03-30T13:47:07.999Z</time></trkpt><trkpt lat="44.5858895" lon="8.938222"><ele>358.0</ele><time>2026-03-30T13:47:10.139Z</time></trkpt><trkpt lat="44.5860632" lon="8.9381456"><ele>358.0</ele><time>2026-03-30T13:47:13Z</time></trkpt><trkpt lat="44.5861369" lon="8.938118"><ele>358.0</ele><time>2026-03-30T13:47:14.143Z</time></trkpt><trkpt lat="44.586201" lon="8.9380956"><ele>358.0</ele><time>2026-03-30T13:47:15.139Z</time></trkpt><trkpt lat="44.586373" lon="8.9380465"><ele>358.0</ele><time>2026-03-30T13:47:17.999Z</time></trkpt><trkpt lat="44.5864462" lon="8.9380502"><ele>358.0</ele><time>2026-03-30T13:47:19.106Z</time></trkpt><trkpt lat="44.5865155" lon="8.9379972"><ele>357.25</ele><time>2026-03-30T13:47:20.132Z</time></trkpt><trkpt lat="44.5865909" lon="8.9379687"><ele>356.5</ele><time>2026-03-30T13:47:21.15Z</time></trkpt><trkpt lat="44.5866817" lon="8.9379682"><ele>355.75</ele><time>2026-03-30T13:47:22.153Z</time></trkpt><trkpt lat="44.5868712" lon="8.9379272"><ele>355.0</ele><time>2026-03-30T13:47:24Z</time></trkpt><trkpt lat="44.5869601" lon="8.9379059"><ele>354.66666666666663</ele><time>2026-03-30T13:47:25.129Z</time></trkpt><trkpt lat="44.5870409" lon="8.9378708"><ele>354.3333333333333</ele><time>2026-03-30T13:47:26.148Z</time></trkpt><trkpt lat="44.5871635" lon="8.9378704"><ele>354.0</ele><time>2026-03-30T13:47:27.14Z</time></trkpt><trkpt lat="44.5874156" lon="8.9378331"><ele>354.0</ele><time>2026-03-30T13:47:29Z</time></trkpt><trkpt lat="44.587512" lon="8.9378105"><ele>354.0</ele><time>2026-03-30T13:47:30.148Z</time></trkpt><trkpt lat="44.5876186" lon="8.9377802"><ele>354.0</ele><time>2026-03-30T13:47:31.141Z</time></trkpt><trkpt lat="44.5877237" lon="8.9377544"><ele>354.0</ele><time>2026-03-30T13:47:32.126Z</time></trkpt><trkpt lat="44.5879311" lon="8.9376925"><ele>353.75</ele><time>2026-03-30T13:47:34.127Z</time></trkpt><trkpt lat="44.5880227" lon="8.9376685"><ele>353.5</ele><time>2026-03-30T13:47:35.151Z</time></trkpt><trkpt lat="44.588107" lon="8.9376482"><ele>353.25</ele><time>2026-03-30T13:47:36.15Z</time></trkpt><trkpt lat="44.5883427" lon="8.9375958"><ele>353.0</ele><time>2026-03-30T13:47:39Z</time></trkpt><trkpt lat="44.5884043" lon="8.9375768"><ele>353.25</ele><time>2026-03-30T13:47:40Z</time></trkpt><trkpt lat="44.588519" lon="8.9375382"><ele>353.5</ele><time>2026-03-30T13:47:42.136Z</time></trkpt><trkpt lat="44.5887344" lon="8.9375087"><ele>353.75</ele><time>2026-03-30T13:47:44Z</time></trkpt><trkpt lat="44.5888134" lon="8.9374879"><ele>354.0</ele><time>2026-03-30T13:47:45.111Z</time></trkpt><trkpt lat="44.5889092" lon="8.9374693"><ele>354.0</ele><time>2026-03-30T13:47:46.136Z</time></trkpt><trkpt lat="44.5890041" lon="8.9374414"><ele>354.0</ele><time>2026-03-30T13:47:47.167Z</time></trkpt><trkpt lat="44.5892123" lon="8.9374009"><ele>354.0</ele><time>2026-03-30T13:47:49Z</time></trkpt><trkpt lat="44.5893222" lon="8.9373824"><ele>354.0</ele><time>2026-03-30T13:47:50Z</time></trkpt><trkpt lat="44.5894219" lon="8.9373614"><ele>354.25</ele><time>2026-03-30T13:47:51Z</time></trkpt><trkpt lat="44.5895265" lon="8.9373356"><ele>354.5</ele><time>2026-03-30T13:47:52Z</time></trkpt><trkpt lat="44.5896329" lon="8.9373158"><ele>354.75</ele><time>2026-03-30T13:47:53Z</time></trkpt><trkpt lat="44.5897557" lon="8.9372954"><ele>355.0</ele><time>2026-03-30T13:47:54Z</time></trkpt><trkpt lat="44.5898727" lon="8.93729"><ele>355.0</ele><time>2026-03-30T13:47:55Z</time></trkpt><trkpt lat="44.589973" lon="8.9372732"><ele>355.0</ele><time>2026-03-30T13:47:56Z</time></trkpt><trkpt lat="44.5901151" lon="8.9372935"><ele>355.0</ele><time>2026-03-30T13:47:57.135Z</time></trkpt><trkpt lat="44.5902316" lon="8.9372829"><ele>355.0</ele><time>2026-03-30T13:47:58Z</time></trkpt><trkpt lat="44.5903441" lon="8.9373553"><ele>355.75</ele><time>2026-03-30T13:47:59Z</time></trkpt><trkpt lat="44.5904477" lon="8.9374054"><ele>356.5</ele><time>2026-03-30T13:48:00.153Z</time></trkpt><trkpt lat="44.5905412" lon="8.9374565"><ele>357.25</ele><time>2026-03-30T13:48:01.134Z</time></trkpt><trkpt lat="44.590624" lon="8.9375106"><ele>358.0</ele><time>2026-03-30T13:48:02.137Z</time></trkpt><trkpt lat="44.5907624" lon="8.9375984"><ele>357.0</ele><time>2026-03-30T13:48:04Z</time></trkpt><trkpt lat="44.5908296" lon="8.9376423"><ele>356.0</ele><time>2026-03-30T13:48:05.133Z</time></trkpt><trkpt lat="44.590889" lon="8.9376788"><ele>355.0</ele><time>2026-03-30T13:48:06.169Z</time></trkpt><trkpt lat="44.5910669" lon="8.9377727"><ele>354.0</ele><time>2026-03-30T13:48:09Z</time></trkpt><trkpt lat="44.591135" lon="8.9378121"><ele>353.0</ele><time>2026-03-30T13:48:10.131Z</time></trkpt><trkpt lat="44.5912119" lon="8.9378558"><ele>353.0</ele><time>2026-03-30T13:48:11.161Z</time></trkpt><trkpt lat="44.5912908" lon="8.9378964"><ele>353.0</ele><time>2026-03-30T13:48:12.117Z</time></trkpt><trkpt lat="44.5914922" lon="8.9380125"><ele>353.0</ele><time>2026-03-30T13:48:14Z</time></trkpt><trkpt lat="44.5916215" lon="8.9380905"><ele>353.0</ele><time>2026-03-30T13:48:15.114Z</time></trkpt><trkpt lat="44.5917471" lon="8.938183"><ele>353.0</ele><time>2026-03-30T13:48:16.146Z</time></trkpt><trkpt lat="44.5918668" lon="8.9382693"><ele>353.0</ele><time>2026-03-30T13:48:17.126Z</time></trkpt><trkpt lat="44.5921056" lon="8.9384245"><ele>353.0</ele><time>2026-03-30T13:48:18.999Z</time></trkpt><trkpt lat="44.5922079" lon="8.9384915"><ele>351.59999999999997</ele><time>2026-03-30T13:48:20.114Z</time></trkpt><trkpt lat="44.5923024" lon="8.9385488"><ele>350.2</ele><time>2026-03-30T13:48:21.119Z</time></trkpt><trkpt lat="44.5923883" lon="8.9385965"><ele>348.8</ele><time>2026-03-30T13:48:22.143Z</time></trkpt><trkpt lat="44.5925375" lon="8.9386858"><ele>347.4</ele><time>2026-03-30T13:48:24Z</time></trkpt><trkpt lat="44.5926135" lon="8.9387331"><ele>346.0</ele><time>2026-03-30T13:48:25Z</time></trkpt><trkpt lat="44.5926922" lon="8.9387763"><ele>346.0</ele><time>2026-03-30T13:48:26Z</time></trkpt><trkpt lat="44.5927787" lon="8.9388222"><ele>346.0</ele><time>2026-03-30T13:48:27Z</time></trkpt><trkpt lat="44.5928624" lon="8.9388754"><ele>346.0</ele><time>2026-03-30T13:48:28Z</time></trkpt><trkpt lat="44.5929489" lon="8.9389269"><ele>346.0</ele><time>2026-03-30T13:48:28.999Z</time></trkpt><trkpt lat="44.5930369" lon="8.938973"><ele>346.0</ele><time>2026-03-30T13:48:30Z</time></trkpt><trkpt lat="44.593124" lon="8.9390227"><ele>345.8</ele><time>2026-03-30T13:48:31Z</time></trkpt><trkpt lat="44.5932058" lon="8.9390749"><ele>345.6</ele><time>2026-03-30T13:48:31.999Z</time></trkpt><trkpt lat="44.5932909" lon="8.9391246"><ele>345.4</ele><time>2026-03-30T13:48:33Z</time></trkpt><trkpt lat="44.5933677" lon="8.9391762"><ele>345.2</ele><time>2026-03-30T13:48:34Z</time></trkpt><trkpt lat="44.593455" lon="8.9392324"><ele>345.0</ele><time>2026-03-30T13:48:35Z</time></trkpt><trkpt lat="44.5935427" lon="8.9392849"><ele>345.0</ele><time>2026-03-30T13:48:36Z</time></trkpt><trkpt lat="44.5936381" lon="8.9393403"><ele>345.0</ele><time>2026-03-30T13:48:37Z</time></trkpt><trkpt lat="44.5937383" lon="8.9394008"><ele>345.0</ele><time>2026-03-30T13:48:38Z</time></trkpt><trkpt lat="44.593846" lon="8.9394641"><ele>345.0</ele><time>2026-03-30T13:48:38.999Z</time></trkpt><trkpt lat="44.5939654" lon="8.9395289"><ele>345.6666666666667</ele><time>2026-03-30T13:48:40Z</time></trkpt><trkpt lat="44.5940923" lon="8.9395996"><ele>346.33333333333337</ele><time>2026-03-30T13:48:41Z</time></trkpt><trkpt lat="44.5942183" lon="8.9396702"><ele>347.0</ele><time>2026-03-30T13:48:42.149Z</time></trkpt><trkpt lat="44.594476" lon="8.9398118"><ele>347.5</ele><time>2026-03-30T13:48:44Z</time></trkpt><trkpt lat="44.5945975" lon="8.9398852"><ele>348.0</ele><time>2026-03-30T13:48:45.116Z</time></trkpt><trkpt lat="44.5947232" lon="8.9399558"><ele>348.5</ele><time>2026-03-30T13:48:46.124Z</time></trkpt><trkpt lat="44.5948614" lon="8.9400351"><ele>349.0</ele><time>2026-03-30T13:48:47.118Z</time></trkpt><trkpt lat="44.5951377" lon="8.9401683"><ele>348.75</ele><time>2026-03-30T13:48:49Z</time></trkpt><trkpt lat="44.5952747" lon="8.94024"><ele>348.5</ele><time>2026-03-30T13:48:50.114Z</time></trkpt><trkpt lat="44.5954114" lon="8.9403056"><ele>348.25</ele><time>2026-03-30T13:48:51.129Z</time></trkpt><trkpt lat="44.595547" lon="8.9403766"><ele>348.0</ele><time>2026-03-30T13:48:52.136Z</time></trkpt><trkpt lat="44.5958224" lon="8.9405377"><ele>348.0</ele><time>2026-03-30T13:48:54Z</time></trkpt><trkpt lat="44.5959539" lon="8.940626"><ele>348.0</ele><time>2026-03-30T13:48:55.12Z</time></trkpt><trkpt lat="44.5960853" lon="8.9407275"><ele>348.0</ele><time>2026-03-30T13:48:56.149Z</time></trkpt><trkpt lat="44.5962101" lon="8.9408363"><ele>348.0</ele><time>2026-03-30T13:48:57.161Z</time></trkpt><trkpt lat="44.5964276" lon="8.9410767"><ele>349.25</ele><time>2026-03-30T13:48:59Z</time></trkpt><trkpt lat="44.5965164" lon="8.9412179"><ele>350.5</ele><time>2026-03-30T13:49:00Z</time></trkpt><trkpt lat="44.5965933" lon="8.9413717"><ele>351.75</ele><time>2026-03-30T13:49:01Z</time></trkpt><trkpt lat="44.5966494" lon="8.9415399"><ele>353.0</ele><time>2026-03-30T13:49:02Z</time></trkpt><trkpt lat="44.596686" lon="8.9417181"><ele>353.0</ele><time>2026-03-30T13:49:03Z</time></trkpt><trkpt lat="44.5966982" lon="8.9419115"><ele>353.0</ele><time>2026-03-30T13:49:04Z</time></trkpt><trkpt lat="44.596695" lon="8.9420986"><ele>353.0</ele><time>2026-03-30T13:49:05.123Z</time></trkpt><trkpt lat="44.5966833" lon="8.9422809"><ele>353.0</ele><time>2026-03-30T13:49:06.152Z</time></trkpt><trkpt lat="44.5966745" lon="8.9424712"><ele>354.75</ele><time>2026-03-30T13:49:07.153Z</time></trkpt><trkpt lat="44.5966704" lon="8.9426646"><ele>356.5</ele><time>2026-03-30T13:49:08Z</time></trkpt><trkpt lat="44.5966708" lon="8.9428725"><ele>358.25</ele><time>2026-03-30T13:49:09Z</time></trkpt><trkpt lat="44.5966855" lon="8.9430651"><ele>360.0</ele><time>2026-03-30T13:49:10.16Z</time></trkpt><trkpt lat="44.5966926" lon="8.9432644"><ele>363.6666666666667</ele><time>2026-03-30T13:49:11.142Z</time></trkpt><trkpt lat="44.596695" lon="8.9434607"><ele>367.33333333333337</ele><time>2026-03-30T13:49:12.153Z</time></trkpt><trkpt lat="44.5966807" lon="8.9438386"><ele>371.0</ele><time>2026-03-30T13:49:14Z</time></trkpt><trkpt lat="44.5966815" lon="8.9440193"><ele>371.0</ele><time>2026-03-30T13:49:15.14Z</time></trkpt><trkpt lat="44.5966265" lon="8.9441872"><ele>371.0</ele><time>2026-03-30T13:49:16.133Z</time></trkpt><trkpt lat="44.5965896" lon="8.9443189"><ele>371.0</ele><time>2026-03-30T13:49:17.158Z</time></trkpt><trkpt lat="44.5964253" lon="8.9444533"><ele>371.0</ele><time>2026-03-30T13:49:19Z</time></trkpt><trkpt lat="44.5963682" lon="8.9445431"><ele>363.0</ele><time>2026-03-30T13:49:20.134Z</time></trkpt><trkpt lat="44.5962565" lon="8.9446557"><ele>355.0</ele><time>2026-03-30T13:49:21.135Z</time></trkpt><trkpt lat="44.5961666" lon="8.9447694"><ele>347.0</ele><time>2026-03-30T13:49:22.168Z</time></trkpt><trkpt lat="44.5960021" lon="8.9450151"><ele>351.25</ele><time>2026-03-30T13:49:24Z</time></trkpt><trkpt lat="44.5959216" lon="8.9451364"><ele>355.5</ele><time>2026-03-30T13:49:25.115Z</time></trkpt><trkpt lat="44.5958491" lon="8.9452711"><ele>359.75</ele><time>2026-03-30T13:49:26.126Z</time></trkpt><trkpt lat="44.5957819" lon="8.9454225"><ele>364.0</ele><time>2026-03-30T13:49:27.147Z</time></trkpt><trkpt lat="44.5956621" lon="8.945741"><ele>365.0</ele><time>2026-03-30T13:49:29Z</time></trkpt><trkpt lat="44.5956127" lon="8.9459117"><ele>366.0</ele><time>2026-03-30T13:49:30.146Z</time></trkpt><trkpt lat="44.5955708" lon="8.946079"><ele>367.0</ele><time>2026-03-30T13:49:31.121Z</time></trkpt><trkpt lat="44.5955353" lon="8.9462431"><ele>368.0</ele><time>2026-03-30T13:49:32.155Z</time></trkpt><trkpt lat="44.5954308" lon="8.9465489"><ele>368.0</ele><time>2026-03-30T13:49:34Z</time></trkpt><trkpt lat="44.5953958" lon="8.9467082"><ele>368.0</ele><time>2026-03-30T13:49:35.145Z</time></trkpt><trkpt lat="44.5953752" lon="8.9468737"><ele>368.0</ele><time>2026-03-30T13:49:36.149Z</time></trkpt><trkpt lat="44.595371" lon="8.9470451"><ele>368.0</ele><time>2026-03-30T13:49:37.137Z</time></trkpt><trkpt lat="44.5953862" lon="8.9473776"><ele>365.5</ele><time>2026-03-30T13:49:39Z</time></trkpt><trkpt lat="44.5953887" lon="8.9475513"><ele>363.0</ele><time>2026-03-30T13:49:40.143Z</time></trkpt><trkpt lat="44.5954083" lon="8.9477067"><ele>360.5</ele><time>2026-03-30T13:49:41.132Z</time></trkpt><trkpt lat="44.5954358" lon="8.947862"><ele>358.0</ele><time>2026-03-30T13:49:42.137Z</time></trkpt><trkpt lat="44.5955067" lon="8.9481486"><ele>358.0</ele><time>2026-03-30T13:49:44Z</time></trkpt><trkpt lat="44.5955353" lon="8.9482843"><ele>358.0</ele><time>2026-03-30T13:49:45.124Z</time></trkpt><trkpt lat="44.5955531" lon="8.9484173"><ele>358.0</ele><time>2026-03-30T13:49:46.148Z</time></trkpt><trkpt lat="44.5955544" lon="8.9485443"><ele>358.0</ele><time>2026-03-30T13:49:47.116Z</time></trkpt><trkpt lat="44.5955393" lon="8.9488134"><ele>358.0</ele><time>2026-03-30T13:49:49Z</time></trkpt><trkpt lat="44.5955332" lon="8.9489661"><ele>358.0</ele><time>2026-03-30T13:49:50Z</time></trkpt><trkpt lat="44.59552" lon="8.9491304"><ele>358.0</ele><time>2026-03-30T13:49:51.15Z</time></trkpt><trkpt lat="44.5955138" lon="8.949313"><ele>358.0</ele><time>2026-03-30T13:49:52.127Z</time></trkpt><trkpt lat="44.5954949" lon="8.9497351"><ele>360.0</ele><time>2026-03-30T13:49:54Z</time></trkpt><trkpt lat="44.59548" lon="8.949961"><ele>362.0</ele><time>2026-03-30T13:49:54.999Z</time></trkpt><trkpt lat="44.5954694" lon="8.9502031"><ele>364.0</ele><time>2026-03-30T13:49:56.127Z</time></trkpt><trkpt lat="44.5954584" lon="8.9504506"><ele>366.5</ele><time>2026-03-30T13:49:57.149Z</time></trkpt><trkpt lat="44.5954228" lon="8.9509522"><ele>369.0</ele><time>2026-03-30T13:49:59Z</time></trkpt><trkpt lat="44.595402" lon="8.9511888"><ele>369.0</ele><time>2026-03-30T13:50:00.123Z</time></trkpt><trkpt lat="44.5953886" lon="8.9514148"><ele>369.0</ele><time>2026-03-30T13:50:01.16Z</time></trkpt><trkpt lat="44.5953719" lon="8.9516478"><ele>369.0</ele><time>2026-03-30T13:50:02.132Z</time></trkpt><trkpt lat="44.5953484" lon="8.9520863"><ele>359.3333333333333</ele><time>2026-03-30T13:50:04Z</time></trkpt><trkpt lat="44.5953348" lon="8.952303"><ele>349.66666666666663</ele><time>2026-03-30T13:50:05Z</time></trkpt><trkpt lat="44.5953222" lon="8.9525106"><ele>340.0</ele><time>2026-03-30T13:50:06.104Z</time></trkpt><trkpt lat="44.5953135" lon="8.9529051"><ele>340.0</ele><time>2026-03-30T13:50:08Z</time></trkpt><trkpt lat="44.5953491" lon="8.9530879"><ele>340.0</ele><time>2026-03-30T13:50:09.131Z</time></trkpt><trkpt lat="44.5954148" lon="8.9532271"><ele>340.0</ele><time>2026-03-30T13:50:10.109Z</time></trkpt><trkpt lat="44.5954785" lon="8.953365"><ele>340.0</ele><time>2026-03-30T13:50:11.146Z</time></trkpt><trkpt lat="44.5955604" lon="8.9535037"><ele>340.0</ele><time>2026-03-30T13:50:12.173Z</time></trkpt><trkpt lat="44.595867" lon="8.9534955"><ele>340.0</ele><time>2026-03-30T13:50:14Z</time></trkpt><trkpt lat="44.5960049" lon="8.9534985"><ele>340.0</ele><time>2026-03-30T13:50:15Z</time></trkpt><trkpt lat="44.5961494" lon="8.9535183"><ele>339.0</ele><time>2026-03-30T13:50:16.141Z</time></trkpt><trkpt lat="44.596293" lon="8.9535301"><ele>338.0</ele><time>2026-03-30T13:50:17.14Z</time></trkpt><trkpt lat="44.596582" lon="8.9535457"><ele>337.0</ele><time>2026-03-30T13:50:19Z</time></trkpt><trkpt lat="44.5967315" lon="8.9535638"><ele>337.0</ele><time>2026-03-30T13:50:20.11Z</time></trkpt><trkpt lat="44.5970101" lon="8.9535921"><ele>337.0</ele><time>2026-03-30T13:50:22.128Z</time></trkpt><trkpt lat="44.5972976" lon="8.9536157"><ele>337.0</ele><time>2026-03-30T13:50:24Z</time></trkpt><trkpt lat="44.5974399" lon="8.9536107"><ele>337.0</ele><time>2026-03-30T13:50:25.151Z</time></trkpt><trkpt lat="44.5977224" lon="8.9535616"><ele>337.0</ele><time>2026-03-30T13:50:27.116Z</time></trkpt><trkpt lat="44.5979948" lon="8.9534408"><ele>338.0</ele><time>2026-03-30T13:50:28.999Z</time></trkpt><trkpt lat="44.5981279" lon="8.9533668"><ele>339.0</ele><time>2026-03-30T13:50:30.134Z</time></trkpt><trkpt lat="44.5983954" lon="8.9531953"><ele>340.0</ele><time>2026-03-30T13:50:32.117Z</time></trkpt><trkpt lat="44.598668" lon="8.9530331"><ele>340.0</ele><time>2026-03-30T13:50:34Z</time></trkpt><trkpt lat="44.5987855" lon="8.9529581"><ele>340.0</ele><time>2026-03-30T13:50:35.15Z</time></trkpt><trkpt lat="44.5989207" lon="8.9528728"><ele>340.0</ele><time>2026-03-30T13:50:36.147Z</time></trkpt><trkpt lat="44.5990523" lon="8.9527907"><ele>340.0</ele><time>2026-03-30T13:50:37.148Z</time></trkpt><trkpt lat="44.599309" lon="8.9526214"><ele>340.0</ele><time>2026-03-30T13:50:39Z</time></trkpt><trkpt lat="44.5994297" lon="8.9525307"><ele>340.0</ele><time>2026-03-30T13:50:40Z</time></trkpt><trkpt lat="44.5995521" lon="8.9524391"><ele>340.0</ele><time>2026-03-30T13:50:41Z</time></trkpt><trkpt lat="44.5996685" lon="8.9523414"><ele>340.0</ele><time>2026-03-30T13:50:42.152Z</time></trkpt><trkpt lat="44.5998859" lon="8.9521218"><ele>340.0</ele><time>2026-03-30T13:50:44Z</time></trkpt><trkpt lat="44.5999841" lon="8.9520067"><ele>340.0</ele><time>2026-03-30T13:50:45.153Z</time></trkpt><trkpt lat="44.6000831" lon="8.9518973"><ele>340.0</ele><time>2026-03-30T13:50:46.126Z</time></trkpt><trkpt lat="44.6001797" lon="8.9517827"><ele>340.0</ele><time>2026-03-30T13:50:47.103Z</time></trkpt><trkpt lat="44.6003704" lon="8.9515562"><ele>339.75</ele><time>2026-03-30T13:50:49Z</time></trkpt><trkpt lat="44.6004694" lon="8.9514452"><ele>339.5</ele><time>2026-03-30T13:50:50.128Z</time></trkpt><trkpt lat="44.6005636" lon="8.9513294"><ele>339.25</ele><time>2026-03-30T13:50:51.142Z</time></trkpt><trkpt lat="44.6006583" lon="8.9512146"><ele>339.0</ele><time>2026-03-30T13:50:52.156Z</time></trkpt><trkpt lat="44.6008371" lon="8.9509988"><ele>339.0</ele><time>2026-03-30T13:50:54Z</time></trkpt><trkpt lat="44.6009217" lon="8.950895"><ele>339.0</ele><time>2026-03-30T13:50:55.126Z</time></trkpt><trkpt lat="44.6010118" lon="8.9507882"><ele>339.0</ele><time>2026-03-30T13:50:56.139Z</time></trkpt><trkpt lat="44.6011018" lon="8.9506829"><ele>339.0</ele><time>2026-03-30T13:50:57.151Z</time></trkpt><trkpt lat="44.6012883" lon="8.9504561"><ele>338.25</ele><time>2026-03-30T13:50:59Z</time></trkpt><trkpt lat="44.6013814" lon="8.950342"><ele>337.5</ele><time>2026-03-30T13:51:00Z</time></trkpt><trkpt lat="44.6014827" lon="8.9502228"><ele>336.75</ele><time>2026-03-30T13:51:01.148Z</time></trkpt><trkpt lat="44.6015804" lon="8.9501053"><ele>336.0</ele><time>2026-03-30T13:51:02.154Z</time></trkpt><trkpt lat="44.6017773" lon="8.9498703"><ele>336.0</ele><time>2026-03-30T13:51:04Z</time></trkpt><trkpt lat="44.6018769" lon="8.9497546"><ele>336.0</ele><time>2026-03-30T13:51:05.112Z</time></trkpt><trkpt lat="44.601982" lon="8.9496425"><ele>336.0</ele><time>2026-03-30T13:51:06.145Z</time></trkpt><trkpt lat="44.60208" lon="8.9495325"><ele>336.0</ele><time>2026-03-30T13:51:07.134Z</time></trkpt><trkpt lat="44.6022622" lon="8.9493136"><ele>336.0</ele><time>2026-03-30T13:51:09Z</time></trkpt><trkpt lat="44.602355" lon="8.9492039"><ele>336.0</ele><time>2026-03-30T13:51:10.16Z</time></trkpt><trkpt lat="44.6024613" lon="8.9491057"><ele>336.0</ele><time>2026-03-30T13:51:11Z</time></trkpt><trkpt lat="44.6025606" lon="8.9490143"><ele>336.0</ele><time>2026-03-30T13:51:12.141Z</time></trkpt><trkpt lat="44.6028001" lon="8.948872"><ele>334.75</ele><time>2026-03-30T13:51:13.999Z</time></trkpt><trkpt lat="44.6029179" lon="8.9488207"><ele>333.5</ele><time>2026-03-30T13:51:15Z</time></trkpt><trkpt lat="44.603038" lon="8.948784"><ele>332.25</ele><time>2026-03-30T13:51:16Z</time></trkpt><trkpt lat="44.6031585" lon="8.9487501"><ele>331.0</ele><time>2026-03-30T13:51:17.148Z</time></trkpt><trkpt lat="44.6034143" lon="8.9487166"><ele>331.0</ele><time>2026-03-30T13:51:19Z</time></trkpt><trkpt lat="44.6035439" lon="8.9487173"><ele>331.0</ele><time>2026-03-30T13:51:20.163Z</time></trkpt><trkpt lat="44.6038111" lon="8.9487639"><ele>331.0</ele><time>2026-03-30T13:51:22.164Z</time></trkpt><trkpt lat="44.6040635" lon="8.9488584"><ele>331.75</ele><time>2026-03-30T13:51:24.128Z</time></trkpt><trkpt lat="44.6041775" lon="8.9489183"><ele>332.5</ele><time>2026-03-30T13:51:25.131Z</time></trkpt><trkpt lat="44.6042884" lon="8.9489962"><ele>333.25</ele><time>2026-03-30T13:51:26.145Z</time></trkpt><trkpt lat="44.6043993" lon="8.9490865"><ele>334.0</ele><time>2026-03-30T13:51:27.148Z</time></trkpt><trkpt lat="44.6045924" lon="8.9492975"><ele>336.0</ele><time>2026-03-30T13:51:29Z</time></trkpt><trkpt lat="44.6046905" lon="8.9494187"><ele>338.0</ele><time>2026-03-30T13:51:30.121Z</time></trkpt><trkpt lat="44.6047885" lon="8.9495383"><ele>340.0</ele><time>2026-03-30T13:51:31.121Z</time></trkpt><trkpt lat="44.6048841" lon="8.9496788"><ele>342.0</ele><time>2026-03-30T13:51:32.153Z</time></trkpt><trkpt lat="44.6050735" lon="8.9499629"><ele>343.25</ele><time>2026-03-30T13:51:34Z</time></trkpt><trkpt lat="44.6051705" lon="8.9501104"><ele>344.5</ele><time>2026-03-30T13:51:35.13Z</time></trkpt><trkpt lat="44.6052657" lon="8.9502545"><ele>345.75</ele><time>2026-03-30T13:51:36.13Z</time></trkpt><trkpt lat="44.605363" lon="8.9503946"><ele>347.0</ele><time>2026-03-30T13:51:37.156Z</time></trkpt><trkpt lat="44.6055564" lon="8.9506746"><ele>347.0</ele><time>2026-03-30T13:51:39Z</time></trkpt><trkpt lat="44.60565" lon="8.9508248"><ele>347.0</ele><time>2026-03-30T13:51:40.144Z</time></trkpt><trkpt lat="44.6057416" lon="8.9509726"><ele>347.0</ele><time>2026-03-30T13:51:41.147Z</time></trkpt><trkpt lat="44.6058257" lon="8.9511255"><ele>347.0</ele><time>2026-03-30T13:51:42.127Z</time></trkpt><trkpt lat="44.6059796" lon="8.9514382"><ele>349.75</ele><time>2026-03-30T13:51:44Z</time></trkpt><trkpt lat="44.6060516" lon="8.9516024"><ele>352.5</ele><time>2026-03-30T13:51:45.154Z</time></trkpt><trkpt lat="44.606125" lon="8.9517624"><ele>355.25</ele><time>2026-03-30T13:51:46.121Z</time></trkpt><trkpt lat="44.6061951" lon="8.9519233"><ele>358.0</ele><time>2026-03-30T13:51:47.127Z</time></trkpt><trkpt lat="44.6063455" lon="8.9522352"><ele>358.0</ele><time>2026-03-30T13:51:49Z</time></trkpt><trkpt lat="44.606414" lon="8.9523844"><ele>358.0</ele><time>2026-03-30T13:51:50Z</time></trkpt><trkpt lat="44.6064869" lon="8.952541"><ele>358.0</ele><time>2026-03-30T13:51:50.999Z</time></trkpt><trkpt lat="44.6065518" lon="8.9527059"><ele>358.0</ele><time>2026-03-30T13:51:52.122Z</time></trkpt><trkpt lat="44.6066521" lon="8.9530418"><ele>353.0</ele><time>2026-03-30T13:51:54Z</time></trkpt><trkpt lat="44.6066988" lon="8.9532133"><ele>348.0</ele><time>2026-03-30T13:51:55Z</time></trkpt><trkpt lat="44.6067495" lon="8.9533791"><ele>343.0</ele><time>2026-03-30T13:51:56.135Z</time></trkpt><trkpt lat="44.6068073" lon="8.9535379"><ele>338.0</ele><time>2026-03-30T13:51:57.126Z</time></trkpt><trkpt lat="44.606935" lon="8.9538521"><ele>336.75</ele><time>2026-03-30T13:51:59Z</time></trkpt><trkpt lat="44.6069914" lon="8.9540084"><ele>335.5</ele><time>2026-03-30T13:52:00.128Z</time></trkpt><trkpt lat="44.6070527" lon="8.9541539"><ele>334.25</ele><time>2026-03-30T13:52:01.153Z</time></trkpt><trkpt lat="44.6071083" lon="8.9542994"><ele>333.0</ele><time>2026-03-30T13:52:02.133Z</time></trkpt><trkpt lat="44.6072232" lon="8.9545757"><ele>333.0</ele><time>2026-03-30T13:52:04Z</time></trkpt><trkpt lat="44.6072911" lon="8.9546984"><ele>333.0</ele><time>2026-03-30T13:52:05.122Z</time></trkpt><trkpt lat="44.6073604" lon="8.9548135"><ele>333.0</ele><time>2026-03-30T13:52:06.148Z</time></trkpt><trkpt lat="44.6074347" lon="8.9549201"><ele>333.0</ele><time>2026-03-30T13:52:07.122Z</time></trkpt><trkpt lat="44.6075965" lon="8.9550955"><ele>333.25</ele><time>2026-03-30T13:52:09Z</time></trkpt><trkpt lat="44.607683" lon="8.9551548"><ele>333.5</ele><time>2026-03-30T13:52:10.169Z</time></trkpt><trkpt lat="44.6077733" lon="8.9551886"><ele>333.75</ele><time>2026-03-30T13:52:11.166Z</time></trkpt><trkpt lat="44.6078722" lon="8.955197"><ele>334.0</ele><time>2026-03-30T13:52:12.157Z</time></trkpt><trkpt lat="44.6080682" lon="8.9551949"><ele>334.0</ele><time>2026-03-30T13:52:14Z</time></trkpt><trkpt lat="44.6081695" lon="8.955199"><ele>334.0</ele><time>2026-03-30T13:52:15Z</time></trkpt><trkpt lat="44.6082599" lon="8.9552155"><ele>334.0</ele><time>2026-03-30T13:52:16.153Z</time></trkpt><trkpt lat="44.608357" lon="8.9552095"><ele>334.0</ele><time>2026-03-30T13:52:17.148Z</time></trkpt><trkpt lat="44.608532" lon="8.9551758"><ele>334.0</ele><time>2026-03-30T13:52:19Z</time></trkpt><trkpt lat="44.6086279" lon="8.9551478"><ele>334.0</ele><time>2026-03-30T13:52:20.125Z</time></trkpt><trkpt lat="44.6088363" lon="8.9550654"><ele>334.0</ele><time>2026-03-30T13:52:22.118Z</time></trkpt><trkpt lat="44.6090436" lon="8.9550063"><ele>334.25</ele><time>2026-03-30T13:52:24Z</time></trkpt><trkpt lat="44.6091453" lon="8.9549725"><ele>334.5</ele><time>2026-03-30T13:52:25.114Z</time></trkpt><trkpt lat="44.6092517" lon="8.9549367"><ele>334.75</ele><time>2026-03-30T13:52:26Z</time></trkpt><trkpt lat="44.6093612" lon="8.9549043"><ele>335.0</ele><time>2026-03-30T13:52:27.123Z</time></trkpt><trkpt lat="44.6095662" lon="8.9548134"><ele>335.0</ele><time>2026-03-30T13:52:29Z</time></trkpt><trkpt lat="44.6096568" lon="8.9547847"><ele>335.0</ele><time>2026-03-30T13:52:30.146Z</time></trkpt><trkpt lat="44.6097654" lon="8.9547486"><ele>335.0</ele><time>2026-03-30T13:52:31.151Z</time></trkpt><trkpt lat="44.6098528" lon="8.9547127"><ele>335.0</ele><time>2026-03-30T13:52:32.121Z</time></trkpt><trkpt lat="44.610059" lon="8.95464"><ele>335.0</ele><time>2026-03-30T13:52:34Z</time></trkpt><trkpt lat="44.6101621" lon="8.9545966"><ele>335.0</ele><time>2026-03-30T13:52:35.124Z</time></trkpt><trkpt lat="44.6103663" lon="8.9545102"><ele>335.0</ele><time>2026-03-30T13:52:37.154Z</time></trkpt><trkpt lat="44.6105838" lon="8.9544229"><ele>334.5</ele><time>2026-03-30T13:52:39Z</time></trkpt><trkpt lat="44.610693" lon="8.9543789"><ele>334.0</ele><time>2026-03-30T13:52:40.121Z</time></trkpt><trkpt lat="44.6107919" lon="8.9543319"><ele>333.5</ele><time>2026-03-30T13:52:41.152Z</time></trkpt><trkpt lat="44.6108961" lon="8.954282"><ele>333.0</ele><time>2026-03-30T13:52:42.134Z</time></trkpt><trkpt lat="44.6110986" lon="8.9541713"><ele>332.5</ele><time>2026-03-30T13:52:44Z</time></trkpt><trkpt lat="44.6111663" lon="8.9541414"><ele>332.0</ele><time>2026-03-30T13:52:45.124Z</time></trkpt><trkpt lat="44.6112511" lon="8.9540786"><ele>331.5</ele><time>2026-03-30T13:52:46.133Z</time></trkpt><trkpt lat="44.6113375" lon="8.954026"><ele>331.0</ele><time>2026-03-30T13:52:47.118Z</time></trkpt><trkpt lat="44.611536" lon="8.9538718"><ele>331.0</ele><time>2026-03-30T13:52:48.999Z</time></trkpt><trkpt lat="44.6116365" lon="8.9538098"><ele>331.0</ele><time>2026-03-30T13:52:50.148Z</time></trkpt><trkpt lat="44.6117265" lon="8.9537396"><ele>331.0</ele><time>2026-03-30T13:52:51.146Z</time></trkpt><trkpt lat="44.6118169" lon="8.9536828"><ele>331.0</ele><time>2026-03-30T13:52:52.122Z</time></trkpt><trkpt lat="44.6119783" lon="8.9535557"><ele>330.5</ele><time>2026-03-30T13:52:54Z</time></trkpt><trkpt lat="44.6120648" lon="8.9534912"><ele>330.0</ele><time>2026-03-30T13:52:55.127Z</time></trkpt><trkpt lat="44.6121512" lon="8.953426"><ele>329.5</ele><time>2026-03-30T13:52:56.151Z</time></trkpt><trkpt lat="44.6123179" lon="8.9532901"><ele>329.0</ele><time>2026-03-30T13:52:58Z</time></trkpt><trkpt lat="44.6123905" lon="8.9531535"><ele>329.0</ele><time>2026-03-30T13:52:59Z</time></trkpt><trkpt lat="44.6124559" lon="8.9530264"><ele>329.0</ele><time>2026-03-30T13:53:00.148Z</time></trkpt><trkpt lat="44.6124815" lon="8.9528751"><ele>329.0</ele><time>2026-03-30T13:53:01.159Z</time></trkpt><trkpt lat="44.6124825" lon="8.9527199"><ele>329.0</ele><time>2026-03-30T13:53:02.128Z</time></trkpt><trkpt lat="44.6124618" lon="8.9524082"><ele>330.0</ele><time>2026-03-30T13:53:04Z</time></trkpt><trkpt lat="44.6124426" lon="8.9522639"><ele>331.0</ele><time>2026-03-30T13:53:05.161Z</time></trkpt><trkpt lat="44.6124141" lon="8.9521021"><ele>332.0</ele><time>2026-03-30T13:53:06.149Z</time></trkpt><trkpt lat="44.612392" lon="8.9519457"><ele>333.0</ele><time>2026-03-30T13:53:07.126Z</time></trkpt><trkpt lat="44.6123404" lon="8.9516438"><ele>333.25</ele><time>2026-03-30T13:53:09Z</time></trkpt><trkpt lat="44.612316" lon="8.9514915"><ele>333.5</ele><time>2026-03-30T13:53:10Z</time></trkpt><trkpt lat="44.6122941" lon="8.9513317"><ele>333.75</ele><time>2026-03-30T13:53:11.168Z</time></trkpt><trkpt lat="44.6122816" lon="8.9511632"><ele>334.0</ele><time>2026-03-30T13:53:12.134Z</time></trkpt><trkpt lat="44.6122423" lon="8.9508389"><ele>332.75</ele><time>2026-03-30T13:53:14Z</time></trkpt><trkpt lat="44.612227" lon="8.9506829"><ele>331.5</ele><time>2026-03-30T13:53:15.135Z</time></trkpt><trkpt lat="44.6122231" lon="8.9505211"><ele>330.25</ele><time>2026-03-30T13:53:16.148Z</time></trkpt><trkpt lat="44.6122339" lon="8.9503709"><ele>329.0</ele><time>2026-03-30T13:53:17.156Z</time></trkpt><trkpt lat="44.6123081" lon="8.9501202"><ele>329.75</ele><time>2026-03-30T13:53:19Z</time></trkpt><trkpt lat="44.612369" lon="8.9499951"><ele>330.5</ele><time>2026-03-30T13:53:20.138Z</time></trkpt><trkpt lat="44.6124673" lon="8.9499337"><ele>331.25</ele><time>2026-03-30T13:53:21.149Z</time></trkpt><trkpt lat="44.6125464" lon="8.9498583"><ele>332.0</ele><time>2026-03-30T13:53:22.164Z</time></trkpt><trkpt lat="44.612705" lon="8.9497311"><ele>332.0</ele><time>2026-03-30T13:53:24Z</time></trkpt><trkpt lat="44.6127844" lon="8.9496611"><ele>332.0</ele><time>2026-03-30T13:53:25.135Z</time></trkpt><trkpt lat="44.6128714" lon="8.9496082"><ele>332.0</ele><time>2026-03-30T13:53:26.134Z</time></trkpt><trkpt lat="44.6129663" lon="8.9495406"><ele>332.0</ele><time>2026-03-30T13:53:27.122Z</time></trkpt><trkpt lat="44.6131473" lon="8.949419"><ele>330.0</ele><time>2026-03-30T13:53:29Z</time></trkpt><trkpt lat="44.6132419" lon="8.9493309"><ele>328.0</ele><time>2026-03-30T13:53:30.155Z</time></trkpt><trkpt lat="44.6134354" lon="8.9491639"><ele>326.0</ele><time>2026-03-30T13:53:32Z</time></trkpt><trkpt lat="44.6135375" lon="8.9490906"><ele>326.0</ele><time>2026-03-30T13:53:33Z</time></trkpt><trkpt lat="44.613639" lon="8.9490206"><ele>326.0</ele><time>2026-03-30T13:53:34Z</time></trkpt><trkpt lat="44.6137304" lon="8.9489621"><ele>326.0</ele><time>2026-03-30T13:53:35Z</time></trkpt><trkpt lat="44.6138368" lon="8.9489075"><ele>326.0</ele><time>2026-03-30T13:53:36.155Z</time></trkpt><trkpt lat="44.6140497" lon="8.9488845"><ele>325.4</ele><time>2026-03-30T13:53:37.999Z</time></trkpt><trkpt lat="44.6141535" lon="8.9488764"><ele>324.8</ele><time>2026-03-30T13:53:39.147Z</time></trkpt><trkpt lat="44.6142514" lon="8.948851"><ele>324.2</ele><time>2026-03-30T13:53:40.12Z</time></trkpt><trkpt lat="44.6143417" lon="8.9487972"><ele>323.59999999999997</ele><time>2026-03-30T13:53:41.15Z</time></trkpt><trkpt lat="44.614419" lon="8.9487091"><ele>323.0</ele><time>2026-03-30T13:53:42.126Z</time></trkpt><trkpt lat="44.6145412" lon="8.948463"><ele>323.0</ele><time>2026-03-30T13:53:44Z</time></trkpt><trkpt lat="44.6145966" lon="8.9483331"><ele>323.0</ele><time>2026-03-30T13:53:45.146Z</time></trkpt><trkpt lat="44.6146516" lon="8.9481896"><ele>323.0</ele><time>2026-03-30T13:53:46.115Z</time></trkpt><trkpt lat="44.614708" lon="8.9480443"><ele>323.0</ele><time>2026-03-30T13:53:47.122Z</time></trkpt><trkpt lat="44.6148251" lon="8.9477821"><ele>323.0</ele><time>2026-03-30T13:53:49Z</time></trkpt><trkpt lat="44.6148793" lon="8.9476384"><ele>323.0</ele><time>2026-03-30T13:53:50.123Z</time></trkpt><trkpt lat="44.6149371" lon="8.9475024"><ele>323.0</ele><time>2026-03-30T13:53:51.132Z</time></trkpt><trkpt lat="44.6149939" lon="8.947361"><ele>323.0</ele><time>2026-03-30T13:53:52.132Z</time></trkpt><trkpt lat="44.6150475" lon="8.9472282"><ele>323.75</ele><time>2026-03-30T13:53:53Z</time></trkpt><trkpt lat="44.6151048" lon="8.9470885"><ele>324.5</ele><time>2026-03-30T13:53:54Z</time></trkpt><trkpt lat="44.6151617" lon="8.9469529"><ele>325.25</ele><time>2026-03-30T13:53:55.172Z</time></trkpt><trkpt lat="44.6152197" lon="8.9468115"><ele>326.0</ele><time>2026-03-30T13:53:56.155Z</time></trkpt><trkpt lat="44.6152777" lon="8.9466677"><ele>323.6666666666667</ele><time>2026-03-30T13:53:57.116Z</time></trkpt><trkpt lat="44.6153943" lon="8.9463969"><ele>321.3333333333333</ele><time>2026-03-30T13:53:59Z</time></trkpt><trkpt lat="44.6154473" lon="8.946248"><ele>319.0</ele><time>2026-03-30T13:54:00.166Z</time></trkpt><trkpt lat="44.6155036" lon="8.9460993"><ele>319.0</ele><time>2026-03-30T13:54:01.16Z</time></trkpt><trkpt lat="44.615559" lon="8.9459534"><ele>319.0</ele><time>2026-03-30T13:54:02.166Z</time></trkpt><trkpt lat="44.6156667" lon="8.9456796"><ele>319.0</ele><time>2026-03-30T13:54:04Z</time></trkpt><trkpt lat="44.6157226" lon="8.9455413"><ele>319.25</ele><time>2026-03-30T13:54:05Z</time></trkpt><trkpt lat="44.6157789" lon="8.9454041"><ele>319.5</ele><time>2026-03-30T13:54:06Z</time></trkpt><trkpt lat="44.6158343" lon="8.9452653"><ele>319.75</ele><time>2026-03-30T13:54:07.141Z</time></trkpt><trkpt lat="44.6159459" lon="8.9449945"><ele>320.0</ele><time>2026-03-30T13:54:09Z</time></trkpt><trkpt lat="44.6160016" lon="8.9448591"><ele>321.0</ele><time>2026-03-30T13:54:10Z</time></trkpt><trkpt lat="44.6160572" lon="8.9447227"><ele>322.0</ele><time>2026-03-30T13:54:11.154Z</time></trkpt><trkpt lat="44.6161183" lon="8.944594"><ele>323.0</ele><time>2026-03-30T13:54:12.159Z</time></trkpt><trkpt lat="44.6161997" lon="8.9443079"><ele>324.0</ele><time>2026-03-30T13:54:14Z</time></trkpt><trkpt lat="44.6162137" lon="8.9441613"><ele>324.6666666666667</ele><time>2026-03-30T13:54:15.128Z</time></trkpt><trkpt lat="44.6162337" lon="8.9440193"><ele>325.33333333333337</ele><time>2026-03-30T13:54:16.141Z</time></trkpt><trkpt lat="44.6162755" lon="8.9437863"><ele>326.0</ele><time>2026-03-30T13:54:19Z</time></trkpt><trkpt lat="44.6164741" lon="8.9439658"><ele>326.0</ele><time>2026-03-30T13:54:20.129Z</time></trkpt><trkpt lat="44.6168058" lon="8.9441164"><ele>326.0</ele><time>2026-03-30T13:54:21.135Z</time></trkpt><trkpt lat="44.6170117" lon="8.9441721"><ele>321.0</ele><time>2026-03-30T13:54:22.112Z</time></trkpt><trkpt lat="44.6172994" lon="8.9443137"><ele>316.0</ele><time>2026-03-30T13:54:24Z</time></trkpt><trkpt lat="44.6174296" lon="8.9444155"><ele>316.0</ele><time>2026-03-30T13:54:25.159Z</time></trkpt><trkpt lat="44.6177019" lon="8.9446335"><ele>316.0</ele><time>2026-03-30T13:54:27.122Z</time></trkpt><trkpt lat="44.6179725" lon="8.9448437"><ele>315.75</ele><time>2026-03-30T13:54:29Z</time></trkpt><trkpt lat="44.6181085" lon="8.9449277"><ele>315.5</ele><time>2026-03-30T13:54:30.124Z</time></trkpt><trkpt lat="44.6182471" lon="8.9450009"><ele>315.25</ele><time>2026-03-30T13:54:31.119Z</time></trkpt><trkpt lat="44.6183833" lon="8.9450693"><ele>315.0</ele><time>2026-03-30T13:54:32.138Z</time></trkpt><trkpt lat="44.618663" lon="8.9451806"><ele>314.6666666666667</ele><time>2026-03-30T13:54:34Z</time></trkpt><trkpt lat="44.6188079" lon="8.9452307"><ele>314.33333333333337</ele><time>2026-03-30T13:54:35.118Z</time></trkpt><trkpt lat="44.6189551" lon="8.9452862"><ele>314.0</ele><time>2026-03-30T13:54:36.14Z</time></trkpt><trkpt lat="44.6191075" lon="8.9453518"><ele>314.0</ele><time>2026-03-30T13:54:37.13Z</time></trkpt><trkpt lat="44.6194251" lon="8.9454832"><ele>314.0</ele><time>2026-03-30T13:54:38.999Z</time></trkpt><trkpt lat="44.6195812" lon="8.9455396"><ele>316.5</ele><time>2026-03-30T13:54:40Z</time></trkpt><trkpt lat="44.6198849" lon="8.9456723"><ele>319.0</ele><time>2026-03-30T13:54:42.118Z</time></trkpt><trkpt lat="44.620158" lon="8.9458729"><ele>317.0</ele><time>2026-03-30T13:54:44Z</time></trkpt><trkpt lat="44.6202785" lon="8.9460105"><ele>315.0</ele><time>2026-03-30T13:54:45.117Z</time></trkpt><trkpt lat="44.6203952" lon="8.9461588"><ele>313.0</ele><time>2026-03-30T13:54:46.156Z</time></trkpt><trkpt lat="44.6205087" lon="8.946311"><ele>314.0</ele><time>2026-03-30T13:54:47.126Z</time></trkpt><trkpt lat="44.6206139" lon="8.9464667"><ele>315.0</ele><time>2026-03-30T13:54:48Z</time></trkpt><trkpt lat="44.6207187" lon="8.9466267"><ele>316.0</ele><time>2026-03-30T13:54:49Z</time></trkpt><trkpt lat="44.6208237" lon="8.94679"><ele>316.0</ele><time>2026-03-30T13:54:50.156Z</time></trkpt><trkpt lat="44.6209172" lon="8.9469535"><ele>316.0</ele><time>2026-03-30T13:54:51.133Z</time></trkpt><trkpt lat="44.6210133" lon="8.9471125"><ele>316.0</ele><time>2026-03-30T13:54:52.127Z</time></trkpt><trkpt lat="44.6211906" lon="8.9474447"><ele>320.5</ele><time>2026-03-30T13:54:53.999Z</time></trkpt><trkpt lat="44.6212719" lon="8.9476163"><ele>325.0</ele><time>2026-03-30T13:54:55.16Z</time></trkpt><trkpt lat="44.6213494" lon="8.9477948"><ele>329.5</ele><time>2026-03-30T13:54:56.142Z</time></trkpt><trkpt lat="44.6214221" lon="8.9479745"><ele>334.0</ele><time>2026-03-30T13:54:57.124Z</time></trkpt><trkpt lat="44.621541" lon="8.9483479"><ele>331.0</ele><time>2026-03-30T13:54:59Z</time></trkpt><trkpt lat="44.6215886" lon="8.94854"><ele>328.0</ele><time>2026-03-30T13:55:00.163Z</time></trkpt><trkpt lat="44.6216357" lon="8.9487404"><ele>325.0</ele><time>2026-03-30T13:55:01.165Z</time></trkpt><trkpt lat="44.6216821" lon="8.9489333"><ele>322.0</ele><time>2026-03-30T13:55:02.163Z</time></trkpt><trkpt lat="44.6217761" lon="8.9493406"><ele>320.66666666666663</ele><time>2026-03-30T13:55:04Z</time></trkpt><trkpt lat="44.6218195" lon="8.9495445"><ele>319.3333333333333</ele><time>2026-03-30T13:55:05.168Z</time></trkpt><trkpt lat="44.6218664" lon="8.9497513"><ele>318.0</ele><time>2026-03-30T13:55:06.156Z</time></trkpt><trkpt lat="44.6219218" lon="8.9499507"><ele>317.5</ele><time>2026-03-30T13:55:07.14Z</time></trkpt><trkpt lat="44.6220864" lon="8.9503123"><ele>317.0</ele><time>2026-03-30T13:55:09Z</time></trkpt><trkpt lat="44.6221969" lon="8.9504637"><ele>317.0</ele><time>2026-03-30T13:55:10.131Z</time></trkpt><trkpt lat="44.6223201" lon="8.9505903"><ele>317.0</ele><time>2026-03-30T13:55:11.142Z</time></trkpt><trkpt lat="44.6224617" lon="8.9506947"><ele>317.0</ele><time>2026-03-30T13:55:12.161Z</time></trkpt><trkpt lat="44.6227566" lon="8.9507219"><ele>315.5</ele><time>2026-03-30T13:55:14Z</time></trkpt><trkpt lat="44.6229017" lon="8.9506867"><ele>314.0</ele><time>2026-03-30T13:55:15Z</time></trkpt><trkpt lat="44.6230286" lon="8.9505992"><ele>312.5</ele><time>2026-03-30T13:55:16Z</time></trkpt><trkpt lat="44.6231539" lon="8.9504949"><ele>311.0</ele><time>2026-03-30T13:55:17.149Z</time></trkpt><trkpt lat="44.6234068" lon="8.9502454"><ele>311.0</ele><time>2026-03-30T13:55:19Z</time></trkpt><trkpt lat="44.6235152" lon="8.9501029"><ele>311.0</ele><time>2026-03-30T13:55:20.111Z</time></trkpt><trkpt lat="44.6236337" lon="8.9499674"><ele>311.0</ele><time>2026-03-30T13:55:21.114Z</time></trkpt><trkpt lat="44.6237513" lon="8.9498262"><ele>311.5</ele><time>2026-03-30T13:55:22.117Z</time></trkpt><trkpt lat="44.6239592" lon="8.9495258"><ele>312.0</ele><time>2026-03-30T13:55:24Z</time></trkpt><trkpt lat="44.6240599" lon="8.9493631"><ele>319.5</ele><time>2026-03-30T13:55:25.15Z</time></trkpt><trkpt lat="44.6242538" lon="8.9490385"><ele>327.0</ele><time>2026-03-30T13:55:27.118Z</time></trkpt><trkpt lat="44.6244484" lon="8.9487291"><ele>324.5</ele><time>2026-03-30T13:55:29Z</time></trkpt><trkpt lat="44.6245439" lon="8.9485683"><ele>322.0</ele><time>2026-03-30T13:55:30.102Z</time></trkpt><trkpt lat="44.6246375" lon="8.948413"><ele>319.5</ele><time>2026-03-30T13:55:31.149Z</time></trkpt><trkpt lat="44.6247287" lon="8.948261"><ele>317.0</ele><time>2026-03-30T13:55:32.144Z</time></trkpt><trkpt lat="44.624912" lon="8.9479543"><ele>316.5</ele><time>2026-03-30T13:55:33.999Z</time></trkpt><trkpt lat="44.6250009" lon="8.9478005"><ele>316.0</ele><time>2026-03-30T13:55:35.145Z</time></trkpt><trkpt lat="44.625085" lon="8.9476352"><ele>315.5</ele><time>2026-03-30T13:55:36.123Z</time></trkpt><trkpt lat="44.6251784" lon="8.9474758"><ele>315.0</ele><time>2026-03-30T13:55:37.142Z</time></trkpt><trkpt lat="44.6253355" lon="8.9471188"><ele>314.25</ele><time>2026-03-30T13:55:39Z</time></trkpt><trkpt lat="44.6254133" lon="8.9469353"><ele>313.5</ele><time>2026-03-30T13:55:40.158Z</time></trkpt><trkpt lat="44.6254824" lon="8.9467595"><ele>312.75</ele><time>2026-03-30T13:55:41.132Z</time></trkpt><trkpt lat="44.6255563" lon="8.9465782"><ele>312.0</ele><time>2026-03-30T13:55:42.148Z</time></trkpt><trkpt lat="44.625717" lon="8.946213"><ele>312.0</ele><time>2026-03-30T13:55:44Z</time></trkpt><trkpt lat="44.6258177" lon="8.9460382"><ele>312.0</ele><time>2026-03-30T13:55:45.131Z</time></trkpt><trkpt lat="44.6259143" lon="8.9458655"><ele>312.0</ele><time>2026-03-30T13:55:46.151Z</time></trkpt><trkpt lat="44.6261153" lon="8.94552"><ele>311.6666666666667</ele><time>2026-03-30T13:55:48Z</time></trkpt><trkpt lat="44.6262193" lon="8.9453606"><ele>311.33333333333337</ele><time>2026-03-30T13:55:49.128Z</time></trkpt><trkpt lat="44.6263236" lon="8.9451944"><ele>311.0</ele><time>2026-03-30T13:55:50.157Z</time></trkpt><trkpt lat="44.6264315" lon="8.9450257"><ele>311.0</ele><time>2026-03-30T13:55:51.128Z</time></trkpt><trkpt lat="44.6265337" lon="8.9448653"><ele>311.0</ele><time>2026-03-30T13:55:52.135Z</time></trkpt><trkpt lat="44.6267393" lon="8.9445302"><ele>311.0</ele><time>2026-03-30T13:55:53.999Z</time></trkpt><trkpt lat="44.6268482" lon="8.9443621"><ele>311.0</ele><time>2026-03-30T13:55:55Z</time></trkpt><trkpt lat="44.6269521" lon="8.9441894"><ele>311.0</ele><time>2026-03-30T13:55:56.125Z</time></trkpt><trkpt lat="44.6270587" lon="8.9440207"><ele>307.5</ele><time>2026-03-30T13:55:57.152Z</time></trkpt><trkpt lat="44.6272658" lon="8.9436865"><ele>304.0</ele><time>2026-03-30T13:55:59Z</time></trkpt><trkpt lat="44.6273674" lon="8.9435211"><ele>307.0</ele><time>2026-03-30T13:56:00.163Z</time></trkpt><trkpt lat="44.6275597" lon="8.9431925"><ele>310.0</ele><time>2026-03-30T13:56:02.146Z</time></trkpt><trkpt lat="44.6277519" lon="8.9428637"><ele>310.5</ele><time>2026-03-30T13:56:04Z</time></trkpt><trkpt lat="44.6278554" lon="8.942716"><ele>311.0</ele><time>2026-03-30T13:56:05.167Z</time></trkpt><trkpt lat="44.6279692" lon="8.9425813"><ele>311.5</ele><time>2026-03-30T13:56:06.169Z</time></trkpt><trkpt lat="44.628092" lon="8.9424644"><ele>312.0</ele><time>2026-03-30T13:56:07.124Z</time></trkpt><trkpt lat="44.6283603" lon="8.9422639"><ele>312.0</ele><time>2026-03-30T13:56:08.999Z</time></trkpt><trkpt lat="44.6284959" lon="8.9421697"><ele>312.0</ele><time>2026-03-30T13:56:10.136Z</time></trkpt><trkpt lat="44.6286316" lon="8.9420762"><ele>312.0</ele><time>2026-03-30T13:56:11.134Z</time></trkpt><trkpt lat="44.6287674" lon="8.9419827"><ele>312.0</ele><time>2026-03-30T13:56:12.165Z</time></trkpt><trkpt lat="44.6290357" lon="8.9417876"><ele>312.0</ele><time>2026-03-30T13:56:14Z</time></trkpt><trkpt lat="44.629163" lon="8.9416982"><ele>312.0</ele><time>2026-03-30T13:56:15.111Z</time></trkpt><trkpt lat="44.6292938" lon="8.9416112"><ele>312.0</ele><time>2026-03-30T13:56:16.11Z</time></trkpt><trkpt lat="44.6294211" lon="8.9415246"><ele>312.0</ele><time>2026-03-30T13:56:17.122Z</time></trkpt><trkpt lat="44.6296717" lon="8.9413529"><ele>312.0</ele><time>2026-03-30T13:56:19Z</time></trkpt><trkpt lat="44.6297918" lon="8.9412528"><ele>309.0</ele><time>2026-03-30T13:56:20Z</time></trkpt><trkpt lat="44.6299097" lon="8.9411671"><ele>306.0</ele><time>2026-03-30T13:56:21Z</time></trkpt><trkpt lat="44.6300287" lon="8.941105"><ele>303.0</ele><time>2026-03-30T13:56:22.135Z</time></trkpt><trkpt lat="44.6302728" lon="8.9410797"><ele>303.75</ele><time>2026-03-30T13:56:24Z</time></trkpt><trkpt lat="44.6304003" lon="8.9411157"><ele>304.5</ele><time>2026-03-30T13:56:25.147Z</time></trkpt><trkpt lat="44.6305175" lon="8.941165"><ele>305.25</ele><time>2026-03-30T13:56:26.121Z</time></trkpt><trkpt lat="44.630641" lon="8.9412107"><ele>306.0</ele><time>2026-03-30T13:56:27.126Z</time></trkpt><trkpt lat="44.630895" lon="8.9413604"><ele>306.0</ele><time>2026-03-30T13:56:29Z</time></trkpt><trkpt lat="44.6310139" lon="8.9414502"><ele>306.0</ele><time>2026-03-30T13:56:30.13Z</time></trkpt><trkpt lat="44.6311161" lon="8.9415605"><ele>306.0</ele><time>2026-03-30T13:56:31.124Z</time></trkpt><trkpt lat="44.6312302" lon="8.9416635"><ele>306.0</ele><time>2026-03-30T13:56:32.157Z</time></trkpt><trkpt lat="44.631455" lon="8.9418645"><ele>305.75</ele><time>2026-03-30T13:56:34Z</time></trkpt><trkpt lat="44.6315732" lon="8.9419608"><ele>305.5</ele><time>2026-03-30T13:56:35.144Z</time></trkpt><trkpt lat="44.6316864" lon="8.9420498"><ele>305.25</ele><time>2026-03-30T13:56:36.132Z</time></trkpt><trkpt lat="44.6318003" lon="8.9421263"><ele>305.0</ele><time>2026-03-30T13:56:37.121Z</time></trkpt><trkpt lat="44.6320344" lon="8.942278"><ele>306.0</ele><time>2026-03-30T13:56:38.999Z</time></trkpt><trkpt lat="44.6321447" lon="8.9423776"><ele>307.0</ele><time>2026-03-30T13:56:40.155Z</time></trkpt><trkpt lat="44.6322418" lon="8.9425022"><ele>308.0</ele><time>2026-03-30T13:56:41.135Z</time></trkpt><trkpt lat="44.6323311" lon="8.9426432"><ele>309.0</ele><time>2026-03-30T13:56:42.125Z</time></trkpt><trkpt lat="44.6325014" lon="8.942944"><ele>309.0</ele><time>2026-03-30T13:56:44Z</time></trkpt><trkpt lat="44.6325838" lon="8.9430972"><ele>309.0</ele><time>2026-03-30T13:56:45.127Z</time></trkpt><trkpt lat="44.6326763" lon="8.9432501"><ele>309.0</ele><time>2026-03-30T13:56:46.129Z</time></trkpt><trkpt lat="44.6327643" lon="8.9434047"><ele>309.0</ele><time>2026-03-30T13:56:47.151Z</time></trkpt><trkpt lat="44.6328551" lon="8.9435642"><ele>310.0</ele><time>2026-03-30T13:56:48Z</time></trkpt><trkpt lat="44.6329498" lon="8.9437225"><ele>311.0</ele><time>2026-03-30T13:56:49Z</time></trkpt><trkpt lat="44.6330455" lon="8.9438841"><ele>312.0</ele><time>2026-03-30T13:56:50.137Z</time></trkpt><trkpt lat="44.6331346" lon="8.9440462"><ele>313.0</ele><time>2026-03-30T13:56:51.161Z</time></trkpt><trkpt lat="44.6332285" lon="8.9442119"><ele>310.66666666666663</ele><time>2026-03-30T13:56:52.143Z</time></trkpt><trkpt lat="44.6334177" lon="8.9445391"><ele>308.3333333333333</ele><time>2026-03-30T13:56:54Z</time></trkpt><trkpt lat="44.6335112" lon="8.9447001"><ele>306.0</ele><time>2026-03-30T13:56:55Z</time></trkpt><trkpt lat="44.633603" lon="8.9448595"><ele>309.0</ele><time>2026-03-30T13:56:56Z</time></trkpt><trkpt lat="44.6337012" lon="8.9450253"><ele>312.0</ele><time>2026-03-30T13:56:57.126Z</time></trkpt><trkpt lat="44.6338867" lon="8.9453534"><ele>312.0</ele><time>2026-03-30T13:56:59Z</time></trkpt><trkpt lat="44.6339836" lon="8.9454993"><ele>312.0</ele><time>2026-03-30T13:57:00.129Z</time></trkpt><trkpt lat="44.6340855" lon="8.9456373"><ele>312.0</ele><time>2026-03-30T13:57:01.142Z</time></trkpt><trkpt lat="44.6341885" lon="8.94577"><ele>312.0</ele><time>2026-03-30T13:57:02.13Z</time></trkpt><trkpt lat="44.6343963" lon="8.9460247"><ele>316.6666666666667</ele><time>2026-03-30T13:57:04Z</time></trkpt><trkpt lat="44.634487" lon="8.9461742"><ele>321.33333333333337</ele><time>2026-03-30T13:57:05Z</time></trkpt><trkpt lat="44.6346344" lon="8.946517"><ele>326.0</ele><time>2026-03-30T13:57:07.127Z</time></trkpt><trkpt lat="44.6347389" lon="8.9468845"><ele>326.0</ele><time>2026-03-30T13:57:09Z</time></trkpt><trkpt lat="44.6347753" lon="8.9470731"><ele>326.0</ele><time>2026-03-30T13:57:10.174Z</time></trkpt><trkpt lat="44.6348095" lon="8.9472641"><ele>326.0</ele><time>2026-03-30T13:57:11.14Z</time></trkpt><trkpt lat="44.6348398" lon="8.9474592"><ele>326.0</ele><time>2026-03-30T13:57:12.14Z</time></trkpt><trkpt lat="44.6348881" lon="8.947864"><ele>323.75</ele><time>2026-03-30T13:57:14.106Z</time></trkpt><trkpt lat="44.6348968" lon="8.9480691"><ele>321.5</ele><time>2026-03-30T13:57:15.145Z</time></trkpt><trkpt lat="44.634899" lon="8.9482728"><ele>319.25</ele><time>2026-03-30T13:57:16.126Z</time></trkpt><trkpt lat="44.6348941" lon="8.94847"><ele>317.0</ele><time>2026-03-30T13:57:17.123Z</time></trkpt><trkpt lat="44.6348856" lon="8.9488422"><ele>314.25</ele><time>2026-03-30T13:57:19Z</time></trkpt><trkpt lat="44.6348986" lon="8.9490268"><ele>311.5</ele><time>2026-03-30T13:57:20.118Z</time></trkpt><trkpt lat="44.6349447" lon="8.9491999"><ele>308.75</ele><time>2026-03-30T13:57:21.124Z</time></trkpt><trkpt lat="44.6350162" lon="8.949356"><ele>306.0</ele><time>2026-03-30T13:57:22.135Z</time></trkpt><trkpt lat="44.6352262" lon="8.9496206"><ele>307.0</ele><time>2026-03-30T13:57:24Z</time></trkpt><trkpt lat="44.6353471" lon="8.9497348"><ele>308.0</ele><time>2026-03-30T13:57:25.123Z</time></trkpt><trkpt lat="44.6354749" lon="8.9498461"><ele>309.0</ele><time>2026-03-30T13:57:26.152Z</time></trkpt><trkpt lat="44.6355979" lon="8.9499583"><ele>310.0</ele><time>2026-03-30T13:57:27.162Z</time></trkpt><trkpt lat="44.6357187" lon="8.9500705"><ele>306.3333333333333</ele><time>2026-03-30T13:57:28Z</time></trkpt><trkpt lat="44.6358445" lon="8.9501812"><ele>302.6666666666667</ele><time>2026-03-30T13:57:29Z</time></trkpt><trkpt lat="44.6359731" lon="8.9502928"><ele>299.0</ele><time>2026-03-30T13:57:30.107Z</time></trkpt><trkpt lat="44.6361074" lon="8.9504084"><ele>303.0</ele><time>2026-03-30T13:57:31.147Z</time></trkpt><trkpt lat="44.6362413" lon="8.9505281"><ele>307.0</ele><time>2026-03-30T13:57:32.155Z</time></trkpt><trkpt lat="44.6365081" lon="8.9507692"><ele>304.3333333333333</ele><time>2026-03-30T13:57:34Z</time></trkpt><trkpt lat="44.6366387" lon="8.9508887"><ele>301.6666666666667</ele><time>2026-03-30T13:57:35.169Z</time></trkpt><trkpt lat="44.6367718" lon="8.9510011"><ele>299.0</ele><time>2026-03-30T13:57:36.132Z</time></trkpt><trkpt lat="44.6369087" lon="8.9511207"><ele>301.0</ele><time>2026-03-30T13:57:37.164Z</time></trkpt><trkpt lat="44.6371758" lon="8.9513607"><ele>303.0</ele><time>2026-03-30T13:57:39Z</time></trkpt><trkpt lat="44.6373094" lon="8.9514722"><ele>303.0</ele><time>2026-03-30T13:57:40.16Z</time></trkpt><trkpt lat="44.6374452" lon="8.9515789"><ele>303.0</ele><time>2026-03-30T13:57:41.118Z</time></trkpt><trkpt lat="44.637581" lon="8.9516834"><ele>303.0</ele><time>2026-03-30T13:57:42.156Z</time></trkpt><trkpt lat="44.6378655" lon="8.9518269"><ele>301.6666666666667</ele><time>2026-03-30T13:57:44Z</time></trkpt><trkpt lat="44.6380134" lon="8.9518857"><ele>300.33333333333337</ele><time>2026-03-30T13:57:45.152Z</time></trkpt><trkpt lat="44.6381583" lon="8.9519447"><ele>299.0</ele><time>2026-03-30T13:57:46.167Z</time></trkpt><trkpt lat="44.6383053" lon="8.9520024"><ele>299.0</ele><time>2026-03-30T13:57:47.131Z</time></trkpt><trkpt lat="44.6386038" lon="8.9521244"><ele>299.0</ele><time>2026-03-30T13:57:49Z</time></trkpt><trkpt lat="44.6387478" lon="8.9521817"><ele>300.33333333333337</ele><time>2026-03-30T13:57:50.123Z</time></trkpt><trkpt lat="44.6388918" lon="8.9522421"><ele>301.6666666666667</ele><time>2026-03-30T13:57:51.139Z</time></trkpt><trkpt lat="44.6390382" lon="8.9523059"><ele>303.0</ele><time>2026-03-30T13:57:52.13Z</time></trkpt><trkpt lat="44.639325" lon="8.9524333"><ele>303.3333333333333</ele><time>2026-03-30T13:57:54Z</time></trkpt><trkpt lat="44.6394683" lon="8.9524944"><ele>303.66666666666663</ele><time>2026-03-30T13:57:55.161Z</time></trkpt><trkpt lat="44.6396152" lon="8.9525605"><ele>304.0</ele><time>2026-03-30T13:57:56.169Z</time></trkpt><trkpt lat="44.6397639" lon="8.9526213"><ele>298.5</ele><time>2026-03-30T13:57:57.158Z</time></trkpt><trkpt lat="44.6400563" lon="8.9527356"><ele>293.0</ele><time>2026-03-30T13:57:59Z</time></trkpt><trkpt lat="44.6402065" lon="8.9527929"><ele>294.5</ele><time>2026-03-30T13:58:00.166Z</time></trkpt><trkpt lat="44.6403534" lon="8.9528433"><ele>296.0</ele><time>2026-03-30T13:58:01.122Z</time></trkpt><trkpt lat="44.6406564" lon="8.9529459"><ele>296.0</ele><time>2026-03-30T13:58:02.999Z</time></trkpt><trkpt lat="44.6408026" lon="8.9530152"><ele>296.0</ele><time>2026-03-30T13:58:04.118Z</time></trkpt><trkpt lat="44.6409477" lon="8.9530886"><ele>296.0</ele><time>2026-03-30T13:58:05.115Z</time></trkpt><trkpt lat="44.6411049" lon="8.9531542"><ele>304.5</ele><time>2026-03-30T13:58:06.118Z</time></trkpt><trkpt lat="44.6412537" lon="8.9532207"><ele>313.0</ele><time>2026-03-30T13:58:07.131Z</time></trkpt><trkpt lat="44.6415358" lon="8.9533459"><ele>312.5</ele><time>2026-03-30T13:58:09Z</time></trkpt><trkpt lat="44.6416768" lon="8.9534059"><ele>312.0</ele><time>2026-03-30T13:58:10.119Z</time></trkpt><trkpt lat="44.6417933" lon="8.9534699"><ele>311.5</ele><time>2026-03-30T13:58:11.129Z</time></trkpt><trkpt lat="44.6418977" lon="8.9536025"><ele>311.0</ele><time>2026-03-30T13:58:12.119Z</time></trkpt><trkpt lat="44.642082" lon="8.9538615"><ele>311.0</ele><time>2026-03-30T13:58:14Z</time></trkpt><trkpt lat="44.6421679" lon="8.9539992"><ele>311.0</ele><time>2026-03-30T13:58:15.129Z</time></trkpt><trkpt lat="44.6422544" lon="8.9541238"><ele>311.0</ele><time>2026-03-30T13:58:16.148Z</time></trkpt><trkpt lat="44.64234" lon="8.9542412"><ele>311.0</ele><time>2026-03-30T13:58:17.127Z</time></trkpt><trkpt lat="44.6425219" lon="8.9544777"><ele>310.25</ele><time>2026-03-30T13:58:18.999Z</time></trkpt><trkpt lat="44.6426163" lon="8.954589"><ele>309.5</ele><time>2026-03-30T13:58:20.15Z</time></trkpt><trkpt lat="44.6427026" lon="8.9547051"><ele>308.75</ele><time>2026-03-30T13:58:21.136Z</time></trkpt><trkpt lat="44.6427949" lon="8.9548136"><ele>308.0</ele><time>2026-03-30T13:58:22.123Z</time></trkpt><trkpt lat="44.6429847" lon="8.9550229"><ele>303.33333333333337</ele><time>2026-03-30T13:58:24.153Z</time></trkpt><trkpt lat="44.6430838" lon="8.9551286"><ele>298.6666666666667</ele><time>2026-03-30T13:58:25.15Z</time></trkpt><trkpt lat="44.6432849" lon="8.9553148"><ele>294.0</ele><time>2026-03-30T13:58:27.123Z</time></trkpt><trkpt lat="44.6434842" lon="8.9554915"><ele>294.0</ele><time>2026-03-30T13:58:29Z</time></trkpt><trkpt lat="44.643582" lon="8.9555741"><ele>294.0</ele><time>2026-03-30T13:58:30.122Z</time></trkpt><trkpt lat="44.6436794" lon="8.9556522"><ele>294.0</ele><time>2026-03-30T13:58:31.129Z</time></trkpt><trkpt lat="44.6437713" lon="8.9557308"><ele>294.0</ele><time>2026-03-30T13:58:32.146Z</time></trkpt><trkpt lat="44.6439389" lon="8.9558683"><ele>294.25</ele><time>2026-03-30T13:58:34Z</time></trkpt><trkpt lat="44.6440233" lon="8.9559503"><ele>294.5</ele><time>2026-03-30T13:58:35.125Z</time></trkpt><trkpt lat="44.6441893" lon="8.9561124"><ele>294.75</ele><time>2026-03-30T13:58:37Z</time></trkpt><trkpt lat="44.644274" lon="8.9561765"><ele>295.0</ele><time>2026-03-30T13:58:38.103Z</time></trkpt><trkpt lat="44.644435" lon="8.9562917"><ele>296.0</ele><time>2026-03-30T13:58:40Z</time></trkpt><trkpt lat="44.6445156" lon="8.9563438"><ele>297.0</ele><time>2026-03-30T13:58:41.101Z</time></trkpt><trkpt lat="44.6446985" lon="8.9564233"><ele>298.0</ele><time>2026-03-30T13:58:43Z</time></trkpt><trkpt lat="44.6447789" lon="8.9564558"><ele>299.0</ele><time>2026-03-30T13:58:44Z</time></trkpt><trkpt lat="44.6448933" lon="8.956479"><ele>299.0</ele><time>2026-03-30T13:58:45.16Z</time></trkpt><trkpt lat="44.6449859" lon="8.9565114"><ele>299.0</ele><time>2026-03-30T13:58:46.131Z</time></trkpt><trkpt lat="44.6450779" lon="8.9565297"><ele>299.0</ele><time>2026-03-30T13:58:47.136Z</time></trkpt><trkpt lat="44.6452462" lon="8.9565745"><ele>299.0</ele><time>2026-03-30T13:58:49Z</time></trkpt><trkpt lat="44.6453293" lon="8.9565956"><ele>299.0</ele><time>2026-03-30T13:58:50.149Z</time></trkpt><trkpt lat="44.6454015" lon="8.9566218"><ele>299.4</ele><time>2026-03-30T13:58:51.152Z</time></trkpt><trkpt lat="44.6454987" lon="8.9566477"><ele>299.79999999999995</ele><time>2026-03-30T13:58:52.152Z</time></trkpt><trkpt lat="44.6456224" lon="8.9566883"><ele>300.20000000000005</ele><time>2026-03-30T13:58:52.999Z</time></trkpt><trkpt lat="44.6457013" lon="8.9567163"><ele>300.6</ele><time>2026-03-30T13:58:53.999Z</time></trkpt><trkpt lat="44.6457896" lon="8.9567496"><ele>301.0</ele><time>2026-03-30T13:58:55.169Z</time></trkpt><trkpt lat="44.6459791" lon="8.9568246"><ele>299.25</ele><time>2026-03-30T13:58:57.135Z</time></trkpt><trkpt lat="44.6461734" lon="8.9569012"><ele>297.5</ele><time>2026-03-30T13:58:59Z</time></trkpt><trkpt lat="44.6462445" lon="8.9569184"><ele>295.75</ele><time>2026-03-30T13:59:00.168Z</time></trkpt><trkpt lat="44.6463181" lon="8.9569305"><ele>294.0</ele><time>2026-03-30T13:59:01.133Z</time></trkpt><trkpt lat="44.6464648" lon="8.9569602"><ele>294.0</ele><time>2026-03-30T13:59:03.999Z</time></trkpt><trkpt lat="44.6465493" lon="8.9569606"><ele>294.0</ele><time>2026-03-30T13:59:08Z</time></trkpt><trkpt lat="44.6464846" lon="8.956839"><ele>294.0</ele><time>2026-03-30T13:59:33.999Z</time></trkpt><trkpt lat="44.6465812" lon="8.9570374"><ele>294.0</ele><time>2026-03-30T14:01:55.121Z</time></trkpt><trkpt lat="44.6465279" lon="8.9569687"><ele>294.0</ele><time>2026-03-30T14:03:21Z</time></trkpt><trkpt lat="44.6464731" lon="8.9568992"><ele>294.0</ele><time>2026-03-30T14:04:25Z</time></trkpt><trkpt lat="44.6466643" lon="8.9569404"><ele>294.0</ele><time>2026-03-30T14:13:31Z</time></trkpt><trkpt lat="44.6467307" lon="8.9569218"><ele>294.0</ele><time>2026-03-30T14:13:32Z</time></trkpt><trkpt lat="44.6468003" lon="8.956902"><ele>294.0</ele><time>2026-03-30T14:13:33Z</time></trkpt><trkpt lat="44.6468746" lon="8.9568824"><ele>294.0</ele><time>2026-03-30T14:13:34Z</time></trkpt><trkpt lat="44.6469602" lon="8.9568547"><ele>294.2</ele><time>2026-03-30T14:13:35Z</time></trkpt><trkpt lat="44.6470354" lon="8.9568229"><ele>294.4</ele><time>2026-03-30T14:13:36Z</time></trkpt><trkpt lat="44.6471251" lon="8.9567868"><ele>294.6</ele><time>2026-03-30T14:13:37Z</time></trkpt><trkpt lat="44.6472235" lon="8.9567497"><ele>294.8</ele><time>2026-03-30T14:13:38Z</time></trkpt><trkpt lat="44.6473158" lon="8.9567023"><ele>295.0</ele><time>2026-03-30T14:13:39Z</time></trkpt><trkpt lat="44.6474168" lon="8.9566646"><ele>296.0</ele><time>2026-03-30T14:13:39.999Z</time></trkpt><trkpt lat="44.6475291" lon="8.9566268"><ele>297.0</ele><time>2026-03-30T14:13:41Z</time></trkpt><trkpt lat="44.6476348" lon="8.9565776"><ele>298.0</ele><time>2026-03-30T14:13:42Z</time></trkpt><trkpt lat="44.6477508" lon="8.9565239"><ele>299.0</ele><time>2026-03-30T14:13:43Z</time></trkpt><trkpt lat="44.6478565" lon="8.9564777"><ele>299.0</ele><time>2026-03-30T14:13:44Z</time></trkpt><trkpt lat="44.6479645" lon="8.9564444"><ele>299.0</ele><time>2026-03-30T14:13:44.999Z</time></trkpt><trkpt lat="44.6480527" lon="8.9563986"><ele>299.0</ele><time>2026-03-30T14:13:46Z</time></trkpt><trkpt lat="44.6481437" lon="8.9563551"><ele>299.0</ele><time>2026-03-30T14:13:46.999Z</time></trkpt><trkpt lat="44.6482546" lon="8.9563108"><ele>299.0</ele><time>2026-03-30T14:13:48Z</time></trkpt><trkpt lat="44.6483466" lon="8.9562599"><ele>299.0</ele><time>2026-03-30T14:13:49Z</time></trkpt><trkpt lat="44.6484619" lon="8.9562179"><ele>299.0</ele><time>2026-03-30T14:13:50Z</time></trkpt><trkpt lat="44.648573" lon="8.956171"><ele>299.0</ele><time>2026-03-30T14:13:51Z</time></trkpt><trkpt lat="44.6486789" lon="8.95612"><ele>299.0</ele><time>2026-03-30T14:13:52Z</time></trkpt><trkpt lat="44.6487656" lon="8.9560329"><ele>298.2</ele><time>2026-03-30T14:13:53Z</time></trkpt><trkpt lat="44.6488619" lon="8.9559671"><ele>297.4</ele><time>2026-03-30T14:13:54Z</time></trkpt><trkpt lat="44.6489289" lon="8.9558259"><ele>296.6</ele><time>2026-03-30T14:13:55Z</time></trkpt><trkpt lat="44.648967" lon="8.9556979"><ele>295.8</ele><time>2026-03-30T14:13:56Z</time></trkpt><trkpt lat="44.6490355" lon="8.9556206"><ele>295.0</ele><time>2026-03-30T14:13:57Z</time></trkpt><trkpt lat="44.6490836" lon="8.9555122"><ele>295.0</ele><time>2026-03-30T14:13:58Z</time></trkpt><trkpt lat="44.6491314" lon="8.9553988"><ele>295.0</ele><time>2026-03-30T14:13:59Z</time></trkpt><trkpt lat="44.6491738" lon="8.9553259"><ele>295.0</ele><time>2026-03-30T14:14:00Z</time></trkpt><trkpt lat="44.6491457" lon="8.9552464"><ele>295.0</ele><time>2026-03-30T14:14:04Z</time></trkpt><trkpt lat="44.649197" lon="8.9551547"><ele>295.0</ele><time>2026-03-30T14:14:37Z</time></trkpt><trkpt lat="44.6492061" lon="8.9550516"><ele>295.0</ele><time>2026-03-30T14:15:01.127Z</time></trkpt><trkpt lat="44.6492511" lon="8.9548297"><ele>297.0</ele><time>2026-03-30T14:15:03Z</time></trkpt><trkpt lat="44.6492784" lon="8.9547241"><ele>299.0</ele><time>2026-03-30T14:15:03.999Z</time></trkpt><trkpt lat="44.6493098" lon="8.9546081"><ele>301.0</ele><time>2026-03-30T14:15:05.123Z</time></trkpt><trkpt lat="44.6493423" lon="8.9544656"><ele>303.0</ele><time>2026-03-30T14:15:06.121Z</time></trkpt><trkpt lat="44.6493607" lon="8.9543087"><ele>305.0</ele><time>2026-03-30T14:15:07.118Z</time></trkpt><trkpt lat="44.6493871" lon="8.9541551"><ele>305.33333333333337</ele><time>2026-03-30T14:15:08.153Z</time></trkpt><trkpt lat="44.6494439" lon="8.9538028"><ele>305.6666666666667</ele><time>2026-03-30T14:15:10Z</time></trkpt><trkpt lat="44.6494735" lon="8.9536225"><ele>306.0</ele><time>2026-03-30T14:15:11Z</time></trkpt><trkpt lat="44.6495311" lon="8.9532662"><ele>301.3333333333333</ele><time>2026-03-30T14:15:13.123Z</time></trkpt><trkpt lat="44.6495919" lon="8.9529039"><ele>296.66666666666663</ele><time>2026-03-30T14:15:15Z</time></trkpt><trkpt lat="44.6496224" lon="8.9527132"><ele>292.0</ele><time>2026-03-30T14:15:16.138Z</time></trkpt><trkpt lat="44.6496501" lon="8.9525198"><ele>292.0</ele><time>2026-03-30T14:15:17.125Z</time></trkpt><trkpt lat="44.6496786" lon="8.9523245"><ele>292.0</ele><time>2026-03-30T14:15:18.144Z</time></trkpt><trkpt lat="44.6497363" lon="8.9519438"><ele>292.0</ele><time>2026-03-30T14:15:20Z</time></trkpt><trkpt lat="44.6497657" lon="8.9517491"><ele>293.0</ele><time>2026-03-30T14:15:21.125Z</time></trkpt><trkpt lat="44.6497969" lon="8.9515513"><ele>294.0</ele><time>2026-03-30T14:15:22.127Z</time></trkpt><trkpt lat="44.649824" lon="8.9513561"><ele>295.0</ele><time>2026-03-30T14:15:23.154Z</time></trkpt><trkpt lat="44.6498896" lon="8.9509325"><ele>294.66666666666663</ele><time>2026-03-30T14:15:25Z</time></trkpt><trkpt lat="44.6499259" lon="8.9507207"><ele>294.3333333333333</ele><time>2026-03-30T14:15:25.999Z</time></trkpt><trkpt lat="44.649952" lon="8.950503"><ele>294.0</ele><time>2026-03-30T14:15:27.142Z</time></trkpt><trkpt lat="44.6499816" lon="8.9502832"><ele>295.0</ele><time>2026-03-30T14:15:28.133Z</time></trkpt><trkpt lat="44.6500392" lon="8.9498687"><ele>296.0</ele><time>2026-03-30T14:15:30Z</time></trkpt><trkpt lat="44.6500847" lon="8.9496509"><ele>296.0</ele><time>2026-03-30T14:15:31Z</time></trkpt><trkpt lat="44.6501271" lon="8.9494456"><ele>296.0</ele><time>2026-03-30T14:15:32Z</time></trkpt><trkpt lat="44.6501701" lon="8.9492483"><ele>296.0</ele><time>2026-03-30T14:15:33.134Z</time></trkpt><trkpt lat="44.6502906" lon="8.9488626"><ele>294.5</ele><time>2026-03-30T14:15:35Z</time></trkpt><trkpt lat="44.6503713" lon="8.9486961"><ele>293.0</ele><time>2026-03-30T14:15:36Z</time></trkpt><trkpt lat="44.6504614" lon="8.9485444"><ele>291.5</ele><time>2026-03-30T14:15:37Z</time></trkpt><trkpt lat="44.6505498" lon="8.9483915"><ele>290.0</ele><time>2026-03-30T14:15:38.118Z</time></trkpt><trkpt lat="44.6507491" lon="8.9480765"><ele>290.0</ele><time>2026-03-30T14:15:39.999Z</time></trkpt><trkpt lat="44.6508478" lon="8.947915"><ele>290.0</ele><time>2026-03-30T14:15:41.127Z</time></trkpt><trkpt lat="44.6509622" lon="8.9477539"><ele>290.0</ele><time>2026-03-30T14:15:42.14Z</time></trkpt><trkpt lat="44.6510689" lon="8.9476005"><ele>288.5</ele><time>2026-03-30T14:15:43.144Z</time></trkpt><trkpt lat="44.6513164" lon="8.9472952"><ele>287.0</ele><time>2026-03-30T14:15:45Z</time></trkpt><trkpt lat="44.6514457" lon="8.9471575"><ele>287.0</ele><time>2026-03-30T14:15:46Z</time></trkpt><trkpt lat="44.6517073" lon="8.9468985"><ele>287.0</ele><time>2026-03-30T14:15:48.1Z</time></trkpt><trkpt lat="44.6518461" lon="8.9467819"><ele>289.0</ele><time>2026-03-30T14:15:49Z</time></trkpt><trkpt lat="44.6519842" lon="8.9466747"><ele>291.0</ele><time>2026-03-30T14:15:50Z</time></trkpt><trkpt lat="44.6521269" lon="8.9465764"><ele>293.0</ele><time>2026-03-30T14:15:51.149Z</time></trkpt><trkpt lat="44.652273" lon="8.946482"><ele>293.0</ele><time>2026-03-30T14:15:52.135Z</time></trkpt><trkpt lat="44.6525803" lon="8.9463478"><ele>293.0</ele><time>2026-03-30T14:15:54Z</time></trkpt><trkpt lat="44.6527397" lon="8.946281"><ele>290.33333333333337</ele><time>2026-03-30T14:15:55Z</time></trkpt><trkpt lat="44.6529009" lon="8.9462228"><ele>287.6666666666667</ele><time>2026-03-30T14:15:56Z</time></trkpt><trkpt lat="44.6530662" lon="8.9461737"><ele>285.0</ele><time>2026-03-30T14:15:57Z</time></trkpt><trkpt lat="44.6532385" lon="8.9461378"><ele>285.0</ele><time>2026-03-30T14:15:58.166Z</time></trkpt><trkpt lat="44.6535666" lon="8.9460395"><ele>285.0</ele><time>2026-03-30T14:16:00Z</time></trkpt><trkpt lat="44.6537238" lon="8.9459502"><ele>288.0</ele><time>2026-03-30T14:16:01.113Z</time></trkpt><trkpt lat="44.6538744" lon="8.9458539"><ele>291.0</ele><time>2026-03-30T14:16:02.124Z</time></trkpt><trkpt lat="44.654174" lon="8.945664"><ele>291.0</ele><time>2026-03-30T14:16:04Z</time></trkpt><trkpt lat="44.6543226" lon="8.9455734"><ele>291.0</ele><time>2026-03-30T14:16:05Z</time></trkpt><trkpt lat="44.6544706" lon="8.9454853"><ele>291.0</ele><time>2026-03-30T14:16:06.145Z</time></trkpt><trkpt lat="44.6546271" lon="8.9454027"><ele>287.5</ele><time>2026-03-30T14:16:07.148Z</time></trkpt><trkpt lat="44.654782" lon="8.9453362"><ele>284.0</ele><time>2026-03-30T14:16:08.124Z</time></trkpt><trkpt lat="44.6550687" lon="8.9452433"><ele>284.0</ele><time>2026-03-30T14:16:10Z</time></trkpt><trkpt lat="44.6552285" lon="8.9452474"><ele>284.0</ele><time>2026-03-30T14:16:11Z</time></trkpt><trkpt lat="44.6553663" lon="8.9453104"><ele>284.0</ele><time>2026-03-30T14:16:12Z</time></trkpt><trkpt lat="44.6555051" lon="8.9454011"><ele>283.5</ele><time>2026-03-30T14:16:13.115Z</time></trkpt><trkpt lat="44.6557663" lon="8.9456173"><ele>283.0</ele><time>2026-03-30T14:16:15Z</time></trkpt><trkpt lat="44.6559073" lon="8.9457063"><ele>283.0</ele><time>2026-03-30T14:16:16.122Z</time></trkpt><trkpt lat="44.6560542" lon="8.9457774"><ele>283.0</ele><time>2026-03-30T14:16:17.117Z</time></trkpt><trkpt lat="44.6561982" lon="8.9458336"><ele>283.0</ele><time>2026-03-30T14:16:18.145Z</time></trkpt><trkpt lat="44.6565034" lon="8.945885"><ele>280.3333333333333</ele><time>2026-03-30T14:16:20Z</time></trkpt><trkpt lat="44.6566643" lon="8.9459001"><ele>277.6666666666667</ele><time>2026-03-30T14:16:21.104Z</time></trkpt><trkpt lat="44.6568236" lon="8.945904"><ele>275.0</ele><time>2026-03-30T14:16:22.153Z</time></trkpt><trkpt lat="44.656982" lon="8.9458948"><ele>274.5</ele><time>2026-03-30T14:16:23.144Z</time></trkpt><trkpt lat="44.6572958" lon="8.9458888"><ele>274.0</ele><time>2026-03-30T14:16:24.999Z</time></trkpt><trkpt lat="44.657442" lon="8.9459399"><ele>274.0</ele><time>2026-03-30T14:16:26.139Z</time></trkpt><trkpt lat="44.6575859" lon="8.9459876"><ele>274.0</ele><time>2026-03-30T14:16:27.136Z</time></trkpt><trkpt lat="44.6577289" lon="8.9460121"><ele>274.0</ele><time>2026-03-30T14:16:28.139Z</time></trkpt><trkpt lat="44.6580175" lon="8.9460101"><ele>276.0</ele><time>2026-03-30T14:16:30Z</time></trkpt><trkpt lat="44.6581407" lon="8.9460597"><ele>278.0</ele><time>2026-03-30T14:16:31.104Z</time></trkpt><trkpt lat="44.6582647" lon="8.9461573"><ele>280.0</ele><time>2026-03-30T14:16:32.161Z</time></trkpt><trkpt lat="44.6583818" lon="8.9462886"><ele>282.0</ele><time>2026-03-30T14:16:33.119Z</time></trkpt><trkpt lat="44.6585987" lon="8.946579"><ele>279.6666666666667</ele><time>2026-03-30T14:16:34.999Z</time></trkpt><trkpt lat="44.6587215" lon="8.9467018"><ele>277.33333333333337</ele><time>2026-03-30T14:16:36Z</time></trkpt><trkpt lat="44.6588644" lon="8.9467954"><ele>275.0</ele><time>2026-03-30T14:16:37.123Z</time></trkpt><trkpt lat="44.6590086" lon="8.9468828"><ele>275.0</ele><time>2026-03-30T14:16:38.157Z</time></trkpt><trkpt lat="44.6593037" lon="8.9470559"><ele>275.0</ele><time>2026-03-30T14:16:39.999Z</time></trkpt><trkpt lat="44.6594382" lon="8.947133"><ele>277.0</ele><time>2026-03-30T14:16:41.113Z</time></trkpt><trkpt lat="44.6595818" lon="8.9472009"><ele>279.0</ele><time>2026-03-30T14:16:42.128Z</time></trkpt><trkpt lat="44.6597287" lon="8.9472086"><ele>281.0</ele><time>2026-03-30T14:16:43.172Z</time></trkpt><trkpt lat="44.6599987" lon="8.9472713"><ele>281.0</ele><time>2026-03-30T14:16:45Z</time></trkpt><trkpt lat="44.6601416" lon="8.9472746"><ele>281.0</ele><time>2026-03-30T14:16:46.134Z</time></trkpt><trkpt lat="44.6602792" lon="8.9472509"><ele>281.0</ele><time>2026-03-30T14:16:47.172Z</time></trkpt><trkpt lat="44.6604097" lon="8.9471883"><ele>281.0</ele><time>2026-03-30T14:16:48.107Z</time></trkpt><trkpt lat="44.6606721" lon="8.9468334"><ele>283.0</ele><time>2026-03-30T14:16:50Z</time></trkpt><trkpt lat="44.6608002" lon="8.9466776"><ele>285.0</ele><time>2026-03-30T14:16:51.132Z</time></trkpt><trkpt lat="44.6609052" lon="8.9464991"><ele>287.0</ele><time>2026-03-30T14:16:52.131Z</time></trkpt><trkpt lat="44.660999" lon="8.9463042"><ele>285.5</ele><time>2026-03-30T14:16:53.169Z</time></trkpt><trkpt lat="44.6611569" lon="8.9459045"><ele>284.0</ele><time>2026-03-30T14:16:55Z</time></trkpt><trkpt lat="44.6612277" lon="8.9457147"><ele>284.0</ele><time>2026-03-30T14:16:56.166Z</time></trkpt><trkpt lat="44.6613156" lon="8.9455292"><ele>284.0</ele><time>2026-03-30T14:16:57.15Z</time></trkpt><trkpt lat="44.6613998" lon="8.9453404"><ele>284.0</ele><time>2026-03-30T14:16:58.143Z</time></trkpt><trkpt lat="44.6615517" lon="8.9449424"><ele>284.6666666666667</ele><time>2026-03-30T14:17:00Z</time></trkpt><trkpt lat="44.6616066" lon="8.9447283"><ele>285.3333333333333</ele><time>2026-03-30T14:17:01Z</time></trkpt><trkpt lat="44.6616609" lon="8.9445107"><ele>286.0</ele><time>2026-03-30T14:17:02.149Z</time></trkpt><trkpt lat="44.6617661" lon="8.9440805"><ele>289.0</ele><time>2026-03-30T14:17:04Z</time></trkpt><trkpt lat="44.6618239" lon="8.943866"><ele>292.0</ele><time>2026-03-30T14:17:05Z</time></trkpt><trkpt lat="44.6618777" lon="8.9436488"><ele>295.0</ele><time>2026-03-30T14:17:06Z</time></trkpt><trkpt lat="44.661932" lon="8.9434275"><ele>284.0</ele><time>2026-03-30T14:17:07Z</time></trkpt><trkpt lat="44.6619787" lon="8.9432062"><ele>273.0</ele><time>2026-03-30T14:17:08.112Z</time></trkpt><trkpt lat="44.6620818" lon="8.9427577"><ele>273.3333333333333</ele><time>2026-03-30T14:17:10Z</time></trkpt><trkpt lat="44.6621354" lon="8.9425387"><ele>273.66666666666663</ele><time>2026-03-30T14:17:11Z</time></trkpt><trkpt lat="44.6621834" lon="8.9423197"><ele>274.0</ele><time>2026-03-30T14:17:12Z</time></trkpt><trkpt lat="44.6622332" lon="8.9420964"><ele>277.5</ele><time>2026-03-30T14:17:13.107Z</time></trkpt><trkpt lat="44.6623568" lon="8.9416733"><ele>281.0</ele><time>2026-03-30T14:17:14.999Z</time></trkpt><trkpt lat="44.6624234" lon="8.9414611"><ele>281.0</ele><time>2026-03-30T14:17:16Z</time></trkpt><trkpt lat="44.6624967" lon="8.9412558"><ele>281.0</ele><time>2026-03-30T14:17:17Z</time></trkpt><trkpt lat="44.6625739" lon="8.9410609"><ele>281.0</ele><time>2026-03-30T14:17:18Z</time></trkpt><trkpt lat="44.6626551" lon="8.9408629"><ele>284.33333333333337</ele><time>2026-03-30T14:17:19Z</time></trkpt><trkpt lat="44.6627287" lon="8.9406579"><ele>287.6666666666667</ele><time>2026-03-30T14:17:20Z</time></trkpt><trkpt lat="44.6628061" lon="8.9404402"><ele>291.0</ele><time>2026-03-30T14:17:21.145Z</time></trkpt><trkpt lat="44.6628877" lon="8.9402656"><ele>281.5</ele><time>2026-03-30T14:17:22.174Z</time></trkpt><trkpt lat="44.6629387" lon="8.9398507"><ele>272.0</ele><time>2026-03-30T14:17:24Z</time></trkpt><trkpt lat="44.6629626" lon="8.9396091"><ele>272.0</ele><time>2026-03-30T14:17:24.999Z</time></trkpt><trkpt lat="44.6629886" lon="8.9393738"><ele>272.0</ele><time>2026-03-30T14:17:26.14Z</time></trkpt><trkpt lat="44.6630394" lon="8.9391428"><ele>272.0</ele><time>2026-03-30T14:17:27.149Z</time></trkpt><trkpt lat="44.6630765" lon="8.9389221"><ele>274.5</ele><time>2026-03-30T14:17:28.174Z</time></trkpt><trkpt lat="44.6631958" lon="8.938495"><ele>277.0</ele><time>2026-03-30T14:17:30Z</time></trkpt><trkpt lat="44.6632611" lon="8.938285"><ele>281.0</ele><time>2026-03-30T14:17:31.177Z</time></trkpt><trkpt lat="44.663431" lon="8.9378598"><ele>285.0</ele><time>2026-03-30T14:17:33.126Z</time></trkpt><trkpt lat="44.6635922" lon="8.9374244"><ele>279.0</ele><time>2026-03-30T14:17:35Z</time></trkpt><trkpt lat="44.6636432" lon="8.9372017"><ele>273.0</ele><time>2026-03-30T14:17:36.142Z</time></trkpt><trkpt lat="44.6637052" lon="8.9369817"><ele>267.0</ele><time>2026-03-30T14:17:37.171Z</time></trkpt><trkpt lat="44.6637338" lon="8.9367471"><ele>268.0</ele><time>2026-03-30T14:17:38.169Z</time></trkpt><trkpt lat="44.6637391" lon="8.9365198"><ele>269.0</ele><time>2026-03-30T14:17:39Z</time></trkpt><trkpt lat="44.6637532" lon="8.9362881"><ele>270.0</ele><time>2026-03-30T14:17:40Z</time></trkpt><trkpt lat="44.6637705" lon="8.936062"><ele>270.3333333333333</ele><time>2026-03-30T14:17:41.151Z</time></trkpt><trkpt lat="44.6637893" lon="8.9358366"><ele>270.66666666666663</ele><time>2026-03-30T14:17:42.162Z</time></trkpt><trkpt lat="44.663802" lon="8.9356177"><ele>271.0</ele><time>2026-03-30T14:17:43.145Z</time></trkpt><trkpt lat="44.6638534" lon="8.9351697"><ele>271.75</ele><time>2026-03-30T14:17:45Z</time></trkpt><trkpt lat="44.6638796" lon="8.9349593"><ele>272.5</ele><time>2026-03-30T14:17:46.167Z</time></trkpt><trkpt lat="44.6639111" lon="8.9347565"><ele>273.25</ele><time>2026-03-30T14:17:47.159Z</time></trkpt><trkpt lat="44.663941" lon="8.9345565"><ele>274.0</ele><time>2026-03-30T14:17:48.154Z</time></trkpt><trkpt lat="44.6640112" lon="8.9341613"><ele>274.5</ele><time>2026-03-30T14:17:50Z</time></trkpt><trkpt lat="44.6640587" lon="8.9339619"><ele>275.0</ele><time>2026-03-30T14:17:51Z</time></trkpt><trkpt lat="44.6640696" lon="8.9338357"><ele>275.5</ele><time>2026-03-30T14:17:51.999Z</time></trkpt><trkpt lat="44.6639657" lon="8.9337026"><ele>276.0</ele><time>2026-03-30T14:17:53.133Z</time></trkpt><trkpt lat="44.6639178" lon="8.9333389"><ele>276.0</ele><time>2026-03-30T14:17:55Z</time></trkpt><trkpt lat="44.6639158" lon="8.9331533"><ele>276.0</ele><time>2026-03-30T14:17:56.186Z</time></trkpt><trkpt lat="44.6639265" lon="8.9329631"><ele>276.0</ele><time>2026-03-30T14:17:57.145Z</time></trkpt><trkpt lat="44.6639743" lon="8.9328028"><ele>276.0</ele><time>2026-03-30T14:17:58.145Z</time></trkpt><trkpt lat="44.6641047" lon="8.9324906"><ele>277.75</ele><time>2026-03-30T14:18:00Z</time></trkpt><trkpt lat="44.6641605" lon="8.9323321"><ele>279.5</ele><time>2026-03-30T14:18:01.148Z</time></trkpt><trkpt lat="44.6642246" lon="8.9321962"><ele>281.25</ele><time>2026-03-30T14:18:02.13Z</time></trkpt><trkpt lat="44.664209" lon="8.932105"><ele>283.0</ele><time>2026-03-30T14:18:03.119Z</time></trkpt><trkpt lat="44.6642064" lon="8.9318511"><ele>282.75</ele><time>2026-03-30T14:18:04.999Z</time></trkpt><trkpt lat="44.6641797" lon="8.9316216"><ele>282.5</ele><time>2026-03-30T14:18:06Z</time></trkpt><trkpt lat="44.6641748" lon="8.931447"><ele>282.25</ele><time>2026-03-30T14:18:07.16Z</time></trkpt><trkpt lat="44.6641487" lon="8.9312826"><ele>282.0</ele><time>2026-03-30T14:18:08.135Z</time></trkpt><trkpt lat="44.6640439" lon="8.9309681"><ele>282.75</ele><time>2026-03-30T14:18:10Z</time></trkpt><trkpt lat="44.6639726" lon="8.9308497"><ele>283.5</ele><time>2026-03-30T14:18:11.129Z</time></trkpt><trkpt lat="44.663872" lon="8.9307469"><ele>284.25</ele><time>2026-03-30T14:18:12.134Z</time></trkpt><trkpt lat="44.6637634" lon="8.9306698"><ele>285.0</ele><time>2026-03-30T14:18:13.104Z</time></trkpt><trkpt lat="44.6634571" lon="8.9306179"><ele>285.0</ele><time>2026-03-30T14:18:15Z</time></trkpt><trkpt lat="44.663331" lon="8.9306139"><ele>285.0</ele><time>2026-03-30T14:18:15.999Z</time></trkpt><trkpt lat="44.6631954" lon="8.9306008"><ele>285.0</ele><time>2026-03-30T14:18:17.133Z</time></trkpt><trkpt lat="44.6630608" lon="8.930594"><ele>285.0</ele><time>2026-03-30T14:18:18.161Z</time></trkpt><trkpt lat="44.6627698" lon="8.9305916"><ele>285.0</ele><time>2026-03-30T14:18:20Z</time></trkpt><trkpt lat="44.6626232" lon="8.9305777"><ele>285.0</ele><time>2026-03-30T14:18:21.13Z</time></trkpt><trkpt lat="44.6624781" lon="8.9305613"><ele>285.0</ele><time>2026-03-30T14:18:22.171Z</time></trkpt><trkpt lat="44.6623313" lon="8.93055"><ele>285.0</ele><time>2026-03-30T14:18:23.132Z</time></trkpt><trkpt lat="44.662044" lon="8.9304695"><ele>286.5</ele><time>2026-03-30T14:18:25Z</time></trkpt><trkpt lat="44.6619021" lon="8.930418"><ele>288.0</ele><time>2026-03-30T14:18:26Z</time></trkpt><trkpt lat="44.661763" lon="8.9303573"><ele>289.5</ele><time>2026-03-30T14:18:26.999Z</time></trkpt><trkpt lat="44.661626" lon="8.9302797"><ele>291.0</ele><time>2026-03-30T14:18:28.134Z</time></trkpt><trkpt lat="44.6613569" lon="8.9301207"><ele>288.5</ele><time>2026-03-30T14:18:30Z</time></trkpt><trkpt lat="44.6612259" lon="8.9300454"><ele>286.0</ele><time>2026-03-30T14:18:31.179Z</time></trkpt><trkpt lat="44.6610904" lon="8.9299828"><ele>283.5</ele><time>2026-03-30T14:18:32.148Z</time></trkpt><trkpt lat="44.6609603" lon="8.9299074"><ele>281.0</ele><time>2026-03-30T14:18:33.138Z</time></trkpt><trkpt lat="44.660683" lon="8.9297375"><ele>281.0</ele><time>2026-03-30T14:18:35Z</time></trkpt><trkpt lat="44.6605492" lon="8.9296577"><ele>281.0</ele><time>2026-03-30T14:18:36.169Z</time></trkpt><trkpt lat="44.6604113" lon="8.9295675"><ele>281.0</ele><time>2026-03-30T14:18:37.141Z</time></trkpt><trkpt lat="44.660277" lon="8.9294969"><ele>281.0</ele><time>2026-03-30T14:18:38.117Z</time></trkpt><trkpt lat="44.6600021" lon="8.9293449"><ele>283.0</ele><time>2026-03-30T14:18:40Z</time></trkpt><trkpt lat="44.6598602" lon="8.9292705"><ele>285.0</ele><time>2026-03-30T14:18:41.172Z</time></trkpt><trkpt lat="44.6597325" lon="8.9292041"><ele>287.0</ele><time>2026-03-30T14:18:42.177Z</time></trkpt><trkpt lat="44.659596" lon="8.9291442"><ele>289.0</ele><time>2026-03-30T14:18:43.171Z</time></trkpt><trkpt lat="44.6593266" lon="8.9290064"><ele>289.0</ele><time>2026-03-30T14:18:45Z</time></trkpt><trkpt lat="44.6592133" lon="8.9288822"><ele>289.0</ele><time>2026-03-30T14:18:46.146Z</time></trkpt><trkpt lat="44.6591116" lon="8.9287309"><ele>289.0</ele><time>2026-03-30T14:18:47Z</time></trkpt><trkpt lat="44.6590158" lon="8.928576"><ele>289.0</ele><time>2026-03-30T14:18:48Z</time></trkpt><trkpt lat="44.658926" lon="8.9284177"><ele>293.0</ele><time>2026-03-30T14:18:49Z</time></trkpt><trkpt lat="44.6588319" lon="8.9282551"><ele>297.0</ele><time>2026-03-30T14:18:50.15Z</time></trkpt><trkpt lat="44.6586561" lon="8.9279219"><ele>301.0</ele><time>2026-03-30T14:18:52.164Z</time></trkpt><trkpt lat="44.6585906" lon="8.9277325"><ele>296.0</ele><time>2026-03-30T14:18:53.173Z</time></trkpt><trkpt lat="44.6584992" lon="8.9273146"><ele>291.0</ele><time>2026-03-30T14:18:55Z</time></trkpt><trkpt lat="44.6584602" lon="8.9271038"><ele>291.0</ele><time>2026-03-30T14:18:56.15Z</time></trkpt><trkpt lat="44.6584248" lon="8.9268967"><ele>291.0</ele><time>2026-03-30T14:18:57.164Z</time></trkpt><trkpt lat="44.6583879" lon="8.9266951"><ele>291.0</ele><time>2026-03-30T14:18:58.147Z</time></trkpt><trkpt lat="44.6583129" lon="8.9262965"><ele>289.25</ele><time>2026-03-30T14:19:00Z</time></trkpt><trkpt lat="44.6582752" lon="8.9260903"><ele>287.5</ele><time>2026-03-30T14:19:01Z</time></trkpt><trkpt lat="44.6582385" lon="8.9258856"><ele>285.75</ele><time>2026-03-30T14:19:02Z</time></trkpt><trkpt lat="44.6582244" lon="8.9257812"><ele>284.0</ele><time>2026-03-30T14:19:03.114Z</time></trkpt><trkpt lat="44.6581317" lon="8.9252801"><ele>282.75</ele><time>2026-03-30T14:19:05Z</time></trkpt><trkpt lat="44.658099" lon="8.9250951"><ele>281.5</ele><time>2026-03-30T14:19:06Z</time></trkpt><trkpt lat="44.6580592" lon="8.9249077"><ele>280.25</ele><time>2026-03-30T14:19:07.114Z</time></trkpt><trkpt lat="44.6580252" lon="8.9247489"><ele>279.0</ele><time>2026-03-30T14:19:08.135Z</time></trkpt><trkpt lat="44.6579575" lon="8.9243338"><ele>277.0</ele><time>2026-03-30T14:19:10Z</time></trkpt><trkpt lat="44.6579249" lon="8.924136"><ele>275.0</ele><time>2026-03-30T14:19:11.159Z</time></trkpt><trkpt lat="44.6579003" lon="8.9239417"><ele>273.0</ele><time>2026-03-30T14:19:12.142Z</time></trkpt><trkpt lat="44.6578861" lon="8.9237476"><ele>271.0</ele><time>2026-03-30T14:19:13.14Z</time></trkpt><trkpt lat="44.6578808" lon="8.9233575"><ele>271.0</ele><time>2026-03-30T14:19:15Z</time></trkpt><trkpt lat="44.657885" lon="8.9231641"><ele>271.0</ele><time>2026-03-30T14:19:16.132Z</time></trkpt><trkpt lat="44.6578891" lon="8.9229344"><ele>271.0</ele><time>2026-03-30T14:19:17.121Z</time></trkpt><trkpt lat="44.657899" lon="8.9227294"><ele>271.0</ele><time>2026-03-30T14:19:18.152Z</time></trkpt><trkpt lat="44.6579066" lon="8.922317"><ele>271.0</ele><time>2026-03-30T14:19:20Z</time></trkpt><trkpt lat="44.6579135" lon="8.9221385"><ele>271.0</ele><time>2026-03-30T14:19:21.159Z</time></trkpt><trkpt lat="44.6579216" lon="8.9219535"><ele>271.0</ele><time>2026-03-30T14:19:22.145Z</time></trkpt><trkpt lat="44.6579247" lon="8.9217724"><ele>271.0</ele><time>2026-03-30T14:19:23.166Z</time></trkpt><trkpt lat="44.6579484" lon="8.9214129"><ele>270.0</ele><time>2026-03-30T14:19:24.999Z</time></trkpt><trkpt lat="44.6579554" lon="8.9212487"><ele>269.0</ele><time>2026-03-30T14:19:26.145Z</time></trkpt><trkpt lat="44.6579578" lon="8.9210596"><ele>268.0</ele><time>2026-03-30T14:19:27.14Z</time></trkpt><trkpt lat="44.6579669" lon="8.9208808"><ele>267.0</ele><time>2026-03-30T14:19:28.147Z</time></trkpt><trkpt lat="44.6579905" lon="8.9205389"><ele>266.5</ele><time>2026-03-30T14:19:29.999Z</time></trkpt><trkpt lat="44.6580235" lon="8.9203777"><ele>266.0</ele><time>2026-03-30T14:19:31.138Z</time></trkpt><trkpt lat="44.6580522" lon="8.9202211"><ele>265.5</ele><time>2026-03-30T14:19:32.167Z</time></trkpt><trkpt lat="44.6581402" lon="8.9200857"><ele>265.0</ele><time>2026-03-30T14:19:33.122Z</time></trkpt><trkpt lat="44.6583182" lon="8.9198395"><ele>263.25</ele><time>2026-03-30T14:19:35Z</time></trkpt><trkpt lat="44.658417" lon="8.9197103"><ele>261.5</ele><time>2026-03-30T14:19:36Z</time></trkpt><trkpt lat="44.6585168" lon="8.9195769"><ele>259.75</ele><time>2026-03-30T14:19:37Z</time></trkpt><trkpt lat="44.6586063" lon="8.9194407"><ele>258.0</ele><time>2026-03-30T14:19:38Z</time></trkpt><trkpt lat="44.6587189" lon="8.9193144"><ele>261.75</ele><time>2026-03-30T14:19:39Z</time></trkpt><trkpt lat="44.6588237" lon="8.9191826"><ele>265.5</ele><time>2026-03-30T14:19:40Z</time></trkpt><trkpt lat="44.6589384" lon="8.9190455"><ele>269.25</ele><time>2026-03-30T14:19:41.147Z</time></trkpt><trkpt lat="44.6590498" lon="8.9189074"><ele>273.0</ele><time>2026-03-30T14:19:42.153Z</time></trkpt><trkpt lat="44.6591669" lon="8.9187755"><ele>273.0</ele><time>2026-03-30T14:19:43.17Z</time></trkpt><trkpt lat="44.6594052" lon="8.9185107"><ele>273.0</ele><time>2026-03-30T14:19:45Z</time></trkpt><trkpt lat="44.659542" lon="8.9183955"><ele>273.0</ele><time>2026-03-30T14:19:46.179Z</time></trkpt><trkpt lat="44.6596666" lon="8.9182842"><ele>273.0</ele><time>2026-03-30T14:19:47.179Z</time></trkpt><trkpt lat="44.6597816" lon="8.9181504"><ele>273.0</ele><time>2026-03-30T14:19:48.178Z</time></trkpt><trkpt lat="44.6600155" lon="8.9179103"><ele>273.0</ele><time>2026-03-30T14:19:50Z</time></trkpt><trkpt lat="44.660137" lon="8.9177934"><ele>273.0</ele><time>2026-03-30T14:19:51.181Z</time></trkpt><trkpt lat="44.6602457" lon="8.9176687"><ele>273.0</ele><time>2026-03-30T14:19:52.181Z</time></trkpt><trkpt lat="44.6603659" lon="8.9175477"><ele>273.0</ele><time>2026-03-30T14:19:53.177Z</time></trkpt><trkpt lat="44.6605998" lon="8.9172819"><ele>270.6666666666667</ele><time>2026-03-30T14:19:55Z</time></trkpt><trkpt lat="44.6607133" lon="8.9171109"><ele>268.33333333333337</ele><time>2026-03-30T14:19:56.185Z</time></trkpt><trkpt lat="44.6607883" lon="8.9169296"><ele>266.0</ele><time>2026-03-30T14:19:57.153Z</time></trkpt><trkpt lat="44.6608616" lon="8.9167346"><ele>280.5</ele><time>2026-03-30T14:19:58.152Z</time></trkpt><trkpt lat="44.6610083" lon="8.9163318"><ele>295.0</ele><time>2026-03-30T14:20:00Z</time></trkpt><trkpt lat="44.6610767" lon="8.9161365"><ele>285.0</ele><time>2026-03-30T14:20:01.118Z</time></trkpt><trkpt lat="44.6611305" lon="8.9159245"><ele>275.0</ele><time>2026-03-30T14:20:02.145Z</time></trkpt><trkpt lat="44.6611943" lon="8.9157185"><ele>265.0</ele><time>2026-03-30T14:20:03.125Z</time></trkpt><trkpt lat="44.6612953" lon="8.9153102"><ele>265.0</ele><time>2026-03-30T14:20:04.999Z</time></trkpt><trkpt lat="44.6613372" lon="8.9151094"><ele>265.0</ele><time>2026-03-30T14:20:06.124Z</time></trkpt><trkpt lat="44.6613615" lon="8.9149054"><ele>265.0</ele><time>2026-03-30T14:20:07.153Z</time></trkpt><trkpt lat="44.6614147" lon="8.9144702"><ele>268.0</ele><time>2026-03-30T14:20:09Z</time></trkpt><trkpt lat="44.6614259" lon="8.9142502"><ele>271.0</ele><time>2026-03-30T14:20:10.138Z</time></trkpt><trkpt lat="44.6614415" lon="8.91404"><ele>274.0</ele><time>2026-03-30T14:20:11.128Z</time></trkpt><trkpt lat="44.6614511" lon="8.9136305"><ele>274.0</ele><time>2026-03-30T14:20:13.126Z</time></trkpt><trkpt lat="44.6614218" lon="8.9132328"><ele>274.0</ele><time>2026-03-30T14:20:15Z</time></trkpt><trkpt lat="44.661395" lon="8.9130386"><ele>274.0</ele><time>2026-03-30T14:20:16.132Z</time></trkpt><trkpt lat="44.6613599" lon="8.9128482"><ele>274.0</ele><time>2026-03-30T14:20:17.155Z</time></trkpt><trkpt lat="44.6613178" lon="8.9126627"><ele>274.0</ele><time>2026-03-30T14:20:18.146Z</time></trkpt><trkpt lat="44.6611978" lon="8.9123008"><ele>274.0</ele><time>2026-03-30T14:20:20Z</time></trkpt><trkpt lat="44.6611225" lon="8.9121248"><ele>277.66666666666663</ele><time>2026-03-30T14:20:21.168Z</time></trkpt><trkpt lat="44.6610497" lon="8.9119604"><ele>281.3333333333333</ele><time>2026-03-30T14:20:22.145Z</time></trkpt><trkpt lat="44.6609845" lon="8.9117876"><ele>285.0</ele><time>2026-03-30T14:20:23.158Z</time></trkpt><trkpt lat="44.6609044" lon="8.911428"><ele>285.0</ele><time>2026-03-30T14:20:25Z</time></trkpt><trkpt lat="44.6608911" lon="8.9112496"><ele>285.0</ele><time>2026-03-30T14:20:26Z</time></trkpt><trkpt lat="44.6608785" lon="8.9110671"><ele>285.0</ele><time>2026-03-30T14:20:27Z</time></trkpt><trkpt lat="44.6608538" lon="8.9108895"><ele>285.0</ele><time>2026-03-30T14:20:28Z</time></trkpt><trkpt lat="44.6608093" lon="8.910722"><ele>281.6666666666667</ele><time>2026-03-30T14:20:29Z</time></trkpt><trkpt lat="44.6607435" lon="8.9105879"><ele>278.33333333333337</ele><time>2026-03-30T14:20:30Z</time></trkpt><trkpt lat="44.6606732" lon="8.9104493"><ele>275.0</ele><time>2026-03-30T14:20:31.108Z</time></trkpt><trkpt lat="44.6604746" lon="8.9102405"><ele>278.33333333333337</ele><time>2026-03-30T14:20:33.142Z</time></trkpt><trkpt lat="44.6602798" lon="8.9100621"><ele>281.6666666666667</ele><time>2026-03-30T14:20:35Z</time></trkpt><trkpt lat="44.6602031" lon="8.9099496"><ele>285.0</ele><time>2026-03-30T14:20:36.172Z</time></trkpt><trkpt lat="44.6601488" lon="8.9098154"><ele>285.0</ele><time>2026-03-30T14:20:37.152Z</time></trkpt><trkpt lat="44.6601255" lon="8.909669"><ele>285.0</ele><time>2026-03-30T14:20:38.179Z</time></trkpt><trkpt lat="44.6601627" lon="8.9093453"><ele>285.0</ele><time>2026-03-30T14:20:40Z</time></trkpt><trkpt lat="44.6602143" lon="8.9092098"><ele>285.0</ele><time>2026-03-30T14:20:41Z</time></trkpt><trkpt lat="44.6602728" lon="8.9090601"><ele>279.5</ele><time>2026-03-30T14:20:42Z</time></trkpt><trkpt lat="44.6603288" lon="8.9089035"><ele>274.0</ele><time>2026-03-30T14:20:43Z</time></trkpt><trkpt lat="44.6603853" lon="8.9087479"><ele>268.5</ele><time>2026-03-30T14:20:44Z</time></trkpt><trkpt lat="44.6604462" lon="8.9085902"><ele>263.0</ele><time>2026-03-30T14:20:45Z</time></trkpt><trkpt lat="44.660514" lon="8.9084445"><ele>263.0</ele><time>2026-03-30T14:20:46Z</time></trkpt><trkpt lat="44.66059" lon="8.908309"><ele>263.0</ele><time>2026-03-30T14:20:47Z</time></trkpt><trkpt lat="44.6606675" lon="8.908177"><ele>263.0</ele><time>2026-03-30T14:20:48Z</time></trkpt><trkpt lat="44.6607519" lon="8.9080561"><ele>263.0</ele><time>2026-03-30T14:20:49Z</time></trkpt><trkpt lat="44.6608327" lon="8.9079317"><ele>263.0</ele><time>2026-03-30T14:20:50.119Z</time></trkpt><trkpt lat="44.660916" lon="8.90781"><ele>263.0</ele><time>2026-03-30T14:20:51.171Z</time></trkpt><trkpt lat="44.6610005" lon="8.9076927"><ele>263.0</ele><time>2026-03-30T14:20:52.178Z</time></trkpt><trkpt lat="44.6610815" lon="8.907578"><ele>263.0</ele><time>2026-03-30T14:20:53.178Z</time></trkpt><trkpt lat="44.6611609" lon="8.9074664"><ele>262.75</ele><time>2026-03-30T14:20:54Z</time></trkpt><trkpt lat="44.6612402" lon="8.9073542"><ele>262.5</ele><time>2026-03-30T14:20:55Z</time></trkpt><trkpt lat="44.6613191" lon="8.9072424"><ele>262.25</ele><time>2026-03-30T14:20:56.18Z</time></trkpt><trkpt lat="44.6613976" lon="8.9071311"><ele>262.0</ele><time>2026-03-30T14:20:57.157Z</time></trkpt><trkpt lat="44.661479" lon="8.9070194"><ele>262.0</ele><time>2026-03-30T14:20:58.155Z</time></trkpt><trkpt lat="44.6616461" lon="8.9067923"><ele>262.0</ele><time>2026-03-30T14:21:00Z</time></trkpt><trkpt lat="44.6617277" lon="8.9066745"><ele>262.0</ele><time>2026-03-30T14:21:01.144Z</time></trkpt><trkpt lat="44.6618162" lon="8.90656"><ele>262.3333333333333</ele><time>2026-03-30T14:21:02.179Z</time></trkpt><trkpt lat="44.6619837" lon="8.9063263"><ele>262.6666666666667</ele><time>2026-03-30T14:21:04Z</time></trkpt><trkpt lat="44.6620741" lon="8.9062089"><ele>263.0</ele><time>2026-03-30T14:21:05Z</time></trkpt><trkpt lat="44.662158" lon="8.9060883"><ele>263.0</ele><time>2026-03-30T14:21:06.104Z</time></trkpt><trkpt lat="44.6622462" lon="8.905966"><ele>263.0</ele><time>2026-03-30T14:21:07.167Z</time></trkpt><trkpt lat="44.6623353" lon="8.9058507"><ele>263.0</ele><time>2026-03-30T14:21:08.15Z</time></trkpt><trkpt lat="44.6625094" lon="8.9056078"><ele>263.0</ele><time>2026-03-30T14:21:10Z</time></trkpt><trkpt lat="44.662598" lon="8.9054837"><ele>263.0</ele><time>2026-03-30T14:21:11.117Z</time></trkpt><trkpt lat="44.6626877" lon="8.9053548"><ele>263.0</ele><time>2026-03-30T14:21:12.151Z</time></trkpt><trkpt lat="44.6628767" lon="8.9050892"><ele>263.0</ele><time>2026-03-30T14:21:14Z</time></trkpt><trkpt lat="44.6629818" lon="8.9049431"><ele>263.0</ele><time>2026-03-30T14:21:15Z</time></trkpt><trkpt lat="44.6630854" lon="8.9048002"><ele>263.0</ele><time>2026-03-30T14:21:16Z</time></trkpt><trkpt lat="44.663192" lon="8.9046491"><ele>263.0</ele><time>2026-03-30T14:21:17Z</time></trkpt><trkpt lat="44.6633097" lon="8.9044968"><ele>263.0</ele><time>2026-03-30T14:21:18.161Z</time></trkpt><trkpt lat="44.6635141" lon="8.9041995"><ele>263.0</ele><time>2026-03-30T14:21:20Z</time></trkpt><trkpt lat="44.6636232" lon="8.9040521"><ele>263.0</ele><time>2026-03-30T14:21:21.165Z</time></trkpt><trkpt lat="44.6637279" lon="8.9039007"><ele>263.0</ele><time>2026-03-30T14:21:22.139Z</time></trkpt><trkpt lat="44.6638348" lon="8.9037446"><ele>263.0</ele><time>2026-03-30T14:21:23.14Z</time></trkpt><trkpt lat="44.6640424" lon="8.9034632"><ele>263.0</ele><time>2026-03-30T14:21:24.999Z</time></trkpt><trkpt lat="44.6641425" lon="8.9033238"><ele>263.33333333333337</ele><time>2026-03-30T14:21:26.128Z</time></trkpt><trkpt lat="44.6642528" lon="8.9031842"><ele>263.6666666666667</ele><time>2026-03-30T14:21:27.164Z</time></trkpt><trkpt lat="44.6643645" lon="8.9030485"><ele>264.0</ele><time>2026-03-30T14:21:28.126Z</time></trkpt><trkpt lat="44.6645966" lon="8.9028119"><ele>264.0</ele><time>2026-03-30T14:21:30Z</time></trkpt><trkpt lat="44.6647032" lon="8.9027084"><ele>264.0</ele><time>2026-03-30T14:21:31Z</time></trkpt><trkpt lat="44.6648044" lon="8.9026168"><ele>264.0</ele><time>2026-03-30T14:21:32.136Z</time></trkpt><trkpt lat="44.6648968" lon="8.9025348"><ele>264.0</ele><time>2026-03-30T14:21:33.139Z</time></trkpt><trkpt lat="44.6650459" lon="8.9024031"><ele>264.0</ele><time>2026-03-30T14:21:35Z</time></trkpt><trkpt lat="44.6650981" lon="8.9023488"><ele>264.0</ele><time>2026-03-30T14:21:36.134Z</time></trkpt><trkpt lat="44.6652108" lon="8.9022387"><ele>264.0</ele><time>2026-03-30T14:21:38.171Z</time></trkpt><trkpt lat="44.6653665" lon="8.9021075"><ele>264.0</ele><time>2026-03-30T14:21:39.999Z</time></trkpt><trkpt lat="44.6654482" lon="8.9020571"><ele>263.3333333333333</ele><time>2026-03-30T14:21:41.173Z</time></trkpt><trkpt lat="44.6655429" lon="8.9019812"><ele>262.66666666666663</ele><time>2026-03-30T14:21:42.138Z</time></trkpt><trkpt lat="44.6657496" lon="8.901813"><ele>262.0</ele><time>2026-03-30T14:21:44Z</time></trkpt><trkpt lat="44.6658545" lon="8.9017176"><ele>262.0</ele><time>2026-03-30T14:21:45Z</time></trkpt><trkpt lat="44.6659568" lon="8.9016214"><ele>262.0</ele><time>2026-03-30T14:21:46.187Z</time></trkpt><trkpt lat="44.6660672" lon="8.9015131"><ele>262.0</ele><time>2026-03-30T14:21:47.151Z</time></trkpt><trkpt lat="44.6661479" lon="8.9013605"><ele>262.0</ele><time>2026-03-30T14:21:48.172Z</time></trkpt><trkpt lat="44.6662892" lon="8.901051"><ele>260.5</ele><time>2026-03-30T14:21:50Z</time></trkpt><trkpt lat="44.6663613" lon="8.9008981"><ele>259.0</ele><time>2026-03-30T14:21:51.123Z</time></trkpt><trkpt lat="44.6664312" lon="8.9007341"><ele>257.5</ele><time>2026-03-30T14:21:52.146Z</time></trkpt><trkpt lat="44.6664952" lon="8.9005657"><ele>256.0</ele><time>2026-03-30T14:21:53.142Z</time></trkpt><trkpt lat="44.6666438" lon="8.900241"><ele>256.25</ele><time>2026-03-30T14:21:55Z</time></trkpt><trkpt lat="44.6667162" lon="8.9000828"><ele>256.5</ele><time>2026-03-30T14:21:56.173Z</time></trkpt><trkpt lat="44.6667997" lon="8.8999223"><ele>256.75</ele><time>2026-03-30T14:21:57.116Z</time></trkpt><trkpt lat="44.6668867" lon="8.8997571"><ele>257.0</ele><time>2026-03-30T14:21:58.171Z</time></trkpt><trkpt lat="44.6670598" lon="8.8994358"><ele>255.5</ele><time>2026-03-30T14:22:00Z</time></trkpt><trkpt lat="44.6671529" lon="8.8992774"><ele>254.0</ele><time>2026-03-30T14:22:01.175Z</time></trkpt><trkpt lat="44.6672428" lon="8.8991251"><ele>252.5</ele><time>2026-03-30T14:22:02.17Z</time></trkpt><trkpt lat="44.6673371" lon="8.8989715"><ele>251.0</ele><time>2026-03-30T14:22:03.17Z</time></trkpt><trkpt lat="44.6674945" lon="8.8986733"><ele>251.0</ele><time>2026-03-30T14:22:04.999Z</time></trkpt><trkpt lat="44.6675701" lon="8.8985166"><ele>251.0</ele><time>2026-03-30T14:22:06Z</time></trkpt><trkpt lat="44.6676485" lon="8.8983727"><ele>251.0</ele><time>2026-03-30T14:22:07Z</time></trkpt><trkpt lat="44.6676939" lon="8.8982112"><ele>251.0</ele><time>2026-03-30T14:22:08.155Z</time></trkpt><trkpt lat="44.6677841" lon="8.8978811"><ele>252.33333333333334</ele><time>2026-03-30T14:22:10Z</time></trkpt><trkpt lat="44.6678184" lon="8.8977249"><ele>253.66666666666669</ele><time>2026-03-30T14:22:11.145Z</time></trkpt><trkpt lat="44.6678655" lon="8.8975744"><ele>255.0</ele><time>2026-03-30T14:22:12.129Z</time></trkpt><trkpt lat="44.6680069" lon="8.8973286"><ele>256.25</ele><time>2026-03-30T14:22:13.999Z</time></trkpt><trkpt lat="44.6680915" lon="8.8972312"><ele>257.5</ele><time>2026-03-30T14:22:15Z</time></trkpt><trkpt lat="44.6682035" lon="8.8971896"><ele>258.75</ele><time>2026-03-30T14:22:16.133Z</time></trkpt><trkpt lat="44.6683326" lon="8.8971344"><ele>260.0</ele><time>2026-03-30T14:22:17.165Z</time></trkpt><trkpt lat="44.6684544" lon="8.8970816"><ele>258.33333333333337</ele><time>2026-03-30T14:22:18.131Z</time></trkpt><trkpt lat="44.6687121" lon="8.8969838"><ele>256.6666666666667</ele><time>2026-03-30T14:22:19.999Z</time></trkpt><trkpt lat="44.6688429" lon="8.8969323"><ele>255.0</ele><time>2026-03-30T14:22:21.132Z</time></trkpt><trkpt lat="44.6689709" lon="8.8968818"><ele>255.0</ele><time>2026-03-30T14:22:22.158Z</time></trkpt><trkpt lat="44.6692348" lon="8.8967743"><ele>255.0</ele><time>2026-03-30T14:22:24Z</time></trkpt><trkpt lat="44.6693657" lon="8.8967135"><ele>255.0</ele><time>2026-03-30T14:22:25.16Z</time></trkpt><trkpt lat="44.6694979" lon="8.8966574"><ele>256.0</ele><time>2026-03-30T14:22:26.139Z</time></trkpt><trkpt lat="44.6696264" lon="8.8965953"><ele>257.0</ele><time>2026-03-30T14:22:27.148Z</time></trkpt><trkpt lat="44.6697562" lon="8.8965364"><ele>258.0</ele><time>2026-03-30T14:22:28.145Z</time></trkpt><trkpt lat="44.6700153" lon="8.8964253"><ele>258.0</ele><time>2026-03-30T14:22:30Z</time></trkpt><trkpt lat="44.6701413" lon="8.8963708"><ele>258.0</ele><time>2026-03-30T14:22:31.14Z</time></trkpt><trkpt lat="44.6702676" lon="8.8963178"><ele>258.0</ele><time>2026-03-30T14:22:32.171Z</time></trkpt><trkpt lat="44.6703864" lon="8.8962595"><ele>258.0</ele><time>2026-03-30T14:22:33.169Z</time></trkpt><trkpt lat="44.6706251" lon="8.8960899"><ele>258.5</ele><time>2026-03-30T14:22:35Z</time></trkpt><trkpt lat="44.6707355" lon="8.8959856"><ele>259.0</ele><time>2026-03-30T14:22:35.999Z</time></trkpt><trkpt lat="44.6708418" lon="8.8958766"><ele>259.5</ele><time>2026-03-30T14:22:37.137Z</time></trkpt><trkpt lat="44.6709518" lon="8.8957738"><ele>260.0</ele><time>2026-03-30T14:22:38.134Z</time></trkpt><trkpt lat="44.6711732" lon="8.8955928"><ele>260.0</ele><time>2026-03-30T14:22:40Z</time></trkpt><trkpt lat="44.671302" lon="8.8955313"><ele>260.0</ele><time>2026-03-30T14:22:41.165Z</time></trkpt><trkpt lat="44.6714391" lon="8.8955141"><ele>260.0</ele><time>2026-03-30T14:22:42.163Z</time></trkpt><trkpt lat="44.671592" lon="8.8955188"><ele>260.0</ele><time>2026-03-30T14:22:43.143Z</time></trkpt><trkpt lat="44.6718792" lon="8.8955848"><ele>260.0</ele><time>2026-03-30T14:22:45Z</time></trkpt><trkpt lat="44.6720219" lon="8.8956188"><ele>260.0</ele><time>2026-03-30T14:22:46.166Z</time></trkpt><trkpt lat="44.6723077" lon="8.895709"><ele>260.0</ele><time>2026-03-30T14:22:48.139Z</time></trkpt><trkpt lat="44.6726002" lon="8.895802"><ele>260.0</ele><time>2026-03-30T14:22:50Z</time></trkpt><trkpt lat="44.6727468" lon="8.8958608"><ele>260.0</ele><time>2026-03-30T14:22:51.18Z</time></trkpt><trkpt lat="44.6728882" lon="8.8958835"><ele>260.0</ele><time>2026-03-30T14:22:52.166Z</time></trkpt><trkpt lat="44.6730376" lon="8.895916"><ele>260.0</ele><time>2026-03-30T14:22:53.14Z</time></trkpt><trkpt lat="44.6733403" lon="8.8959728"><ele>250.0</ele><time>2026-03-30T14:22:55Z</time></trkpt><trkpt lat="44.6734933" lon="8.8959857"><ele>240.0</ele><time>2026-03-30T14:22:56.184Z</time></trkpt><trkpt lat="44.6738014" lon="8.896004"><ele>240.0</ele><time>2026-03-30T14:22:58Z</time></trkpt><trkpt lat="44.6739536" lon="8.8959982"><ele>240.0</ele><time>2026-03-30T14:22:59Z</time></trkpt><trkpt lat="44.6741063" lon="8.8959927"><ele>240.0</ele><time>2026-03-30T14:23:00Z</time></trkpt><trkpt lat="44.6742582" lon="8.8959854"><ele>241.0</ele><time>2026-03-30T14:23:01.11Z</time></trkpt><trkpt lat="44.6745604" lon="8.8959477"><ele>242.0</ele><time>2026-03-30T14:23:03Z</time></trkpt><trkpt lat="44.6747129" lon="8.8959203"><ele>245.25</ele><time>2026-03-30T14:23:04Z</time></trkpt><trkpt lat="44.6748614" lon="8.8958859"><ele>248.5</ele><time>2026-03-30T14:23:05Z</time></trkpt><trkpt lat="44.6750105" lon="8.895864"><ele>251.75</ele><time>2026-03-30T14:23:06Z</time></trkpt><trkpt lat="44.6751472" lon="8.8958293"><ele>255.0</ele><time>2026-03-30T14:23:07Z</time></trkpt><trkpt lat="44.6752956" lon="8.8957935"><ele>255.0</ele><time>2026-03-30T14:23:08.186Z</time></trkpt><trkpt lat="44.6755821" lon="8.8957242"><ele>255.0</ele><time>2026-03-30T14:23:10Z</time></trkpt><trkpt lat="44.6757267" lon="8.8956882"><ele>255.0</ele><time>2026-03-30T14:23:11.174Z</time></trkpt><trkpt lat="44.6758757" lon="8.8956503"><ele>255.0</ele><time>2026-03-30T14:23:12.134Z</time></trkpt><trkpt lat="44.6760266" lon="8.8956115"><ele>255.0</ele><time>2026-03-30T14:23:13.119Z</time></trkpt><trkpt lat="44.6763373" lon="8.8955085"><ele>253.33333333333331</ele><time>2026-03-30T14:23:14.999Z</time></trkpt><trkpt lat="44.676494" lon="8.8954518"><ele>251.66666666666666</ele><time>2026-03-30T14:23:16.118Z</time></trkpt><trkpt lat="44.6766566" lon="8.8954052"><ele>250.0</ele><time>2026-03-30T14:23:17.126Z</time></trkpt><trkpt lat="44.6768207" lon="8.8953602"><ele>249.0</ele><time>2026-03-30T14:23:18.123Z</time></trkpt><trkpt lat="44.6771454" lon="8.8953091"><ele>248.0</ele><time>2026-03-30T14:23:20Z</time></trkpt><trkpt lat="44.6773093" lon="8.8952871"><ele>248.0</ele><time>2026-03-30T14:23:21.158Z</time></trkpt><trkpt lat="44.6774626" lon="8.8952648"><ele>248.0</ele><time>2026-03-30T14:23:22.142Z</time></trkpt><trkpt lat="44.6776213" lon="8.895242"><ele>248.0</ele><time>2026-03-30T14:23:23.155Z</time></trkpt><trkpt lat="44.677938" lon="8.8952029"><ele>247.75</ele><time>2026-03-30T14:23:25Z</time></trkpt><trkpt lat="44.6780906" lon="8.8951738"><ele>247.5</ele><time>2026-03-30T14:23:26.135Z</time></trkpt><trkpt lat="44.6782372" lon="8.8951562"><ele>247.25</ele><time>2026-03-30T14:23:27.136Z</time></trkpt><trkpt lat="44.678383" lon="8.8951342"><ele>247.0</ele><time>2026-03-30T14:23:28.136Z</time></trkpt><trkpt lat="44.6786718" lon="8.8950847"><ele>248.0</ele><time>2026-03-30T14:23:30Z</time></trkpt><trkpt lat="44.6788198" lon="8.8950612"><ele>249.0</ele><time>2026-03-30T14:23:30.999Z</time></trkpt><trkpt lat="44.6789674" lon="8.8950331"><ele>250.0</ele><time>2026-03-30T14:23:32Z</time></trkpt><trkpt lat="44.6791135" lon="8.8950089"><ele>251.0</ele><time>2026-03-30T14:23:33Z</time></trkpt><trkpt lat="44.6792622" lon="8.8949917"><ele>251.0</ele><time>2026-03-30T14:23:34Z</time></trkpt><trkpt lat="44.6794082" lon="8.8949647"><ele>251.0</ele><time>2026-03-30T14:23:35Z</time></trkpt><trkpt lat="44.6795564" lon="8.8949329"><ele>251.0</ele><time>2026-03-30T14:23:36.169Z</time></trkpt><trkpt lat="44.6797138" lon="8.8949055"><ele>250.0</ele><time>2026-03-30T14:23:37.117Z</time></trkpt><trkpt lat="44.6798498" lon="8.8948595"><ele>249.0</ele><time>2026-03-30T14:23:38.12Z</time></trkpt><trkpt lat="44.6801137" lon="8.8947319"><ele>248.0</ele><time>2026-03-30T14:23:40Z</time></trkpt><trkpt lat="44.6802479" lon="8.8946698"><ele>247.33333333333334</ele><time>2026-03-30T14:23:41.124Z</time></trkpt><trkpt lat="44.6803752" lon="8.8945999"><ele>246.66666666666669</ele><time>2026-03-30T14:23:42.169Z</time></trkpt><trkpt lat="44.6806154" lon="8.8944564"><ele>246.0</ele><time>2026-03-30T14:23:44Z</time></trkpt><trkpt lat="44.6807297" lon="8.8943851"><ele>246.0</ele><time>2026-03-30T14:23:45Z</time></trkpt><trkpt lat="44.6808457" lon="8.8943084"><ele>246.0</ele><time>2026-03-30T14:23:46.176Z</time></trkpt><trkpt lat="44.6809526" lon="8.8942349"><ele>246.0</ele><time>2026-03-30T14:23:47.173Z</time></trkpt><trkpt lat="44.6810635" lon="8.8941541"><ele>246.0</ele><time>2026-03-30T14:23:48.134Z</time></trkpt><trkpt lat="44.681274" lon="8.8939936"><ele>246.66666666666669</ele><time>2026-03-30T14:23:50.17Z</time></trkpt><trkpt lat="44.6813712" lon="8.8939079"><ele>247.33333333333334</ele><time>2026-03-30T14:23:51.147Z</time></trkpt><trkpt lat="44.6815793" lon="8.8937436"><ele>248.0</ele><time>2026-03-30T14:23:53Z</time></trkpt><trkpt lat="44.6816843" lon="8.8936625"><ele>248.0</ele><time>2026-03-30T14:23:54Z</time></trkpt><trkpt lat="44.6817889" lon="8.8935868"><ele>248.0</ele><time>2026-03-30T14:23:55Z</time></trkpt><trkpt lat="44.6818746" lon="8.893501"><ele>248.0</ele><time>2026-03-30T14:23:56.145Z</time></trkpt><trkpt lat="44.6819712" lon="8.8934069"><ele>248.0</ele><time>2026-03-30T14:23:57.101Z</time></trkpt><trkpt lat="44.6820689" lon="8.8933149"><ele>248.33333333333334</ele><time>2026-03-30T14:23:58.177Z</time></trkpt><trkpt lat="44.6822695" lon="8.8931297"><ele>248.66666666666669</ele><time>2026-03-30T14:24:00Z</time></trkpt><trkpt lat="44.6823643" lon="8.8930437"><ele>249.0</ele><time>2026-03-30T14:24:01.178Z</time></trkpt><trkpt lat="44.6824685" lon="8.8929529"><ele>249.0</ele><time>2026-03-30T14:24:02.179Z</time></trkpt><trkpt lat="44.6825706" lon="8.8928537"><ele>249.0</ele><time>2026-03-30T14:24:03.171Z</time></trkpt><trkpt lat="44.6827547" lon="8.892657"><ele>249.0</ele><time>2026-03-30T14:24:04.999Z</time></trkpt><trkpt lat="44.6828527" lon="8.8925605"><ele>249.0</ele><time>2026-03-30T14:24:06Z</time></trkpt><trkpt lat="44.6829465" lon="8.8924625"><ele>249.0</ele><time>2026-03-30T14:24:06.999Z</time></trkpt><trkpt lat="44.6830452" lon="8.892375"><ele>249.0</ele><time>2026-03-30T14:24:08.157Z</time></trkpt><trkpt lat="44.6832433" lon="8.8922079"><ele>249.0</ele><time>2026-03-30T14:24:10Z</time></trkpt><trkpt lat="44.6833373" lon="8.8921212"><ele>249.0</ele><time>2026-03-30T14:24:11.151Z</time></trkpt><trkpt lat="44.6834297" lon="8.892029"><ele>249.0</ele><time>2026-03-30T14:24:12.136Z</time></trkpt><trkpt lat="44.6835185" lon="8.8919293"><ele>249.0</ele><time>2026-03-30T14:24:13.128Z</time></trkpt><trkpt lat="44.68362" lon="8.8918358"><ele>249.25</ele><time>2026-03-30T14:24:13.999Z</time></trkpt><trkpt lat="44.683716" lon="8.891726"><ele>249.5</ele><time>2026-03-30T14:24:15Z</time></trkpt><trkpt lat="44.683821" lon="8.8916397"><ele>249.75</ele><time>2026-03-30T14:24:16.119Z</time></trkpt><trkpt lat="44.6839095" lon="8.8915573"><ele>250.0</ele><time>2026-03-30T14:24:17.126Z</time></trkpt><trkpt lat="44.6840065" lon="8.8914753"><ele>250.0</ele><time>2026-03-30T14:24:18.127Z</time></trkpt><trkpt lat="44.6842024" lon="8.8913085"><ele>250.0</ele><time>2026-03-30T14:24:20Z</time></trkpt><trkpt lat="44.6842898" lon="8.8912258"><ele>250.0</ele><time>2026-03-30T14:24:21Z</time></trkpt><trkpt lat="44.6843807" lon="8.891137"><ele>250.0</ele><time>2026-03-30T14:24:22Z</time></trkpt><trkpt lat="44.6844702" lon="8.8910537"><ele>250.25</ele><time>2026-03-30T14:24:23.125Z</time></trkpt><trkpt lat="44.68465" lon="8.8908824"><ele>250.5</ele><time>2026-03-30T14:24:25Z</time></trkpt><trkpt lat="44.6847348" lon="8.8907987"><ele>250.75</ele><time>2026-03-30T14:24:26.155Z</time></trkpt><trkpt lat="44.684823" lon="8.8907151"><ele>251.0</ele><time>2026-03-30T14:24:27.134Z</time></trkpt><trkpt lat="44.6849033" lon="8.890632"><ele>251.0</ele><time>2026-03-30T14:24:28.131Z</time></trkpt><trkpt lat="44.6850537" lon="8.8904887"><ele>251.00000000000003</ele><time>2026-03-30T14:24:30Z</time></trkpt><trkpt lat="44.6851263" lon="8.8904226"><ele>251.00000000000003</ele><time>2026-03-30T14:24:31.152Z</time></trkpt><trkpt lat="44.6851895" lon="8.890363"><ele>251.0</ele><time>2026-03-30T14:24:32.141Z</time></trkpt><trkpt lat="44.6852514" lon="8.8903039"><ele>251.0</ele><time>2026-03-30T14:24:33.104Z</time></trkpt><trkpt lat="44.6853511" lon="8.8902067"><ele>250.60000000000002</ele><time>2026-03-30T14:24:35Z</time></trkpt><trkpt lat="44.6854339" lon="8.8901259"><ele>250.20000000000002</ele><time>2026-03-30T14:24:37.165Z</time></trkpt><trkpt lat="44.6855665" lon="8.8900037"><ele>249.79999999999998</ele><time>2026-03-30T14:24:40Z</time></trkpt><trkpt lat="44.6856302" lon="8.8899435"><ele>249.39999999999998</ele><time>2026-03-30T14:24:41.166Z</time></trkpt><trkpt lat="44.6856975" lon="8.8898867"><ele>249.0</ele><time>2026-03-30T14:24:42.162Z</time></trkpt><trkpt lat="44.6858508" lon="8.889746"><ele>249.0</ele><time>2026-03-30T14:24:44Z</time></trkpt><trkpt lat="44.6859268" lon="8.8896797"><ele>248.99999999999997</ele><time>2026-03-30T14:24:45Z</time></trkpt><trkpt lat="44.6860109" lon="8.8896003"><ele>248.99999999999997</ele><time>2026-03-30T14:24:46.174Z</time></trkpt><trkpt lat="44.6860943" lon="8.8895198"><ele>249.0</ele><time>2026-03-30T14:24:47.136Z</time></trkpt><trkpt lat="44.6861712" lon="8.8894364"><ele>249.0</ele><time>2026-03-30T14:24:48.164Z</time></trkpt><trkpt lat="44.686348" lon="8.8892801"><ele>249.25</ele><time>2026-03-30T14:24:50Z</time></trkpt><trkpt lat="44.6864345" lon="8.889199"><ele>249.5</ele><time>2026-03-30T14:24:51.152Z</time></trkpt><trkpt lat="44.6865186" lon="8.8891201"><ele>249.75</ele><time>2026-03-30T14:24:52.146Z</time></trkpt><trkpt lat="44.6866061" lon="8.8890363"><ele>250.0</ele><time>2026-03-30T14:24:53.176Z</time></trkpt><trkpt lat="44.6867733" lon="8.8888752"><ele>250.0</ele><time>2026-03-30T14:24:55Z</time></trkpt><trkpt lat="44.6868517" lon="8.8887971"><ele>250.0</ele><time>2026-03-30T14:24:56.178Z</time></trkpt><trkpt lat="44.6869233" lon="8.8887232"><ele>250.0</ele><time>2026-03-30T14:24:57.141Z</time></trkpt><trkpt lat="44.6869997" lon="8.8886527"><ele>250.0</ele><time>2026-03-30T14:24:58.144Z</time></trkpt><trkpt lat="44.6871395" lon="8.8885257"><ele>250.0</ele><time>2026-03-30T14:25:00Z</time></trkpt><trkpt lat="44.6872132" lon="8.8884601"><ele>249.0</ele><time>2026-03-30T14:25:01.172Z</time></trkpt><trkpt lat="44.6873629" lon="8.8883191"><ele>248.0</ele><time>2026-03-30T14:25:03.118Z</time></trkpt><trkpt lat="44.6875199" lon="8.8881664"><ele>247.0</ele><time>2026-03-30T14:25:05Z</time></trkpt><trkpt lat="44.6876094" lon="8.8880665"><ele>247.0</ele><time>2026-03-30T14:25:06.148Z</time></trkpt><trkpt lat="44.6876873" lon="8.8879876"><ele>247.0</ele><time>2026-03-30T14:25:07.147Z</time></trkpt><trkpt lat="44.687776" lon="8.8878917"><ele>247.0</ele><time>2026-03-30T14:25:08.124Z</time></trkpt><trkpt lat="44.6879497" lon="8.8876982"><ele>247.0</ele><time>2026-03-30T14:25:10Z</time></trkpt><trkpt lat="44.6880296" lon="8.8876085"><ele>246.75</ele><time>2026-03-30T14:25:11.146Z</time></trkpt><trkpt lat="44.688112" lon="8.887521"><ele>246.5</ele><time>2026-03-30T14:25:12.15Z</time></trkpt><trkpt lat="44.688265" lon="8.8873356"><ele>246.25</ele><time>2026-03-30T14:25:14Z</time></trkpt><trkpt lat="44.6883345" lon="8.88725"><ele>246.0</ele><time>2026-03-30T14:25:15.151Z</time></trkpt><trkpt lat="44.6883944" lon="8.887182"><ele>246.0</ele><time>2026-03-30T14:25:16.145Z</time></trkpt><trkpt lat="44.688448" lon="8.8871295"><ele>246.0</ele><time>2026-03-30T14:25:17.129Z</time></trkpt><trkpt lat="44.6886251" lon="8.8870498"><ele>246.0</ele><time>2026-03-30T14:25:20Z</time></trkpt><trkpt lat="44.6886711" lon="8.8869845"><ele>246.0</ele><time>2026-03-30T14:25:21.136Z</time></trkpt><trkpt lat="44.6887484" lon="8.8868"><ele>245.5</ele><time>2026-03-30T14:25:23Z</time></trkpt><trkpt lat="44.6887761" lon="8.886715"><ele>245.0</ele><time>2026-03-30T14:25:24Z</time></trkpt><trkpt lat="44.6888647" lon="8.8866154"><ele>244.5</ele><time>2026-03-30T14:25:25.123Z</time></trkpt><trkpt lat="44.6889341" lon="8.8865112"><ele>244.0</ele><time>2026-03-30T14:25:26.141Z</time></trkpt><trkpt lat="44.6890978" lon="8.8862981"><ele>244.0</ele><time>2026-03-30T14:25:28.175Z</time></trkpt><trkpt lat="44.6891761" lon="8.8862011"><ele>243.99999999999997</ele><time>2026-03-30T14:25:29Z</time></trkpt><trkpt lat="44.6892494" lon="8.8860984"><ele>243.99999999999997</ele><time>2026-03-30T14:25:30Z</time></trkpt><trkpt lat="44.6893153" lon="8.8860019"><ele>244.0</ele><time>2026-03-30T14:25:31.151Z</time></trkpt><trkpt lat="44.6893788" lon="8.8859052"><ele>244.0</ele><time>2026-03-30T14:25:32.195Z</time></trkpt><trkpt lat="44.6894369" lon="8.8858058"><ele>244.25</ele><time>2026-03-30T14:25:33.114Z</time></trkpt><trkpt lat="44.6895496" lon="8.8856391"><ele>244.5</ele><time>2026-03-30T14:25:34.999Z</time></trkpt><trkpt lat="44.6896092" lon="8.8855263"><ele>244.75</ele><time>2026-03-30T14:25:36.149Z</time></trkpt><trkpt lat="44.6896544" lon="8.8854428"><ele>245.0</ele><time>2026-03-30T14:25:37.139Z</time></trkpt><trkpt lat="44.6898062" lon="8.8852918"><ele>244.66666666666669</ele><time>2026-03-30T14:25:38.155Z</time></trkpt><trkpt lat="44.6899842" lon="8.8850583"><ele>244.33333333333331</ele><time>2026-03-30T14:25:40Z</time></trkpt><trkpt lat="44.6900721" lon="8.8849312"><ele>244.0</ele><time>2026-03-30T14:25:41.138Z</time></trkpt><trkpt lat="44.6901443" lon="8.8848171"><ele>244.0</ele><time>2026-03-30T14:25:42.178Z</time></trkpt><trkpt lat="44.6902204" lon="8.8847038"><ele>244.0</ele><time>2026-03-30T14:25:43.132Z</time></trkpt><trkpt lat="44.6903574" lon="8.8845062"><ele>244.0</ele><time>2026-03-30T14:25:45Z</time></trkpt><trkpt lat="44.6904247" lon="8.8844228"><ele>244.0</ele><time>2026-03-30T14:25:46.143Z</time></trkpt><trkpt lat="44.6905564" lon="8.8842539"><ele>244.2</ele><time>2026-03-30T14:25:48Z</time></trkpt><trkpt lat="44.6906119" lon="8.8841806"><ele>244.39999999999998</ele><time>2026-03-30T14:25:49Z</time></trkpt><trkpt lat="44.6906813" lon="8.8840904"><ele>244.6</ele><time>2026-03-30T14:25:50Z</time></trkpt><trkpt lat="44.6907519" lon="8.8839948"><ele>244.8</ele><time>2026-03-30T14:25:51.112Z</time></trkpt><trkpt lat="44.6908658" lon="8.88385"><ele>245.0</ele><time>2026-03-30T14:25:53Z</time></trkpt><trkpt lat="44.6909746" lon="8.8837474"><ele>245.0</ele><time>2026-03-30T14:25:55Z</time></trkpt><trkpt lat="44.6910471" lon="8.8836984"><ele>245.0</ele><time>2026-03-30T14:25:56Z</time></trkpt><trkpt lat="44.6911058" lon="8.8836196"><ele>245.0</ele><time>2026-03-30T14:25:57.12Z</time></trkpt><trkpt lat="44.6912103" lon="8.883417"><ele>245.0</ele><time>2026-03-30T14:25:59Z</time></trkpt><trkpt lat="44.6912731" lon="8.8833185"><ele>245.0</ele><time>2026-03-30T14:26:00Z</time></trkpt><trkpt lat="44.6913236" lon="8.8832248"><ele>244.0</ele><time>2026-03-30T14:26:01Z</time></trkpt><trkpt lat="44.6913855" lon="8.8831285"><ele>243.0</ele><time>2026-03-30T14:26:02Z</time></trkpt><trkpt lat="44.6914519" lon="8.8830348"><ele>242.0</ele><time>2026-03-30T14:26:03Z</time></trkpt><trkpt lat="44.6915234" lon="8.8829396"><ele>241.0</ele><time>2026-03-30T14:26:04Z</time></trkpt><trkpt lat="44.6915913" lon="8.8828491"><ele>240.0</ele><time>2026-03-30T14:26:05.123Z</time></trkpt><trkpt lat="44.6916567" lon="8.8827673"><ele>240.0</ele><time>2026-03-30T14:26:06.149Z</time></trkpt><trkpt lat="44.6917099" lon="8.8826711"><ele>240.0</ele><time>2026-03-30T14:26:07.156Z</time></trkpt><trkpt lat="44.691759" lon="8.8826039"><ele>240.0</ele><time>2026-03-30T14:26:08.145Z</time></trkpt><trkpt lat="44.6918638" lon="8.8824492"><ele>240.0</ele><time>2026-03-30T14:26:10Z</time></trkpt><trkpt lat="44.6919329" lon="8.8823597"><ele>240.0</ele><time>2026-03-30T14:26:11.17Z</time></trkpt><trkpt lat="44.6919957" lon="8.8822629"><ele>240.25</ele><time>2026-03-30T14:26:12.141Z</time></trkpt><trkpt lat="44.6920673" lon="8.8821658"><ele>240.5</ele><time>2026-03-30T14:26:13.132Z</time></trkpt><trkpt lat="44.6922188" lon="8.8819501"><ele>240.75</ele><time>2026-03-30T14:26:15Z</time></trkpt><trkpt lat="44.6922955" lon="8.881833"><ele>241.0</ele><time>2026-03-30T14:26:16.109Z</time></trkpt><trkpt lat="44.6923704" lon="8.8817211"><ele>241.0</ele><time>2026-03-30T14:26:17.15Z</time></trkpt><trkpt lat="44.6924458" lon="8.8816188"><ele>241.0</ele><time>2026-03-30T14:26:18.124Z</time></trkpt><trkpt lat="44.6925872" lon="8.8814147"><ele>241.0</ele><time>2026-03-30T14:26:19.999Z</time></trkpt><trkpt lat="44.6926554" lon="8.8813139"><ele>241.0</ele><time>2026-03-30T14:26:21Z</time></trkpt><trkpt lat="44.6927184" lon="8.8812235"><ele>240.49999999999997</ele><time>2026-03-30T14:26:22Z</time></trkpt><trkpt lat="44.6927767" lon="8.8811406"><ele>240.0</ele><time>2026-03-30T14:26:23Z</time></trkpt><trkpt lat="44.6928895" lon="8.8810416"><ele>239.5</ele><time>2026-03-30T14:26:25Z</time></trkpt><trkpt lat="44.6929514" lon="8.8810246"><ele>239.0</ele><time>2026-03-30T14:26:25.999Z</time></trkpt><trkpt lat="44.6930197" lon="8.8810008"><ele>238.49999999999997</ele><time>2026-03-30T14:26:27Z</time></trkpt><trkpt lat="44.693082" lon="8.8809595"><ele>238.0</ele><time>2026-03-30T14:26:28Z</time></trkpt><trkpt lat="44.6931553" lon="8.8808213"><ele>238.0</ele><time>2026-03-30T14:26:30.139Z</time></trkpt><trkpt lat="44.6931803" lon="8.8806456"><ele>238.0</ele><time>2026-03-30T14:26:32.129Z</time></trkpt><trkpt lat="44.6932078" lon="8.8805523"><ele>238.0</ele><time>2026-03-30T14:26:33.15Z</time></trkpt><trkpt lat="44.693308" lon="8.8803675"><ele>238.0</ele><time>2026-03-30T14:26:35Z</time></trkpt><trkpt lat="44.6933707" lon="8.8802791"><ele>238.0</ele><time>2026-03-30T14:26:36.161Z</time></trkpt><trkpt lat="44.6934384" lon="8.8801823"><ele>238.0</ele><time>2026-03-30T14:26:37.13Z</time></trkpt><trkpt lat="44.6935109" lon="8.8800923"><ele>238.0</ele><time>2026-03-30T14:26:38.138Z</time></trkpt><trkpt lat="44.6936535" lon="8.8798901"><ele>238.0</ele><time>2026-03-30T14:26:40Z</time></trkpt><trkpt lat="44.6937214" lon="8.8797949"><ele>237.75</ele><time>2026-03-30T14:26:41.179Z</time></trkpt><trkpt lat="44.6937954" lon="8.8797023"><ele>237.5</ele><time>2026-03-30T14:26:42.16Z</time></trkpt><trkpt lat="44.6938669" lon="8.8796023"><ele>237.25</ele><time>2026-03-30T14:26:43.148Z</time></trkpt><trkpt lat="44.6940064" lon="8.879397"><ele>237.0</ele><time>2026-03-30T14:26:45Z</time></trkpt><trkpt lat="44.694079" lon="8.8792872"><ele>237.25</ele><time>2026-03-30T14:26:46.176Z</time></trkpt><trkpt lat="44.6941481" lon="8.8791746"><ele>237.5</ele><time>2026-03-30T14:26:47.179Z</time></trkpt><trkpt lat="44.6942221" lon="8.8790623"><ele>237.75</ele><time>2026-03-30T14:26:48.182Z</time></trkpt><trkpt lat="44.6943827" lon="8.8788368"><ele>238.0</ele><time>2026-03-30T14:26:50Z</time></trkpt><trkpt lat="44.6944677" lon="8.8787154"><ele>238.0</ele><time>2026-03-30T14:26:51.17Z</time></trkpt><trkpt lat="44.6945532" lon="8.8785957"><ele>238.0</ele><time>2026-03-30T14:26:52.151Z</time></trkpt><trkpt lat="44.6946453" lon="8.8784742"><ele>238.0</ele><time>2026-03-30T14:26:53.171Z</time></trkpt><trkpt lat="44.6948272" lon="8.8782246"><ele>238.0</ele><time>2026-03-30T14:26:55Z</time></trkpt><trkpt lat="44.6949185" lon="8.8781021"><ele>238.0</ele><time>2026-03-30T14:26:56Z</time></trkpt><trkpt lat="44.6950063" lon="8.8779856"><ele>238.0</ele><time>2026-03-30T14:26:57Z</time></trkpt><trkpt lat="44.6950911" lon="8.8778485"><ele>238.0</ele><time>2026-03-30T14:26:58Z</time></trkpt><trkpt lat="44.695175" lon="8.8777196"><ele>237.5</ele><time>2026-03-30T14:26:59Z</time></trkpt><trkpt lat="44.69526" lon="8.8775984"><ele>237.0</ele><time>2026-03-30T14:27:00Z</time></trkpt><trkpt lat="44.6953417" lon="8.8774819"><ele>236.5</ele><time>2026-03-30T14:27:01Z</time></trkpt><trkpt lat="44.6954245" lon="8.8773663"><ele>236.0</ele><time>2026-03-30T14:27:02Z</time></trkpt><trkpt lat="44.6954999" lon="8.8772582"><ele>236.0</ele><time>2026-03-30T14:27:03Z</time></trkpt><trkpt lat="44.695585" lon="8.8771359"><ele>236.0</ele><time>2026-03-30T14:27:04Z</time></trkpt><trkpt lat="44.6956703" lon="8.8770153"><ele>236.0</ele><time>2026-03-30T14:27:05.236Z</time></trkpt><trkpt lat="44.6958487" lon="8.8767842"><ele>236.0</ele><time>2026-03-30T14:27:07Z</time></trkpt><trkpt lat="44.6959376" lon="8.8766563"><ele>236.0</ele><time>2026-03-30T14:27:08.105Z</time></trkpt><trkpt lat="44.6961174" lon="8.8763804"><ele>236.0</ele><time>2026-03-30T14:27:10Z</time></trkpt><trkpt lat="44.6962173" lon="8.8762541"><ele>236.0</ele><time>2026-03-30T14:27:11Z</time></trkpt><trkpt lat="44.6963124" lon="8.8761051"><ele>236.0</ele><time>2026-03-30T14:27:12.149Z</time></trkpt><trkpt lat="44.6965024" lon="8.8758285"><ele>236.0</ele><time>2026-03-30T14:27:14Z</time></trkpt><trkpt lat="44.6966033" lon="8.875683"><ele>236.0</ele><time>2026-03-30T14:27:15Z</time></trkpt><trkpt lat="44.6967117" lon="8.8755309"><ele>236.0</ele><time>2026-03-30T14:27:16.109Z</time></trkpt><trkpt lat="44.6968149" lon="8.8753777"><ele>236.0</ele><time>2026-03-30T14:27:17.154Z</time></trkpt><trkpt lat="44.6969231" lon="8.8752314"><ele>236.0</ele><time>2026-03-30T14:27:18.157Z</time></trkpt><trkpt lat="44.697142" lon="8.874918"><ele>236.0</ele><time>2026-03-30T14:27:20Z</time></trkpt><trkpt lat="44.6972497" lon="8.8747665"><ele>236.0</ele><time>2026-03-30T14:27:21.161Z</time></trkpt><trkpt lat="44.697357" lon="8.8746128"><ele>236.0</ele><time>2026-03-30T14:27:22.186Z</time></trkpt><trkpt lat="44.6974688" lon="8.8744485"><ele>236.0</ele><time>2026-03-30T14:27:23.172Z</time></trkpt><trkpt lat="44.6977063" lon="8.8741064"><ele>235.33333333333334</ele><time>2026-03-30T14:27:25Z</time></trkpt><trkpt lat="44.6978194" lon="8.8739483"><ele>234.66666666666669</ele><time>2026-03-30T14:27:25.999Z</time></trkpt><trkpt lat="44.6979409" lon="8.873776"><ele>234.0</ele><time>2026-03-30T14:27:27.127Z</time></trkpt><trkpt lat="44.6981649" lon="8.8734555"><ele>233.66666666666669</ele><time>2026-03-30T14:27:29Z</time></trkpt><trkpt lat="44.6982776" lon="8.8733028"><ele>233.33333333333334</ele><time>2026-03-30T14:27:30Z</time></trkpt><trkpt lat="44.6983908" lon="8.8731452"><ele>233.0</ele><time>2026-03-30T14:27:30.999Z</time></trkpt><trkpt lat="44.6985017" lon="8.8729993"><ele>233.0</ele><time>2026-03-30T14:27:32.123Z</time></trkpt><trkpt lat="44.6987201" lon="8.8727153"><ele>233.0</ele><time>2026-03-30T14:27:34Z</time></trkpt><trkpt lat="44.6988259" lon="8.8725837"><ele>233.0</ele><time>2026-03-30T14:27:35.148Z</time></trkpt><trkpt lat="44.6989296" lon="8.8724637"><ele>233.0</ele><time>2026-03-30T14:27:36.132Z</time></trkpt><trkpt lat="44.699026" lon="8.8723516"><ele>233.0</ele><time>2026-03-30T14:27:37.15Z</time></trkpt><trkpt lat="44.6991185" lon="8.8722418"><ele>233.0</ele><time>2026-03-30T14:27:38.139Z</time></trkpt><trkpt lat="44.6992726" lon="8.8720346"><ele>233.0</ele><time>2026-03-30T14:27:40Z</time></trkpt><trkpt lat="44.6993175" lon="8.8719304"><ele>233.0</ele><time>2026-03-30T14:27:41.154Z</time></trkpt><trkpt lat="44.6993406" lon="8.8718176"><ele>233.0</ele><time>2026-03-30T14:27:42.144Z</time></trkpt><trkpt lat="44.6993694" lon="8.8717057"><ele>233.0</ele><time>2026-03-30T14:27:43.161Z</time></trkpt><trkpt lat="44.699447" lon="8.871457"><ele>233.0</ele><time>2026-03-30T14:27:44.999Z</time></trkpt><trkpt lat="44.6994877" lon="8.8713232"><ele>232.66666666666669</ele><time>2026-03-30T14:27:46.13Z</time></trkpt><trkpt lat="44.699529" lon="8.8711898"><ele>232.33333333333331</ele><time>2026-03-30T14:27:47.11Z</time></trkpt><trkpt lat="44.6995995" lon="8.8710763"><ele>232.0</ele><time>2026-03-30T14:27:48.163Z</time></trkpt><trkpt lat="44.6997965" lon="8.8708696"><ele>232.0</ele><time>2026-03-30T14:27:50Z</time></trkpt><trkpt lat="44.6999054" lon="8.8707533"><ele>232.0</ele><time>2026-03-30T14:27:51.168Z</time></trkpt><trkpt lat="44.7000122" lon="8.8706524"><ele>232.0</ele><time>2026-03-30T14:27:52.16Z</time></trkpt><trkpt lat="44.7001261" lon="8.8705291"><ele>232.0</ele><time>2026-03-30T14:27:53.147Z</time></trkpt><trkpt lat="44.7003526" lon="8.870292"><ele>231.0</ele><time>2026-03-30T14:27:55Z</time></trkpt><trkpt lat="44.7004665" lon="8.8701859"><ele>230.0</ele><time>2026-03-30T14:27:56.168Z</time></trkpt><trkpt lat="44.7005934" lon="8.8700374"><ele>229.0</ele><time>2026-03-30T14:27:57.165Z</time></trkpt><trkpt lat="44.7007156" lon="8.8699125"><ele>229.0</ele><time>2026-03-30T14:27:58.169Z</time></trkpt><trkpt lat="44.7009592" lon="8.8696795"><ele>229.0</ele><time>2026-03-30T14:28:00Z</time></trkpt><trkpt lat="44.7010839" lon="8.8695553"><ele>229.0</ele><time>2026-03-30T14:28:01Z</time></trkpt><trkpt lat="44.7012017" lon="8.8694244"><ele>229.0</ele><time>2026-03-30T14:28:02.149Z</time></trkpt><trkpt lat="44.7014451" lon="8.8691888"><ele>229.0</ele><time>2026-03-30T14:28:04Z</time></trkpt><trkpt lat="44.7015714" lon="8.8690502"><ele>229.0</ele><time>2026-03-30T14:28:05.171Z</time></trkpt><trkpt lat="44.7016897" lon="8.868935"><ele>229.0</ele><time>2026-03-30T14:28:06.144Z</time></trkpt><trkpt lat="44.7018097" lon="8.8688117"><ele>229.0</ele><time>2026-03-30T14:28:07.154Z</time></trkpt><trkpt lat="44.7019265" lon="8.8686859"><ele>229.0</ele><time>2026-03-30T14:28:08.162Z</time></trkpt><trkpt lat="44.7021651" lon="8.8684284"><ele>228.66666666666666</ele><time>2026-03-30T14:28:10Z</time></trkpt><trkpt lat="44.7022876" lon="8.8683013"><ele>228.33333333333331</ele><time>2026-03-30T14:28:11.201Z</time></trkpt><trkpt lat="44.7025229" lon="8.8680502"><ele>228.0</ele><time>2026-03-30T14:28:13Z</time></trkpt><trkpt lat="44.7026351" lon="8.8679253"><ele>228.0</ele><time>2026-03-30T14:28:14Z</time></trkpt><trkpt lat="44.7027546" lon="8.8678003"><ele>228.0</ele><time>2026-03-30T14:28:15Z</time></trkpt><trkpt lat="44.7028735" lon="8.86768"><ele>228.0</ele><time>2026-03-30T14:28:16.16Z</time></trkpt><trkpt lat="44.7029955" lon="8.867557"><ele>228.0</ele><time>2026-03-30T14:28:17.174Z</time></trkpt><trkpt lat="44.703113" lon="8.8674402"><ele>227.75</ele><time>2026-03-30T14:28:18.173Z</time></trkpt><trkpt lat="44.703231" lon="8.867316"><ele>227.5</ele><time>2026-03-30T14:28:19Z</time></trkpt><trkpt lat="44.703343" lon="8.8671865"><ele>227.25</ele><time>2026-03-30T14:28:20Z</time></trkpt><trkpt lat="44.7034648" lon="8.8670641"><ele>227.0</ele><time>2026-03-30T14:28:21.146Z</time></trkpt><trkpt lat="44.7035832" lon="8.8669454"><ele>227.0</ele><time>2026-03-30T14:28:22.137Z</time></trkpt><trkpt lat="44.7036942" lon="8.8668191"><ele>227.0</ele><time>2026-03-30T14:28:23.125Z</time></trkpt><trkpt lat="44.7039381" lon="8.8665666"><ele>227.0</ele><time>2026-03-30T14:28:25Z</time></trkpt><trkpt lat="44.7040591" lon="8.8664423"><ele>227.33333333333334</ele><time>2026-03-30T14:28:26.121Z</time></trkpt><trkpt lat="44.7041793" lon="8.8663165"><ele>227.66666666666669</ele><time>2026-03-30T14:28:27.124Z</time></trkpt><trkpt lat="44.7043001" lon="8.8661903"><ele>228.0</ele><time>2026-03-30T14:28:28.13Z</time></trkpt><trkpt lat="44.7045401" lon="8.8659388"><ele>228.0</ele><time>2026-03-30T14:28:30Z</time></trkpt><trkpt lat="44.7046596" lon="8.8658197"><ele>228.0</ele><time>2026-03-30T14:28:31.15Z</time></trkpt><trkpt lat="44.704776" lon="8.8657031"><ele>228.0</ele><time>2026-03-30T14:28:32.154Z</time></trkpt><trkpt lat="44.7048894" lon="8.8655876"><ele>228.0</ele><time>2026-03-30T14:28:33.127Z</time></trkpt><trkpt lat="44.7051153" lon="8.8653552"><ele>228.0</ele><time>2026-03-30T14:28:34.999Z</time></trkpt><trkpt lat="44.7052316" lon="8.8652348"><ele>228.0</ele><time>2026-03-30T14:28:35.999Z</time></trkpt><trkpt lat="44.7053473" lon="8.8651143"><ele>228.0</ele><time>2026-03-30T14:28:37Z</time></trkpt><trkpt lat="44.7054677" lon="8.8649934"><ele>228.0</ele><time>2026-03-30T14:28:38Z</time></trkpt><trkpt lat="44.7055871" lon="8.8648675"><ele>227.25</ele><time>2026-03-30T14:28:39Z</time></trkpt><trkpt lat="44.7057071" lon="8.864749"><ele>226.5</ele><time>2026-03-30T14:28:40Z</time></trkpt><trkpt lat="44.7058297" lon="8.8646222"><ele>225.75</ele><time>2026-03-30T14:28:41.129Z</time></trkpt><trkpt lat="44.7059506" lon="8.8645023"><ele>225.0</ele><time>2026-03-30T14:28:42.145Z</time></trkpt><trkpt lat="44.7060722" lon="8.8643824"><ele>224.0</ele><time>2026-03-30T14:28:43.159Z</time></trkpt><trkpt lat="44.7063058" lon="8.8641324"><ele>223.0</ele><time>2026-03-30T14:28:45Z</time></trkpt><trkpt lat="44.7064349" lon="8.8639998"><ele>223.0</ele><time>2026-03-30T14:28:46.161Z</time></trkpt><trkpt lat="44.7065565" lon="8.8638713"><ele>223.0</ele><time>2026-03-30T14:28:47.163Z</time></trkpt><trkpt lat="44.7066752" lon="8.8637456"><ele>223.0</ele><time>2026-03-30T14:28:48.164Z</time></trkpt><trkpt lat="44.7069118" lon="8.8634878"><ele>222.33333333333331</ele><time>2026-03-30T14:28:49.999Z</time></trkpt><trkpt lat="44.7070252" lon="8.8633593"><ele>221.66666666666669</ele><time>2026-03-30T14:28:51.141Z</time></trkpt><trkpt lat="44.7071489" lon="8.8632448"><ele>221.0</ele><time>2026-03-30T14:28:52.129Z</time></trkpt><trkpt lat="44.707289" lon="8.8631224"><ele>221.0</ele><time>2026-03-30T14:28:53.172Z</time></trkpt><trkpt lat="44.7075292" lon="8.8628671"><ele>221.0</ele><time>2026-03-30T14:28:54.999Z</time></trkpt><trkpt lat="44.7076404" lon="8.862748"><ele>221.0</ele><time>2026-03-30T14:28:56.181Z</time></trkpt><trkpt lat="44.7077534" lon="8.8626381"><ele>220.33333333333334</ele><time>2026-03-30T14:28:57.161Z</time></trkpt><trkpt lat="44.7078649" lon="8.8625294"><ele>219.66666666666669</ele><time>2026-03-30T14:28:58.13Z</time></trkpt><trkpt lat="44.7080515" lon="8.8623303"><ele>219.0</ele><time>2026-03-30T14:29:00Z</time></trkpt><trkpt lat="44.7081261" lon="8.8622236"><ele>219.0</ele><time>2026-03-30T14:29:01.183Z</time></trkpt><trkpt lat="44.7082019" lon="8.8621181"><ele>219.0</ele><time>2026-03-30T14:29:02.18Z</time></trkpt><trkpt lat="44.7082901" lon="8.8620222"><ele>219.0</ele><time>2026-03-30T14:29:03.172Z</time></trkpt><trkpt lat="44.7085049" lon="8.8618651"><ele>218.75</ele><time>2026-03-30T14:29:05Z</time></trkpt><trkpt lat="44.7086174" lon="8.8618116"><ele>218.5</ele><time>2026-03-30T14:29:06.179Z</time></trkpt><trkpt lat="44.7087366" lon="8.8617527"><ele>218.25</ele><time>2026-03-30T14:29:07.177Z</time></trkpt><trkpt lat="44.7088507" lon="8.8617057"><ele>218.0</ele><time>2026-03-30T14:29:08.165Z</time></trkpt><trkpt lat="44.7090751" lon="8.8616"><ele>218.66666666666669</ele><time>2026-03-30T14:29:10.191Z</time></trkpt><trkpt lat="44.7093088" lon="8.8615015"><ele>219.33333333333331</ele><time>2026-03-30T14:29:12Z</time></trkpt><trkpt lat="44.709427" lon="8.8614536"><ele>220.0</ele><time>2026-03-30T14:29:13.214Z</time></trkpt><trkpt lat="44.709683" lon="8.8613423"><ele>220.0</ele><time>2026-03-30T14:29:15Z</time></trkpt><trkpt lat="44.7098072" lon="8.8612914"><ele>220.0</ele><time>2026-03-30T14:29:16.128Z</time></trkpt><trkpt lat="44.7099325" lon="8.8612391"><ele>220.0</ele><time>2026-03-30T14:29:17.155Z</time></trkpt><trkpt lat="44.7100511" lon="8.8612005"><ele>220.0</ele><time>2026-03-30T14:29:18.132Z</time></trkpt><trkpt lat="44.710323" lon="8.8611147"><ele>219.75</ele><time>2026-03-30T14:29:20Z</time></trkpt><trkpt lat="44.7104289" lon="8.8610666"><ele>219.5</ele><time>2026-03-30T14:29:21.158Z</time></trkpt><trkpt lat="44.7105379" lon="8.8610251"><ele>219.25</ele><time>2026-03-30T14:29:22.15Z</time></trkpt><trkpt lat="44.7106366" lon="8.8609914"><ele>219.0</ele><time>2026-03-30T14:29:23.131Z</time></trkpt><trkpt lat="44.7108372" lon="8.8609266"><ele>219.66666666666666</ele><time>2026-03-30T14:29:25Z</time></trkpt><trkpt lat="44.7109244" lon="8.8608993"><ele>220.33333333333331</ele><time>2026-03-30T14:29:26.156Z</time></trkpt><trkpt lat="44.7110034" lon="8.8608831"><ele>221.0</ele><time>2026-03-30T14:29:27.154Z</time></trkpt><trkpt lat="44.7110818" lon="8.86088"><ele>221.66666666666666</ele><time>2026-03-30T14:29:28.1Z</time></trkpt><trkpt lat="44.7111748" lon="8.8608907"><ele>222.33333333333331</ele><time>2026-03-30T14:29:29Z</time></trkpt><trkpt lat="44.7112745" lon="8.8608522"><ele>223.0</ele><time>2026-03-30T14:29:31.161Z</time></trkpt><trkpt lat="44.7113167" lon="8.8607465"><ele>223.0</ele><time>2026-03-30T14:29:33.115Z</time></trkpt><trkpt lat="44.7112724" lon="8.8606263"><ele>223.0</ele><time>2026-03-30T14:29:35Z</time></trkpt><trkpt lat="44.7112058" lon="8.8605883"><ele>223.0</ele><time>2026-03-30T14:29:36.128Z</time></trkpt><trkpt lat="44.7111391" lon="8.8605512"><ele>223.0</ele><time>2026-03-30T14:29:37.162Z</time></trkpt><trkpt lat="44.7110686" lon="8.8605352"><ele>223.0</ele><time>2026-03-30T14:29:38.159Z</time></trkpt><trkpt lat="44.7108869" lon="8.8604535"><ele>223.0</ele><time>2026-03-30T14:29:40Z</time></trkpt><trkpt lat="44.7107778" lon="8.8603894"><ele>223.0</ele><time>2026-03-30T14:29:41.176Z</time></trkpt><trkpt lat="44.7106654" lon="8.8603204"><ele>223.0</ele><time>2026-03-30T14:29:42.142Z</time></trkpt><trkpt lat="44.7105628" lon="8.8602474"><ele>223.0</ele><time>2026-03-30T14:29:43.157Z</time></trkpt><trkpt lat="44.710371" lon="8.8600889"><ele>225.0</ele><time>2026-03-30T14:29:45Z</time></trkpt><trkpt lat="44.7102784" lon="8.8600127"><ele>227.0</ele><time>2026-03-30T14:29:46.176Z</time></trkpt><trkpt lat="44.7101739" lon="8.8599457"><ele>229.0</ele><time>2026-03-30T14:29:47.163Z</time></trkpt><trkpt lat="44.7100714" lon="8.8598749"><ele>231.0</ele><time>2026-03-30T14:29:48.172Z</time></trkpt><trkpt lat="44.7098667" lon="8.8597333"><ele>231.0</ele><time>2026-03-30T14:29:50Z</time></trkpt><trkpt lat="44.7097589" lon="8.8596565"><ele>231.0</ele><time>2026-03-30T14:29:51.178Z</time></trkpt><trkpt lat="44.7096501" lon="8.8595964"><ele>231.0</ele><time>2026-03-30T14:29:52.15Z</time></trkpt><trkpt lat="44.7095367" lon="8.8595378"><ele>231.0</ele><time>2026-03-30T14:29:53.179Z</time></trkpt><trkpt lat="44.7093038" lon="8.8594062"><ele>229.5</ele><time>2026-03-30T14:29:55Z</time></trkpt><trkpt lat="44.7091831" lon="8.8593396"><ele>228.0</ele><time>2026-03-30T14:29:56.176Z</time></trkpt><trkpt lat="44.709059" lon="8.8592705"><ele>226.5</ele><time>2026-03-30T14:29:57.167Z</time></trkpt><trkpt lat="44.7089382" lon="8.8592025"><ele>225.0</ele><time>2026-03-30T14:29:58.149Z</time></trkpt><trkpt lat="44.708703" lon="8.859071"><ele>228.25</ele><time>2026-03-30T14:30:00Z</time></trkpt><trkpt lat="44.708581" lon="8.8589945"><ele>231.5</ele><time>2026-03-30T14:30:01.185Z</time></trkpt><trkpt lat="44.7084585" lon="8.8589261"><ele>234.75</ele><time>2026-03-30T14:30:02.156Z</time></trkpt><trkpt lat="44.7083319" lon="8.8588566"><ele>238.0</ele><time>2026-03-30T14:30:03.149Z</time></trkpt><trkpt lat="44.7080698" lon="8.8587078"><ele>238.0</ele><time>2026-03-30T14:30:04.999Z</time></trkpt><trkpt lat="44.7079392" lon="8.8586293"><ele>238.0</ele><time>2026-03-30T14:30:06.187Z</time></trkpt><trkpt lat="44.7078057" lon="8.8585522"><ele>238.0</ele><time>2026-03-30T14:30:07.12Z</time></trkpt><trkpt lat="44.7076771" lon="8.8584697"><ele>238.0</ele><time>2026-03-30T14:30:08.157Z</time></trkpt><trkpt lat="44.7074232" lon="8.8582978"><ele>238.5</ele><time>2026-03-30T14:30:10Z</time></trkpt><trkpt lat="44.7072965" lon="8.8582141"><ele>239.0</ele><time>2026-03-30T14:30:11.156Z</time></trkpt><trkpt lat="44.7071692" lon="8.8581351"><ele>239.5</ele><time>2026-03-30T14:30:12.132Z</time></trkpt><trkpt lat="44.7070447" lon="8.8580522"><ele>240.0</ele><time>2026-03-30T14:30:13.137Z</time></trkpt><trkpt lat="44.706773" lon="8.8578722"><ele>240.0</ele><time>2026-03-30T14:30:14.999Z</time></trkpt><trkpt lat="44.7066527" lon="8.8577727"><ele>240.0</ele><time>2026-03-30T14:30:16.16Z</time></trkpt><trkpt lat="44.706376" lon="8.8575859"><ele>240.0</ele><time>2026-03-30T14:30:18Z</time></trkpt><trkpt lat="44.7062405" lon="8.8575007"><ele>242.33333333333331</ele><time>2026-03-30T14:30:19Z</time></trkpt><trkpt lat="44.7060936" lon="8.8574082"><ele>244.66666666666666</ele><time>2026-03-30T14:30:19.999Z</time></trkpt><trkpt lat="44.7059519" lon="8.8573237"><ele>247.0</ele><time>2026-03-30T14:30:21Z</time></trkpt><trkpt lat="44.7058102" lon="8.8572317"><ele>247.0</ele><time>2026-03-30T14:30:22.159Z</time></trkpt><trkpt lat="44.7056676" lon="8.8571339"><ele>247.0</ele><time>2026-03-30T14:30:23.154Z</time></trkpt><trkpt lat="44.7055262" lon="8.8570242"><ele>247.0</ele><time>2026-03-30T14:30:24Z</time></trkpt><trkpt lat="44.7053942" lon="8.8569062"><ele>250.0</ele><time>2026-03-30T14:30:25Z</time></trkpt><trkpt lat="44.7052616" lon="8.8567798"><ele>253.0</ele><time>2026-03-30T14:30:26.153Z</time></trkpt><trkpt lat="44.7049935" lon="8.856548"><ele>253.0</ele><time>2026-03-30T14:30:28.132Z</time></trkpt><trkpt lat="44.7047143" lon="8.8563707"><ele>253.0</ele><time>2026-03-30T14:30:30Z</time></trkpt><trkpt lat="44.7045706" lon="8.8562954"><ele>253.0</ele><time>2026-03-30T14:30:31.159Z</time></trkpt><trkpt lat="44.7044242" lon="8.8562324"><ele>253.0</ele><time>2026-03-30T14:30:32.151Z</time></trkpt><trkpt lat="44.7042799" lon="8.8561837"><ele>253.0</ele><time>2026-03-30T14:30:33.125Z</time></trkpt><trkpt lat="44.7039941" lon="8.8560991"><ele>251.66666666666666</ele><time>2026-03-30T14:30:34.999Z</time></trkpt><trkpt lat="44.7038501" lon="8.8560613"><ele>250.33333333333331</ele><time>2026-03-30T14:30:36.186Z</time></trkpt><trkpt lat="44.7035667" lon="8.8559629"><ele>249.0</ele><time>2026-03-30T14:30:38.161Z</time></trkpt><trkpt lat="44.7032717" lon="8.8558382"><ele>252.5</ele><time>2026-03-30T14:30:40Z</time></trkpt><trkpt lat="44.7031409" lon="8.8557489"><ele>256.0</ele><time>2026-03-30T14:30:41.139Z</time></trkpt><trkpt lat="44.7030293" lon="8.855634"><ele>259.5</ele><time>2026-03-30T14:30:42.178Z</time></trkpt><trkpt lat="44.7029393" lon="8.8554815"><ele>263.0</ele><time>2026-03-30T14:30:43.149Z</time></trkpt><trkpt lat="44.7028156" lon="8.8551315"><ele>263.25</ele><time>2026-03-30T14:30:45Z</time></trkpt><trkpt lat="44.7027798" lon="8.8550193"><ele>263.5</ele><time>2026-03-30T14:30:46.106Z</time></trkpt><trkpt lat="44.7027087" lon="8.8547675"><ele>263.75</ele><time>2026-03-30T14:30:47.172Z</time></trkpt><trkpt lat="44.702653" lon="8.8545804"><ele>264.0</ele><time>2026-03-30T14:30:48.173Z</time></trkpt><trkpt lat="44.7026012" lon="8.8544096"><ele>265.25</ele><time>2026-03-30T14:30:49Z</time></trkpt><trkpt lat="44.7025482" lon="8.8542523"><ele>266.5</ele><time>2026-03-30T14:30:50Z</time></trkpt><trkpt lat="44.7024785" lon="8.85405"><ele>267.75</ele><time>2026-03-30T14:30:51.149Z</time></trkpt><trkpt lat="44.7024061" lon="8.8538659"><ele>269.0</ele><time>2026-03-30T14:30:52.181Z</time></trkpt><trkpt lat="44.7022493" lon="8.8535643"><ele>271.0</ele><time>2026-03-30T14:30:53.999Z</time></trkpt><trkpt lat="44.7021545" lon="8.8534381"><ele>273.0</ele><time>2026-03-30T14:30:55.185Z</time></trkpt><trkpt lat="44.7020505" lon="8.8533264"><ele>275.0</ele><time>2026-03-30T14:30:56.171Z</time></trkpt><trkpt lat="44.7019409" lon="8.8532101"><ele>277.0</ele><time>2026-03-30T14:30:57.185Z</time></trkpt><trkpt lat="44.7018364" lon="8.853116"><ele>284.5</ele><time>2026-03-30T14:30:58.179Z</time></trkpt><trkpt lat="44.7019117" lon="8.8532295"><ele>292.0</ele><time>2026-03-30T14:31:10.511Z</time></trkpt><trkpt lat="44.7004027" lon="8.8526757"><ele>302.0</ele><time>2026-03-30T14:31:14.999Z</time></trkpt><trkpt lat="44.7003325" lon="8.8517567"><ele>302.0</ele><time>2026-03-30T14:31:16Z</time></trkpt><trkpt lat="44.7002723" lon="8.8513332"><ele>302.0</ele><time>2026-03-30T14:31:17Z</time></trkpt><trkpt lat="44.7002302" lon="8.8510267"><ele>295.33333333333337</ele><time>2026-03-30T14:31:18Z</time></trkpt><trkpt lat="44.7001773" lon="8.8507337"><ele>288.6666666666667</ele><time>2026-03-30T14:31:19Z</time></trkpt><trkpt lat="44.7001188" lon="8.8504703"><ele>282.0</ele><time>2026-03-30T14:31:20Z</time></trkpt><trkpt lat="44.7000594" lon="8.8502192"><ele>277.0</ele><time>2026-03-30T14:31:21Z</time></trkpt><trkpt lat="44.6998942" lon="8.8495118"><ele>277.3333333333333</ele><time>2026-03-30T14:31:24Z</time></trkpt><trkpt lat="44.6998365" lon="8.8492772"><ele>277.6666666666667</ele><time>2026-03-30T14:31:25.156Z</time></trkpt><trkpt lat="44.6997793" lon="8.8490401"><ele>278.0</ele><time>2026-03-30T14:31:26.153Z</time></trkpt><trkpt lat="44.6996403" lon="8.848578"><ele>280.0</ele><time>2026-03-30T14:31:28Z</time></trkpt><trkpt lat="44.6995551" lon="8.8483791"><ele>282.0</ele><time>2026-03-30T14:31:29.161Z</time></trkpt><trkpt lat="44.6994576" lon="8.8481911"><ele>284.0</ele><time>2026-03-30T14:31:30.139Z</time></trkpt><trkpt lat="44.6993497" lon="8.848007"><ele>278.5</ele><time>2026-03-30T14:31:31.147Z</time></trkpt><trkpt lat="44.6992436" lon="8.8478085"><ele>273.0</ele><time>2026-03-30T14:31:32.131Z</time></trkpt><trkpt lat="44.6990205" lon="8.8474691"><ele>273.0</ele><time>2026-03-30T14:31:34Z</time></trkpt><trkpt lat="44.6989096" lon="8.8472928"><ele>273.0</ele><time>2026-03-30T14:31:35.161Z</time></trkpt><trkpt lat="44.6988119" lon="8.8471113"><ele>273.0</ele><time>2026-03-30T14:31:36.144Z</time></trkpt><trkpt lat="44.6987139" lon="8.8469151"><ele>269.0</ele><time>2026-03-30T14:31:37.137Z</time></trkpt><trkpt lat="44.698521" lon="8.8465179"><ele>265.0</ele><time>2026-03-30T14:31:38.999Z</time></trkpt><trkpt lat="44.6984258" lon="8.8463243"><ele>265.0</ele><time>2026-03-30T14:31:40.161Z</time></trkpt><trkpt lat="44.6983403" lon="8.846127"><ele>265.0</ele><time>2026-03-30T14:31:41.165Z</time></trkpt><trkpt lat="44.6982582" lon="8.8459318"><ele>265.0</ele><time>2026-03-30T14:31:42.171Z</time></trkpt><trkpt lat="44.6981317" lon="8.8455095"><ele>264.66666666666663</ele><time>2026-03-30T14:31:44Z</time></trkpt><trkpt lat="44.6980871" lon="8.8452903"><ele>264.3333333333333</ele><time>2026-03-30T14:31:45.144Z</time></trkpt><trkpt lat="44.6980474" lon="8.8450694"><ele>264.0</ele><time>2026-03-30T14:31:46.173Z</time></trkpt><trkpt lat="44.698013" lon="8.8448542"><ele>264.0</ele><time>2026-03-30T14:31:47.156Z</time></trkpt><trkpt lat="44.6979665" lon="8.8446301"><ele>264.0</ele><time>2026-03-30T14:31:48Z</time></trkpt><trkpt lat="44.6979065" lon="8.8444215"><ele>264.0</ele><time>2026-03-30T14:31:49Z</time></trkpt><trkpt lat="44.6978291" lon="8.8442118"><ele>262.6666666666667</ele><time>2026-03-30T14:31:50.179Z</time></trkpt><trkpt lat="44.6977388" lon="8.8440136"><ele>261.33333333333337</ele><time>2026-03-30T14:31:51.135Z</time></trkpt><trkpt lat="44.6976304" lon="8.843819"><ele>260.0</ele><time>2026-03-30T14:31:52.146Z</time></trkpt><trkpt lat="44.6974065" lon="8.8434576"><ele>264.5</ele><time>2026-03-30T14:31:53.999Z</time></trkpt><trkpt lat="44.6973008" lon="8.8432745"><ele>269.0</ele><time>2026-03-30T14:31:55.172Z</time></trkpt><trkpt lat="44.6970882" lon="8.8429334"><ele>269.0</ele><time>2026-03-30T14:31:57Z</time></trkpt><trkpt lat="44.6969809" lon="8.8427593"><ele>269.0</ele><time>2026-03-30T14:31:58Z</time></trkpt><trkpt lat="44.696873" lon="8.8425805"><ele>269.0</ele><time>2026-03-30T14:31:59.119Z</time></trkpt><trkpt lat="44.6967651" lon="8.842403"><ele>262.5</ele><time>2026-03-30T14:32:00.169Z</time></trkpt><trkpt lat="44.6965571" lon="8.8420468"><ele>256.0</ele><time>2026-03-30T14:32:02Z</time></trkpt><trkpt lat="44.6964466" lon="8.841859"><ele>259.3333333333333</ele><time>2026-03-30T14:32:03Z</time></trkpt><trkpt lat="44.6963394" lon="8.8416783"><ele>262.6666666666667</ele><time>2026-03-30T14:32:04Z</time></trkpt><trkpt lat="44.6962266" lon="8.8414901"><ele>266.0</ele><time>2026-03-30T14:32:05.121Z</time></trkpt><trkpt lat="44.6961119" lon="8.8413169"><ele>259.0</ele><time>2026-03-30T14:32:06.105Z</time></trkpt><trkpt lat="44.6958725" lon="8.8409719"><ele>252.0</ele><time>2026-03-30T14:32:08Z</time></trkpt><trkpt lat="44.6957542" lon="8.840807"><ele>252.0</ele><time>2026-03-30T14:32:09Z</time></trkpt><trkpt lat="44.6956301" lon="8.8406344"><ele>252.0</ele><time>2026-03-30T14:32:09.999Z</time></trkpt><trkpt lat="44.6955114" lon="8.8404774"><ele>252.0</ele><time>2026-03-30T14:32:11Z</time></trkpt><trkpt lat="44.6953887" lon="8.8403263"><ele>252.0</ele><time>2026-03-30T14:32:12Z</time></trkpt><trkpt lat="44.6952687" lon="8.840176"><ele>252.0</ele><time>2026-03-30T14:32:13Z</time></trkpt><trkpt lat="44.6951457" lon="8.8400294"><ele>252.0</ele><time>2026-03-30T14:32:14Z</time></trkpt><trkpt lat="44.695026" lon="8.8398867"><ele>250.75</ele><time>2026-03-30T14:32:15Z</time></trkpt><trkpt lat="44.6949127" lon="8.8397561"><ele>249.5</ele><time>2026-03-30T14:32:16Z</time></trkpt><trkpt lat="44.6947963" lon="8.8396264"><ele>248.25</ele><time>2026-03-30T14:32:17Z</time></trkpt><trkpt lat="44.6946873" lon="8.8395016"><ele>247.0</ele><time>2026-03-30T14:32:18Z</time></trkpt><trkpt lat="44.6945805" lon="8.8393791"><ele>245.5</ele><time>2026-03-30T14:32:19.172Z</time></trkpt><trkpt lat="44.6943668" lon="8.8391354"><ele>244.0</ele><time>2026-03-30T14:32:21.182Z</time></trkpt><trkpt lat="44.6941559" lon="8.8388812"><ele>244.0</ele><time>2026-03-30T14:32:22.999Z</time></trkpt><trkpt lat="44.6940368" lon="8.8387428"><ele>244.0</ele><time>2026-03-30T14:32:24Z</time></trkpt><trkpt lat="44.6939152" lon="8.8386084"><ele>244.0</ele><time>2026-03-30T14:32:25.196Z</time></trkpt><trkpt lat="44.6937964" lon="8.838475"><ele>244.66666666666666</ele><time>2026-03-30T14:32:26.155Z</time></trkpt><trkpt lat="44.6936801" lon="8.8383442"><ele>245.33333333333331</ele><time>2026-03-30T14:32:27.123Z</time></trkpt><trkpt lat="44.6934682" lon="8.8380567"><ele>246.0</ele><time>2026-03-30T14:32:29Z</time></trkpt><trkpt lat="44.693376" lon="8.8378942"><ele>246.0</ele><time>2026-03-30T14:32:30.144Z</time></trkpt><trkpt lat="44.6932971" lon="8.8377215"><ele>246.0</ele><time>2026-03-30T14:32:31.155Z</time></trkpt><trkpt lat="44.6932275" lon="8.8375382"><ele>246.0</ele><time>2026-03-30T14:32:32.134Z</time></trkpt><trkpt lat="44.6931376" lon="8.8371761"><ele>245.5</ele><time>2026-03-30T14:32:33.999Z</time></trkpt><trkpt lat="44.6930989" lon="8.8369868"><ele>245.0</ele><time>2026-03-30T14:32:35Z</time></trkpt><trkpt lat="44.6930598" lon="8.8367946"><ele>244.5</ele><time>2026-03-30T14:32:36Z</time></trkpt><trkpt lat="44.6930263" lon="8.8366122"><ele>244.0</ele><time>2026-03-30T14:32:37Z</time></trkpt><trkpt lat="44.6929929" lon="8.8364323"><ele>244.0</ele><time>2026-03-30T14:32:37.999Z</time></trkpt><trkpt lat="44.6929593" lon="8.8362474"><ele>244.0</ele><time>2026-03-30T14:32:39Z</time></trkpt><trkpt lat="44.6929299" lon="8.8360495"><ele>244.0</ele><time>2026-03-30T14:32:40.16Z</time></trkpt><trkpt lat="44.692897" lon="8.8358583"><ele>244.0</ele><time>2026-03-30T14:32:41.148Z</time></trkpt><trkpt lat="44.6928661" lon="8.8356701"><ele>244.0</ele><time>2026-03-30T14:32:42.149Z</time></trkpt><trkpt lat="44.6928076" lon="8.8352835"><ele>244.0</ele><time>2026-03-30T14:32:44Z</time></trkpt><trkpt lat="44.6927756" lon="8.8350974"><ele>244.0</ele><time>2026-03-30T14:32:45.153Z</time></trkpt><trkpt lat="44.6927447" lon="8.8349057"><ele>244.0</ele><time>2026-03-30T14:32:46.159Z</time></trkpt><trkpt lat="44.6927145" lon="8.8347159"><ele>244.0</ele><time>2026-03-30T14:32:47.17Z</time></trkpt><trkpt lat="44.6926526" lon="8.8343276"><ele>244.0</ele><time>2026-03-30T14:32:49Z</time></trkpt><trkpt lat="44.6926214" lon="8.8341325"><ele>244.0</ele><time>2026-03-30T14:32:50.162Z</time></trkpt><trkpt lat="44.6925907" lon="8.8339417"><ele>244.0</ele><time>2026-03-30T14:32:51.152Z</time></trkpt><trkpt lat="44.6925582" lon="8.8337541"><ele>244.0</ele><time>2026-03-30T14:32:52.145Z</time></trkpt><trkpt lat="44.6924938" lon="8.8333885"><ele>243.75</ele><time>2026-03-30T14:32:54Z</time></trkpt><trkpt lat="44.6924604" lon="8.8332086"><ele>243.5</ele><time>2026-03-30T14:32:55.142Z</time></trkpt><trkpt lat="44.6924278" lon="8.8330204"><ele>243.25</ele><time>2026-03-30T14:32:56.174Z</time></trkpt><trkpt lat="44.6923977" lon="8.8328345"><ele>243.0</ele><time>2026-03-30T14:32:57.164Z</time></trkpt><trkpt lat="44.6923337" lon="8.8324668"><ele>243.0</ele><time>2026-03-30T14:32:59Z</time></trkpt><trkpt lat="44.6923017" lon="8.8322868"><ele>243.0</ele><time>2026-03-30T14:33:00.173Z</time></trkpt><trkpt lat="44.6922705" lon="8.8321026"><ele>243.0</ele><time>2026-03-30T14:33:01.174Z</time></trkpt><trkpt lat="44.6922395" lon="8.8319185"><ele>243.0</ele><time>2026-03-30T14:33:02.163Z</time></trkpt><trkpt lat="44.6921852" lon="8.8315553"><ele>242.5</ele><time>2026-03-30T14:33:04Z</time></trkpt><trkpt lat="44.6921604" lon="8.8314063"><ele>242.0</ele><time>2026-03-30T14:33:05.176Z</time></trkpt><trkpt lat="44.692138" lon="8.831263"><ele>241.5</ele><time>2026-03-30T14:33:06.17Z</time></trkpt><trkpt lat="44.6921163" lon="8.8311211"><ele>241.0</ele><time>2026-03-30T14:33:07.123Z</time></trkpt><trkpt lat="44.6920765" lon="8.8308706"><ele>240.33333333333331</ele><time>2026-03-30T14:33:09Z</time></trkpt><trkpt lat="44.6920558" lon="8.8307417"><ele>239.66666666666669</ele><time>2026-03-30T14:33:10Z</time></trkpt><trkpt lat="44.6920133" lon="8.8304823"><ele>239.0</ele><time>2026-03-30T14:33:12.178Z</time></trkpt><trkpt lat="44.6919747" lon="8.8302334"><ele>239.0</ele><time>2026-03-30T14:33:14Z</time></trkpt><trkpt lat="44.6919557" lon="8.8300846"><ele>239.0</ele><time>2026-03-30T14:33:15.192Z</time></trkpt><trkpt lat="44.6919376" lon="8.8299357"><ele>239.0</ele><time>2026-03-30T14:33:16.149Z</time></trkpt><trkpt lat="44.6919194" lon="8.8297757"><ele>239.0</ele><time>2026-03-30T14:33:17.187Z</time></trkpt><trkpt lat="44.6918926" lon="8.829451"><ele>239.25</ele><time>2026-03-30T14:33:19Z</time></trkpt><trkpt lat="44.6918688" lon="8.8292502"><ele>239.5</ele><time>2026-03-30T14:33:20.201Z</time></trkpt><trkpt lat="44.691851" lon="8.8290614"><ele>239.75</ele><time>2026-03-30T14:33:21.168Z</time></trkpt><trkpt lat="44.6918339" lon="8.8288615"><ele>240.0</ele><time>2026-03-30T14:33:22.153Z</time></trkpt><trkpt lat="44.6918034" lon="8.8284343"><ele>241.0</ele><time>2026-03-30T14:33:24Z</time></trkpt><trkpt lat="44.6917867" lon="8.828212"><ele>242.0</ele><time>2026-03-30T14:33:25.146Z</time></trkpt><trkpt lat="44.691745" lon="8.8277498"><ele>241.5</ele><time>2026-03-30T14:33:27.156Z</time></trkpt><trkpt lat="44.6916821" lon="8.8273095"><ele>241.0</ele><time>2026-03-30T14:33:29Z</time></trkpt><trkpt lat="44.6916527" lon="8.8270961"><ele>241.0</ele><time>2026-03-30T14:33:30.119Z</time></trkpt><trkpt lat="44.6916224" lon="8.8268864"><ele>241.0</ele><time>2026-03-30T14:33:31.16Z</time></trkpt><trkpt lat="44.6915924" lon="8.8266844"><ele>241.0</ele><time>2026-03-30T14:33:32.154Z</time></trkpt><trkpt lat="44.6915339" lon="8.8262807"><ele>240.5</ele><time>2026-03-30T14:33:34Z</time></trkpt><trkpt lat="44.6915041" lon="8.8260842"><ele>240.0</ele><time>2026-03-30T14:33:35Z</time></trkpt><trkpt lat="44.6914724" lon="8.8258933"><ele>239.5</ele><time>2026-03-30T14:33:36Z</time></trkpt><trkpt lat="44.6914396" lon="8.8257068"><ele>239.0</ele><time>2026-03-30T14:33:37Z</time></trkpt><trkpt lat="44.6914104" lon="8.8255373"><ele>239.0</ele><time>2026-03-30T14:33:38Z</time></trkpt><trkpt lat="44.6913885" lon="8.8253948"><ele>238.99999999999997</ele><time>2026-03-30T14:33:39Z</time></trkpt><trkpt lat="44.6913693" lon="8.8252666"><ele>238.99999999999997</ele><time>2026-03-30T14:33:40.169Z</time></trkpt><trkpt lat="44.6913545" lon="8.8251468"><ele>239.0</ele><time>2026-03-30T14:33:41.125Z</time></trkpt><trkpt lat="44.6913608" lon="8.8250359"><ele>239.0</ele><time>2026-03-30T14:33:42.128Z</time></trkpt><trkpt lat="44.6913949" lon="8.8247648"><ele>238.75</ele><time>2026-03-30T14:33:44Z</time></trkpt><trkpt lat="44.6913968" lon="8.8246689"><ele>238.5</ele><time>2026-03-30T14:33:45.136Z</time></trkpt><trkpt lat="44.6913417" lon="8.8244985"><ele>238.25</ele><time>2026-03-30T14:33:47.16Z</time></trkpt><trkpt lat="44.6912422" lon="8.8242915"><ele>238.0</ele><time>2026-03-30T14:33:49Z</time></trkpt><trkpt lat="44.6912027" lon="8.8241534"><ele>237.66666666666666</ele><time>2026-03-30T14:33:50.157Z</time></trkpt><trkpt lat="44.6911718" lon="8.823992"><ele>237.33333333333331</ele><time>2026-03-30T14:33:51.166Z</time></trkpt><trkpt lat="44.6911447" lon="8.8238244"><ele>237.0</ele><time>2026-03-30T14:33:52.159Z</time></trkpt><trkpt lat="44.6910896" lon="8.8234543"><ele>238.33333333333331</ele><time>2026-03-30T14:33:54Z</time></trkpt><trkpt lat="44.6910612" lon="8.8232609"><ele>239.66666666666666</ele><time>2026-03-30T14:33:55.139Z</time></trkpt><trkpt lat="44.691002" lon="8.8228422"><ele>241.0</ele><time>2026-03-30T14:33:57Z</time></trkpt><trkpt lat="44.6909735" lon="8.8226299"><ele>241.0</ele><time>2026-03-30T14:33:58Z</time></trkpt><trkpt lat="44.6909441" lon="8.8224125"><ele>241.0</ele><time>2026-03-30T14:33:59Z</time></trkpt><trkpt lat="44.690917" lon="8.8221945"><ele>241.0</ele><time>2026-03-30T14:34:00.138Z</time></trkpt><trkpt lat="44.6908872" lon="8.8219705"><ele>239.0</ele><time>2026-03-30T14:34:01.134Z</time></trkpt><trkpt lat="44.690854" lon="8.8217321"><ele>237.0</ele><time>2026-03-30T14:34:02.167Z</time></trkpt><trkpt lat="44.6907898" lon="8.8213116"><ele>237.0</ele><time>2026-03-30T14:34:04Z</time></trkpt><trkpt lat="44.6907651" lon="8.8211164"><ele>237.0</ele><time>2026-03-30T14:34:05.14Z</time></trkpt><trkpt lat="44.6907384" lon="8.8209016"><ele>237.0</ele><time>2026-03-30T14:34:06.173Z</time></trkpt><trkpt lat="44.6907133" lon="8.8206977"><ele>237.0</ele><time>2026-03-30T14:34:07.141Z</time></trkpt><trkpt lat="44.6906656" lon="8.8203173"><ele>237.5</ele><time>2026-03-30T14:34:09Z</time></trkpt><trkpt lat="44.6906426" lon="8.8201276"><ele>238.0</ele><time>2026-03-30T14:34:10.145Z</time></trkpt><trkpt lat="44.690622" lon="8.8199455"><ele>238.5</ele><time>2026-03-30T14:34:11.191Z</time></trkpt><trkpt lat="44.690603" lon="8.8197782"><ele>239.0</ele><time>2026-03-30T14:34:12.146Z</time></trkpt><trkpt lat="44.690572" lon="8.8194476"><ele>238.75</ele><time>2026-03-30T14:34:14Z</time></trkpt><trkpt lat="44.6905558" lon="8.8192887"><ele>238.5</ele><time>2026-03-30T14:34:15.157Z</time></trkpt><trkpt lat="44.6905424" lon="8.8191352"><ele>238.25</ele><time>2026-03-30T14:34:16.126Z</time></trkpt><trkpt lat="44.6905101" lon="8.8188493"><ele>238.0</ele><time>2026-03-30T14:34:18Z</time></trkpt><trkpt lat="44.6904951" lon="8.8187137"><ele>238.0</ele><time>2026-03-30T14:34:19.152Z</time></trkpt><trkpt lat="44.6904821" lon="8.818583"><ele>238.0</ele><time>2026-03-30T14:34:20.15Z</time></trkpt><trkpt lat="44.6904691" lon="8.8184702"><ele>238.0</ele><time>2026-03-30T14:34:21.15Z</time></trkpt><trkpt lat="44.6904586" lon="8.8183591"><ele>238.0</ele><time>2026-03-30T14:34:22.155Z</time></trkpt><trkpt lat="44.6904082" lon="8.8181607"><ele>238.0</ele><time>2026-03-30T14:34:24Z</time></trkpt><trkpt lat="44.690311" lon="8.8181246"><ele>239.0</ele><time>2026-03-30T14:34:26.14Z</time></trkpt><trkpt lat="44.6902371" lon="8.8181534"><ele>240.0</ele><time>2026-03-30T14:34:27.147Z</time></trkpt><trkpt lat="44.6900881" lon="8.8182546"><ele>241.0</ele><time>2026-03-30T14:34:29Z</time></trkpt><trkpt lat="44.6900002" lon="8.8183055"><ele>242.0</ele><time>2026-03-30T14:34:30Z</time></trkpt><trkpt lat="44.689895" lon="8.8183524"><ele>243.0</ele><time>2026-03-30T14:34:31.152Z</time></trkpt><trkpt lat="44.6897855" lon="8.8183728"><ele>243.0</ele><time>2026-03-30T14:34:32.103Z</time></trkpt><trkpt lat="44.6895561" lon="8.8184027"><ele>243.0</ele><time>2026-03-30T14:34:34Z</time></trkpt><trkpt lat="44.689434" lon="8.8184145"><ele>243.0</ele><time>2026-03-30T14:34:35.125Z</time></trkpt><trkpt lat="44.6893107" lon="8.8184248"><ele>244.33333333333331</ele><time>2026-03-30T14:34:36.126Z</time></trkpt><trkpt lat="44.6891846" lon="8.8184403"><ele>245.66666666666666</ele><time>2026-03-30T14:34:37.16Z</time></trkpt><trkpt lat="44.6889263" lon="8.8184735"><ele>247.0</ele><time>2026-03-30T14:34:38.999Z</time></trkpt><trkpt lat="44.6887878" lon="8.8184897"><ele>247.0</ele><time>2026-03-30T14:34:40Z</time></trkpt><trkpt lat="44.6886496" lon="8.8185085"><ele>247.0</ele><time>2026-03-30T14:34:41.119Z</time></trkpt><trkpt lat="44.6885129" lon="8.8185242"><ele>247.0</ele><time>2026-03-30T14:34:42.161Z</time></trkpt><trkpt lat="44.6882103" lon="8.8185648"><ele>249.0</ele><time>2026-03-30T14:34:44Z</time></trkpt><trkpt lat="44.6880529" lon="8.8185778"><ele>251.0</ele><time>2026-03-30T14:34:45Z</time></trkpt><trkpt lat="44.6878935" lon="8.8185867"><ele>253.0</ele><time>2026-03-30T14:34:46Z</time></trkpt><trkpt lat="44.6877348" lon="8.8185911"><ele>256.0</ele><time>2026-03-30T14:34:47Z</time></trkpt><trkpt lat="44.6875736" lon="8.8185905"><ele>259.0</ele><time>2026-03-30T14:34:48Z</time></trkpt><trkpt lat="44.6874083" lon="8.8185738"><ele>262.0</ele><time>2026-03-30T14:34:49Z</time></trkpt><trkpt lat="44.6872467" lon="8.8185438"><ele>262.0</ele><time>2026-03-30T14:34:50Z</time></trkpt><trkpt lat="44.6870827" lon="8.8185089"><ele>262.0</ele><time>2026-03-30T14:34:51.132Z</time></trkpt><trkpt lat="44.6867698" lon="8.8184084"><ele>259.3333333333333</ele><time>2026-03-30T14:34:52.999Z</time></trkpt><trkpt lat="44.6866068" lon="8.8183397"><ele>256.6666666666667</ele><time>2026-03-30T14:34:54Z</time></trkpt><trkpt lat="44.6864571" lon="8.8182639"><ele>254.0</ele><time>2026-03-30T14:34:55Z</time></trkpt><trkpt lat="44.6863011" lon="8.8181868"><ele>254.0</ele><time>2026-03-30T14:34:56Z</time></trkpt><trkpt lat="44.6861496" lon="8.8180887"><ele>254.0</ele><time>2026-03-30T14:34:57Z</time></trkpt><trkpt lat="44.686007" lon="8.8179801"><ele>254.0</ele><time>2026-03-30T14:34:58Z</time></trkpt><trkpt lat="44.6858674" lon="8.8178682"><ele>256.6666666666667</ele><time>2026-03-30T14:34:58.999Z</time></trkpt><trkpt lat="44.6857291" lon="8.8177543"><ele>259.3333333333333</ele><time>2026-03-30T14:35:00Z</time></trkpt><trkpt lat="44.6855949" lon="8.8176328"><ele>262.0</ele><time>2026-03-30T14:35:01Z</time></trkpt><trkpt lat="44.6854549" lon="8.8175134"><ele>262.0</ele><time>2026-03-30T14:35:02Z</time></trkpt><trkpt lat="44.6853121" lon="8.8174042"><ele>262.0</ele><time>2026-03-30T14:35:03Z</time></trkpt><trkpt lat="44.6851707" lon="8.8172856"><ele>262.0</ele><time>2026-03-30T14:35:04Z</time></trkpt><trkpt lat="44.6850294" lon="8.817166"><ele>265.3333333333333</ele><time>2026-03-30T14:35:05Z</time></trkpt><trkpt lat="44.6848856" lon="8.8170389"><ele>268.6666666666667</ele><time>2026-03-30T14:35:05.999Z</time></trkpt><trkpt lat="44.6847435" lon="8.8169251"><ele>272.0</ele><time>2026-03-30T14:35:07Z</time></trkpt><trkpt lat="44.6845979" lon="8.816818"><ele>227.0</ele><time>2026-03-30T14:35:08Z</time></trkpt><trkpt lat="44.6805678" lon="8.8120777"><ele>227.0</ele><time>2026-03-30T14:35:40Z</time></trkpt><trkpt lat="44.6805051" lon="8.8119094"><ele>227.0</ele><time>2026-03-30T14:35:41Z</time></trkpt><trkpt lat="44.6804474" lon="8.8117647"><ele>227.0</ele><time>2026-03-30T14:35:43Z</time></trkpt><trkpt lat="44.6804054" lon="8.8116237"><ele>227.0</ele><time>2026-03-30T14:35:45Z</time></trkpt><trkpt lat="44.680334" lon="8.8116602"><ele>227.0</ele><time>2026-03-30T14:35:47Z</time></trkpt><trkpt lat="44.6802666" lon="8.8117727"><ele>226.2</ele><time>2026-03-30T14:35:49Z</time></trkpt><trkpt lat="44.680231" lon="8.8118526"><ele>225.39999999999998</ele><time>2026-03-30T14:35:50Z</time></trkpt><trkpt lat="44.6801398" lon="8.8120681"><ele>224.60000000000002</ele><time>2026-03-30T14:35:52Z</time></trkpt><trkpt lat="44.6800892" lon="8.8121691"><ele>223.8</ele><time>2026-03-30T14:35:53Z</time></trkpt><trkpt lat="44.6800361" lon="8.8122802"><ele>223.0</ele><time>2026-03-30T14:35:54Z</time></trkpt><trkpt lat="44.6799764" lon="8.8124121"><ele>223.0</ele><time>2026-03-30T14:35:55Z</time></trkpt><trkpt lat="44.6799261" lon="8.8125458"><ele>223.0</ele><time>2026-03-30T14:35:56Z</time></trkpt><trkpt lat="44.6798864" lon="8.8126848"><ele>223.0</ele><time>2026-03-30T14:35:57Z</time></trkpt><trkpt lat="44.679859" lon="8.8128218"><ele>223.0</ele><time>2026-03-30T14:35:58Z</time></trkpt><trkpt lat="44.6798282" lon="8.8129647"><ele>223.0</ele><time>2026-03-30T14:35:59Z</time></trkpt><trkpt lat="44.6797794" lon="8.8130971"><ele>223.0</ele><time>2026-03-30T14:36:00.133Z</time></trkpt><trkpt lat="44.6796152" lon="8.8132936"><ele>223.0</ele><time>2026-03-30T14:36:02Z</time></trkpt><trkpt lat="44.679519" lon="8.8133532"><ele>223.0</ele><time>2026-03-30T14:36:03Z</time></trkpt><trkpt lat="44.6794158" lon="8.8134488"><ele>223.0</ele><time>2026-03-30T14:36:04Z</time></trkpt><trkpt lat="44.6793087" lon="8.8135406"><ele>223.0</ele><time>2026-03-30T14:36:05Z</time></trkpt><trkpt lat="44.6792019" lon="8.8136425"><ele>223.0</ele><time>2026-03-30T14:36:06Z</time></trkpt><trkpt lat="44.6790907" lon="8.8137494"><ele>223.0</ele><time>2026-03-30T14:36:07Z</time></trkpt><trkpt lat="44.6789795" lon="8.8138554"><ele>223.0</ele><time>2026-03-30T14:36:07.999Z</time></trkpt><trkpt lat="44.6788653" lon="8.8139462"><ele>223.0</ele><time>2026-03-30T14:36:08.999Z</time></trkpt><trkpt lat="44.6787568" lon="8.8140289"><ele>223.0</ele><time>2026-03-30T14:36:10Z</time></trkpt><trkpt lat="44.6786408" lon="8.814098"><ele>223.0</ele><time>2026-03-30T14:36:10.999Z</time></trkpt><trkpt lat="44.6785234" lon="8.8141318"><ele>223.0</ele><time>2026-03-30T14:36:12Z</time></trkpt><trkpt lat="44.6784017" lon="8.8141283"><ele>222.75</ele><time>2026-03-30T14:36:13Z</time></trkpt><trkpt lat="44.6782834" lon="8.8140999"><ele>222.5</ele><time>2026-03-30T14:36:14Z</time></trkpt><trkpt lat="44.6781619" lon="8.8140839"><ele>222.25</ele><time>2026-03-30T14:36:15Z</time></trkpt><trkpt lat="44.6780341" lon="8.8140936"><ele>222.0</ele><time>2026-03-30T14:36:16Z</time></trkpt><trkpt lat="44.6779046" lon="8.8141348"><ele>222.0</ele><time>2026-03-30T14:36:17Z</time></trkpt><trkpt lat="44.677775" lon="8.8142106"><ele>222.0</ele><time>2026-03-30T14:36:18Z</time></trkpt><trkpt lat="44.6776598" lon="8.8143214"><ele>222.0</ele><time>2026-03-30T14:36:19Z</time></trkpt><trkpt lat="44.6775459" lon="8.8144457"><ele>222.0</ele><time>2026-03-30T14:36:20Z</time></trkpt><trkpt lat="44.6774281" lon="8.8145824"><ele>222.66666666666669</ele><time>2026-03-30T14:36:21Z</time></trkpt><trkpt lat="44.6773008" lon="8.814706"><ele>223.33333333333334</ele><time>2026-03-30T14:36:22Z</time></trkpt><trkpt lat="44.6771745" lon="8.8148442"><ele>224.0</ele><time>2026-03-30T14:36:23Z</time></trkpt><trkpt lat="44.6770475" lon="8.8149794"><ele>224.33333333333334</ele><time>2026-03-30T14:36:23.999Z</time></trkpt><trkpt lat="44.6769194" lon="8.8151157"><ele>224.66666666666669</ele><time>2026-03-30T14:36:25Z</time></trkpt><trkpt lat="44.6767901" lon="8.8152552"><ele>225.0</ele><time>2026-03-30T14:36:26Z</time></trkpt><trkpt lat="44.6766584" lon="8.8153984"><ele>225.0</ele><time>2026-03-30T14:36:27Z</time></trkpt><trkpt lat="44.6765274" lon="8.8155316"><ele>225.0</ele><time>2026-03-30T14:36:28Z</time></trkpt><trkpt lat="44.6763966" lon="8.8156643"><ele>225.0</ele><time>2026-03-30T14:36:28.999Z</time></trkpt><trkpt lat="44.6762646" lon="8.8157943"><ele>225.0</ele><time>2026-03-30T14:36:29.999Z</time></trkpt><trkpt lat="44.6761416" lon="8.8159272"><ele>225.0</ele><time>2026-03-30T14:36:31Z</time></trkpt><trkpt lat="44.676023" lon="8.8160651"><ele>225.0</ele><time>2026-03-30T14:36:32Z</time></trkpt><trkpt lat="44.6759037" lon="8.8161981"><ele>227.0</ele><time>2026-03-30T14:36:33Z</time></trkpt><trkpt lat="44.6757915" lon="8.8163459"><ele>229.0</ele><time>2026-03-30T14:36:34Z</time></trkpt><trkpt lat="44.6756903" lon="8.8164939"><ele>231.0</ele><time>2026-03-30T14:36:35Z</time></trkpt><trkpt lat="44.6755813" lon="8.8166333"><ele>233.0</ele><time>2026-03-30T14:36:35.999Z</time></trkpt><trkpt lat="44.6754762" lon="8.8167847"><ele>232.66666666666669</ele><time>2026-03-30T14:36:37Z</time></trkpt><trkpt lat="44.6753746" lon="8.8169429"><ele>232.33333333333331</ele><time>2026-03-30T14:36:38Z</time></trkpt><trkpt lat="44.6752743" lon="8.8171022"><ele>232.0</ele><time>2026-03-30T14:36:39Z</time></trkpt><trkpt lat="44.6751679" lon="8.8172652"><ele>233.33333333333331</ele><time>2026-03-30T14:36:40Z</time></trkpt><trkpt lat="44.6750653" lon="8.8174328"><ele>234.66666666666669</ele><time>2026-03-30T14:36:40.999Z</time></trkpt><trkpt lat="44.6749586" lon="8.8175986"><ele>236.0</ele><time>2026-03-30T14:36:42Z</time></trkpt><trkpt lat="44.6748526" lon="8.8177627"><ele>237.0</ele><time>2026-03-30T14:36:43Z</time></trkpt><trkpt lat="44.674747" lon="8.8179326"><ele>238.0</ele><time>2026-03-30T14:36:44Z</time></trkpt><trkpt lat="44.6746401" lon="8.8180993"><ele>239.0</ele><time>2026-03-30T14:36:45Z</time></trkpt><trkpt lat="44.6745282" lon="8.8182574"><ele>238.66666666666669</ele><time>2026-03-30T14:36:46Z</time></trkpt><trkpt lat="44.6744065" lon="8.8184141"><ele>238.33333333333331</ele><time>2026-03-30T14:36:47Z</time></trkpt><trkpt lat="44.6742878" lon="8.8185538"><ele>238.0</ele><time>2026-03-30T14:36:48Z</time></trkpt><trkpt lat="44.6741604" lon="8.8186814"><ele>237.0</ele><time>2026-03-30T14:36:49Z</time></trkpt><trkpt lat="44.6740267" lon="8.8188019"><ele>236.0</ele><time>2026-03-30T14:36:49.999Z</time></trkpt><trkpt lat="44.673888" lon="8.8189088"><ele>235.0</ele><time>2026-03-30T14:36:51Z</time></trkpt><trkpt lat="44.6737465" lon="8.8190105"><ele>237.5</ele><time>2026-03-30T14:36:52.12Z</time></trkpt><trkpt lat="44.6735998" lon="8.8190976"><ele>240.0</ele><time>2026-03-30T14:36:53.128Z</time></trkpt><trkpt lat="44.673304" lon="8.8192273"><ele>240.0</ele><time>2026-03-30T14:36:55Z</time></trkpt><trkpt lat="44.6731746" lon="8.8192686"><ele>240.0</ele><time>2026-03-30T14:36:56Z</time></trkpt><trkpt lat="44.6730187" lon="8.8193174"><ele>240.0</ele><time>2026-03-30T14:36:57Z</time></trkpt><trkpt lat="44.672866" lon="8.8193675"><ele>240.0</ele><time>2026-03-30T14:36:58.154Z</time></trkpt><trkpt lat="44.6725693" lon="8.8194673"><ele>239.66666666666669</ele><time>2026-03-30T14:37:00.129Z</time></trkpt><trkpt lat="44.6724233" lon="8.8195123"><ele>239.33333333333334</ele><time>2026-03-30T14:37:01.136Z</time></trkpt><trkpt lat="44.6721335" lon="8.8195917"><ele>239.0</ele><time>2026-03-30T14:37:03.108Z</time></trkpt><trkpt lat="44.6718545" lon="8.8196808"><ele>240.0</ele><time>2026-03-30T14:37:05Z</time></trkpt><trkpt lat="44.6717143" lon="8.8197204"><ele>241.0</ele><time>2026-03-30T14:37:06.129Z</time></trkpt><trkpt lat="44.6715766" lon="8.8197618"><ele>242.0</ele><time>2026-03-30T14:37:07.154Z</time></trkpt><trkpt lat="44.6714374" lon="8.8198014"><ele>243.0</ele><time>2026-03-30T14:37:08.142Z</time></trkpt><trkpt lat="44.6711499" lon="8.8198881"><ele>245.66666666666669</ele><time>2026-03-30T14:37:10Z</time></trkpt><trkpt lat="44.6709992" lon="8.8199331"><ele>248.33333333333334</ele><time>2026-03-30T14:37:11.133Z</time></trkpt><trkpt lat="44.6708464" lon="8.8199852"><ele>251.0</ele><time>2026-03-30T14:37:12.131Z</time></trkpt><trkpt lat="44.6706896" lon="8.8200207"><ele>251.0</ele><time>2026-03-30T14:37:13.135Z</time></trkpt><trkpt lat="44.670376" lon="8.8201076"><ele>251.0</ele><time>2026-03-30T14:37:15Z</time></trkpt><trkpt lat="44.6702246" lon="8.8201458"><ele>250.33333333333334</ele><time>2026-03-30T14:37:16.132Z</time></trkpt><trkpt lat="44.6700469" lon="8.8202005"><ele>249.66666666666669</ele><time>2026-03-30T14:37:17.17Z</time></trkpt><trkpt lat="44.6698888" lon="8.8202445"><ele>249.0</ele><time>2026-03-30T14:37:18.153Z</time></trkpt><trkpt lat="44.6695821" lon="8.820349"><ele>249.33333333333331</ele><time>2026-03-30T14:37:20Z</time></trkpt><trkpt lat="44.6694396" lon="8.8204112"><ele>249.66666666666666</ele><time>2026-03-30T14:37:21.176Z</time></trkpt><trkpt lat="44.6692977" lon="8.8204857"><ele>250.0</ele><time>2026-03-30T14:37:22.192Z</time></trkpt><trkpt lat="44.6691616" lon="8.8205716"><ele>250.0</ele><time>2026-03-30T14:37:23.174Z</time></trkpt><trkpt lat="44.6689002" lon="8.820755"><ele>250.0</ele><time>2026-03-30T14:37:25Z</time></trkpt><trkpt lat="44.6687743" lon="8.8208571"><ele>250.0</ele><time>2026-03-30T14:37:26.137Z</time></trkpt><trkpt lat="44.6686556" lon="8.8209573"><ele>250.33333333333331</ele><time>2026-03-30T14:37:27.156Z</time></trkpt><trkpt lat="44.6685444" lon="8.8210602"><ele>250.66666666666669</ele><time>2026-03-30T14:37:28.167Z</time></trkpt><trkpt lat="44.6683458" lon="8.8212726"><ele>251.0</ele><time>2026-03-30T14:37:30Z</time></trkpt><trkpt lat="44.6682559" lon="8.821366"><ele>251.0</ele><time>2026-03-30T14:37:31Z</time></trkpt><trkpt lat="44.6681662" lon="8.8214442"><ele>251.00000000000003</ele><time>2026-03-30T14:37:32.182Z</time></trkpt><trkpt lat="44.6680802" lon="8.8215126"><ele>251.00000000000003</ele><time>2026-03-30T14:37:33.156Z</time></trkpt><trkpt lat="44.6679304" lon="8.8216246"><ele>251.0</ele><time>2026-03-30T14:37:35Z</time></trkpt><trkpt lat="44.667863" lon="8.8216722"><ele>251.0</ele><time>2026-03-30T14:37:36.178Z</time></trkpt><trkpt lat="44.6678014" lon="8.8217173"><ele>251.60000000000002</ele><time>2026-03-30T14:37:37.155Z</time></trkpt><trkpt lat="44.66771" lon="8.8217849"><ele>252.20000000000002</ele><time>2026-03-30T14:37:40Z</time></trkpt><trkpt lat="44.6676064" lon="8.8218838"><ele>252.79999999999998</ele><time>2026-03-30T14:40:43Z</time></trkpt><trkpt lat="44.6675493" lon="8.8219448"><ele>253.39999999999998</ele><time>2026-03-30T14:40:44Z</time></trkpt><trkpt lat="44.6674863" lon="8.8220113"><ele>254.0</ele><time>2026-03-30T14:40:45Z</time></trkpt><trkpt lat="44.6674157" lon="8.8220743"><ele>254.0</ele><time>2026-03-30T14:40:46Z</time></trkpt><trkpt lat="44.6673404" lon="8.8221365"><ele>253.99999999999997</ele><time>2026-03-30T14:40:47Z</time></trkpt><trkpt lat="44.6672574" lon="8.8222129"><ele>253.99999999999997</ele><time>2026-03-30T14:40:48Z</time></trkpt><trkpt lat="44.6671653" lon="8.8222965"><ele>254.0</ele><time>2026-03-30T14:40:49Z</time></trkpt><trkpt lat="44.6670715" lon="8.822377"><ele>254.0</ele><time>2026-03-30T14:40:50Z</time></trkpt><trkpt lat="44.666972" lon="8.8224698"><ele>254.66666666666669</ele><time>2026-03-30T14:40:51.106Z</time></trkpt><trkpt lat="44.6668769" lon="8.8225624"><ele>255.33333333333331</ele><time>2026-03-30T14:40:52.128Z</time></trkpt><trkpt lat="44.6667765" lon="8.8226607"><ele>256.0</ele><time>2026-03-30T14:40:53.153Z</time></trkpt><trkpt lat="44.6665777" lon="8.8228907"><ele>256.0</ele><time>2026-03-30T14:40:55Z</time></trkpt><trkpt lat="44.6664855" lon="8.8230232"><ele>256.0</ele><time>2026-03-30T14:40:56.158Z</time></trkpt><trkpt lat="44.6664083" lon="8.8231583"><ele>256.0</ele><time>2026-03-30T14:40:57.129Z</time></trkpt><trkpt lat="44.6663177" lon="8.8232856"><ele>256.0</ele><time>2026-03-30T14:40:58.165Z</time></trkpt><trkpt lat="44.6661321" lon="8.8235304"><ele>255.5</ele><time>2026-03-30T14:41:00Z</time></trkpt><trkpt lat="44.6660293" lon="8.8236404"><ele>255.0</ele><time>2026-03-30T14:41:01.167Z</time></trkpt><trkpt lat="44.6659159" lon="8.8237363"><ele>254.5</ele><time>2026-03-30T14:41:02.16Z</time></trkpt><trkpt lat="44.6657965" lon="8.8238335"><ele>254.0</ele><time>2026-03-30T14:41:03.163Z</time></trkpt><trkpt lat="44.665572" lon="8.8240264"><ele>254.0</ele><time>2026-03-30T14:41:05Z</time></trkpt><trkpt lat="44.6654549" lon="8.8241197"><ele>254.0</ele><time>2026-03-30T14:41:06Z</time></trkpt><trkpt lat="44.6653416" lon="8.8242152"><ele>254.0</ele><time>2026-03-30T14:41:07.162Z</time></trkpt><trkpt lat="44.6650961" lon="8.8243911"><ele>255.0</ele><time>2026-03-30T14:41:09Z</time></trkpt><trkpt lat="44.6649933" lon="8.8244923"><ele>256.0</ele><time>2026-03-30T14:41:10Z</time></trkpt><trkpt lat="44.6648603" lon="8.8245714"><ele>257.0</ele><time>2026-03-30T14:41:10.999Z</time></trkpt><trkpt lat="44.6647333" lon="8.8246593"><ele>258.0</ele><time>2026-03-30T14:41:12Z</time></trkpt><trkpt lat="44.6646004" lon="8.8247218"><ele>258.0</ele><time>2026-03-30T14:41:13Z</time></trkpt><trkpt lat="44.6644711" lon="8.8247981"><ele>258.0</ele><time>2026-03-30T14:41:14Z</time></trkpt><trkpt lat="44.6643423" lon="8.8248814"><ele>258.0</ele><time>2026-03-30T14:41:15Z</time></trkpt><trkpt lat="44.6642209" lon="8.8249585"><ele>258.0</ele><time>2026-03-30T14:41:16Z</time></trkpt><trkpt lat="44.664106" lon="8.8250358"><ele>257.25</ele><time>2026-03-30T14:41:17Z</time></trkpt><trkpt lat="44.6639923" lon="8.8251029"><ele>256.5</ele><time>2026-03-30T14:41:18Z</time></trkpt><trkpt lat="44.6638756" lon="8.8251778"><ele>255.75</ele><time>2026-03-30T14:41:19Z</time></trkpt><trkpt lat="44.663759" lon="8.8252557"><ele>255.0</ele><time>2026-03-30T14:41:20.16Z</time></trkpt><trkpt lat="44.6636372" lon="8.8253329"><ele>254.66666666666669</ele><time>2026-03-30T14:41:21.14Z</time></trkpt><trkpt lat="44.6633938" lon="8.825479"><ele>254.33333333333334</ele><time>2026-03-30T14:41:23Z</time></trkpt><trkpt lat="44.6632725" lon="8.8255517"><ele>254.0</ele><time>2026-03-30T14:41:24Z</time></trkpt><trkpt lat="44.6631482" lon="8.8256245"><ele>254.0</ele><time>2026-03-30T14:41:25.124Z</time></trkpt><trkpt lat="44.6630312" lon="8.8257189"><ele>254.0</ele><time>2026-03-30T14:41:26.144Z</time></trkpt><trkpt lat="44.662921" lon="8.8258178"><ele>254.0</ele><time>2026-03-30T14:41:27.108Z</time></trkpt><trkpt lat="44.6628184" lon="8.8259266"><ele>254.0</ele><time>2026-03-30T14:41:28.111Z</time></trkpt><trkpt lat="44.6626309" lon="8.8261758"><ele>252.5</ele><time>2026-03-30T14:41:30Z</time></trkpt><trkpt lat="44.6625391" lon="8.8263137"><ele>251.0</ele><time>2026-03-30T14:41:31.165Z</time></trkpt><trkpt lat="44.6624633" lon="8.8264678"><ele>249.5</ele><time>2026-03-30T14:41:32.13Z</time></trkpt><trkpt lat="44.6623927" lon="8.8266358"><ele>248.0</ele><time>2026-03-30T14:41:33.175Z</time></trkpt><trkpt lat="44.6622519" lon="8.8269794"><ele>248.5</ele><time>2026-03-30T14:41:35Z</time></trkpt><trkpt lat="44.662183" lon="8.8271578"><ele>249.0</ele><time>2026-03-30T14:41:36.14Z</time></trkpt><trkpt lat="44.6621198" lon="8.82734"><ele>249.5</ele><time>2026-03-30T14:41:37.164Z</time></trkpt><trkpt lat="44.6620592" lon="8.8275095"><ele>250.0</ele><time>2026-03-30T14:41:38.172Z</time></trkpt><trkpt lat="44.6619337" lon="8.8278211"><ele>250.0</ele><time>2026-03-30T14:41:40Z</time></trkpt><trkpt lat="44.661873" lon="8.8279752"><ele>250.0</ele><time>2026-03-30T14:41:41.147Z</time></trkpt><trkpt lat="44.6618096" lon="8.8281178"><ele>250.0</ele><time>2026-03-30T14:41:42.155Z</time></trkpt><trkpt lat="44.661751" lon="8.8282659"><ele>250.0</ele><time>2026-03-30T14:41:43.113Z</time></trkpt><trkpt lat="44.6616376" lon="8.8285676"><ele>250.0</ele><time>2026-03-30T14:41:45Z</time></trkpt><trkpt lat="44.6615807" lon="8.8287201"><ele>250.0</ele><time>2026-03-30T14:41:46Z</time></trkpt><trkpt lat="44.6615225" lon="8.8288661"><ele>250.0</ele><time>2026-03-30T14:41:46.999Z</time></trkpt><trkpt lat="44.6614623" lon="8.8290223"><ele>250.0</ele><time>2026-03-30T14:41:48.178Z</time></trkpt><trkpt lat="44.6613361" lon="8.8293518"><ele>250.0</ele><time>2026-03-30T14:41:50Z</time></trkpt><trkpt lat="44.6612621" lon="8.8295241"><ele>250.0</ele><time>2026-03-30T14:41:51Z</time></trkpt><trkpt lat="44.6611739" lon="8.8296939"><ele>250.0</ele><time>2026-03-30T14:41:52.125Z</time></trkpt><trkpt lat="44.6610652" lon="8.8298493"><ele>250.0</ele><time>2026-03-30T14:41:53.171Z</time></trkpt><trkpt lat="44.6609532" lon="8.8299995"><ele>250.33333333333331</ele><time>2026-03-30T14:41:54Z</time></trkpt><trkpt lat="44.6608354" lon="8.8301265"><ele>250.66666666666669</ele><time>2026-03-30T14:41:54.999Z</time></trkpt><trkpt lat="44.6607252" lon="8.830254"><ele>251.0</ele><time>2026-03-30T14:41:56.176Z</time></trkpt><trkpt lat="44.660483" lon="8.8305104"><ele>251.66666666666669</ele><time>2026-03-30T14:41:58.178Z</time></trkpt><trkpt lat="44.6602657" lon="8.8307667"><ele>252.33333333333331</ele><time>2026-03-30T14:42:00Z</time></trkpt><trkpt lat="44.6601718" lon="8.8308999"><ele>253.0</ele><time>2026-03-30T14:42:01.118Z</time></trkpt><trkpt lat="44.6600709" lon="8.8310216"><ele>254.66666666666666</ele><time>2026-03-30T14:42:02.123Z</time></trkpt><trkpt lat="44.659978" lon="8.8311415"><ele>256.3333333333333</ele><time>2026-03-30T14:42:03.126Z</time></trkpt><trkpt lat="44.6598019" lon="8.8313553"><ele>258.0</ele><time>2026-03-30T14:42:04.999Z</time></trkpt><trkpt lat="44.6596963" lon="8.8314303"><ele>258.0</ele><time>2026-03-30T14:42:06.153Z</time></trkpt><trkpt lat="44.6595703" lon="8.831477"><ele>258.0</ele><time>2026-03-30T14:42:07.125Z</time></trkpt><trkpt lat="44.65945" lon="8.8314906"><ele>258.0</ele><time>2026-03-30T14:42:08.142Z</time></trkpt><trkpt lat="44.6592189" lon="8.8314036"><ele>259.5</ele><time>2026-03-30T14:42:10Z</time></trkpt><trkpt lat="44.6591049" lon="8.8313293"><ele>261.0</ele><time>2026-03-30T14:42:11.124Z</time></trkpt><trkpt lat="44.6589981" lon="8.8312471"><ele>262.5</ele><time>2026-03-30T14:42:12.137Z</time></trkpt><trkpt lat="44.6588926" lon="8.8311654"><ele>264.0</ele><time>2026-03-30T14:42:13.132Z</time></trkpt><trkpt lat="44.6586782" lon="8.8309996"><ele>266.0</ele><time>2026-03-30T14:42:15Z</time></trkpt><trkpt lat="44.6585765" lon="8.8309229"><ele>268.0</ele><time>2026-03-30T14:42:16.132Z</time></trkpt><trkpt lat="44.6584631" lon="8.8308658"><ele>270.0</ele><time>2026-03-30T14:42:17.133Z</time></trkpt><trkpt lat="44.6583444" lon="8.8308112"><ele>272.0</ele><time>2026-03-30T14:42:18.137Z</time></trkpt><trkpt lat="44.6582274" lon="8.8307514"><ele>272.0</ele><time>2026-03-30T14:42:19Z</time></trkpt><trkpt lat="44.6581093" lon="8.8306911"><ele>272.0</ele><time>2026-03-30T14:42:20Z</time></trkpt><trkpt lat="44.6579873" lon="8.8306303"><ele>272.0</ele><time>2026-03-30T14:42:21.153Z</time></trkpt><trkpt lat="44.6578628" lon="8.8305789"><ele>272.0</ele><time>2026-03-30T14:42:22.147Z</time></trkpt><trkpt lat="44.6577516" lon="8.830514"><ele>273.6666666666667</ele><time>2026-03-30T14:42:23.152Z</time></trkpt><trkpt lat="44.6575273" lon="8.830401"><ele>275.3333333333333</ele><time>2026-03-30T14:42:25Z</time></trkpt><trkpt lat="44.6574152" lon="8.830352"><ele>277.0</ele><time>2026-03-30T14:42:26.169Z</time></trkpt><trkpt lat="44.6573063" lon="8.8303104"><ele>277.0</ele><time>2026-03-30T14:42:27.148Z</time></trkpt><trkpt lat="44.6572002" lon="8.8302884"><ele>277.0</ele><time>2026-03-30T14:42:28.166Z</time></trkpt><trkpt lat="44.6569776" lon="8.830285"><ele>277.0</ele><time>2026-03-30T14:42:30Z</time></trkpt><trkpt lat="44.6568584" lon="8.8303024"><ele>276.66666666666663</ele><time>2026-03-30T14:42:31Z</time></trkpt><trkpt lat="44.6567377" lon="8.8303238"><ele>276.3333333333333</ele><time>2026-03-30T14:42:32.143Z</time></trkpt><trkpt lat="44.6566241" lon="8.83033"><ele>276.0</ele><time>2026-03-30T14:42:33.172Z</time></trkpt><trkpt lat="44.6563625" lon="8.8303699"><ele>276.0</ele><time>2026-03-30T14:42:35Z</time></trkpt><trkpt lat="44.6562394" lon="8.8303909"><ele>276.0</ele><time>2026-03-30T14:42:36.146Z</time></trkpt><trkpt lat="44.6561178" lon="8.8304079"><ele>276.0</ele><time>2026-03-30T14:42:37.149Z</time></trkpt><trkpt lat="44.6559973" lon="8.8304229"><ele>276.0</ele><time>2026-03-30T14:42:38.182Z</time></trkpt><trkpt lat="44.6557701" lon="8.8304367"><ele>276.25</ele><time>2026-03-30T14:42:40Z</time></trkpt><trkpt lat="44.6556464" lon="8.8304531"><ele>276.5</ele><time>2026-03-30T14:42:41.184Z</time></trkpt><trkpt lat="44.6555315" lon="8.8304583"><ele>276.75</ele><time>2026-03-30T14:42:42.144Z</time></trkpt><trkpt lat="44.6554265" lon="8.8304639"><ele>277.0</ele><time>2026-03-30T14:42:43.129Z</time></trkpt><trkpt lat="44.6552102" lon="8.8304583"><ele>277.0</ele><time>2026-03-30T14:42:45Z</time></trkpt><trkpt lat="44.6551027" lon="8.8304568"><ele>277.0</ele><time>2026-03-30T14:42:46.154Z</time></trkpt><trkpt lat="44.654994" lon="8.8304626"><ele>277.0</ele><time>2026-03-30T14:42:47.176Z</time></trkpt><trkpt lat="44.6548679" lon="8.8304642"><ele>277.0</ele><time>2026-03-30T14:42:48.157Z</time></trkpt><trkpt lat="44.6546343" lon="8.8304748"><ele>277.0</ele><time>2026-03-30T14:42:49.999Z</time></trkpt><trkpt lat="44.654516" lon="8.8304741"><ele>277.0</ele><time>2026-03-30T14:42:51.162Z</time></trkpt><trkpt lat="44.654395" lon="8.8304768"><ele>277.0</ele><time>2026-03-30T14:42:52.155Z</time></trkpt><trkpt lat="44.6541598" lon="8.8304934"><ele>277.25</ele><time>2026-03-30T14:42:54Z</time></trkpt><trkpt lat="44.6540434" lon="8.8305008"><ele>277.5</ele><time>2026-03-30T14:42:55.152Z</time></trkpt><trkpt lat="44.6539191" lon="8.8305108"><ele>277.75</ele><time>2026-03-30T14:42:56.122Z</time></trkpt><trkpt lat="44.6537975" lon="8.8305371"><ele>278.0</ele><time>2026-03-30T14:42:57.139Z</time></trkpt><trkpt lat="44.6535603" lon="8.8305291"><ele>278.0</ele><time>2026-03-30T14:42:59Z</time></trkpt><trkpt lat="44.6534453" lon="8.8305283"><ele>278.0</ele><time>2026-03-30T14:42:59.999Z</time></trkpt><trkpt lat="44.6533336" lon="8.8305177"><ele>278.0</ele><time>2026-03-30T14:43:01.155Z</time></trkpt><trkpt lat="44.6531095" lon="8.8305206"><ele>278.0</ele><time>2026-03-30T14:43:03Z</time></trkpt><trkpt lat="44.6530096" lon="8.830427"><ele>278.0</ele><time>2026-03-30T14:43:04Z</time></trkpt><trkpt lat="44.6529073" lon="8.8303762"><ele>278.0</ele><time>2026-03-30T14:43:05.166Z</time></trkpt><trkpt lat="44.6527986" lon="8.8303499"><ele>278.0</ele><time>2026-03-30T14:43:06.157Z</time></trkpt><trkpt lat="44.652687" lon="8.8303429"><ele>276.5</ele><time>2026-03-30T14:43:07.163Z</time></trkpt><trkpt lat="44.6525792" lon="8.8303521"><ele>275.0</ele><time>2026-03-30T14:43:08.109Z</time></trkpt><trkpt lat="44.6523812" lon="8.83039"><ele>273.5</ele><time>2026-03-30T14:43:10Z</time></trkpt><trkpt lat="44.6522851" lon="8.8303988"><ele>272.0</ele><time>2026-03-30T14:43:11.164Z</time></trkpt><trkpt lat="44.6521869" lon="8.8304249"><ele>272.0</ele><time>2026-03-30T14:43:12.131Z</time></trkpt><trkpt lat="44.6521083" lon="8.8304396"><ele>272.0</ele><time>2026-03-30T14:43:13.136Z</time></trkpt><trkpt lat="44.6519615" lon="8.8305185"><ele>272.0</ele><time>2026-03-30T14:43:15Z</time></trkpt><trkpt lat="44.6518983" lon="8.8305798"><ele>272.0</ele><time>2026-03-30T14:43:16.152Z</time></trkpt><trkpt lat="44.6517855" lon="8.8306193"><ele>272.0</ele><time>2026-03-30T14:43:18.128Z</time></trkpt><trkpt lat="44.6517029" lon="8.8306633"><ele>273.0</ele><time>2026-03-30T14:43:20Z</time></trkpt><trkpt lat="44.6516408" lon="8.8307013"><ele>274.0</ele><time>2026-03-30T14:43:22Z</time></trkpt><trkpt lat="44.6515168" lon="8.8307736"><ele>275.0</ele><time>2026-03-30T14:44:02Z</time></trkpt><trkpt lat="44.6514092" lon="8.8308463"><ele>276.0</ele><time>2026-03-30T14:44:04Z</time></trkpt><trkpt lat="44.6513603" lon="8.8309036"><ele>277.0</ele><time>2026-03-30T14:44:05Z</time></trkpt><trkpt lat="44.651308" lon="8.8309576"><ele>276.0</ele><time>2026-03-30T14:44:06Z</time></trkpt><trkpt lat="44.6512453" lon="8.8310098"><ele>275.0</ele><time>2026-03-30T14:44:07Z</time></trkpt><trkpt lat="44.6511875" lon="8.831065"><ele>274.0</ele><time>2026-03-30T14:44:08Z</time></trkpt><trkpt lat="44.6511194" lon="8.8311309"><ele>273.0</ele><time>2026-03-30T14:44:08.999Z</time></trkpt><trkpt lat="44.6510393" lon="8.8311858"><ele>272.0</ele><time>2026-03-30T14:44:10Z</time></trkpt><trkpt lat="44.6509532" lon="8.8312409"><ele>271.0</ele><time>2026-03-30T14:44:11Z</time></trkpt><trkpt lat="44.6508678" lon="8.8312946"><ele>271.0</ele><time>2026-03-30T14:44:12Z</time></trkpt><trkpt lat="44.6507714" lon="8.8313511"><ele>271.0</ele><time>2026-03-30T14:44:13Z</time></trkpt><trkpt lat="44.6506749" lon="8.831411"><ele>271.0</ele><time>2026-03-30T14:44:13.999Z</time></trkpt><trkpt lat="44.6505759" lon="8.8314645"><ele>271.0</ele><time>2026-03-30T14:44:15Z</time></trkpt><trkpt lat="44.6504859" lon="8.8315166"><ele>271.0</ele><time>2026-03-30T14:44:16Z</time></trkpt><trkpt lat="44.6503906" lon="8.8315727"><ele>271.0</ele><time>2026-03-30T14:44:17Z</time></trkpt><trkpt lat="44.6502985" lon="8.831633"><ele>271.0</ele><time>2026-03-30T14:44:18Z</time></trkpt><trkpt lat="44.6501974" lon="8.8316937"><ele>271.0</ele><time>2026-03-30T14:44:19Z</time></trkpt><trkpt lat="44.6500905" lon="8.8317471"><ele>271.0</ele><time>2026-03-30T14:44:19.999Z</time></trkpt><trkpt lat="44.6499905" lon="8.8318071"><ele>271.0</ele><time>2026-03-30T14:44:21Z</time></trkpt><trkpt lat="44.6498955" lon="8.8318678"><ele>270.40000000000003</ele><time>2026-03-30T14:44:22Z</time></trkpt><trkpt lat="44.6498066" lon="8.8319266"><ele>269.8</ele><time>2026-03-30T14:44:23Z</time></trkpt><trkpt lat="44.6497154" lon="8.8319894"><ele>269.20000000000005</ele><time>2026-03-30T14:44:24Z</time></trkpt><trkpt lat="44.6496218" lon="8.832052"><ele>268.6</ele><time>2026-03-30T14:44:24.999Z</time></trkpt><trkpt lat="44.6495375" lon="8.8321144"><ele>268.0</ele><time>2026-03-30T14:44:26Z</time></trkpt><trkpt lat="44.6494566" lon="8.8321758"><ele>270.0</ele><time>2026-03-30T14:44:27Z</time></trkpt><trkpt lat="44.6493787" lon="8.8322336"><ele>272.0</ele><time>2026-03-30T14:44:28Z</time></trkpt><trkpt lat="44.6492996" lon="8.8322706"><ele>274.0</ele><time>2026-03-30T14:44:29Z</time></trkpt><trkpt lat="44.6492141" lon="8.832315"><ele>276.0</ele><time>2026-03-30T14:44:29.999Z</time></trkpt><trkpt lat="44.6491096" lon="8.8323002"><ele>278.0</ele><time>2026-03-30T14:44:31Z</time></trkpt><trkpt lat="44.6490274" lon="8.8322149"><ele>278.0</ele><time>2026-03-30T14:44:31.999Z</time></trkpt><trkpt lat="44.6489527" lon="8.8321314"><ele>278.0</ele><time>2026-03-30T14:44:33Z</time></trkpt><trkpt lat="44.6488856" lon="8.8320255"><ele>278.0</ele><time>2026-03-30T14:44:34Z</time></trkpt><trkpt lat="44.6488252" lon="8.8319002"><ele>278.0</ele><time>2026-03-30T14:44:35Z</time></trkpt><trkpt lat="44.6487687" lon="8.8317728"><ele>278.0</ele><time>2026-03-30T14:44:36Z</time></trkpt><trkpt lat="44.6486982" lon="8.8316613"><ele>278.8</ele><time>2026-03-30T14:44:36.999Z</time></trkpt><trkpt lat="44.6486587" lon="8.8315526"><ele>279.6</ele><time>2026-03-30T14:44:38Z</time></trkpt><trkpt lat="44.6486057" lon="8.8314516"><ele>280.4</ele><time>2026-03-30T14:44:38.999Z</time></trkpt><trkpt lat="44.6485435" lon="8.8313628"><ele>281.2</ele><time>2026-03-30T14:44:40Z</time></trkpt><trkpt lat="44.6484723" lon="8.8312996"><ele>282.0</ele><time>2026-03-30T14:44:41Z</time></trkpt><trkpt lat="44.648311" lon="8.8313397"><ele>282.0</ele><time>2026-03-30T14:44:42Z</time></trkpt><trkpt lat="44.6480432" lon="8.8313925"><ele>282.0</ele><time>2026-03-30T14:44:43Z</time></trkpt><trkpt lat="44.647879" lon="8.8314113"><ele>282.0</ele><time>2026-03-30T14:44:44Z</time></trkpt><trkpt lat="44.6477104" lon="8.8314317"><ele>278.6666666666667</ele><time>2026-03-30T14:44:45Z</time></trkpt><trkpt lat="44.6475714" lon="8.8314585"><ele>275.33333333333337</ele><time>2026-03-30T14:44:46Z</time></trkpt><trkpt lat="44.6474133" lon="8.8315101"><ele>272.0</ele><time>2026-03-30T14:44:47Z</time></trkpt><trkpt lat="44.6472619" lon="8.8315755"><ele>272.0</ele><time>2026-03-30T14:44:48Z</time></trkpt><trkpt lat="44.6471032" lon="8.8316488"><ele>272.0</ele><time>2026-03-30T14:44:49Z</time></trkpt><trkpt lat="44.6469426" lon="8.8317332"><ele>272.0</ele><time>2026-03-30T14:44:50Z</time></trkpt><trkpt lat="44.6467884" lon="8.8318069"><ele>271.33333333333337</ele><time>2026-03-30T14:44:51Z</time></trkpt><trkpt lat="44.6466437" lon="8.8318581"><ele>270.6666666666667</ele><time>2026-03-30T14:44:52Z</time></trkpt><trkpt lat="44.646489" lon="8.8318991"><ele>270.0</ele><time>2026-03-30T14:44:53Z</time></trkpt><trkpt lat="44.6463356" lon="8.8319269"><ele>270.0</ele><time>2026-03-30T14:44:53.999Z</time></trkpt><trkpt lat="44.6461835" lon="8.8319588"><ele>270.0</ele><time>2026-03-30T14:44:55Z</time></trkpt><trkpt lat="44.6460327" lon="8.8320095"><ele>270.0</ele><time>2026-03-30T14:44:56Z</time></trkpt><trkpt lat="44.6458734" lon="8.8320605"><ele>272.6666666666667</ele><time>2026-03-30T14:44:57Z</time></trkpt><trkpt lat="44.6457088" lon="8.8321269"><ele>275.33333333333337</ele><time>2026-03-30T14:44:58Z</time></trkpt><trkpt lat="44.6455523" lon="8.8322019"><ele>278.0</ele><time>2026-03-30T14:44:59Z</time></trkpt><trkpt lat="44.6453948" lon="8.8322863"><ele>279.0</ele><time>2026-03-30T14:45:00Z</time></trkpt><trkpt lat="44.6452389" lon="8.8323749"><ele>280.0</ele><time>2026-03-30T14:45:01Z</time></trkpt><trkpt lat="44.6450862" lon="8.8324716"><ele>281.0</ele><time>2026-03-30T14:45:02Z</time></trkpt><trkpt lat="44.6449361" lon="8.832575"><ele>281.33333333333337</ele><time>2026-03-30T14:45:03Z</time></trkpt><trkpt lat="44.644789" lon="8.8326781"><ele>281.6666666666667</ele><time>2026-03-30T14:45:04Z</time></trkpt><trkpt lat="44.644645" lon="8.8327784"><ele>282.0</ele><time>2026-03-30T14:45:05Z</time></trkpt><trkpt lat="44.6444994" lon="8.8328599"><ele>284.0</ele><time>2026-03-30T14:45:05.999Z</time></trkpt><trkpt lat="44.6443448" lon="8.8329234"><ele>286.0</ele><time>2026-03-30T14:45:07Z</time></trkpt><trkpt lat="44.6441935" lon="8.8329689"><ele>288.0</ele><time>2026-03-30T14:45:08Z</time></trkpt><trkpt lat="44.6440417" lon="8.8330176"><ele>288.0</ele><time>2026-03-30T14:45:09Z</time></trkpt><trkpt lat="44.6438956" lon="8.8330654"><ele>288.0</ele><time>2026-03-30T14:45:10Z</time></trkpt><trkpt lat="44.6437453" lon="8.8331152"><ele>288.0</ele><time>2026-03-30T14:45:11Z</time></trkpt><trkpt lat="44.6436024" lon="8.8331585"><ele>290.0</ele><time>2026-03-30T14:45:12Z</time></trkpt><trkpt lat="44.643463" lon="8.8332111"><ele>292.0</ele><time>2026-03-30T14:45:13Z</time></trkpt><trkpt lat="44.6433194" lon="8.8332594"><ele>294.0</ele><time>2026-03-30T14:45:14Z</time></trkpt><trkpt lat="44.6431735" lon="8.833309"><ele>296.0</ele><time>2026-03-30T14:45:15Z</time></trkpt><trkpt lat="44.6430292" lon="8.8333622"><ele>296.0</ele><time>2026-03-30T14:45:16Z</time></trkpt><trkpt lat="44.6428869" lon="8.8334185"><ele>296.0</ele><time>2026-03-30T14:45:16.999Z</time></trkpt><trkpt lat="44.6427447" lon="8.8334789"><ele>296.0</ele><time>2026-03-30T14:45:18Z</time></trkpt><trkpt lat="44.6426071" lon="8.8335416"><ele>296.0</ele><time>2026-03-30T14:45:19Z</time></trkpt><trkpt lat="44.6424657" lon="8.8336083"><ele>296.33333333333337</ele><time>2026-03-30T14:45:20Z</time></trkpt><trkpt lat="44.6423278" lon="8.8336831"><ele>296.6666666666667</ele><time>2026-03-30T14:45:21Z</time></trkpt><trkpt lat="44.6421874" lon="8.8337669"><ele>297.0</ele><time>2026-03-30T14:45:22Z</time></trkpt><trkpt lat="44.6420428" lon="8.8338557"><ele>300.0</ele><time>2026-03-30T14:45:23Z</time></trkpt><trkpt lat="44.6418991" lon="8.8339509"><ele>303.0</ele><time>2026-03-30T14:45:23.999Z</time></trkpt><trkpt lat="44.6417573" lon="8.8340457"><ele>306.0</ele><time>2026-03-30T14:45:25Z</time></trkpt><trkpt lat="44.6416169" lon="8.8341385"><ele>306.0</ele><time>2026-03-30T14:45:26Z</time></trkpt><trkpt lat="44.6414755" lon="8.8342179"><ele>306.0</ele><time>2026-03-30T14:45:27Z</time></trkpt><trkpt lat="44.641333" lon="8.8342846"><ele>306.0</ele><time>2026-03-30T14:45:28Z</time></trkpt><trkpt lat="44.6411896" lon="8.8343526"><ele>302.75</ele><time>2026-03-30T14:45:29Z</time></trkpt><trkpt lat="44.6410484" lon="8.8344212"><ele>299.5</ele><time>2026-03-30T14:45:30Z</time></trkpt><trkpt lat="44.6409134" lon="8.8344639"><ele>296.25</ele><time>2026-03-30T14:45:31Z</time></trkpt><trkpt lat="44.6407793" lon="8.8344829"><ele>293.0</ele><time>2026-03-30T14:45:32Z</time></trkpt><trkpt lat="44.6406519" lon="8.8344628"><ele>293.0</ele><time>2026-03-30T14:45:33Z</time></trkpt><trkpt lat="44.6405339" lon="8.834416"><ele>293.0</ele><time>2026-03-30T14:45:34Z</time></trkpt><trkpt lat="44.6404245" lon="8.8343516"><ele>293.0</ele><time>2026-03-30T14:45:35Z</time></trkpt><trkpt lat="44.6402953" lon="8.834337"><ele>293.0</ele><time>2026-03-30T14:45:36Z</time></trkpt><trkpt lat="44.6401742" lon="8.8343375"><ele>294.75</ele><time>2026-03-30T14:45:37Z</time></trkpt><trkpt lat="44.6400632" lon="8.834352"><ele>296.5</ele><time>2026-03-30T14:45:38Z</time></trkpt><trkpt lat="44.6399453" lon="8.8343835"><ele>298.25</ele><time>2026-03-30T14:45:39Z</time></trkpt><trkpt lat="44.6398361" lon="8.8344424"><ele>300.0</ele><time>2026-03-30T14:45:40.114Z</time></trkpt><trkpt lat="44.6396509" lon="8.8346043"><ele>300.0</ele><time>2026-03-30T14:45:42Z</time></trkpt><trkpt lat="44.6395661" lon="8.8347129"><ele>300.0</ele><time>2026-03-30T14:45:43Z</time></trkpt><trkpt lat="44.6394984" lon="8.8348391"><ele>300.0</ele><time>2026-03-30T14:45:43.999Z</time></trkpt><trkpt lat="44.6394185" lon="8.8349529"><ele>300.0</ele><time>2026-03-30T14:45:45Z</time></trkpt><trkpt lat="44.6393188" lon="8.8350549"><ele>303.75</ele><time>2026-03-30T14:45:46Z</time></trkpt><trkpt lat="44.6392038" lon="8.8351438"><ele>307.5</ele><time>2026-03-30T14:45:47Z</time></trkpt><trkpt lat="44.6390868" lon="8.8352143"><ele>311.25</ele><time>2026-03-30T14:45:48Z</time></trkpt><trkpt lat="44.6389723" lon="8.8352713"><ele>315.0</ele><time>2026-03-30T14:45:48.999Z</time></trkpt><trkpt lat="44.6388646" lon="8.8353178"><ele>315.0</ele><time>2026-03-30T14:45:50Z</time></trkpt><trkpt lat="44.6387583" lon="8.8353626"><ele>315.0</ele><time>2026-03-30T14:45:51Z</time></trkpt><trkpt lat="44.6386656" lon="8.8354227"><ele>315.0</ele><time>2026-03-30T14:45:52Z</time></trkpt><trkpt lat="44.6385783" lon="8.8355044"><ele>315.0</ele><time>2026-03-30T14:45:53Z</time></trkpt><trkpt lat="44.6385141" lon="8.8356315"><ele>315.0</ele><time>2026-03-30T14:45:54Z</time></trkpt><trkpt lat="44.6384753" lon="8.8357787"><ele>316.5</ele><time>2026-03-30T14:45:55Z</time></trkpt><trkpt lat="44.6384559" lon="8.8359365"><ele>318.0</ele><time>2026-03-30T14:45:56Z</time></trkpt><trkpt lat="44.6384318" lon="8.8360931"><ele>319.5</ele><time>2026-03-30T14:45:56.999Z</time></trkpt><trkpt lat="44.6383971" lon="8.8362503"><ele>321.0</ele><time>2026-03-30T14:45:58Z</time></trkpt><trkpt lat="44.6383528" lon="8.8364108"><ele>321.0</ele><time>2026-03-30T14:45:59Z</time></trkpt><trkpt lat="44.6382996" lon="8.8365786"><ele>321.0</ele><time>2026-03-30T14:46:00Z</time></trkpt><trkpt lat="44.6382411" lon="8.8367408"><ele>321.0</ele><time>2026-03-30T14:46:01Z</time></trkpt><trkpt lat="44.6381796" lon="8.836905"><ele>321.0</ele><time>2026-03-30T14:46:02Z</time></trkpt><trkpt lat="44.638114" lon="8.8370813"><ele>318.75</ele><time>2026-03-30T14:46:03Z</time></trkpt><trkpt lat="44.6380458" lon="8.8372632"><ele>316.5</ele><time>2026-03-30T14:46:04Z</time></trkpt><trkpt lat="44.6379788" lon="8.8374495"><ele>314.25</ele><time>2026-03-30T14:46:05Z</time></trkpt><trkpt lat="44.6379111" lon="8.8376323"><ele>312.0</ele><time>2026-03-30T14:46:05.999Z</time></trkpt><trkpt lat="44.6378372" lon="8.8378071"><ele>313.25</ele><time>2026-03-30T14:46:07Z</time></trkpt><trkpt lat="44.6377594" lon="8.8379802"><ele>314.5</ele><time>2026-03-30T14:46:07.999Z</time></trkpt><trkpt lat="44.6376846" lon="8.8381472"><ele>315.75</ele><time>2026-03-30T14:46:09Z</time></trkpt><trkpt lat="44.6376186" lon="8.8383159"><ele>317.0</ele><time>2026-03-30T14:46:09.999Z</time></trkpt><trkpt lat="44.6375531" lon="8.8384798"><ele>317.0</ele><time>2026-03-30T14:46:11Z</time></trkpt><trkpt lat="44.6374965" lon="8.8386487"><ele>317.0</ele><time>2026-03-30T14:46:12Z</time></trkpt><trkpt lat="44.637442" lon="8.838817"><ele>317.0</ele><time>2026-03-30T14:46:13Z</time></trkpt><trkpt lat="44.6373831" lon="8.8389854"><ele>317.0</ele><time>2026-03-30T14:46:14Z</time></trkpt><trkpt lat="44.6373102" lon="8.839149"><ele>317.0</ele><time>2026-03-30T14:46:15Z</time></trkpt><trkpt lat="44.6372178" lon="8.8392988"><ele>317.0</ele><time>2026-03-30T14:46:16Z</time></trkpt><trkpt lat="44.6371166" lon="8.8394351"><ele>317.0</ele><time>2026-03-30T14:46:17Z</time></trkpt><trkpt lat="44.6370116" lon="8.8395714"><ele>317.0</ele><time>2026-03-30T14:46:17.999Z</time></trkpt><trkpt lat="44.6369106" lon="8.8397174"><ele>316.25</ele><time>2026-03-30T14:46:19Z</time></trkpt><trkpt lat="44.6368081" lon="8.8398585"><ele>315.5</ele><time>2026-03-30T14:46:20Z</time></trkpt><trkpt lat="44.6367062" lon="8.839996"><ele>314.75</ele><time>2026-03-30T14:46:20.999Z</time></trkpt><trkpt lat="44.6366023" lon="8.8401423"><ele>314.0</ele><time>2026-03-30T14:46:22Z</time></trkpt><trkpt lat="44.6365035" lon="8.8402881"><ele>314.0</ele><time>2026-03-30T14:46:23Z</time></trkpt><trkpt lat="44.6364012" lon="8.8404314"><ele>314.0</ele><time>2026-03-30T14:46:24Z</time></trkpt><trkpt lat="44.636298" lon="8.8405761"><ele>314.0</ele><time>2026-03-30T14:46:25Z</time></trkpt><trkpt lat="44.6361966" lon="8.8407191"><ele>314.0</ele><time>2026-03-30T14:46:26Z</time></trkpt><trkpt lat="44.6360992" lon="8.8408623"><ele>315.75</ele><time>2026-03-30T14:46:27Z</time></trkpt><trkpt lat="44.6360091" lon="8.8410103"><ele>317.5</ele><time>2026-03-30T14:46:28Z</time></trkpt><trkpt lat="44.6359224" lon="8.8411568"><ele>319.25</ele><time>2026-03-30T14:46:29Z</time></trkpt><trkpt lat="44.6358467" lon="8.8413028"><ele>321.0</ele><time>2026-03-30T14:46:30Z</time></trkpt><trkpt lat="44.6357762" lon="8.8414524"><ele>321.0</ele><time>2026-03-30T14:46:31Z</time></trkpt><trkpt lat="44.635705" lon="8.8416003"><ele>321.0</ele><time>2026-03-30T14:46:32Z</time></trkpt><trkpt lat="44.6356322" lon="8.8417441"><ele>321.0</ele><time>2026-03-30T14:46:33Z</time></trkpt><trkpt lat="44.6355632" lon="8.8418857"><ele>321.0</ele><time>2026-03-30T14:46:34Z</time></trkpt><trkpt lat="44.635492" lon="8.8420271"><ele>321.25</ele><time>2026-03-30T14:46:35Z</time></trkpt><trkpt lat="44.6354203" lon="8.8421591"><ele>321.5</ele><time>2026-03-30T14:46:36Z</time></trkpt><trkpt lat="44.6353335" lon="8.8422703"><ele>321.75</ele><time>2026-03-30T14:46:37Z</time></trkpt><trkpt lat="44.6352307" lon="8.8423578"><ele>322.0</ele><time>2026-03-30T14:46:38Z</time></trkpt><trkpt lat="44.6351121" lon="8.8424241"><ele>322.0</ele><time>2026-03-30T14:46:39Z</time></trkpt><trkpt lat="44.6349872" lon="8.842475"><ele>322.0</ele><time>2026-03-30T14:46:40Z</time></trkpt><trkpt lat="44.6348625" lon="8.842517"><ele>322.0</ele><time>2026-03-30T14:46:41Z</time></trkpt><trkpt lat="44.6347377" lon="8.8425576"><ele>322.0</ele><time>2026-03-30T14:46:42Z</time></trkpt><trkpt lat="44.6346123" lon="8.8426013"><ele>318.0</ele><time>2026-03-30T14:46:43Z</time></trkpt><trkpt lat="44.634493" lon="8.8426474"><ele>314.0</ele><time>2026-03-30T14:46:44Z</time></trkpt><trkpt lat="44.6343695" lon="8.8426973"><ele>310.0</ele><time>2026-03-30T14:46:45Z</time></trkpt><trkpt lat="44.6342425" lon="8.8427407"><ele>306.0</ele><time>2026-03-30T14:46:46Z</time></trkpt><trkpt lat="44.634112" lon="8.842783"><ele>306.0</ele><time>2026-03-30T14:46:46.999Z</time></trkpt><trkpt lat="44.6337064" lon="8.8428413"><ele>306.0</ele><time>2026-03-30T14:46:50Z</time></trkpt><trkpt lat="44.6335745" lon="8.84285"><ele>309.0</ele><time>2026-03-30T14:46:51.148Z</time></trkpt><trkpt lat="44.6334454" lon="8.8428603"><ele>312.0</ele><time>2026-03-30T14:46:52.153Z</time></trkpt><trkpt lat="44.6333278" lon="8.8428868"><ele>315.0</ele><time>2026-03-30T14:46:53.154Z</time></trkpt><trkpt lat="44.6331085" lon="8.8429833"><ele>315.0</ele><time>2026-03-30T14:46:55Z</time></trkpt><trkpt lat="44.6330167" lon="8.8430329"><ele>315.0</ele><time>2026-03-30T14:46:56.133Z</time></trkpt><trkpt lat="44.6329153" lon="8.8430785"><ele>315.0</ele><time>2026-03-30T14:46:57.154Z</time></trkpt><trkpt lat="44.6328343" lon="8.8430902"><ele>315.0</ele><time>2026-03-30T14:46:58.107Z</time></trkpt><trkpt lat="44.63266" lon="8.843052"><ele>315.25</ele><time>2026-03-30T14:47:00Z</time></trkpt><trkpt lat="44.6325864" lon="8.8429577"><ele>315.5</ele><time>2026-03-30T14:47:01.167Z</time></trkpt><trkpt lat="44.6325373" lon="8.842845"><ele>315.75</ele><time>2026-03-30T14:47:02.137Z</time></trkpt><trkpt lat="44.6325008" lon="8.8427218"><ele>316.0</ele><time>2026-03-30T14:47:03.134Z</time></trkpt><trkpt lat="44.6325024" lon="8.8424342"><ele>318.5</ele><time>2026-03-30T14:47:05Z</time></trkpt><trkpt lat="44.6324959" lon="8.8422762"><ele>321.0</ele><time>2026-03-30T14:47:06.137Z</time></trkpt><trkpt lat="44.632467" lon="8.8421203"><ele>323.5</ele><time>2026-03-30T14:47:07.151Z</time></trkpt><trkpt lat="44.6324334" lon="8.8419684"><ele>326.0</ele><time>2026-03-30T14:47:08.116Z</time></trkpt><trkpt lat="44.6323558" lon="8.8417326"><ele>327.75</ele><time>2026-03-30T14:47:10.176Z</time></trkpt><trkpt lat="44.6322791" lon="8.8415741"><ele>329.5</ele><time>2026-03-30T14:47:12.132Z</time></trkpt><trkpt lat="44.6322289" lon="8.8414852"><ele>331.25</ele><time>2026-03-30T14:47:13.163Z</time></trkpt><trkpt lat="44.6320614" lon="8.841354"><ele>333.0</ele><time>2026-03-30T14:47:15Z</time></trkpt><trkpt lat="44.6319169" lon="8.8413894"><ele>333.0</ele><time>2026-03-30T14:47:16.179Z</time></trkpt><trkpt lat="44.6317358" lon="8.8415758"><ele>333.0</ele><time>2026-03-30T14:47:17.171Z</time></trkpt><trkpt lat="44.6315827" lon="8.841662"><ele>333.0</ele><time>2026-03-30T14:47:18.174Z</time></trkpt><trkpt lat="44.6312892" lon="8.8418432"><ele>325.6666666666667</ele><time>2026-03-30T14:47:20Z</time></trkpt><trkpt lat="44.6311486" lon="8.8419116"><ele>318.33333333333337</ele><time>2026-03-30T14:47:21.174Z</time></trkpt><trkpt lat="44.6310031" lon="8.841959"><ele>311.0</ele><time>2026-03-30T14:47:22.169Z</time></trkpt><trkpt lat="44.630753" lon="8.8419599"><ele>310.75</ele><time>2026-03-30T14:47:24Z</time></trkpt><trkpt lat="44.6306288" lon="8.8419289"><ele>310.5</ele><time>2026-03-30T14:47:25Z</time></trkpt><trkpt lat="44.6305056" lon="8.841922"><ele>310.25</ele><time>2026-03-30T14:47:26.152Z</time></trkpt><trkpt lat="44.6303751" lon="8.8419452"><ele>310.0</ele><time>2026-03-30T14:47:27.183Z</time></trkpt><trkpt lat="44.6302474" lon="8.8419667"><ele>311.66666666666663</ele><time>2026-03-30T14:47:28.179Z</time></trkpt><trkpt lat="44.6300076" lon="8.8420845"><ele>313.3333333333333</ele><time>2026-03-30T14:47:30Z</time></trkpt><trkpt lat="44.6298904" lon="8.8421553"><ele>315.0</ele><time>2026-03-30T14:47:31.195Z</time></trkpt><trkpt lat="44.6296479" lon="8.8423184"><ele>315.0</ele><time>2026-03-30T14:47:33Z</time></trkpt><trkpt lat="44.6295212" lon="8.8424064"><ele>315.0</ele><time>2026-03-30T14:47:34Z</time></trkpt><trkpt lat="44.6293974" lon="8.8424962"><ele>315.0</ele><time>2026-03-30T14:47:35Z</time></trkpt><trkpt lat="44.6292736" lon="8.8425719"><ele>315.0</ele><time>2026-03-30T14:47:36Z</time></trkpt><trkpt lat="44.6291395" lon="8.8426474"><ele>315.0</ele><time>2026-03-30T14:47:37Z</time></trkpt><trkpt lat="44.6290045" lon="8.8426777"><ele>315.0</ele><time>2026-03-30T14:47:37.999Z</time></trkpt><trkpt lat="44.6288665" lon="8.8426959"><ele>315.0</ele><time>2026-03-30T14:47:39Z</time></trkpt><trkpt lat="44.6287254" lon="8.8427032"><ele>315.0</ele><time>2026-03-30T14:47:40Z</time></trkpt><trkpt lat="44.6285866" lon="8.8427187"><ele>316.3333333333333</ele><time>2026-03-30T14:47:41Z</time></trkpt><trkpt lat="44.6284336" lon="8.8427267"><ele>317.66666666666663</ele><time>2026-03-30T14:47:42Z</time></trkpt><trkpt lat="44.6282896" lon="8.8427417"><ele>319.0</ele><time>2026-03-30T14:47:43Z</time></trkpt><trkpt lat="44.6281382" lon="8.8427614"><ele>319.0</ele><time>2026-03-30T14:47:44Z</time></trkpt><trkpt lat="44.6279978" lon="8.8427857"><ele>319.0</ele><time>2026-03-30T14:47:45Z</time></trkpt><trkpt lat="44.6278575" lon="8.8428129"><ele>319.0</ele><time>2026-03-30T14:47:46Z</time></trkpt><trkpt lat="44.6277197" lon="8.8428339"><ele>319.0</ele><time>2026-03-30T14:47:47Z</time></trkpt><trkpt lat="44.6275819" lon="8.8428642"><ele>320.75</ele><time>2026-03-30T14:47:48Z</time></trkpt><trkpt lat="44.6274534" lon="8.8428951"><ele>322.5</ele><time>2026-03-30T14:47:49Z</time></trkpt><trkpt lat="44.6273267" lon="8.8429327"><ele>324.25</ele><time>2026-03-30T14:47:49.999Z</time></trkpt><trkpt lat="44.6271979" lon="8.8429664"><ele>326.0</ele><time>2026-03-30T14:47:51Z</time></trkpt><trkpt lat="44.6270711" lon="8.8430161"><ele>326.25</ele><time>2026-03-30T14:47:52Z</time></trkpt><trkpt lat="44.6269406" lon="8.8430662"><ele>326.5</ele><time>2026-03-30T14:47:53Z</time></trkpt><trkpt lat="44.6268129" lon="8.8431343"><ele>326.75</ele><time>2026-03-30T14:47:54Z</time></trkpt><trkpt lat="44.6266858" lon="8.843212"><ele>327.0</ele><time>2026-03-30T14:47:55Z</time></trkpt><trkpt lat="44.6265557" lon="8.8433118"><ele>327.0</ele><time>2026-03-30T14:47:56Z</time></trkpt><trkpt lat="44.6264266" lon="8.84342"><ele>327.0</ele><time>2026-03-30T14:47:57Z</time></trkpt><trkpt lat="44.626306" lon="8.8435431"><ele>327.0</ele><time>2026-03-30T14:47:58Z</time></trkpt><trkpt lat="44.6261957" lon="8.843677"><ele>327.0</ele><time>2026-03-30T14:47:59Z</time></trkpt><trkpt lat="44.6260776" lon="8.8438123"><ele>327.0</ele><time>2026-03-30T14:48:00Z</time></trkpt><trkpt lat="44.6259745" lon="8.843952"><ele>327.0</ele><time>2026-03-30T14:48:01Z</time></trkpt><trkpt lat="44.6258771" lon="8.844097"><ele>327.0</ele><time>2026-03-30T14:48:02Z</time></trkpt><trkpt lat="44.6257519" lon="8.8442386"><ele>327.0</ele><time>2026-03-30T14:48:02.999Z</time></trkpt><trkpt lat="44.6256337" lon="8.8443818"><ele>327.0</ele><time>2026-03-30T14:48:04Z</time></trkpt><trkpt lat="44.6255204" lon="8.8445235"><ele>327.0</ele><time>2026-03-30T14:48:05Z</time></trkpt><trkpt lat="44.6254067" lon="8.8446639"><ele>327.0</ele><time>2026-03-30T14:48:06Z</time></trkpt><trkpt lat="44.6252936" lon="8.8448168"><ele>325.6666666666667</ele><time>2026-03-30T14:48:07Z</time></trkpt><trkpt lat="44.6251778" lon="8.8449761"><ele>324.33333333333337</ele><time>2026-03-30T14:48:08Z</time></trkpt><trkpt lat="44.6250578" lon="8.8451116"><ele>323.0</ele><time>2026-03-30T14:48:09Z</time></trkpt><trkpt lat="44.6249361" lon="8.845262"><ele>322.0</ele><time>2026-03-30T14:48:10Z</time></trkpt><trkpt lat="44.6248138" lon="8.8454174"><ele>321.0</ele><time>2026-03-30T14:48:11.112Z</time></trkpt><trkpt lat="44.6245695" lon="8.8457205"><ele>321.3333333333333</ele><time>2026-03-30T14:48:13Z</time></trkpt><trkpt lat="44.6244512" lon="8.8458705"><ele>321.66666666666663</ele><time>2026-03-30T14:48:14Z</time></trkpt><trkpt lat="44.6243388" lon="8.8460171"><ele>322.0</ele><time>2026-03-30T14:48:15Z</time></trkpt><trkpt lat="44.6242224" lon="8.8461551"><ele>322.0</ele><time>2026-03-30T14:48:16Z</time></trkpt><trkpt lat="44.6241057" lon="8.8462735"><ele>322.0</ele><time>2026-03-30T14:48:17Z</time></trkpt><trkpt lat="44.623996" lon="8.8463962"><ele>322.0</ele><time>2026-03-30T14:48:18.125Z</time></trkpt><trkpt lat="44.6237404" lon="8.8465445"><ele>322.0</ele><time>2026-03-30T14:48:20Z</time></trkpt><trkpt lat="44.623607" lon="8.8465972"><ele>322.0</ele><time>2026-03-30T14:48:21.155Z</time></trkpt><trkpt lat="44.6234616" lon="8.8466183"><ele>322.0</ele><time>2026-03-30T14:48:22.145Z</time></trkpt><trkpt lat="44.6231801" lon="8.8466124"><ele>322.0</ele><time>2026-03-30T14:48:24Z</time></trkpt><trkpt lat="44.6230405" lon="8.8465766"><ele>322.0</ele><time>2026-03-30T14:48:25Z</time></trkpt><trkpt lat="44.6229095" lon="8.8465134"><ele>322.0</ele><time>2026-03-30T14:48:26.123Z</time></trkpt><trkpt lat="44.6227844" lon="8.8464323"><ele>322.0</ele><time>2026-03-30T14:48:27.125Z</time></trkpt><trkpt lat="44.6226671" lon="8.8463402"><ele>319.3333333333333</ele><time>2026-03-30T14:48:28.15Z</time></trkpt><trkpt lat="44.6224255" lon="8.8461811"><ele>316.6666666666667</ele><time>2026-03-30T14:48:30Z</time></trkpt><trkpt lat="44.6223156" lon="8.8460947"><ele>314.0</ele><time>2026-03-30T14:48:31.156Z</time></trkpt><trkpt lat="44.6221926" lon="8.8460123"><ele>313.6666666666667</ele><time>2026-03-30T14:48:32.151Z</time></trkpt><trkpt lat="44.6220672" lon="8.8459264"><ele>313.3333333333333</ele><time>2026-03-30T14:48:33.127Z</time></trkpt><trkpt lat="44.6218376" lon="8.8457629"><ele>313.0</ele><time>2026-03-30T14:48:35Z</time></trkpt><trkpt lat="44.6217247" lon="8.8456808"><ele>313.0</ele><time>2026-03-30T14:48:36.156Z</time></trkpt><trkpt lat="44.6214925" lon="8.8455336"><ele>313.0</ele><time>2026-03-30T14:48:38.137Z</time></trkpt><trkpt lat="44.6212418" lon="8.8454416"><ele>313.25</ele><time>2026-03-30T14:48:40Z</time></trkpt><trkpt lat="44.6211169" lon="8.8453906"><ele>313.5</ele><time>2026-03-30T14:48:41Z</time></trkpt><trkpt lat="44.6209914" lon="8.8453401"><ele>313.75</ele><time>2026-03-30T14:48:41.999Z</time></trkpt><trkpt lat="44.6208694" lon="8.8452925"><ele>314.0</ele><time>2026-03-30T14:48:43.122Z</time></trkpt><trkpt lat="44.6206264" lon="8.8451956"><ele>314.5</ele><time>2026-03-30T14:48:45.156Z</time></trkpt><trkpt lat="44.6203823" lon="8.8450955"><ele>315.0</ele><time>2026-03-30T14:48:47.153Z</time></trkpt><trkpt lat="44.620145" lon="8.8450058"><ele>316.25</ele><time>2026-03-30T14:48:49Z</time></trkpt><trkpt lat="44.6200237" lon="8.8449548"><ele>317.5</ele><time>2026-03-30T14:48:50Z</time></trkpt><trkpt lat="44.6198993" lon="8.8449004"><ele>318.75</ele><time>2026-03-30T14:48:51.153Z</time></trkpt><trkpt lat="44.6197812" lon="8.8448491"><ele>320.0</ele><time>2026-03-30T14:48:52.138Z</time></trkpt><trkpt lat="44.6196711" lon="8.8448066"><ele>324.33333333333337</ele><time>2026-03-30T14:48:53.166Z</time></trkpt><trkpt lat="44.6194447" lon="8.8447097"><ele>328.6666666666667</ele><time>2026-03-30T14:48:55Z</time></trkpt><trkpt lat="44.6193282" lon="8.8446665"><ele>333.0</ele><time>2026-03-30T14:48:56Z</time></trkpt><trkpt lat="44.6192182" lon="8.8446241"><ele>333.0</ele><time>2026-03-30T14:48:57.132Z</time></trkpt><trkpt lat="44.6190832" lon="8.8446017"><ele>333.0</ele><time>2026-03-30T14:48:58.164Z</time></trkpt><trkpt lat="44.618837" lon="8.8446023"><ele>333.0</ele><time>2026-03-30T14:48:59.999Z</time></trkpt><trkpt lat="44.6187101" lon="8.8446466"><ele>332.3333333333333</ele><time>2026-03-30T14:49:01.133Z</time></trkpt><trkpt lat="44.6185798" lon="8.8447309"><ele>331.66666666666663</ele><time>2026-03-30T14:49:02.146Z</time></trkpt><trkpt lat="44.6184606" lon="8.8448385"><ele>331.0</ele><time>2026-03-30T14:49:03.182Z</time></trkpt><trkpt lat="44.6182517" lon="8.8450675"><ele>334.75</ele><time>2026-03-30T14:49:05Z</time></trkpt><trkpt lat="44.618143" lon="8.8451533"><ele>338.5</ele><time>2026-03-30T14:49:06.168Z</time></trkpt><trkpt lat="44.6180271" lon="8.8452281"><ele>342.25</ele><time>2026-03-30T14:49:07.17Z</time></trkpt><trkpt lat="44.6179059" lon="8.8452666"><ele>346.0</ele><time>2026-03-30T14:49:08.128Z</time></trkpt><trkpt lat="44.6176553" lon="8.8452752"><ele>347.25</ele><time>2026-03-30T14:49:10Z</time></trkpt><trkpt lat="44.6175381" lon="8.8452494"><ele>348.5</ele><time>2026-03-30T14:49:11.117Z</time></trkpt><trkpt lat="44.6174151" lon="8.8452039"><ele>349.75</ele><time>2026-03-30T14:49:12.159Z</time></trkpt><trkpt lat="44.6172934" lon="8.8451506"><ele>351.0</ele><time>2026-03-30T14:49:13.146Z</time></trkpt><trkpt lat="44.6170573" lon="8.8450347"><ele>349.0</ele><time>2026-03-30T14:49:15Z</time></trkpt><trkpt lat="44.616945" lon="8.8449717"><ele>347.0</ele><time>2026-03-30T14:49:16.123Z</time></trkpt><trkpt lat="44.6168305" lon="8.844921"><ele>345.0</ele><time>2026-03-30T14:49:17.153Z</time></trkpt><trkpt lat="44.6167313" lon="8.8448665"><ele>343.0</ele><time>2026-03-30T14:49:18.155Z</time></trkpt><trkpt lat="44.6165539" lon="8.8447775"><ele>343.0</ele><time>2026-03-30T14:49:20Z</time></trkpt><trkpt lat="44.6164663" lon="8.8447384"><ele>343.0</ele><time>2026-03-30T14:49:21Z</time></trkpt><trkpt lat="44.6163866" lon="8.8447072"><ele>343.0</ele><time>2026-03-30T14:49:21.999Z</time></trkpt><trkpt lat="44.6163116" lon="8.8446742"><ele>343.0</ele><time>2026-03-30T14:49:23.155Z</time></trkpt><trkpt lat="44.6161541" lon="8.8446501"><ele>343.0</ele><time>2026-03-30T14:49:25Z</time></trkpt><trkpt lat="44.6160574" lon="8.8446531"><ele>343.25</ele><time>2026-03-30T14:49:26.125Z</time></trkpt><trkpt lat="44.6159572" lon="8.8446674"><ele>343.5</ele><time>2026-03-30T14:49:27.125Z</time></trkpt><trkpt lat="44.6158668" lon="8.8446856"><ele>343.75</ele><time>2026-03-30T14:49:28.162Z</time></trkpt><trkpt lat="44.6156694" lon="8.844742"><ele>344.0</ele><time>2026-03-30T14:49:30Z</time></trkpt><trkpt lat="44.6155709" lon="8.8447872"><ele>344.0</ele><time>2026-03-30T14:49:31.163Z</time></trkpt><trkpt lat="44.6154749" lon="8.8448534"><ele>344.0</ele><time>2026-03-30T14:49:32.157Z</time></trkpt><trkpt lat="44.6153737" lon="8.8449373"><ele>344.0</ele><time>2026-03-30T14:49:33.101Z</time></trkpt><trkpt lat="44.6151693" lon="8.8450833"><ele>345.25</ele><time>2026-03-30T14:49:35Z</time></trkpt><trkpt lat="44.615081" lon="8.8451987"><ele>346.5</ele><time>2026-03-30T14:49:36.132Z</time></trkpt><trkpt lat="44.6149938" lon="8.8453228"><ele>347.75</ele><time>2026-03-30T14:49:37.161Z</time></trkpt><trkpt lat="44.6149094" lon="8.8454415"><ele>349.0</ele><time>2026-03-30T14:49:38.146Z</time></trkpt><trkpt lat="44.6147182" lon="8.8456766"><ele>349.0</ele><time>2026-03-30T14:49:40Z</time></trkpt><trkpt lat="44.6146061" lon="8.84579"><ele>349.0</ele><time>2026-03-30T14:49:41.156Z</time></trkpt><trkpt lat="44.6144905" lon="8.8458714"><ele>349.0</ele><time>2026-03-30T14:49:42.153Z</time></trkpt><trkpt lat="44.6143773" lon="8.845906"><ele>349.0</ele><time>2026-03-30T14:49:43.126Z</time></trkpt><trkpt lat="44.6141469" lon="8.8459791"><ele>353.66666666666663</ele><time>2026-03-30T14:49:45Z</time></trkpt><trkpt lat="44.6140299" lon="8.8460115"><ele>358.3333333333333</ele><time>2026-03-30T14:49:46.13Z</time></trkpt><trkpt lat="44.6139183" lon="8.8460452"><ele>363.0</ele><time>2026-03-30T14:49:47.17Z</time></trkpt><trkpt lat="44.6136944" lon="8.8461176"><ele>361.5</ele><time>2026-03-30T14:49:49Z</time></trkpt><trkpt lat="44.6135819" lon="8.8461586"><ele>360.0</ele><time>2026-03-30T14:49:50.168Z</time></trkpt><trkpt lat="44.6134705" lon="8.8462017"><ele>358.5</ele><time>2026-03-30T14:49:51.108Z</time></trkpt><trkpt lat="44.6133492" lon="8.8462369"><ele>357.0</ele><time>2026-03-30T14:49:52.167Z</time></trkpt><trkpt lat="44.6131042" lon="8.8463213"><ele>357.0</ele><time>2026-03-30T14:49:54Z</time></trkpt><trkpt lat="44.6129726" lon="8.8463618"><ele>357.0</ele><time>2026-03-30T14:49:55.175Z</time></trkpt><trkpt lat="44.6126972" lon="8.8464391"><ele>357.0</ele><time>2026-03-30T14:49:57.143Z</time></trkpt><trkpt lat="44.6124046" lon="8.846486"><ele>356.0</ele><time>2026-03-30T14:49:59Z</time></trkpt><trkpt lat="44.6122602" lon="8.8465177"><ele>355.0</ele><time>2026-03-30T14:50:00Z</time></trkpt><trkpt lat="44.6121099" lon="8.8465478"><ele>354.0</ele><time>2026-03-30T14:50:01.143Z</time></trkpt><trkpt lat="44.6118019" lon="8.8466329"><ele>352.25</ele><time>2026-03-30T14:50:03Z</time></trkpt><trkpt lat="44.6116559" lon="8.8466912"><ele>350.5</ele><time>2026-03-30T14:50:04Z</time></trkpt><trkpt lat="44.6115167" lon="8.846753"><ele>348.75</ele><time>2026-03-30T14:50:05Z</time></trkpt><trkpt lat="44.6113792" lon="8.8468055"><ele>347.0</ele><time>2026-03-30T14:50:06.127Z</time></trkpt><trkpt lat="44.6112363" lon="8.8468416"><ele>353.33333333333337</ele><time>2026-03-30T14:50:07.177Z</time></trkpt><trkpt lat="44.611083" lon="8.8468831"><ele>359.6666666666667</ele><time>2026-03-30T14:50:08.149Z</time></trkpt><trkpt lat="44.6107922" lon="8.8469297"><ele>366.0</ele><time>2026-03-30T14:50:10Z</time></trkpt><trkpt lat="44.6106442" lon="8.8469426"><ele>366.0</ele><time>2026-03-30T14:50:11.151Z</time></trkpt><trkpt lat="44.6104964" lon="8.8469602"><ele>366.0</ele><time>2026-03-30T14:50:12.105Z</time></trkpt><trkpt lat="44.6103501" lon="8.8469692"><ele>366.0</ele><time>2026-03-30T14:50:13.149Z</time></trkpt><trkpt lat="44.6100624" lon="8.8469896"><ele>365.0</ele><time>2026-03-30T14:50:15Z</time></trkpt><trkpt lat="44.609919" lon="8.8469967"><ele>364.0</ele><time>2026-03-30T14:50:16.149Z</time></trkpt><trkpt lat="44.6097686" lon="8.8470183"><ele>363.0</ele><time>2026-03-30T14:50:17.141Z</time></trkpt><trkpt lat="44.609632" lon="8.8470481"><ele>362.0</ele><time>2026-03-30T14:50:18.127Z</time></trkpt><trkpt lat="44.6093819" lon="8.8471786"><ele>362.0</ele><time>2026-03-30T14:50:20Z</time></trkpt><trkpt lat="44.6092583" lon="8.8472683"><ele>362.0</ele><time>2026-03-30T14:50:21.135Z</time></trkpt><trkpt lat="44.6090422" lon="8.8474846"><ele>362.0</ele><time>2026-03-30T14:50:23Z</time></trkpt><trkpt lat="44.6089432" lon="8.8476115"><ele>364.0</ele><time>2026-03-30T14:50:24Z</time></trkpt><trkpt lat="44.608849" lon="8.8477458"><ele>366.0</ele><time>2026-03-30T14:50:24.999Z</time></trkpt><trkpt lat="44.6087597" lon="8.8478839"><ele>368.0</ele><time>2026-03-30T14:50:26.146Z</time></trkpt><trkpt lat="44.6085909" lon="8.8481756"><ele>368.0</ele><time>2026-03-30T14:50:28Z</time></trkpt><trkpt lat="44.608519" lon="8.8483345"><ele>368.0</ele><time>2026-03-30T14:50:29Z</time></trkpt><trkpt lat="44.6084548" lon="8.8485091"><ele>368.0</ele><time>2026-03-30T14:50:30Z</time></trkpt><trkpt lat="44.6084018" lon="8.8486943"><ele>368.0</ele><time>2026-03-30T14:50:31Z</time></trkpt><trkpt lat="44.6083661" lon="8.8488843"><ele>369.6666666666667</ele><time>2026-03-30T14:50:32.155Z</time></trkpt><trkpt lat="44.6083396" lon="8.849285"><ele>371.3333333333333</ele><time>2026-03-30T14:50:34Z</time></trkpt><trkpt lat="44.6083479" lon="8.8494909"><ele>373.0</ele><time>2026-03-30T14:50:35Z</time></trkpt><trkpt lat="44.6083654" lon="8.8496886"><ele>372.75</ele><time>2026-03-30T14:50:36Z</time></trkpt><trkpt lat="44.608383" lon="8.8498887"><ele>372.5</ele><time>2026-03-30T14:50:37Z</time></trkpt><trkpt lat="44.6084109" lon="8.8500856"><ele>372.25</ele><time>2026-03-30T14:50:38Z</time></trkpt><trkpt lat="44.6084363" lon="8.850276"><ele>372.0</ele><time>2026-03-30T14:50:39Z</time></trkpt><trkpt lat="44.6084576" lon="8.8504757"><ele>372.0</ele><time>2026-03-30T14:50:40Z</time></trkpt><trkpt lat="44.6084784" lon="8.8506679"><ele>372.0</ele><time>2026-03-30T14:50:41Z</time></trkpt><trkpt lat="44.6085029" lon="8.8508579"><ele>372.0</ele><time>2026-03-30T14:50:42Z</time></trkpt><trkpt lat="44.6085313" lon="8.8510418"><ele>372.0</ele><time>2026-03-30T14:50:43Z</time></trkpt><trkpt lat="44.6085638" lon="8.8512093"><ele>372.5</ele><time>2026-03-30T14:50:44Z</time></trkpt><trkpt lat="44.6085934" lon="8.8513759"><ele>373.0</ele><time>2026-03-30T14:50:45Z</time></trkpt><trkpt lat="44.6086439" lon="8.8515423"><ele>373.5</ele><time>2026-03-30T14:50:46Z</time></trkpt><trkpt lat="44.6086982" lon="8.85167"><ele>374.0</ele><time>2026-03-30T14:50:47Z</time></trkpt><trkpt lat="44.6087565" lon="8.8517961"><ele>379.4</ele><time>2026-03-30T14:50:48Z</time></trkpt><trkpt lat="44.6088041" lon="8.8519147"><ele>384.79999999999995</ele><time>2026-03-30T14:50:49Z</time></trkpt><trkpt lat="44.6088341" lon="8.8520396"><ele>390.20000000000005</ele><time>2026-03-30T14:50:50Z</time></trkpt><trkpt lat="44.6088336" lon="8.852166"><ele>395.6</ele><time>2026-03-30T14:50:51Z</time></trkpt><trkpt lat="44.6088034" lon="8.8522939"><ele>401.0</ele><time>2026-03-30T14:50:52.128Z</time></trkpt><trkpt lat="44.6087537" lon="8.8524107"><ele>399.3333333333333</ele><time>2026-03-30T14:50:53.103Z</time></trkpt><trkpt lat="44.6085802" lon="8.8526191"><ele>397.66666666666663</ele><time>2026-03-30T14:50:55Z</time></trkpt><trkpt lat="44.6084878" lon="8.852699"><ele>396.0</ele><time>2026-03-30T14:50:56Z</time></trkpt><trkpt lat="44.6083762" lon="8.8527844"><ele>396.0</ele><time>2026-03-30T14:50:57Z</time></trkpt><trkpt lat="44.6082509" lon="8.8528635"><ele>396.0</ele><time>2026-03-30T14:50:57.999Z</time></trkpt><trkpt lat="44.6081198" lon="8.8529289"><ele>396.0</ele><time>2026-03-30T14:50:59Z</time></trkpt><trkpt lat="44.6079881" lon="8.8529827"><ele>396.0</ele><time>2026-03-30T14:51:00Z</time></trkpt><trkpt lat="44.6078397" lon="8.8530357"><ele>389.6666666666667</ele><time>2026-03-30T14:51:01.163Z</time></trkpt><trkpt lat="44.6077091" lon="8.8530778"><ele>383.33333333333337</ele><time>2026-03-30T14:51:02.159Z</time></trkpt><trkpt lat="44.6075664" lon="8.8531293"><ele>377.0</ele><time>2026-03-30T14:51:03.107Z</time></trkpt><trkpt lat="44.6073217" lon="8.8531723"><ele>377.0</ele><time>2026-03-30T14:51:04.999Z</time></trkpt><trkpt lat="44.6071621" lon="8.8532521"><ele>377.0</ele><time>2026-03-30T14:51:06.136Z</time></trkpt><trkpt lat="44.6070154" lon="8.8532987"><ele>377.0</ele><time>2026-03-30T14:51:07.157Z</time></trkpt><trkpt lat="44.6068821" lon="8.8533469"><ele>375.6666666666667</ele><time>2026-03-30T14:51:08.137Z</time></trkpt><trkpt lat="44.6066049" lon="8.8534522"><ele>374.3333333333333</ele><time>2026-03-30T14:51:10.177Z</time></trkpt><trkpt lat="44.6064668" lon="8.8535091"><ele>373.0</ele><time>2026-03-30T14:51:11Z</time></trkpt><trkpt lat="44.6063235" lon="8.8535729"><ele>373.75</ele><time>2026-03-30T14:51:12Z</time></trkpt><trkpt lat="44.6061831" lon="8.8536383"><ele>374.5</ele><time>2026-03-30T14:51:13Z</time></trkpt><trkpt lat="44.6060385" lon="8.8537024"><ele>375.25</ele><time>2026-03-30T14:51:14Z</time></trkpt><trkpt lat="44.6058977" lon="8.8537568"><ele>376.0</ele><time>2026-03-30T14:51:15.16Z</time></trkpt><trkpt lat="44.6057597" lon="8.8538134"><ele>376.0</ele><time>2026-03-30T14:51:16.133Z</time></trkpt><trkpt lat="44.6056187" lon="8.8538742"><ele>376.0</ele><time>2026-03-30T14:51:17.172Z</time></trkpt><trkpt lat="44.6054827" lon="8.8539382"><ele>376.0</ele><time>2026-03-30T14:51:18.144Z</time></trkpt><trkpt lat="44.6052041" lon="8.8540633"><ele>375.75</ele><time>2026-03-30T14:51:20Z</time></trkpt><trkpt lat="44.6050704" lon="8.8541333"><ele>375.5</ele><time>2026-03-30T14:51:21.157Z</time></trkpt><trkpt lat="44.6049342" lon="8.8542063"><ele>375.25</ele><time>2026-03-30T14:51:22.139Z</time></trkpt><trkpt lat="44.6047981" lon="8.8542798"><ele>375.0</ele><time>2026-03-30T14:51:23.172Z</time></trkpt><trkpt lat="44.6045375" lon="8.8544292"><ele>376.0</ele><time>2026-03-30T14:51:25Z</time></trkpt><trkpt lat="44.6044078" lon="8.8545202"><ele>377.0</ele><time>2026-03-30T14:51:26.158Z</time></trkpt><trkpt lat="44.6042907" lon="8.8546257"><ele>378.0</ele><time>2026-03-30T14:51:27.149Z</time></trkpt><trkpt lat="44.604077" lon="8.8548891"><ele>378.0</ele><time>2026-03-30T14:51:29Z</time></trkpt><trkpt lat="44.6039704" lon="8.8550304"><ele>378.0</ele><time>2026-03-30T14:51:30Z</time></trkpt><trkpt lat="44.6038683" lon="8.8551745"><ele>378.0</ele><time>2026-03-30T14:51:30.999Z</time></trkpt><trkpt lat="44.6037707" lon="8.8553182"><ele>378.0</ele><time>2026-03-30T14:51:31.999Z</time></trkpt><trkpt lat="44.6036774" lon="8.8554714"><ele>379.3333333333333</ele><time>2026-03-30T14:51:33.102Z</time></trkpt><trkpt lat="44.6035029" lon="8.8557866"><ele>380.66666666666663</ele><time>2026-03-30T14:51:35Z</time></trkpt><trkpt lat="44.6034134" lon="8.8559519"><ele>382.0</ele><time>2026-03-30T14:51:36Z</time></trkpt><trkpt lat="44.6033236" lon="8.8561154"><ele>382.66666666666663</ele><time>2026-03-30T14:51:36.999Z</time></trkpt><trkpt lat="44.6032337" lon="8.8562773"><ele>383.3333333333333</ele><time>2026-03-30T14:51:38Z</time></trkpt><trkpt lat="44.6031419" lon="8.8564463"><ele>384.0</ele><time>2026-03-30T14:51:39Z</time></trkpt><trkpt lat="44.6030507" lon="8.8566183"><ele>386.0</ele><time>2026-03-30T14:51:40.158Z</time></trkpt><trkpt lat="44.6028625" lon="8.8569674"><ele>388.0</ele><time>2026-03-30T14:51:42.104Z</time></trkpt><trkpt lat="44.6026754" lon="8.8573268"><ele>388.0</ele><time>2026-03-30T14:51:44Z</time></trkpt><trkpt lat="44.6025769" lon="8.8574982"><ele>388.0</ele><time>2026-03-30T14:51:45Z</time></trkpt><trkpt lat="44.6024713" lon="8.857655"><ele>388.0</ele><time>2026-03-30T14:51:46.179Z</time></trkpt><trkpt lat="44.6023608" lon="8.8577973"><ele>389.5</ele><time>2026-03-30T14:51:47.126Z</time></trkpt><trkpt lat="44.6022535" lon="8.8579293"><ele>391.0</ele><time>2026-03-30T14:51:48.128Z</time></trkpt><trkpt lat="44.6021517" lon="8.8580785"><ele>392.5</ele><time>2026-03-30T14:51:49Z</time></trkpt><trkpt lat="44.6020539" lon="8.8582069"><ele>394.0</ele><time>2026-03-30T14:51:50Z</time></trkpt><trkpt lat="44.6019579" lon="8.8583238"><ele>394.0</ele><time>2026-03-30T14:51:51.121Z</time></trkpt><trkpt lat="44.6018711" lon="8.8584311"><ele>394.0</ele><time>2026-03-30T14:51:52.109Z</time></trkpt><trkpt lat="44.60178" lon="8.8585312"><ele>394.0</ele><time>2026-03-30T14:51:53.115Z</time></trkpt><trkpt lat="44.6015989" lon="8.8587287"><ele>399.25</ele><time>2026-03-30T14:51:55Z</time></trkpt><trkpt lat="44.6014613" lon="8.8587785"><ele>404.5</ele><time>2026-03-30T14:51:56.129Z</time></trkpt><trkpt lat="44.6013374" lon="8.8588195"><ele>409.75</ele><time>2026-03-30T14:51:57.133Z</time></trkpt><trkpt lat="44.6012044" lon="8.8588415"><ele>415.0</ele><time>2026-03-30T14:51:58.156Z</time></trkpt><trkpt lat="44.6008914" lon="8.8588301"><ele>416.6666666666667</ele><time>2026-03-30T14:51:59.999Z</time></trkpt><trkpt lat="44.6007395" lon="8.85884"><ele>418.33333333333337</ele><time>2026-03-30T14:52:01.127Z</time></trkpt><trkpt lat="44.6005856" lon="8.858845"><ele>420.0</ele><time>2026-03-30T14:52:02.143Z</time></trkpt><trkpt lat="44.6004405" lon="8.858855"><ele>414.0</ele><time>2026-03-30T14:52:03.142Z</time></trkpt><trkpt lat="44.6001742" lon="8.8588853"><ele>408.0</ele><time>2026-03-30T14:52:05Z</time></trkpt><trkpt lat="44.6000572" lon="8.8589103"><ele>402.0</ele><time>2026-03-30T14:52:06.124Z</time></trkpt><trkpt lat="44.5999365" lon="8.8589432"><ele>402.0</ele><time>2026-03-30T14:52:07.158Z</time></trkpt><trkpt lat="44.5998191" lon="8.8589751"><ele>402.0</ele><time>2026-03-30T14:52:08.12Z</time></trkpt><trkpt lat="44.5995516" lon="8.8590864"><ele>402.0</ele><time>2026-03-30T14:52:10Z</time></trkpt><trkpt lat="44.5994994" lon="8.8592194"><ele>402.33333333333337</ele><time>2026-03-30T14:52:11.127Z</time></trkpt><trkpt lat="44.5994382" lon="8.8593482"><ele>402.6666666666667</ele><time>2026-03-30T14:52:12.143Z</time></trkpt><trkpt lat="44.5993471" lon="8.8594995"><ele>403.0</ele><time>2026-03-30T14:52:13.167Z</time></trkpt><trkpt lat="44.5991618" lon="8.8597597"><ele>403.0</ele><time>2026-03-30T14:52:15Z</time></trkpt><trkpt lat="44.5990756" lon="8.8598885"><ele>403.0</ele><time>2026-03-30T14:52:15.999Z</time></trkpt><trkpt lat="44.598979" lon="8.8600098"><ele>403.0</ele><time>2026-03-30T14:52:17.162Z</time></trkpt><trkpt lat="44.5988671" lon="8.8601173"><ele>403.0</ele><time>2026-03-30T14:52:18.174Z</time></trkpt><trkpt lat="44.5986088" lon="8.860237"><ele>404.75</ele><time>2026-03-30T14:52:20Z</time></trkpt><trkpt lat="44.5984857" lon="8.8602731"><ele>406.5</ele><time>2026-03-30T14:52:21.148Z</time></trkpt><trkpt lat="44.5983595" lon="8.8603286"><ele>408.25</ele><time>2026-03-30T14:52:22.162Z</time></trkpt><trkpt lat="44.5982261" lon="8.8603892"><ele>410.0</ele><time>2026-03-30T14:52:23.137Z</time></trkpt><trkpt lat="44.5979724" lon="8.860562"><ele>410.0</ele><time>2026-03-30T14:52:25Z</time></trkpt><trkpt lat="44.5978452" lon="8.8606539"><ele>410.0</ele><time>2026-03-30T14:52:26.141Z</time></trkpt><trkpt lat="44.59771" lon="8.860746"><ele>410.0</ele><time>2026-03-30T14:52:27.174Z</time></trkpt><trkpt lat="44.5975736" lon="8.860829"><ele>410.0</ele><time>2026-03-30T14:52:28.157Z</time></trkpt><trkpt lat="44.5973046" lon="8.8609745"><ele>411.3333333333333</ele><time>2026-03-30T14:52:30Z</time></trkpt><trkpt lat="44.5971609" lon="8.8610299"><ele>412.66666666666663</ele><time>2026-03-30T14:52:31Z</time></trkpt><trkpt lat="44.5970039" lon="8.8610743"><ele>414.0</ele><time>2026-03-30T14:52:32Z</time></trkpt><trkpt lat="44.5968481" lon="8.8611066"><ele>411.5</ele><time>2026-03-30T14:52:33Z</time></trkpt><trkpt lat="44.5966928" lon="8.8611171"><ele>409.0</ele><time>2026-03-30T14:52:34Z</time></trkpt><trkpt lat="44.5965458" lon="8.8611236"><ele>406.5</ele><time>2026-03-30T14:52:35Z</time></trkpt><trkpt lat="44.5964033" lon="8.8611303"><ele>404.0</ele><time>2026-03-30T14:52:36Z</time></trkpt><trkpt lat="44.5962603" lon="8.8611384"><ele>403.0</ele><time>2026-03-30T14:52:36.999Z</time></trkpt><trkpt lat="44.596118" lon="8.8611372"><ele>402.0</ele><time>2026-03-30T14:52:37.999Z</time></trkpt><trkpt lat="44.5959789" lon="8.8611318"><ele>401.0</ele><time>2026-03-30T14:52:39Z</time></trkpt><trkpt lat="44.5958404" lon="8.8610969"><ele>400.0</ele><time>2026-03-30T14:52:40Z</time></trkpt><trkpt lat="44.5957004" lon="8.8610432"><ele>400.0</ele><time>2026-03-30T14:52:41Z</time></trkpt><trkpt lat="44.5955615" lon="8.8609751"><ele>400.0</ele><time>2026-03-30T14:52:42Z</time></trkpt><trkpt lat="44.5954341" lon="8.8608805"><ele>400.0</ele><time>2026-03-30T14:52:43Z</time></trkpt><trkpt lat="44.5953049" lon="8.8607777"><ele>400.0</ele><time>2026-03-30T14:52:44Z</time></trkpt><trkpt lat="44.5951751" lon="8.8606677"><ele>400.6666666666667</ele><time>2026-03-30T14:52:45.139Z</time></trkpt><trkpt lat="44.5949147" lon="8.8604604"><ele>401.33333333333337</ele><time>2026-03-30T14:52:47Z</time></trkpt><trkpt lat="44.594788" lon="8.8603497"><ele>402.0</ele><time>2026-03-30T14:52:48Z</time></trkpt><trkpt lat="44.5946611" lon="8.8602336"><ele>405.0</ele><time>2026-03-30T14:52:49Z</time></trkpt><trkpt lat="44.5945436" lon="8.8601067"><ele>408.0</ele><time>2026-03-30T14:52:50Z</time></trkpt><trkpt lat="44.5944281" lon="8.8599799"><ele>411.0</ele><time>2026-03-30T14:52:51Z</time></trkpt><trkpt lat="44.5943315" lon="8.8598373"><ele>414.0</ele><time>2026-03-30T14:52:52Z</time></trkpt><trkpt lat="44.5942391" lon="8.8596957"><ele>414.0</ele><time>2026-03-30T14:52:52.999Z</time></trkpt><trkpt lat="44.5941524" lon="8.8595464"><ele>414.0</ele><time>2026-03-30T14:52:54Z</time></trkpt><trkpt lat="44.5940754" lon="8.8594003"><ele>414.0</ele><time>2026-03-30T14:52:55Z</time></trkpt><trkpt lat="44.593997" lon="8.8592472"><ele>414.0</ele><time>2026-03-30T14:52:55.999Z</time></trkpt><trkpt lat="44.5939224" lon="8.8590949"><ele>419.75</ele><time>2026-03-30T14:52:57Z</time></trkpt><trkpt lat="44.5938472" lon="8.8589557"><ele>425.5</ele><time>2026-03-30T14:52:58Z</time></trkpt><trkpt lat="44.5937701" lon="8.8588019"><ele>431.25</ele><time>2026-03-30T14:52:59Z</time></trkpt><trkpt lat="44.5936956" lon="8.8586502"><ele>437.0</ele><time>2026-03-30T14:53:00Z</time></trkpt><trkpt lat="44.593628" lon="8.8585018"><ele>436.0</ele><time>2026-03-30T14:53:01Z</time></trkpt><trkpt lat="44.5935713" lon="8.8583531"><ele>435.0</ele><time>2026-03-30T14:53:01.999Z</time></trkpt><trkpt lat="44.5935162" lon="8.8582089"><ele>434.0</ele><time>2026-03-30T14:53:03Z</time></trkpt><trkpt lat="44.5934512" lon="8.8580861"><ele>433.0</ele><time>2026-03-30T14:53:04Z</time></trkpt><trkpt lat="44.5933753" lon="8.8579784"><ele>433.0</ele><time>2026-03-30T14:53:05Z</time></trkpt><trkpt lat="44.593291" lon="8.857891"><ele>432.99999999999994</ele><time>2026-03-30T14:53:05.999Z</time></trkpt><trkpt lat="44.5932129" lon="8.8577879"><ele>432.99999999999994</ele><time>2026-03-30T14:53:07Z</time></trkpt><trkpt lat="44.5931304" lon="8.8576871"><ele>433.0</ele><time>2026-03-30T14:53:08Z</time></trkpt><trkpt lat="44.5930432" lon="8.8575842"><ele>433.0</ele><time>2026-03-30T14:53:08.999Z</time></trkpt><trkpt lat="44.5929595" lon="8.857504"><ele>430.75</ele><time>2026-03-30T14:53:10Z</time></trkpt><trkpt lat="44.5928533" lon="8.8574205"><ele>428.5</ele><time>2026-03-30T14:53:11Z</time></trkpt><trkpt lat="44.5927425" lon="8.8573594"><ele>426.25</ele><time>2026-03-30T14:53:12Z</time></trkpt><trkpt lat="44.5926412" lon="8.8573057"><ele>424.0</ele><time>2026-03-30T14:53:13Z</time></trkpt><trkpt lat="44.5925318" lon="8.8572571"><ele>424.0</ele><time>2026-03-30T14:53:14Z</time></trkpt><trkpt lat="44.5924242" lon="8.8571903"><ele>424.0</ele><time>2026-03-30T14:53:15Z</time></trkpt><trkpt lat="44.5923254" lon="8.8571099"><ele>424.0</ele><time>2026-03-30T14:53:16Z</time></trkpt><trkpt lat="44.5922394" lon="8.8570305"><ele>424.0</ele><time>2026-03-30T14:53:17Z</time></trkpt><trkpt lat="44.5921446" lon="8.8569544"><ele>424.0</ele><time>2026-03-30T14:53:18Z</time></trkpt><trkpt lat="44.5920663" lon="8.8568758"><ele>424.1666666666667</ele><time>2026-03-30T14:53:19Z</time></trkpt><trkpt lat="44.591994" lon="8.8567989"><ele>424.33333333333337</ele><time>2026-03-30T14:53:19.999Z</time></trkpt><trkpt lat="44.5919264" lon="8.8567596"><ele>424.5</ele><time>2026-03-30T14:53:21Z</time></trkpt><trkpt lat="44.5918499" lon="8.8567503"><ele>424.66666666666663</ele><time>2026-03-30T14:53:22Z</time></trkpt><trkpt lat="44.5917741" lon="8.8567657"><ele>424.8333333333333</ele><time>2026-03-30T14:53:23Z</time></trkpt><trkpt lat="44.5917001" lon="8.8568126"><ele>425.0</ele><time>2026-03-30T14:53:24Z</time></trkpt><trkpt lat="44.5916294" lon="8.8568785"><ele>425.8</ele><time>2026-03-30T14:53:25Z</time></trkpt><trkpt lat="44.5915526" lon="8.8569741"><ele>426.6</ele><time>2026-03-30T14:53:26Z</time></trkpt><trkpt lat="44.5914757" lon="8.857083"><ele>427.4</ele><time>2026-03-30T14:53:27Z</time></trkpt><trkpt lat="44.5914112" lon="8.8572004"><ele>428.2</ele><time>2026-03-30T14:53:28Z</time></trkpt><trkpt lat="44.5913418" lon="8.8573133"><ele>429.0</ele><time>2026-03-30T14:53:28.999Z</time></trkpt><trkpt lat="44.5912872" lon="8.8574295"><ele>429.0</ele><time>2026-03-30T14:53:30Z</time></trkpt><trkpt lat="44.5912608" lon="8.8575493"><ele>429.0</ele><time>2026-03-30T14:53:31Z</time></trkpt><trkpt lat="44.5912613" lon="8.8576824"><ele>429.0</ele><time>2026-03-30T14:53:32Z</time></trkpt><trkpt lat="44.591287" lon="8.8578292"><ele>429.0</ele><time>2026-03-30T14:53:33Z</time></trkpt><trkpt lat="44.5913296" lon="8.8579616"><ele>429.0</ele><time>2026-03-30T14:53:34Z</time></trkpt><trkpt lat="44.5913801" lon="8.8581054"><ele>432.5</ele><time>2026-03-30T14:53:35Z</time></trkpt><trkpt lat="44.5914219" lon="8.8582626"><ele>436.0</ele><time>2026-03-30T14:53:36Z</time></trkpt><trkpt lat="44.5914525" lon="8.8584187"><ele>439.5</ele><time>2026-03-30T14:53:37Z</time></trkpt><trkpt lat="44.591477" lon="8.858575"><ele>443.0</ele><time>2026-03-30T14:53:38Z</time></trkpt><trkpt lat="44.5914871" lon="8.858736"><ele>442.75</ele><time>2026-03-30T14:53:39Z</time></trkpt><trkpt lat="44.5914976" lon="8.8588975"><ele>442.5</ele><time>2026-03-30T14:53:40Z</time></trkpt><trkpt lat="44.591507" lon="8.8590612"><ele>442.25</ele><time>2026-03-30T14:53:41Z</time></trkpt><trkpt lat="44.5915271" lon="8.8592228"><ele>442.0</ele><time>2026-03-30T14:53:42Z</time></trkpt><trkpt lat="44.5915674" lon="8.8593865"><ele>442.0</ele><time>2026-03-30T14:53:43Z</time></trkpt><trkpt lat="44.5916131" lon="8.8595531"><ele>442.00000000000006</ele><time>2026-03-30T14:53:44Z</time></trkpt><trkpt lat="44.591659" lon="8.8597001"><ele>442.00000000000006</ele><time>2026-03-30T14:53:44.999Z</time></trkpt><trkpt lat="44.5916915" lon="8.8598433"><ele>442.0</ele><time>2026-03-30T14:53:46Z</time></trkpt><trkpt lat="44.5917019" lon="8.8599826"><ele>442.0</ele><time>2026-03-30T14:53:47Z</time></trkpt><trkpt lat="44.5916935" lon="8.8601251"><ele>444.8</ele><time>2026-03-30T14:53:48Z</time></trkpt><trkpt lat="44.5916646" lon="8.8602637"><ele>447.6</ele><time>2026-03-30T14:53:49Z</time></trkpt><trkpt lat="44.5916277" lon="8.860415"><ele>450.40000000000003</ele><time>2026-03-30T14:53:50Z</time></trkpt><trkpt lat="44.5915784" lon="8.8605663"><ele>453.20000000000005</ele><time>2026-03-30T14:53:51Z</time></trkpt><trkpt lat="44.5915326" lon="8.8606964"><ele>456.0</ele><time>2026-03-30T14:53:52Z</time></trkpt><trkpt lat="44.5914788" lon="8.8608144"><ele>456.0</ele><time>2026-03-30T14:53:53Z</time></trkpt><trkpt lat="44.5914142" lon="8.8609288"><ele>456.0</ele><time>2026-03-30T14:53:54Z</time></trkpt><trkpt lat="44.5913248" lon="8.8610451"><ele>456.0</ele><time>2026-03-30T14:53:55Z</time></trkpt><trkpt lat="44.5912507" lon="8.8611661"><ele>456.0</ele><time>2026-03-30T14:53:56Z</time></trkpt><trkpt lat="44.5911693" lon="8.8612885"><ele>454.8</ele><time>2026-03-30T14:53:57Z</time></trkpt><trkpt lat="44.5910961" lon="8.8613741"><ele>453.6</ele><time>2026-03-30T14:53:58Z</time></trkpt><trkpt lat="44.5910259" lon="8.8614345"><ele>452.4</ele><time>2026-03-30T14:53:59Z</time></trkpt><trkpt lat="44.5909437" lon="8.8614768"><ele>451.2</ele><time>2026-03-30T14:54:00Z</time></trkpt><trkpt lat="44.5908428" lon="8.8614898"><ele>450.0</ele><time>2026-03-30T14:54:01Z</time></trkpt><trkpt lat="44.590728" lon="8.8614784"><ele>450.0</ele><time>2026-03-30T14:54:02Z</time></trkpt><trkpt lat="44.5905955" lon="8.8614355"><ele>450.0</ele><time>2026-03-30T14:54:03Z</time></trkpt><trkpt lat="44.5904392" lon="8.8613261"><ele>450.0</ele><time>2026-03-30T14:54:04Z</time></trkpt><trkpt lat="44.590299" lon="8.8612573"><ele>450.5</ele><time>2026-03-30T14:54:05Z</time></trkpt><trkpt lat="44.5901559" lon="8.8612231"><ele>451.0</ele><time>2026-03-30T14:54:06Z</time></trkpt><trkpt lat="44.5900222" lon="8.861195"><ele>451.5</ele><time>2026-03-30T14:54:06.999Z</time></trkpt><trkpt lat="44.5898921" lon="8.8611835"><ele>452.0</ele><time>2026-03-30T14:54:08Z</time></trkpt><trkpt lat="44.58977" lon="8.8611749"><ele>452.0</ele><time>2026-03-30T14:54:09Z</time></trkpt><trkpt lat="44.5896545" lon="8.8611698"><ele>452.0</ele><time>2026-03-30T14:54:10Z</time></trkpt><trkpt lat="44.589526" lon="8.8611558"><ele>452.0</ele><time>2026-03-30T14:54:11Z</time></trkpt><trkpt lat="44.5894109" lon="8.8611437"><ele>452.0</ele><time>2026-03-30T14:54:12Z</time></trkpt><trkpt lat="44.5892965" lon="8.8611505"><ele>452.6</ele><time>2026-03-30T14:54:13Z</time></trkpt><trkpt lat="44.5891881" lon="8.8611678"><ele>453.20000000000005</ele><time>2026-03-30T14:54:14Z</time></trkpt><trkpt lat="44.5890929" lon="8.861196"><ele>453.8</ele><time>2026-03-30T14:54:15Z</time></trkpt><trkpt lat="44.5889876" lon="8.8612654"><ele>454.4</ele><time>2026-03-30T14:54:16Z</time></trkpt><trkpt lat="44.5888791" lon="8.8613201"><ele>455.0</ele><time>2026-03-30T14:54:17Z</time></trkpt><trkpt lat="44.588776" lon="8.8613715"><ele>454.99999999999994</ele><time>2026-03-30T14:54:18Z</time></trkpt><trkpt lat="44.5886922" lon="8.8614265"><ele>455.0</ele><time>2026-03-30T14:54:19Z</time></trkpt><trkpt lat="44.5887273" lon="8.8615407"><ele>455.0</ele><time>2026-03-30T14:54:20Z</time></trkpt><trkpt lat="44.5886915" lon="8.8616454"><ele>455.0</ele><time>2026-03-30T14:54:21Z</time></trkpt><trkpt lat="44.5886873" lon="8.8617566"><ele>454.99999999999994</ele><time>2026-03-30T14:54:22Z</time></trkpt><trkpt lat="44.5887284" lon="8.8618846"><ele>455.0</ele><time>2026-03-30T14:54:23Z</time></trkpt><trkpt lat="44.5887655" lon="8.8619938"><ele>455.2</ele><time>2026-03-30T14:54:24Z</time></trkpt><trkpt lat="44.588817" lon="8.8620509"><ele>455.4</ele><time>2026-03-30T14:54:25Z</time></trkpt><trkpt lat="44.5888888" lon="8.8621787"><ele>455.6</ele><time>2026-03-30T14:54:26Z</time></trkpt><trkpt lat="44.5889458" lon="8.8622803"><ele>455.8</ele><time>2026-03-30T14:54:27Z</time></trkpt><trkpt lat="44.5889785" lon="8.8624074"><ele>456.0</ele><time>2026-03-30T14:54:28Z</time></trkpt><trkpt lat="44.5889743" lon="8.8625333"><ele>456.6</ele><time>2026-03-30T14:54:29Z</time></trkpt><trkpt lat="44.58895" lon="8.8626638"><ele>457.20000000000005</ele><time>2026-03-30T14:54:30Z</time></trkpt><trkpt lat="44.588905" lon="8.8627897"><ele>457.79999999999995</ele><time>2026-03-30T14:54:31Z</time></trkpt><trkpt lat="44.5888557" lon="8.8629229"><ele>458.4</ele><time>2026-03-30T14:54:32Z</time></trkpt><trkpt lat="44.5888076" lon="8.863058"><ele>459.0</ele><time>2026-03-30T14:54:33Z</time></trkpt><trkpt lat="44.5887557" lon="8.8631837"><ele>459.0</ele><time>2026-03-30T14:54:34Z</time></trkpt><trkpt lat="44.5886971" lon="8.8633129"><ele>459.0</ele><time>2026-03-30T14:54:34.999Z</time></trkpt><trkpt lat="44.5886474" lon="8.8634636"><ele>459.0</ele><time>2026-03-30T14:54:36Z</time></trkpt><trkpt lat="44.5886035" lon="8.8636092"><ele>459.0</ele><time>2026-03-30T14:54:37Z</time></trkpt><trkpt lat="44.588574" lon="8.8637619"><ele>459.5</ele><time>2026-03-30T14:54:38Z</time></trkpt><trkpt lat="44.5885519" lon="8.8639191"><ele>460.0</ele><time>2026-03-30T14:54:39Z</time></trkpt><trkpt lat="44.5885325" lon="8.864082"><ele>460.5</ele><time>2026-03-30T14:54:40Z</time></trkpt><trkpt lat="44.5885151" lon="8.86424"><ele>461.0</ele><time>2026-03-30T14:54:41Z</time></trkpt><trkpt lat="44.5884816" lon="8.8643888"><ele>461.0</ele><time>2026-03-30T14:54:42Z</time></trkpt><trkpt lat="44.5884439" lon="8.8645448"><ele>461.0</ele><time>2026-03-30T14:54:43Z</time></trkpt><trkpt lat="44.588394" lon="8.8646917"><ele>461.0</ele><time>2026-03-30T14:54:44Z</time></trkpt><trkpt lat="44.5883294" lon="8.8648229"><ele>461.0</ele><time>2026-03-30T14:54:45Z</time></trkpt><trkpt lat="44.5882516" lon="8.8649412"><ele>461.0</ele><time>2026-03-30T14:54:46Z</time></trkpt><trkpt lat="44.588161" lon="8.8650304"><ele>461.0</ele><time>2026-03-30T14:54:47Z</time></trkpt><trkpt lat="44.5880591" lon="8.8651064"><ele>461.0</ele><time>2026-03-30T14:54:48Z</time></trkpt><trkpt lat="44.5879479" lon="8.865153"><ele>461.0</ele><time>2026-03-30T14:54:49Z</time></trkpt><trkpt lat="44.5878315" lon="8.8651948"><ele>460.75</ele><time>2026-03-30T14:54:50Z</time></trkpt><trkpt lat="44.587717" lon="8.8652268"><ele>460.5</ele><time>2026-03-30T14:54:51Z</time></trkpt><trkpt lat="44.5876075" lon="8.8652566"><ele>460.25</ele><time>2026-03-30T14:54:52Z</time></trkpt><trkpt lat="44.5874906" lon="8.8652952"><ele>460.0</ele><time>2026-03-30T14:54:53Z</time></trkpt><trkpt lat="44.5873769" lon="8.8653479"><ele>460.0</ele><time>2026-03-30T14:54:53.999Z</time></trkpt><trkpt lat="44.5872739" lon="8.8654079"><ele>460.0</ele><time>2026-03-30T14:54:55Z</time></trkpt><trkpt lat="44.5871834" lon="8.8654706"><ele>460.0</ele><time>2026-03-30T14:54:56Z</time></trkpt><trkpt lat="44.587094" lon="8.8655242"><ele>460.0</ele><time>2026-03-30T14:54:57Z</time></trkpt><trkpt lat="44.5870099" lon="8.865545"><ele>460.0</ele><time>2026-03-30T14:54:58Z</time></trkpt><trkpt lat="44.5869274" lon="8.8655173"><ele>460.6</ele><time>2026-03-30T14:54:59Z</time></trkpt><trkpt lat="44.5868406" lon="8.8654751"><ele>461.2</ele><time>2026-03-30T14:55:00Z</time></trkpt><trkpt lat="44.5867509" lon="8.8654352"><ele>461.79999999999995</ele><time>2026-03-30T14:55:01Z</time></trkpt><trkpt lat="44.5866644" lon="8.8653826"><ele>462.4</ele><time>2026-03-30T14:55:02Z</time></trkpt><trkpt lat="44.5865678" lon="8.8653567"><ele>463.0</ele><time>2026-03-30T14:55:03Z</time></trkpt><trkpt lat="44.5864514" lon="8.8653886"><ele>463.00000000000006</ele><time>2026-03-30T14:55:04Z</time></trkpt><trkpt lat="44.5863519" lon="8.8654153"><ele>463.0</ele><time>2026-03-30T14:55:05Z</time></trkpt><trkpt lat="44.5862707" lon="8.8654552"><ele>463.0</ele><time>2026-03-30T14:55:06Z</time></trkpt><trkpt lat="44.5861848" lon="8.8654954"><ele>463.0</ele><time>2026-03-30T14:55:07Z</time></trkpt><trkpt lat="44.5861104" lon="8.8655399"><ele>463.00000000000006</ele><time>2026-03-30T14:55:08Z</time></trkpt><trkpt lat="44.5860522" lon="8.8656163"><ele>463.0</ele><time>2026-03-30T14:55:09Z</time></trkpt><trkpt lat="44.5860007" lon="8.8657063"><ele>463.33333333333337</ele><time>2026-03-30T14:55:10Z</time></trkpt><trkpt lat="44.5859716" lon="8.8658094"><ele>463.6666666666667</ele><time>2026-03-30T14:55:11Z</time></trkpt><trkpt lat="44.5859282" lon="8.865898"><ele>464.0</ele><time>2026-03-30T14:55:12Z</time></trkpt><trkpt lat="44.585927" lon="8.8659953"><ele>464.33333333333337</ele><time>2026-03-30T14:55:13Z</time></trkpt><trkpt lat="44.585927" lon="8.8661159"><ele>464.6666666666667</ele><time>2026-03-30T14:55:14Z</time></trkpt><trkpt lat="44.5859301" lon="8.8662329"><ele>465.0</ele><time>2026-03-30T14:55:14.999Z</time></trkpt><trkpt lat="44.585941" lon="8.8663589"><ele>466.4</ele><time>2026-03-30T14:55:16Z</time></trkpt><trkpt lat="44.5859538" lon="8.8664766"><ele>467.8</ele><time>2026-03-30T14:55:16.999Z</time></trkpt><trkpt lat="44.5859619" lon="8.8665945"><ele>469.20000000000005</ele><time>2026-03-30T14:55:18Z</time></trkpt><trkpt lat="44.5859455" lon="8.8667192"><ele>470.6</ele><time>2026-03-30T14:55:19Z</time></trkpt><trkpt lat="44.5859064" lon="8.8668405"><ele>472.0</ele><time>2026-03-30T14:55:20Z</time></trkpt><trkpt lat="44.5858469" lon="8.8669703"><ele>474.6666666666667</ele><time>2026-03-30T14:55:21Z</time></trkpt><trkpt lat="44.5857778" lon="8.8671003"><ele>477.33333333333337</ele><time>2026-03-30T14:55:21.999Z</time></trkpt><trkpt lat="44.5855671" lon="8.8674503"><ele>480.0</ele><time>2026-03-30T14:55:25Z</time></trkpt><trkpt lat="44.5854918" lon="8.8675594"><ele>479.5</ele><time>2026-03-30T14:55:26.114Z</time></trkpt><trkpt lat="44.5853283" lon="8.8677733"><ele>479.0</ele><time>2026-03-30T14:55:27.999Z</time></trkpt><trkpt lat="44.5852446" lon="8.8678747"><ele>478.5</ele><time>2026-03-30T14:55:29Z</time></trkpt><trkpt lat="44.5851636" lon="8.867966"><ele>478.0</ele><time>2026-03-30T14:55:30Z</time></trkpt><trkpt lat="44.5850833" lon="8.8680699"><ele>478.0</ele><time>2026-03-30T14:55:31Z</time></trkpt><trkpt lat="44.5850021" lon="8.8681581"><ele>478.0</ele><time>2026-03-30T14:55:32Z</time></trkpt><trkpt lat="44.584913" lon="8.8682619"><ele>478.0</ele><time>2026-03-30T14:55:33.151Z</time></trkpt><trkpt lat="44.5847402" lon="8.8684515"><ele>478.0</ele><time>2026-03-30T14:55:35Z</time></trkpt><trkpt lat="44.5846499" lon="8.8685507"><ele>478.5</ele><time>2026-03-30T14:55:36.15Z</time></trkpt><trkpt lat="44.584562" lon="8.8686434"><ele>479.0</ele><time>2026-03-30T14:55:37.148Z</time></trkpt><trkpt lat="44.5844614" lon="8.8687276"><ele>479.5</ele><time>2026-03-30T14:55:38.156Z</time></trkpt><trkpt lat="44.5842804" lon="8.8688878"><ele>480.0</ele><time>2026-03-30T14:55:40Z</time></trkpt><trkpt lat="44.5841919" lon="8.8689657"><ele>480.0</ele><time>2026-03-30T14:55:41Z</time></trkpt><trkpt lat="44.5841134" lon="8.8690524"><ele>480.0</ele><time>2026-03-30T14:55:41.999Z</time></trkpt><trkpt lat="44.5840327" lon="8.8691638"><ele>480.0</ele><time>2026-03-30T14:55:43.145Z</time></trkpt><trkpt lat="44.5838753" lon="8.8693921"><ele>480.0</ele><time>2026-03-30T14:55:45Z</time></trkpt><trkpt lat="44.5837861" lon="8.8695022"><ele>482.33333333333337</ele><time>2026-03-30T14:55:46.153Z</time></trkpt><trkpt lat="44.5837042" lon="8.8696221"><ele>484.6666666666667</ele><time>2026-03-30T14:55:47.151Z</time></trkpt><trkpt lat="44.5836239" lon="8.8697357"><ele>487.0</ele><time>2026-03-30T14:55:48.153Z</time></trkpt><trkpt lat="44.5834614" lon="8.8699572"><ele>487.0</ele><time>2026-03-30T14:55:50Z</time></trkpt><trkpt lat="44.5833706" lon="8.8700495"><ele>487.0</ele><time>2026-03-30T14:55:51.162Z</time></trkpt><trkpt lat="44.5832809" lon="8.8701427"><ele>487.0</ele><time>2026-03-30T14:55:52.161Z</time></trkpt><trkpt lat="44.5832026" lon="8.8702397"><ele>487.0</ele><time>2026-03-30T14:55:53.106Z</time></trkpt><trkpt lat="44.5830183" lon="8.8704031"><ele>489.0</ele><time>2026-03-30T14:55:55Z</time></trkpt><trkpt lat="44.5829304" lon="8.8704538"><ele>491.0</ele><time>2026-03-30T14:55:56.164Z</time></trkpt><trkpt lat="44.5828504" lon="8.8704995"><ele>493.0</ele><time>2026-03-30T14:55:57.133Z</time></trkpt><trkpt lat="44.5827276" lon="8.8705254"><ele>495.0</ele><time>2026-03-30T14:55:58.14Z</time></trkpt><trkpt lat="44.5825464" lon="8.8705761"><ele>495.0</ele><time>2026-03-30T14:56:00Z</time></trkpt><trkpt lat="44.5824611" lon="8.8706008"><ele>495.0</ele><time>2026-03-30T14:56:01Z</time></trkpt><trkpt lat="44.5823723" lon="8.8706441"><ele>495.0</ele><time>2026-03-30T14:56:01.999Z</time></trkpt><trkpt lat="44.5822956" lon="8.8707173"><ele>495.0</ele><time>2026-03-30T14:56:03.143Z</time></trkpt><trkpt lat="44.5821663" lon="8.8709018"><ele>497.2</ele><time>2026-03-30T14:56:05Z</time></trkpt><trkpt lat="44.5821045" lon="8.8710046"><ele>499.4</ele><time>2026-03-30T14:56:06Z</time></trkpt><trkpt lat="44.5820376" lon="8.8711024"><ele>501.6</ele><time>2026-03-30T14:56:07Z</time></trkpt><trkpt lat="44.5819683" lon="8.8711993"><ele>503.8</ele><time>2026-03-30T14:56:08Z</time></trkpt><trkpt lat="44.5818824" lon="8.8712842"><ele>506.0</ele><time>2026-03-30T14:56:09Z</time></trkpt><trkpt lat="44.5817968" lon="8.871375"><ele>506.0</ele><time>2026-03-30T14:56:10Z</time></trkpt><trkpt lat="44.5817064" lon="8.8714606"><ele>506.0</ele><time>2026-03-30T14:56:11Z</time></trkpt><trkpt lat="44.5816141" lon="8.871548"><ele>506.0</ele><time>2026-03-30T14:56:12Z</time></trkpt><trkpt lat="44.5815168" lon="8.8716436"><ele>506.0</ele><time>2026-03-30T14:56:13Z</time></trkpt><trkpt lat="44.5814198" lon="8.8717275"><ele>506.20000000000005</ele><time>2026-03-30T14:56:14Z</time></trkpt><trkpt lat="44.5813272" lon="8.8718159"><ele>506.40000000000003</ele><time>2026-03-30T14:56:14.999Z</time></trkpt><trkpt lat="44.5812332" lon="8.8718923"><ele>506.6</ele><time>2026-03-30T14:56:16Z</time></trkpt><trkpt lat="44.5811439" lon="8.8719742"><ele>506.8</ele><time>2026-03-30T14:56:17Z</time></trkpt><trkpt lat="44.5810797" lon="8.8720658"><ele>507.0</ele><time>2026-03-30T14:56:18Z</time></trkpt><trkpt lat="44.581018" lon="8.8721612"><ele>507.0</ele><time>2026-03-30T14:56:19Z</time></trkpt><trkpt lat="44.5809614" lon="8.8722807"><ele>507.00000000000006</ele><time>2026-03-30T14:56:20.14Z</time></trkpt><trkpt lat="44.5809125" lon="8.8724226"><ele>507.00000000000006</ele><time>2026-03-30T14:56:21.121Z</time></trkpt><trkpt lat="44.5808527" lon="8.872561"><ele>507.0</ele><time>2026-03-30T14:56:22.138Z</time></trkpt><trkpt lat="44.580793" lon="8.8727014"><ele>507.0</ele><time>2026-03-30T14:56:23.153Z</time></trkpt><trkpt lat="44.5806766" lon="8.8729867"><ele>512.75</ele><time>2026-03-30T14:56:25Z</time></trkpt><trkpt lat="44.5806164" lon="8.8731204"><ele>518.5</ele><time>2026-03-30T14:56:26.138Z</time></trkpt><trkpt lat="44.580538" lon="8.8732438"><ele>524.25</ele><time>2026-03-30T14:56:27.147Z</time></trkpt><trkpt lat="44.5804504" lon="8.8733614"><ele>530.0</ele><time>2026-03-30T14:56:28.181Z</time></trkpt><trkpt lat="44.580268" lon="8.8735381"><ele>530.0</ele><time>2026-03-30T14:56:30Z</time></trkpt><trkpt lat="44.5801658" lon="8.8736164"><ele>530.0</ele><time>2026-03-30T14:56:31.178Z</time></trkpt><trkpt lat="44.5800672" lon="8.8736885"><ele>530.0</ele><time>2026-03-30T14:56:32.168Z</time></trkpt><trkpt lat="44.579967" lon="8.8737611"><ele>530.0</ele><time>2026-03-30T14:56:33.159Z</time></trkpt><trkpt lat="44.5797553" lon="8.8738755"><ele>530.0</ele><time>2026-03-30T14:56:35Z</time></trkpt><trkpt lat="44.5796591" lon="8.8739376"><ele>530.0</ele><time>2026-03-30T14:56:36Z</time></trkpt><trkpt lat="44.5795562" lon="8.873971"><ele>530.0</ele><time>2026-03-30T14:56:36.999Z</time></trkpt><trkpt lat="44.5794453" lon="8.8740437"><ele>530.0</ele><time>2026-03-30T14:56:38.165Z</time></trkpt><trkpt lat="44.5792545" lon="8.8742166"><ele>530.5</ele><time>2026-03-30T14:56:40Z</time></trkpt><trkpt lat="44.5791803" lon="8.8743232"><ele>531.0</ele><time>2026-03-30T14:56:41.168Z</time></trkpt><trkpt lat="44.5791036" lon="8.8744388"><ele>531.5</ele><time>2026-03-30T14:56:42.163Z</time></trkpt><trkpt lat="44.5790221" lon="8.87455"><ele>532.0</ele><time>2026-03-30T14:56:43.131Z</time></trkpt><trkpt lat="44.5788575" lon="8.8747579"><ele>532.0</ele><time>2026-03-30T14:56:45Z</time></trkpt><trkpt lat="44.5787736" lon="8.8748335"><ele>532.0</ele><time>2026-03-30T14:56:46.147Z</time></trkpt><trkpt lat="44.5786777" lon="8.8748733"><ele>532.0</ele><time>2026-03-30T14:56:47.129Z</time></trkpt><trkpt lat="44.5785822" lon="8.8748876"><ele>532.0</ele><time>2026-03-30T14:56:48.132Z</time></trkpt><trkpt lat="44.5783981" lon="8.8749121"><ele>533.6</ele><time>2026-03-30T14:56:50Z</time></trkpt><trkpt lat="44.5783275" lon="8.874943"><ele>535.2</ele><time>2026-03-30T14:56:51.159Z</time></trkpt><trkpt lat="44.5782476" lon="8.8749974"><ele>536.8</ele><time>2026-03-30T14:56:52.123Z</time></trkpt><trkpt lat="44.5781677" lon="8.8750744"><ele>538.4</ele><time>2026-03-30T14:56:53.126Z</time></trkpt><trkpt lat="44.5780743" lon="8.8752473"><ele>540.0</ele><time>2026-03-30T14:56:55Z</time></trkpt><trkpt lat="44.5780484" lon="8.8753486"><ele>540.0</ele><time>2026-03-30T14:56:56.125Z</time></trkpt><trkpt lat="44.5780434" lon="8.8754628"><ele>540.0</ele><time>2026-03-30T14:56:57.153Z</time></trkpt><trkpt lat="44.5780368" lon="8.8755794"><ele>540.0</ele><time>2026-03-30T14:56:58.144Z</time></trkpt><trkpt lat="44.5779918" lon="8.8758373"><ele>540.0</ele><time>2026-03-30T14:57:00Z</time></trkpt><trkpt lat="44.577955" lon="8.8759635"><ele>538.25</ele><time>2026-03-30T14:57:01.158Z</time></trkpt><trkpt lat="44.5779168" lon="8.8760908"><ele>536.5</ele><time>2026-03-30T14:57:02.163Z</time></trkpt><trkpt lat="44.5778879" lon="8.8762164"><ele>534.75</ele><time>2026-03-30T14:57:03.154Z</time></trkpt><trkpt lat="44.5778228" lon="8.8764661"><ele>533.0</ele><time>2026-03-30T14:57:04.999Z</time></trkpt><trkpt lat="44.5777949" lon="8.8765998"><ele>533.0</ele><time>2026-03-30T14:57:06.16Z</time></trkpt><trkpt lat="44.5777298" lon="8.8766891"><ele>533.0</ele><time>2026-03-30T14:57:07.168Z</time></trkpt><trkpt lat="44.5776789" lon="8.8767756"><ele>533.0</ele><time>2026-03-30T14:57:08.15Z</time></trkpt><trkpt lat="44.5776106" lon="8.8770035"><ele>533.0</ele><time>2026-03-30T14:57:10Z</time></trkpt><trkpt lat="44.5775988" lon="8.8771268"><ele>533.0</ele><time>2026-03-30T14:57:11.158Z</time></trkpt><trkpt lat="44.5775935" lon="8.8772755"><ele>533.75</ele><time>2026-03-30T14:57:12.13Z</time></trkpt><trkpt lat="44.5775859" lon="8.8774105"><ele>534.5</ele><time>2026-03-30T14:57:13.129Z</time></trkpt><trkpt lat="44.5775873" lon="8.8776971"><ele>535.25</ele><time>2026-03-30T14:57:15Z</time></trkpt><trkpt lat="44.5776011" lon="8.8778431"><ele>536.0</ele><time>2026-03-30T14:57:16.143Z</time></trkpt><trkpt lat="44.5776308" lon="8.878103"><ele>537.0</ele><time>2026-03-30T14:57:18Z</time></trkpt><trkpt lat="44.577615" lon="8.8782146"><ele>538.0</ele><time>2026-03-30T14:57:19Z</time></trkpt><trkpt lat="44.5775662" lon="8.8783275"><ele>539.0</ele><time>2026-03-30T14:57:20.148Z</time></trkpt><trkpt lat="44.5774992" lon="8.8784328"><ele>540.0</ele><time>2026-03-30T14:57:21.141Z</time></trkpt><trkpt lat="44.5774192" lon="8.8785376"><ele>541.0</ele><time>2026-03-30T14:57:22.159Z</time></trkpt><trkpt lat="44.5773314" lon="8.8786059"><ele>541.0</ele><time>2026-03-30T14:57:23.16Z</time></trkpt><trkpt lat="44.5772371" lon="8.8786925"><ele>541.0</ele><time>2026-03-30T14:57:24Z</time></trkpt><trkpt lat="44.5771465" lon="8.8787598"><ele>541.0</ele><time>2026-03-30T14:57:25Z</time></trkpt><trkpt lat="44.5770469" lon="8.8788317"><ele>541.0</ele><time>2026-03-30T14:57:26.14Z</time></trkpt><trkpt lat="44.5768727" lon="8.8789837"><ele>541.0</ele><time>2026-03-30T14:57:28.173Z</time></trkpt><trkpt lat="44.5767677" lon="8.87915"><ele>541.0</ele><time>2026-03-30T14:57:30Z</time></trkpt><trkpt lat="44.5766917" lon="8.8792344"><ele>541.0</ele><time>2026-03-30T14:57:31.15Z</time></trkpt><trkpt lat="44.5766257" lon="8.8793292"><ele>541.0</ele><time>2026-03-30T14:57:32.185Z</time></trkpt><trkpt lat="44.5765439" lon="8.8794234"><ele>542.5</ele><time>2026-03-30T14:57:33.149Z</time></trkpt><trkpt lat="44.5763572" lon="8.8795949"><ele>544.0</ele><time>2026-03-30T14:57:35Z</time></trkpt><trkpt lat="44.5762662" lon="8.8796819"><ele>545.5</ele><time>2026-03-30T14:57:36.172Z</time></trkpt><trkpt lat="44.5761744" lon="8.8797679"><ele>547.0</ele><time>2026-03-30T14:57:37.118Z</time></trkpt><trkpt lat="44.5760868" lon="8.8798549"><ele>547.0</ele><time>2026-03-30T14:57:38.156Z</time></trkpt><trkpt lat="44.5758955" lon="8.8799677"><ele>547.0</ele><time>2026-03-30T14:57:40Z</time></trkpt><trkpt lat="44.5758011" lon="8.8800281"><ele>547.0</ele><time>2026-03-30T14:57:41.156Z</time></trkpt><trkpt lat="44.575708" lon="8.8801"><ele>547.0</ele><time>2026-03-30T14:57:42.12Z</time></trkpt><trkpt lat="44.5755265" lon="8.8802733"><ele>548.2</ele><time>2026-03-30T14:57:43.999Z</time></trkpt><trkpt lat="44.5754605" lon="8.8803839"><ele>549.4000000000001</ele><time>2026-03-30T14:57:45.16Z</time></trkpt><trkpt lat="44.5754056" lon="8.8805101"><ele>550.5999999999999</ele><time>2026-03-30T14:57:46.127Z</time></trkpt><trkpt lat="44.5753593" lon="8.880648"><ele>551.8</ele><time>2026-03-30T14:57:47.118Z</time></trkpt><trkpt lat="44.5753027" lon="8.8807395"><ele>553.0</ele><time>2026-03-30T14:57:48.156Z</time></trkpt><trkpt lat="44.5751828" lon="8.8809555"><ele>557.6</ele><time>2026-03-30T14:57:50Z</time></trkpt><trkpt lat="44.5750934" lon="8.8810204"><ele>562.1999999999999</ele><time>2026-03-30T14:57:51.161Z</time></trkpt><trkpt lat="44.5750285" lon="8.8811024"><ele>566.8</ele><time>2026-03-30T14:57:52.16Z</time></trkpt><trkpt lat="44.574976" lon="8.8811543"><ele>571.4</ele><time>2026-03-30T14:57:53.129Z</time></trkpt><trkpt lat="44.5748326" lon="8.8811937"><ele>576.0</ele><time>2026-03-30T14:57:55Z</time></trkpt><trkpt lat="44.5747267" lon="8.8811938"><ele>576.0</ele><time>2026-03-30T14:57:56.157Z</time></trkpt><trkpt lat="44.5745686" lon="8.8812475"><ele>576.0</ele><time>2026-03-30T14:57:57.159Z</time></trkpt><trkpt lat="44.5744266" lon="8.8812859"><ele>576.0</ele><time>2026-03-30T14:57:58.154Z</time></trkpt><trkpt lat="44.5742146" lon="8.881398"><ele>573.0</ele><time>2026-03-30T14:58:00Z</time></trkpt><trkpt lat="44.5740973" lon="8.8814641"><ele>570.0</ele><time>2026-03-30T14:58:01.122Z</time></trkpt><trkpt lat="44.5739895" lon="8.8815442"><ele>567.0</ele><time>2026-03-30T14:58:02.154Z</time></trkpt><trkpt lat="44.5738913" lon="8.8816212"><ele>564.0</ele><time>2026-03-30T14:58:03.163Z</time></trkpt><trkpt lat="44.5737818" lon="8.8817117"><ele>565.25</ele><time>2026-03-30T14:58:04Z</time></trkpt><trkpt lat="44.5736732" lon="8.8818188"><ele>566.5</ele><time>2026-03-30T14:58:05Z</time></trkpt><trkpt lat="44.5735676" lon="8.8819284"><ele>567.75</ele><time>2026-03-30T14:58:06.133Z</time></trkpt><trkpt lat="44.5734564" lon="8.8820346"><ele>569.0</ele><time>2026-03-30T14:58:07.164Z</time></trkpt><trkpt lat="44.5733499" lon="8.882128"><ele>569.0</ele><time>2026-03-30T14:58:08.164Z</time></trkpt><trkpt lat="44.5731435" lon="8.8823348"><ele>569.0</ele><time>2026-03-30T14:58:09.999Z</time></trkpt><trkpt lat="44.5730505" lon="8.8824409"><ele>569.0</ele><time>2026-03-30T14:58:11.153Z</time></trkpt><trkpt lat="44.572972" lon="8.8825444"><ele>570.75</ele><time>2026-03-30T14:58:12.143Z</time></trkpt><trkpt lat="44.5729122" lon="8.8826679"><ele>572.5</ele><time>2026-03-30T14:58:13.151Z</time></trkpt><trkpt lat="44.572829" lon="8.8829446"><ele>574.25</ele><time>2026-03-30T14:58:15Z</time></trkpt><trkpt lat="44.5728018" lon="8.8830847"><ele>576.0</ele><time>2026-03-30T14:58:16.136Z</time></trkpt><trkpt lat="44.5727159" lon="8.8833143"><ele>576.0</ele><time>2026-03-30T14:58:18Z</time></trkpt><trkpt lat="44.5726678" lon="8.8833899"><ele>576.0</ele><time>2026-03-30T14:58:19Z</time></trkpt><trkpt lat="44.5725293" lon="8.8834202"><ele>576.0</ele><time>2026-03-30T14:58:21.174Z</time></trkpt><trkpt lat="44.5724409" lon="8.8834093"><ele>576.0</ele><time>2026-03-30T14:58:22.175Z</time></trkpt><trkpt lat="44.572348" lon="8.8833951"><ele>576.0</ele><time>2026-03-30T14:58:23.178Z</time></trkpt><trkpt lat="44.5721847" lon="8.8834435"><ele>579.5</ele><time>2026-03-30T14:58:25Z</time></trkpt><trkpt lat="44.5721158" lon="8.8835429"><ele>583.0</ele><time>2026-03-30T14:58:26.173Z</time></trkpt><trkpt lat="44.5720831" lon="8.8836515"><ele>586.5</ele><time>2026-03-30T14:58:27.165Z</time></trkpt><trkpt lat="44.5720278" lon="8.8837672"><ele>590.0</ele><time>2026-03-30T14:58:28.166Z</time></trkpt><trkpt lat="44.5719204" lon="8.8840108"><ele>590.0</ele><time>2026-03-30T14:58:30.137Z</time></trkpt><trkpt lat="44.5718735" lon="8.8841308"><ele>590.0</ele><time>2026-03-30T14:58:31.139Z</time></trkpt><trkpt lat="44.5718213" lon="8.8842299"><ele>590.0</ele><time>2026-03-30T14:58:32.122Z</time></trkpt><trkpt lat="44.5717434" lon="8.8843209"><ele>590.0</ele><time>2026-03-30T14:58:33.131Z</time></trkpt><trkpt lat="44.5715543" lon="8.8844679"><ele>591.0</ele><time>2026-03-30T14:58:35Z</time></trkpt><trkpt lat="44.5714607" lon="8.8844965"><ele>592.0</ele><time>2026-03-30T14:58:36.154Z</time></trkpt><trkpt lat="44.571373" lon="8.8844975"><ele>593.0</ele><time>2026-03-30T14:58:37.138Z</time></trkpt><trkpt lat="44.5712873" lon="8.8844659"><ele>594.0</ele><time>2026-03-30T14:58:38.148Z</time></trkpt><trkpt lat="44.571126" lon="8.8843697"><ele>595.0</ele><time>2026-03-30T14:58:40Z</time></trkpt><trkpt lat="44.5710445" lon="8.8843407"><ele>595.75</ele><time>2026-03-30T14:58:41.141Z</time></trkpt><trkpt lat="44.5709596" lon="8.8843132"><ele>596.5</ele><time>2026-03-30T14:58:42.135Z</time></trkpt><trkpt lat="44.5708825" lon="8.8843337"><ele>597.25</ele><time>2026-03-30T14:58:43.132Z</time></trkpt><trkpt lat="44.5706942" lon="8.8844392"><ele>598.0</ele><time>2026-03-30T14:58:45Z</time></trkpt><trkpt lat="44.5706023" lon="8.8845141"><ele>598.0</ele><time>2026-03-30T14:58:46.136Z</time></trkpt><trkpt lat="44.5705204" lon="8.8846107"><ele>598.0</ele><time>2026-03-30T14:58:47.16Z</time></trkpt><trkpt lat="44.5704473" lon="8.8847179"><ele>598.0</ele><time>2026-03-30T14:58:48.149Z</time></trkpt><trkpt lat="44.5703148" lon="8.8849197"><ele>598.0</ele><time>2026-03-30T14:58:50Z</time></trkpt><trkpt lat="44.5702322" lon="8.8849892"><ele>600.25</ele><time>2026-03-30T14:58:51Z</time></trkpt><trkpt lat="44.5701331" lon="8.8850763"><ele>602.5</ele><time>2026-03-30T14:58:52Z</time></trkpt><trkpt lat="44.5700487" lon="8.8851577"><ele>604.75</ele><time>2026-03-30T14:58:53.115Z</time></trkpt><trkpt lat="44.5698856" lon="8.885363"><ele>607.0</ele><time>2026-03-30T14:58:55Z</time></trkpt><trkpt lat="44.5698113" lon="8.885495"><ele>607.2</ele><time>2026-03-30T14:58:56Z</time></trkpt><trkpt lat="44.5697447" lon="8.8856207"><ele>607.4000000000001</ele><time>2026-03-30T14:58:56.999Z</time></trkpt><trkpt lat="44.5696707" lon="8.885737"><ele>607.5999999999999</ele><time>2026-03-30T14:58:58Z</time></trkpt><trkpt lat="44.5695868" lon="8.8858392"><ele>607.8</ele><time>2026-03-30T14:58:59Z</time></trkpt><trkpt lat="44.5694999" lon="8.8859165"><ele>608.0</ele><time>2026-03-30T14:59:00.134Z</time></trkpt><trkpt lat="44.5694005" lon="8.8859617"><ele>609.6666666666666</ele><time>2026-03-30T14:59:01.142Z</time></trkpt><trkpt lat="44.5692972" lon="8.8859994"><ele>611.3333333333334</ele><time>2026-03-30T14:59:02.144Z</time></trkpt><trkpt lat="44.569191" lon="8.8860357"><ele>613.0</ele><time>2026-03-30T14:59:03.161Z</time></trkpt><trkpt lat="44.5689715" lon="8.8861636"><ele>613.0</ele><time>2026-03-30T14:59:05Z</time></trkpt><trkpt lat="44.5688709" lon="8.8862574"><ele>613.0</ele><time>2026-03-30T14:59:06.127Z</time></trkpt><trkpt lat="44.5687755" lon="8.8863452"><ele>613.0</ele><time>2026-03-30T14:59:07.136Z</time></trkpt><trkpt lat="44.5686845" lon="8.8864507"><ele>613.0</ele><time>2026-03-30T14:59:08.163Z</time></trkpt><trkpt lat="44.5685014" lon="8.8866294"><ele>613.75</ele><time>2026-03-30T14:59:10Z</time></trkpt><trkpt lat="44.5683951" lon="8.8866963"><ele>614.5</ele><time>2026-03-30T14:59:11.172Z</time></trkpt><trkpt lat="44.5682825" lon="8.8867436"><ele>615.25</ele><time>2026-03-30T14:59:12.156Z</time></trkpt><trkpt lat="44.5681672" lon="8.8867802"><ele>616.0</ele><time>2026-03-30T14:59:13.164Z</time></trkpt><trkpt lat="44.567956" lon="8.8868337"><ele>616.5</ele><time>2026-03-30T14:59:15Z</time></trkpt><trkpt lat="44.5678481" lon="8.8868859"><ele>617.0</ele><time>2026-03-30T14:59:16.172Z</time></trkpt><trkpt lat="44.5677808" lon="8.8869672"><ele>617.5</ele><time>2026-03-30T14:59:17.178Z</time></trkpt><trkpt lat="44.5676722" lon="8.887057"><ele>618.0</ele><time>2026-03-30T14:59:18.144Z</time></trkpt><trkpt lat="44.5675012" lon="8.8872352"><ele>618.0</ele><time>2026-03-30T14:59:19.999Z</time></trkpt><trkpt lat="44.5674098" lon="8.8873285"><ele>618.0</ele><time>2026-03-30T14:59:21Z</time></trkpt><trkpt lat="44.5673173" lon="8.8873886"><ele>618.0</ele><time>2026-03-30T14:59:22Z</time></trkpt><trkpt lat="44.567228" lon="8.8874105"><ele>618.0</ele><time>2026-03-30T14:59:23Z</time></trkpt><trkpt lat="44.5671308" lon="8.8874117"><ele>618.0</ele><time>2026-03-30T14:59:24Z</time></trkpt><trkpt lat="44.5670349" lon="8.8873831"><ele>619.6</ele><time>2026-03-30T14:59:24.999Z</time></trkpt><trkpt lat="44.5669376" lon="8.8873526"><ele>621.1999999999999</ele><time>2026-03-30T14:59:26Z</time></trkpt><trkpt lat="44.5668276" lon="8.8873099"><ele>622.8</ele><time>2026-03-30T14:59:27Z</time></trkpt><trkpt lat="44.5667201" lon="8.887264"><ele>624.4</ele><time>2026-03-30T14:59:28Z</time></trkpt><trkpt lat="44.5666056" lon="8.8872292"><ele>626.0</ele><time>2026-03-30T14:59:29Z</time></trkpt><trkpt lat="44.5664984" lon="8.8872067"><ele>626.0</ele><time>2026-03-30T14:59:30Z</time></trkpt><trkpt lat="44.5663888" lon="8.887181"><ele>626.0</ele><time>2026-03-30T14:59:31Z</time></trkpt><trkpt lat="44.5662841" lon="8.8871633"><ele>626.0</ele><time>2026-03-30T14:59:32Z</time></trkpt><trkpt lat="44.5661802" lon="8.887175"><ele>626.0</ele><time>2026-03-30T14:59:33Z</time></trkpt><trkpt lat="44.5660629" lon="8.88721"><ele>626.0</ele><time>2026-03-30T14:59:34Z</time></trkpt><trkpt lat="44.5659414" lon="8.8872354"><ele>628.25</ele><time>2026-03-30T14:59:34.999Z</time></trkpt><trkpt lat="44.5658267" lon="8.8872326"><ele>630.5</ele><time>2026-03-30T14:59:36Z</time></trkpt><trkpt lat="44.5657169" lon="8.8872187"><ele>632.75</ele><time>2026-03-30T14:59:36.999Z</time></trkpt><trkpt lat="44.5655986" lon="8.8871982"><ele>635.0</ele><time>2026-03-30T14:59:38Z</time></trkpt><trkpt lat="44.5654807" lon="8.8871825"><ele>635.0</ele><time>2026-03-30T14:59:39Z</time></trkpt><trkpt lat="44.5653702" lon="8.88717"><ele>635.0</ele><time>2026-03-30T14:59:40Z</time></trkpt><trkpt lat="44.5652583" lon="8.8871694"><ele>635.0</ele><time>2026-03-30T14:59:41Z</time></trkpt><trkpt lat="44.5651575" lon="8.8871319"><ele>635.0</ele><time>2026-03-30T14:59:42Z</time></trkpt><trkpt lat="44.5650481" lon="8.8871068"><ele>635.0</ele><time>2026-03-30T14:59:42.999Z</time></trkpt><trkpt lat="44.5649459" lon="8.8870639"><ele>636.75</ele><time>2026-03-30T14:59:44Z</time></trkpt><trkpt lat="44.5648328" lon="8.887042"><ele>638.5</ele><time>2026-03-30T14:59:44.999Z</time></trkpt><trkpt lat="44.5647231" lon="8.8869966"><ele>640.25</ele><time>2026-03-30T14:59:46Z</time></trkpt><trkpt lat="44.5646102" lon="8.8869503"><ele>642.0</ele><time>2026-03-30T14:59:47.148Z</time></trkpt><trkpt lat="44.5644935" lon="8.8869064"><ele>642.3333333333334</ele><time>2026-03-30T14:59:48.178Z</time></trkpt><trkpt lat="44.5642872" lon="8.8869472"><ele>642.6666666666667</ele><time>2026-03-30T14:59:50Z</time></trkpt><trkpt lat="44.5641768" lon="8.8869503"><ele>643.0</ele><time>2026-03-30T14:59:51.142Z</time></trkpt><trkpt lat="44.5640682" lon="8.8870642"><ele>643.0</ele><time>2026-03-30T14:59:52.149Z</time></trkpt><trkpt lat="44.5639554" lon="8.8871638"><ele>643.0</ele><time>2026-03-30T14:59:53.161Z</time></trkpt><trkpt lat="44.5637355" lon="8.8873439"><ele>643.0</ele><time>2026-03-30T14:59:55Z</time></trkpt><trkpt lat="44.5636317" lon="8.8874241"><ele>643.6666666666667</ele><time>2026-03-30T14:59:56.152Z</time></trkpt><trkpt lat="44.5635259" lon="8.8874876"><ele>644.3333333333334</ele><time>2026-03-30T14:59:57.14Z</time></trkpt><trkpt lat="44.5634125" lon="8.8875161"><ele>645.0</ele><time>2026-03-30T14:59:58.125Z</time></trkpt><trkpt lat="44.5631922" lon="8.8875315"><ele>645.0</ele><time>2026-03-30T14:59:59.999Z</time></trkpt><trkpt lat="44.5630831" lon="8.8875417"><ele>645.0</ele><time>2026-03-30T15:00:01.12Z</time></trkpt><trkpt lat="44.5629741" lon="8.8875739"><ele>645.0</ele><time>2026-03-30T15:00:02.143Z</time></trkpt><trkpt lat="44.5628767" lon="8.887624"><ele>645.0</ele><time>2026-03-30T15:00:03.14Z</time></trkpt><trkpt lat="44.5626695" lon="8.8877393"><ele>649.0</ele><time>2026-03-30T15:00:05Z</time></trkpt><trkpt lat="44.5625627" lon="8.8877724"><ele>653.0</ele><time>2026-03-30T15:00:06.141Z</time></trkpt><trkpt lat="44.5624508" lon="8.8877908"><ele>657.0</ele><time>2026-03-30T15:00:07.157Z</time></trkpt><trkpt lat="44.5623264" lon="8.8877884"><ele>661.0</ele><time>2026-03-30T15:00:08.126Z</time></trkpt><trkpt lat="44.5620695" lon="8.8877632"><ele>661.5</ele><time>2026-03-30T15:00:10Z</time></trkpt><trkpt lat="44.561942" lon="8.8877709"><ele>662.0</ele><time>2026-03-30T15:00:11.153Z</time></trkpt><trkpt lat="44.5618126" lon="8.8877751"><ele>662.5</ele><time>2026-03-30T15:00:12.13Z</time></trkpt><trkpt lat="44.5616797" lon="8.8877867"><ele>663.0</ele><time>2026-03-30T15:00:13.161Z</time></trkpt><trkpt lat="44.5614197" lon="8.8878133"><ele>663.0</ele><time>2026-03-30T15:00:15Z</time></trkpt><trkpt lat="44.5612877" lon="8.8878235"><ele>663.0</ele><time>2026-03-30T15:00:16.127Z</time></trkpt><trkpt lat="44.5611577" lon="8.8878446"><ele>663.0</ele><time>2026-03-30T15:00:17.156Z</time></trkpt><trkpt lat="44.5610243" lon="8.8878382"><ele>663.0</ele><time>2026-03-30T15:00:18.13Z</time></trkpt><trkpt lat="44.5609003" lon="8.8878195"><ele>661.3333333333334</ele><time>2026-03-30T15:00:19.101Z</time></trkpt><trkpt lat="44.5606508" lon="8.8877691"><ele>659.6666666666667</ele><time>2026-03-30T15:00:21.137Z</time></trkpt><trkpt lat="44.5605279" lon="8.8877494"><ele>658.0</ele><time>2026-03-30T15:00:22.174Z</time></trkpt><trkpt lat="44.560401" lon="8.8877358"><ele>660.0</ele><time>2026-03-30T15:00:23.151Z</time></trkpt><trkpt lat="44.560151" lon="8.8877078"><ele>662.0</ele><time>2026-03-30T15:00:25Z</time></trkpt><trkpt lat="44.5600362" lon="8.887686"><ele>664.0</ele><time>2026-03-30T15:00:26.138Z</time></trkpt><trkpt lat="44.5599139" lon="8.8876883"><ele>664.0</ele><time>2026-03-30T15:00:27.104Z</time></trkpt><trkpt lat="44.5598006" lon="8.8876981"><ele>664.0</ele><time>2026-03-30T15:00:28.174Z</time></trkpt><trkpt lat="44.5595658" lon="8.8877826"><ele>664.0</ele><time>2026-03-30T15:00:30Z</time></trkpt><trkpt lat="44.5594663" lon="8.8878617"><ele>665.5</ele><time>2026-03-30T15:00:31.139Z</time></trkpt><trkpt lat="44.5593681" lon="8.8879542"><ele>667.0</ele><time>2026-03-30T15:00:32.176Z</time></trkpt><trkpt lat="44.5591826" lon="8.8880781"><ele>668.5</ele><time>2026-03-30T15:00:34Z</time></trkpt><trkpt lat="44.5590927" lon="8.888084"><ele>670.0</ele><time>2026-03-30T15:00:35Z</time></trkpt><trkpt lat="44.5590121" lon="8.8880685"><ele>670.0</ele><time>2026-03-30T15:00:35.999Z</time></trkpt><trkpt lat="44.5589129" lon="8.8880308"><ele>670.0</ele><time>2026-03-30T15:00:36.999Z</time></trkpt><trkpt lat="44.55884" lon="8.8879764"><ele>670.0</ele><time>2026-03-30T15:00:38.148Z</time></trkpt><trkpt lat="44.5587183" lon="8.8878057"><ele>670.0</ele><time>2026-03-30T15:00:40Z</time></trkpt><trkpt lat="44.5586749" lon="8.8876977"><ele>670.0</ele><time>2026-03-30T15:00:41.169Z</time></trkpt><trkpt lat="44.5586371" lon="8.8874365"><ele>673.25</ele><time>2026-03-30T15:00:43.176Z</time></trkpt><trkpt lat="44.5585756" lon="8.8872827"><ele>676.5</ele><time>2026-03-30T15:00:44.999Z</time></trkpt><trkpt lat="44.5584775" lon="8.8871934"><ele>679.75</ele><time>2026-03-30T15:00:47.139Z</time></trkpt><trkpt lat="44.5583862" lon="8.8871607"><ele>683.0</ele><time>2026-03-30T15:00:48.149Z</time></trkpt><trkpt lat="44.5582676" lon="8.8870786"><ele>683.0</ele><time>2026-03-30T15:00:49.999Z</time></trkpt><trkpt lat="44.5581966" lon="8.8870221"><ele>683.0</ele><time>2026-03-30T15:00:51.12Z</time></trkpt><trkpt lat="44.5581216" lon="8.8869671"><ele>683.0</ele><time>2026-03-30T15:00:52.147Z</time></trkpt><trkpt lat="44.5580538" lon="8.8867002"><ele>683.0</ele><time>2026-03-30T15:00:54Z</time></trkpt><trkpt lat="44.5580228" lon="8.8865717"><ele>685.75</ele><time>2026-03-30T15:00:55Z</time></trkpt><trkpt lat="44.5579793" lon="8.8864557"><ele>688.5</ele><time>2026-03-30T15:00:56.114Z</time></trkpt><trkpt lat="44.5579217" lon="8.8863581"><ele>691.25</ele><time>2026-03-30T15:00:57.152Z</time></trkpt><trkpt lat="44.5578805" lon="8.8862634"><ele>694.0</ele><time>2026-03-30T15:00:58.151Z</time></trkpt><trkpt lat="44.5577009" lon="8.8861448"><ele>694.2</ele><time>2026-03-30T15:01:00Z</time></trkpt><trkpt lat="44.5576109" lon="8.8861295"><ele>694.4000000000001</ele><time>2026-03-30T15:01:01.126Z</time></trkpt><trkpt lat="44.5575335" lon="8.8861256"><ele>694.6</ele><time>2026-03-30T15:01:02.142Z</time></trkpt><trkpt lat="44.5573929" lon="8.8861523"><ele>694.8</ele><time>2026-03-30T15:01:04.999Z</time></trkpt><trkpt lat="44.5574477" lon="8.8862889"><ele>695.0</ele><time>2026-03-30T15:01:07.999Z</time></trkpt><trkpt lat="44.5575034" lon="8.8863602"><ele>695.0</ele><time>2026-03-30T15:01:09Z</time></trkpt><trkpt lat="44.5575741" lon="8.8864272"><ele>695.0</ele><time>2026-03-30T15:01:10Z</time></trkpt><trkpt lat="44.5575977" lon="8.8865254"><ele>695.0</ele><time>2026-03-30T15:01:11Z</time></trkpt><trkpt lat="44.5576172" lon="8.8866317"><ele>695.0</ele><time>2026-03-30T15:01:12Z</time></trkpt><trkpt lat="44.5576432" lon="8.8867477"><ele>695.0</ele><time>2026-03-30T15:01:13Z</time></trkpt><trkpt lat="44.5576411" lon="8.886837"><ele>695.0</ele><time>2026-03-30T15:01:14Z</time></trkpt><trkpt lat="44.5576279" lon="8.886937"><ele>693.5714285714287</ele><time>2026-03-30T15:01:14.999Z</time></trkpt><trkpt lat="44.5575816" lon="8.8870209"><ele>692.1428571428571</ele><time>2026-03-30T15:01:16Z</time></trkpt><trkpt lat="44.5575212" lon="8.8870774"><ele>690.7142857142858</ele><time>2026-03-30T15:01:17Z</time></trkpt><trkpt lat="44.557458" lon="8.8870891"><ele>689.2857142857143</ele><time>2026-03-30T15:01:18Z</time></trkpt><trkpt lat="44.5573889" lon="8.8870733"><ele>687.8571428571429</ele><time>2026-03-30T15:01:19Z</time></trkpt><trkpt lat="44.5573156" lon="8.8870589"><ele>686.4285714285714</ele><time>2026-03-30T15:01:19.999Z</time></trkpt><trkpt lat="44.5572346" lon="8.8870217"><ele>685.0</ele><time>2026-03-30T15:01:21Z</time></trkpt><trkpt lat="44.5571553" lon="8.8869877"><ele>685.0</ele><time>2026-03-30T15:01:22Z</time></trkpt><trkpt lat="44.5570664" lon="8.8869423"><ele>685.0</ele><time>2026-03-30T15:01:23Z</time></trkpt><trkpt lat="44.5569688" lon="8.8868982"><ele>685.0</ele><time>2026-03-30T15:01:24Z</time></trkpt><trkpt lat="44.5568859" lon="8.8868649"><ele>685.0</ele><time>2026-03-30T15:01:25Z</time></trkpt><trkpt lat="44.5567883" lon="8.8868268"><ele>685.0</ele><time>2026-03-30T15:01:26Z</time></trkpt><trkpt lat="44.5566786" lon="8.8867985"><ele>685.8</ele><time>2026-03-30T15:01:27Z</time></trkpt><trkpt lat="44.5565686" lon="8.8867815"><ele>686.6</ele><time>2026-03-30T15:01:28Z</time></trkpt><trkpt lat="44.5564665" lon="8.8867528"><ele>687.4000000000001</ele><time>2026-03-30T15:01:29Z</time></trkpt><trkpt lat="44.5563667" lon="8.8867331"><ele>688.2</ele><time>2026-03-30T15:01:29.999Z</time></trkpt><trkpt lat="44.5562622" lon="8.8866974"><ele>689.0</ele><time>2026-03-30T15:01:31Z</time></trkpt><trkpt lat="44.5561717" lon="8.886655"><ele>694.2</ele><time>2026-03-30T15:01:32Z</time></trkpt><trkpt lat="44.5560891" lon="8.8865954"><ele>699.4000000000001</ele><time>2026-03-30T15:01:33Z</time></trkpt><trkpt lat="44.5560044" lon="8.8865515"><ele>704.6</ele><time>2026-03-30T15:01:34Z</time></trkpt><trkpt lat="44.5559195" lon="8.8865319"><ele>709.8</ele><time>2026-03-30T15:01:34.999Z</time></trkpt><trkpt lat="44.5558332" lon="8.8865365"><ele>715.0</ele><time>2026-03-30T15:01:36Z</time></trkpt><trkpt lat="44.555741" lon="8.886568"><ele>715.0</ele><time>2026-03-30T15:01:37.14Z</time></trkpt><trkpt lat="44.5556583" lon="8.8866507"><ele>715.0</ele><time>2026-03-30T15:01:38.105Z</time></trkpt><trkpt lat="44.5555416" lon="8.8868247"><ele>715.0</ele><time>2026-03-30T15:01:39.999Z</time></trkpt><trkpt lat="44.5554806" lon="8.8869335"><ele>715.0</ele><time>2026-03-30T15:01:41.142Z</time></trkpt><trkpt lat="44.5553356" lon="8.8871324"><ele>714.4</ele><time>2026-03-30T15:01:43Z</time></trkpt><trkpt lat="44.5552479" lon="8.8872031"><ele>713.8</ele><time>2026-03-30T15:01:44Z</time></trkpt><trkpt lat="44.5551554" lon="8.8872511"><ele>713.2</ele><time>2026-03-30T15:01:45Z</time></trkpt><trkpt lat="44.5550626" lon="8.887263"><ele>712.6</ele><time>2026-03-30T15:01:46Z</time></trkpt><trkpt lat="44.5549649" lon="8.8872476"><ele>712.0</ele><time>2026-03-30T15:01:47Z</time></trkpt><trkpt lat="44.5548729" lon="8.8872003"><ele>712.0</ele><time>2026-03-30T15:01:48Z</time></trkpt><trkpt lat="44.5547921" lon="8.887135"><ele>712.0</ele><time>2026-03-30T15:01:49Z</time></trkpt><trkpt lat="44.5547216" lon="8.887065"><ele>712.0</ele><time>2026-03-30T15:01:50Z</time></trkpt><trkpt lat="44.5546601" lon="8.8870079"><ele>712.0</ele><time>2026-03-30T15:01:51Z</time></trkpt><trkpt lat="44.5545867" lon="8.8869882"><ele>712.0</ele><time>2026-03-30T15:01:53.137Z</time></trkpt><trkpt lat="44.5544374" lon="8.8869729"><ele>716.5</ele><time>2026-03-30T15:01:55Z</time></trkpt><trkpt lat="44.5543729" lon="8.8869977"><ele>721.0</ele><time>2026-03-30T15:01:57Z</time></trkpt><trkpt lat="44.5541792" lon="8.8870732"><ele>725.5</ele><time>2026-03-30T15:01:59Z</time></trkpt><trkpt lat="44.5540927" lon="8.8870912"><ele>730.0</ele><time>2026-03-30T15:02:00Z</time></trkpt><trkpt lat="44.553981" lon="8.8871184"><ele>730.0</ele><time>2026-03-30T15:02:01Z</time></trkpt><trkpt lat="44.5538737" lon="8.8871174"><ele>730.0</ele><time>2026-03-30T15:02:02Z</time></trkpt><trkpt lat="44.5537703" lon="8.8871193"><ele>730.0</ele><time>2026-03-30T15:02:03Z</time></trkpt><trkpt lat="44.553689" lon="8.8870879"><ele>730.0</ele><time>2026-03-30T15:02:04Z</time></trkpt><trkpt lat="44.5536108" lon="8.8870518"><ele>730.0</ele><time>2026-03-30T15:02:04.999Z</time></trkpt><trkpt lat="44.5535337" lon="8.8870344"><ele>730.5</ele><time>2026-03-30T15:02:06Z</time></trkpt><trkpt lat="44.5534606" lon="8.8870186"><ele>731.0</ele><time>2026-03-30T15:02:07Z</time></trkpt><trkpt lat="44.5533933" lon="8.887063"><ele>731.5</ele><time>2026-03-30T15:02:08Z</time></trkpt><trkpt lat="44.553216" lon="8.8868066"><ele>732.0</ele><time>2026-03-30T15:02:15Z</time></trkpt><trkpt lat="44.5531224" lon="8.8867564"><ele>735.8</ele><time>2026-03-30T15:02:16Z</time></trkpt><trkpt lat="44.5529986" lon="8.8866983"><ele>739.6</ele><time>2026-03-30T15:02:17Z</time></trkpt><trkpt lat="44.5529141" lon="8.8866511"><ele>743.4</ele><time>2026-03-30T15:02:18Z</time></trkpt><trkpt lat="44.5528413" lon="8.8865746"><ele>747.1999999999999</ele><time>2026-03-30T15:02:19Z</time></trkpt><trkpt lat="44.5527819" lon="8.886478"><ele>751.0</ele><time>2026-03-30T15:02:20Z</time></trkpt><trkpt lat="44.5527084" lon="8.8864234"><ele>751.0</ele><time>2026-03-30T15:02:21Z</time></trkpt><trkpt lat="44.5526391" lon="8.8863271"><ele>751.0</ele><time>2026-03-30T15:02:22Z</time></trkpt><trkpt lat="44.552672" lon="8.8860809"><ele>751.0</ele><time>2026-03-30T15:02:24Z</time></trkpt><trkpt lat="44.5526584" lon="8.8859558"><ele>751.0</ele><time>2026-03-30T15:02:25Z</time></trkpt><trkpt lat="44.5526241" lon="8.8858568"><ele>751.0</ele><time>2026-03-30T15:02:26Z</time></trkpt><trkpt lat="44.5525968" lon="8.885699"><ele>751.0</ele><time>2026-03-30T15:02:28.151Z</time></trkpt><trkpt lat="44.5525041" lon="8.8855859"><ele>751.0</ele><time>2026-03-30T15:02:30Z</time></trkpt><trkpt lat="44.552447" lon="8.8857261"><ele>751.0</ele><time>2026-03-30T15:02:31Z</time></trkpt><trkpt lat="44.5524263" lon="8.8859485"><ele>751.0</ele><time>2026-03-30T15:02:32Z</time></trkpt><trkpt lat="44.5523866" lon="8.886064"><ele>751.0</ele><time>2026-03-30T15:02:33Z</time></trkpt><trkpt lat="44.5523471" lon="8.8861893"><ele>751.0</ele><time>2026-03-30T15:02:34Z</time></trkpt><trkpt lat="44.552302" lon="8.8863253"><ele>751.0</ele><time>2026-03-30T15:02:35Z</time></trkpt><trkpt lat="44.552252" lon="8.8864637"><ele>751.0</ele><time>2026-03-30T15:02:36Z</time></trkpt><trkpt lat="44.5521947" lon="8.8865748"><ele>751.0</ele><time>2026-03-30T15:02:37Z</time></trkpt><trkpt lat="44.5521222" lon="8.8866802"><ele>748.5999999999999</ele><time>2026-03-30T15:02:38Z</time></trkpt><trkpt lat="44.5520504" lon="8.8867852"><ele>746.2</ele><time>2026-03-30T15:02:39Z</time></trkpt><trkpt lat="44.5519911" lon="8.8868943"><ele>743.8</ele><time>2026-03-30T15:02:40Z</time></trkpt><trkpt lat="44.5519336" lon="8.8869963"><ele>741.4000000000001</ele><time>2026-03-30T15:02:41Z</time></trkpt><trkpt lat="44.551874" lon="8.8870899"><ele>739.0</ele><time>2026-03-30T15:02:42Z</time></trkpt><trkpt lat="44.5518105" lon="8.8871817"><ele>744.4000000000001</ele><time>2026-03-30T15:02:43Z</time></trkpt><trkpt lat="44.5517447" lon="8.887264"><ele>749.8</ele><time>2026-03-30T15:02:44Z</time></trkpt><trkpt lat="44.5516717" lon="8.887339"><ele>755.2</ele><time>2026-03-30T15:02:45Z</time></trkpt><trkpt lat="44.5515931" lon="8.887409"><ele>760.5999999999999</ele><time>2026-03-30T15:02:46Z</time></trkpt><trkpt lat="44.5515088" lon="8.8874789"><ele>766.0</ele><time>2026-03-30T15:02:47Z</time></trkpt><trkpt lat="44.5514258" lon="8.8875416"><ele>764.4</ele><time>2026-03-30T15:02:48Z</time></trkpt><trkpt lat="44.5513339" lon="8.8876005"><ele>762.8</ele><time>2026-03-30T15:02:49Z</time></trkpt><trkpt lat="44.5512365" lon="8.8876565"><ele>761.1999999999999</ele><time>2026-03-30T15:02:50Z</time></trkpt><trkpt lat="44.5511487" lon="8.8876988"><ele>759.5999999999999</ele><time>2026-03-30T15:02:50.999Z</time></trkpt><trkpt lat="44.5510614" lon="8.8877513"><ele>758.0</ele><time>2026-03-30T15:02:52Z</time></trkpt><trkpt lat="44.5509803" lon="8.8877874"><ele>761.3333333333333</ele><time>2026-03-30T15:02:53Z</time></trkpt><trkpt lat="44.5509027" lon="8.8878027"><ele>764.6666666666666</ele><time>2026-03-30T15:02:54Z</time></trkpt><trkpt lat="44.55083" lon="8.8878049"><ele>768.0</ele><time>2026-03-30T15:02:55Z</time></trkpt><trkpt lat="44.5507672" lon="8.8877954"><ele>771.3333333333333</ele><time>2026-03-30T15:02:56Z</time></trkpt><trkpt lat="44.5506519" lon="8.8877362"><ele>774.6666666666666</ele><time>2026-03-30T15:02:58Z</time></trkpt><trkpt lat="44.5505951" lon="8.8876669"><ele>778.0</ele><time>2026-03-30T15:02:59Z</time></trkpt><trkpt lat="44.5505512" lon="8.8875812"><ele>778.0</ele><time>2026-03-30T15:03:00Z</time></trkpt><trkpt lat="44.5505179" lon="8.8874675"><ele>778.0</ele><time>2026-03-30T15:03:01Z</time></trkpt><trkpt lat="44.5504911" lon="8.887358"><ele>778.0</ele><time>2026-03-30T15:03:02Z</time></trkpt><trkpt lat="44.5504738" lon="8.8872214"><ele>778.0</ele><time>2026-03-30T15:03:03Z</time></trkpt><trkpt lat="44.5504652" lon="8.8870918"><ele>778.0</ele><time>2026-03-30T15:03:04Z</time></trkpt><trkpt lat="44.5504645" lon="8.886959"><ele>778.0</ele><time>2026-03-30T15:03:05Z</time></trkpt><trkpt lat="44.55047" lon="8.8868267"><ele>778.0</ele><time>2026-03-30T15:03:06Z</time></trkpt><trkpt lat="44.5505237" lon="8.8867332"><ele>778.0</ele><time>2026-03-30T15:03:07Z</time></trkpt><trkpt lat="44.550574" lon="8.886623"><ele>778.0</ele><time>2026-03-30T15:03:08Z</time></trkpt><trkpt lat="44.5506545" lon="8.8865241"><ele>778.0</ele><time>2026-03-30T15:03:09Z</time></trkpt><trkpt lat="44.550718" lon="8.8864189"><ele>776.5999999999999</ele><time>2026-03-30T15:03:10Z</time></trkpt><trkpt lat="44.5508009" lon="8.8863227"><ele>775.1999999999999</ele><time>2026-03-30T15:03:11Z</time></trkpt><trkpt lat="44.550881" lon="8.8862576"><ele>773.8</ele><time>2026-03-30T15:03:11.999Z</time></trkpt><trkpt lat="44.5509584" lon="8.8862002"><ele>772.4</ele><time>2026-03-30T15:03:13Z</time></trkpt><trkpt lat="44.5510323" lon="8.8861301"><ele>771.0</ele><time>2026-03-30T15:03:14Z</time></trkpt><trkpt lat="44.5511156" lon="8.8860622"><ele>771.0</ele><time>2026-03-30T15:03:15Z</time></trkpt><trkpt lat="44.5511799" lon="8.8860044"><ele>771.0</ele><time>2026-03-30T15:03:16Z</time></trkpt><trkpt lat="44.5512249" lon="8.8859171"><ele>771.0</ele><time>2026-03-30T15:03:17Z</time></trkpt><trkpt lat="44.5512626" lon="8.885831"><ele>771.0</ele><time>2026-03-30T15:03:18Z</time></trkpt><trkpt lat="44.5512312" lon="8.8857506"><ele>771.0</ele><time>2026-03-30T15:03:19Z</time></trkpt><trkpt lat="44.5511793" lon="8.8856188"><ele>771.0</ele><time>2026-03-30T15:03:21Z</time></trkpt><trkpt lat="44.5511299" lon="8.8855287"><ele>766.5</ele><time>2026-03-30T15:03:22.15Z</time></trkpt><trkpt lat="44.5510637" lon="8.8854687"><ele>762.0</ele><time>2026-03-30T15:03:23.147Z</time></trkpt><trkpt lat="44.5509101" lon="8.885188"><ele>757.5</ele><time>2026-03-30T15:03:25Z</time></trkpt><trkpt lat="44.550852" lon="8.8851131"><ele>753.0</ele><time>2026-03-30T15:03:26.144Z</time></trkpt><trkpt lat="44.5508173" lon="8.8849054"><ele>752.0</ele><time>2026-03-30T15:03:27.165Z</time></trkpt><trkpt lat="44.5507873" lon="8.8847402"><ele>751.0</ele><time>2026-03-30T15:03:28.129Z</time></trkpt><trkpt lat="44.550737" lon="8.8844526"><ele>750.0</ele><time>2026-03-30T15:03:30Z</time></trkpt><trkpt lat="44.5507481" lon="8.8843257"><ele>749.0</ele><time>2026-03-30T15:03:31.168Z</time></trkpt><trkpt lat="44.5507855" lon="8.884205"><ele>748.5</ele><time>2026-03-30T15:03:32.144Z</time></trkpt><trkpt lat="44.5508475" lon="8.884161"><ele>748.0</ele><time>2026-03-30T15:03:33.148Z</time></trkpt><trkpt lat="44.5508781" lon="8.8838691"><ele>747.5</ele><time>2026-03-30T15:03:35Z</time></trkpt><trkpt lat="44.5508938" lon="8.8837275"><ele>747.0</ele><time>2026-03-30T15:03:36Z</time></trkpt><trkpt lat="44.5509177" lon="8.8835916"><ele>747.0</ele><time>2026-03-30T15:03:37.183Z</time></trkpt><trkpt lat="44.5509603" lon="8.8834542"><ele>747.0</ele><time>2026-03-30T15:03:38.177Z</time></trkpt><trkpt lat="44.5510805" lon="8.8832268"><ele>747.0</ele><time>2026-03-30T15:03:40Z</time></trkpt><trkpt lat="44.5511445" lon="8.8831207"><ele>747.0</ele><time>2026-03-30T15:03:40.999Z</time></trkpt><trkpt lat="44.551208" lon="8.8830103"><ele>749.4000000000001</ele><time>2026-03-30T15:03:42Z</time></trkpt><trkpt lat="44.5512804" lon="8.8828948"><ele>751.8000000000001</ele><time>2026-03-30T15:03:43Z</time></trkpt><trkpt lat="44.5513377" lon="8.8828188"><ele>754.2</ele><time>2026-03-30T15:03:44Z</time></trkpt><trkpt lat="44.5514096" lon="8.8827479"><ele>756.6</ele><time>2026-03-30T15:03:45Z</time></trkpt><trkpt lat="44.5514434" lon="8.8825927"><ele>759.0</ele><time>2026-03-30T15:03:47.149Z</time></trkpt><trkpt lat="44.5514221" lon="8.882502"><ele>752.0</ele><time>2026-03-30T15:03:50Z</time></trkpt><trkpt lat="44.5511994" lon="8.8826533"><ele>745.0</ele><time>2026-03-30T15:03:51.12Z</time></trkpt><trkpt lat="44.551096" lon="8.8827225"><ele>738.0</ele><time>2026-03-30T15:03:52.15Z</time></trkpt><trkpt lat="44.5509831" lon="8.8827931"><ele>738.0</ele><time>2026-03-30T15:03:53.131Z</time></trkpt><trkpt lat="44.5507628" lon="8.8829036"><ele>738.0</ele><time>2026-03-30T15:03:55Z</time></trkpt><trkpt lat="44.5506465" lon="8.8829643"><ele>738.0</ele><time>2026-03-30T15:03:56Z</time></trkpt><trkpt lat="44.5505282" lon="8.8830551"><ele>738.0</ele><time>2026-03-30T15:03:57.15Z</time></trkpt><trkpt lat="44.5504188" lon="8.8831562"><ele>738.0</ele><time>2026-03-30T15:03:58.15Z</time></trkpt><trkpt lat="44.5502125" lon="8.8833359"><ele>738.0</ele><time>2026-03-30T15:04:00Z</time></trkpt><trkpt lat="44.5501169" lon="8.8834387"><ele>731.5</ele><time>2026-03-30T15:04:01.136Z</time></trkpt><trkpt lat="44.5500283" lon="8.8835349"><ele>725.0</ele><time>2026-03-30T15:04:02.106Z</time></trkpt><trkpt lat="44.5499478" lon="8.8836237"><ele>718.5</ele><time>2026-03-30T15:04:03.151Z</time></trkpt><trkpt lat="44.5498022" lon="8.8837564"><ele>712.0</ele><time>2026-03-30T15:04:05Z</time></trkpt><trkpt lat="44.5497184" lon="8.8837871"><ele>712.0</ele><time>2026-03-30T15:04:06.141Z</time></trkpt><trkpt lat="44.5496172" lon="8.8838018"><ele>712.0</ele><time>2026-03-30T15:04:07.144Z</time></trkpt><trkpt lat="44.5495284" lon="8.8837961"><ele>712.0</ele><time>2026-03-30T15:04:08.145Z</time></trkpt><trkpt lat="44.5492986" lon="8.8837273"><ele>712.0</ele><time>2026-03-30T15:04:10Z</time></trkpt><trkpt lat="44.549191" lon="8.883708"><ele>712.0</ele><time>2026-03-30T15:04:11.131Z</time></trkpt><trkpt lat="44.549102" lon="8.8836969"><ele>712.0</ele><time>2026-03-30T15:04:12.146Z</time></trkpt><trkpt lat="44.5490079" lon="8.8836815"><ele>712.0</ele><time>2026-03-30T15:04:13.164Z</time></trkpt><trkpt lat="44.5489336" lon="8.8836268"><ele>712.0</ele><time>2026-03-30T15:04:14Z</time></trkpt><trkpt lat="44.5488927" lon="8.8835426"><ele>712.0</ele><time>2026-03-30T15:04:15Z</time></trkpt><trkpt lat="44.548841" lon="8.8834343"><ele>712.0</ele><time>2026-03-30T15:04:16.154Z</time></trkpt><trkpt lat="44.5488566" lon="8.8832878"><ele>712.0</ele><time>2026-03-30T15:04:17.141Z</time></trkpt><trkpt lat="44.5488536" lon="8.8831549"><ele>712.0</ele><time>2026-03-30T15:04:18.175Z</time></trkpt><trkpt lat="44.54887" lon="8.8829063"><ele>712.0</ele><time>2026-03-30T15:04:20.166Z</time></trkpt><trkpt lat="44.5488785" lon="8.8828137"><ele>712.0</ele><time>2026-03-30T15:04:21.142Z</time></trkpt><trkpt lat="44.5488362" lon="8.8826629"><ele>712.0</ele><time>2026-03-30T15:04:23.122Z</time></trkpt><trkpt lat="44.5487402" lon="8.88263"><ele>712.0</ele><time>2026-03-30T15:04:26Z</time></trkpt><trkpt lat="44.54867" lon="8.8826744"><ele>712.0</ele><time>2026-03-30T15:04:27Z</time></trkpt><trkpt lat="44.5486015" lon="8.8827175"><ele>712.0</ele><time>2026-03-30T15:04:28Z</time></trkpt><trkpt lat="44.5485373" lon="8.8827902"><ele>712.0</ele><time>2026-03-30T15:04:29Z</time></trkpt><trkpt lat="44.5484949" lon="8.8828843"><ele>712.0</ele><time>2026-03-30T15:04:30Z</time></trkpt><trkpt lat="44.5484025" lon="8.8829913"><ele>706.0</ele><time>2026-03-30T15:04:31.122Z</time></trkpt><trkpt lat="44.548323" lon="8.8829986"><ele>700.0</ele><time>2026-03-30T15:04:32.125Z</time></trkpt><trkpt lat="44.5482338" lon="8.8829717"><ele>694.0</ele><time>2026-03-30T15:04:33.151Z</time></trkpt><trkpt lat="44.5480202" lon="8.8827768"><ele>688.0</ele><time>2026-03-30T15:04:35Z</time></trkpt><trkpt lat="44.5479392" lon="8.8826525"><ele>687.25</ele><time>2026-03-30T15:04:36.125Z</time></trkpt><trkpt lat="44.5478533" lon="8.8825641"><ele>686.5</ele><time>2026-03-30T15:04:37.143Z</time></trkpt><trkpt lat="44.5477717" lon="8.8824834"><ele>685.75</ele><time>2026-03-30T15:04:38.116Z</time></trkpt><trkpt lat="44.5475452" lon="8.8823994"><ele>685.0</ele><time>2026-03-30T15:04:40Z</time></trkpt><trkpt lat="44.5474372" lon="8.8823457"><ele>685.0</ele><time>2026-03-30T15:04:41.158Z</time></trkpt><trkpt lat="44.5473362" lon="8.882285"><ele>685.0</ele><time>2026-03-30T15:04:42.16Z</time></trkpt><trkpt lat="44.5472268" lon="8.8822082"><ele>685.0</ele><time>2026-03-30T15:04:43.129Z</time></trkpt><trkpt lat="44.5470979" lon="8.8821574"><ele>685.0</ele><time>2026-03-30T15:04:44Z</time></trkpt><trkpt lat="44.5469731" lon="8.8820647"><ele>678.75</ele><time>2026-03-30T15:04:45Z</time></trkpt><trkpt lat="44.5468508" lon="8.8819874"><ele>672.5</ele><time>2026-03-30T15:04:46.159Z</time></trkpt><trkpt lat="44.5467206" lon="8.8819262"><ele>666.25</ele><time>2026-03-30T15:04:47.16Z</time></trkpt><trkpt lat="44.5466064" lon="8.8818773"><ele>660.0</ele><time>2026-03-30T15:04:48.159Z</time></trkpt><trkpt lat="44.5463821" lon="8.881821"><ele>660.0</ele><time>2026-03-30T15:04:50Z</time></trkpt><trkpt lat="44.5462792" lon="8.8818223"><ele>660.0</ele><time>2026-03-30T15:04:51.17Z</time></trkpt><trkpt lat="44.5461634" lon="8.8818455"><ele>660.0</ele><time>2026-03-30T15:04:52.148Z</time></trkpt><trkpt lat="44.5460448" lon="8.881875"><ele>660.0</ele><time>2026-03-30T15:04:53.113Z</time></trkpt><trkpt lat="44.5457951" lon="8.8819489"><ele>656.0</ele><time>2026-03-30T15:04:54.999Z</time></trkpt><trkpt lat="44.545683" lon="8.8819729"><ele>652.0</ele><time>2026-03-30T15:04:56.174Z</time></trkpt><trkpt lat="44.545574" lon="8.8819716"><ele>648.0</ele><time>2026-03-30T15:04:57.139Z</time></trkpt><trkpt lat="44.5453373" lon="8.881912"><ele>645.0</ele><time>2026-03-30T15:04:59Z</time></trkpt><trkpt lat="44.5452162" lon="8.8818611"><ele>642.0</ele><time>2026-03-30T15:05:00Z</time></trkpt><trkpt lat="44.5450949" lon="8.8818089"><ele>639.0</ele><time>2026-03-30T15:05:01.166Z</time></trkpt><trkpt lat="44.5449784" lon="8.8817589"><ele>636.0</ele><time>2026-03-30T15:05:02.147Z</time></trkpt><trkpt lat="44.5448601" lon="8.8817085"><ele>640.3333333333334</ele><time>2026-03-30T15:05:03.171Z</time></trkpt><trkpt lat="44.5446353" lon="8.8815948"><ele>644.6666666666667</ele><time>2026-03-30T15:05:05Z</time></trkpt><trkpt lat="44.5445162" lon="8.8815419"><ele>649.0</ele><time>2026-03-30T15:05:06.161Z</time></trkpt><trkpt lat="44.5443916" lon="8.8814889"><ele>649.0</ele><time>2026-03-30T15:05:07.174Z</time></trkpt><trkpt lat="44.5442578" lon="8.8814429"><ele>649.0</ele><time>2026-03-30T15:05:08.144Z</time></trkpt><trkpt lat="44.5440333" lon="8.8813296"><ele>649.0</ele><time>2026-03-30T15:05:10Z</time></trkpt><trkpt lat="44.5439279" lon="8.8812752"><ele>649.0</ele><time>2026-03-30T15:05:11.17Z</time></trkpt><trkpt lat="44.5438052" lon="8.8812151"><ele>649.0</ele><time>2026-03-30T15:05:12.166Z</time></trkpt><trkpt lat="44.5436873" lon="8.8811625"><ele>649.0</ele><time>2026-03-30T15:05:13.151Z</time></trkpt><trkpt lat="44.5434427" lon="8.881043"><ele>649.5</ele><time>2026-03-30T15:05:15Z</time></trkpt><trkpt lat="44.5433182" lon="8.8809855"><ele>650.0</ele><time>2026-03-30T15:05:16.134Z</time></trkpt><trkpt lat="44.5431963" lon="8.8809306"><ele>650.5</ele><time>2026-03-30T15:05:17.15Z</time></trkpt><trkpt lat="44.5430882" lon="8.8808902"><ele>651.0</ele><time>2026-03-30T15:05:18.178Z</time></trkpt><trkpt lat="44.5428985" lon="8.8808357"><ele>644.0</ele><time>2026-03-30T15:05:20Z</time></trkpt><trkpt lat="44.5428128" lon="8.8808016"><ele>637.0</ele><time>2026-03-30T15:05:21.14Z</time></trkpt><trkpt lat="44.5427458" lon="8.880732"><ele>630.0</ele><time>2026-03-30T15:05:22.151Z</time></trkpt><trkpt lat="44.5426677" lon="8.8804889"><ele>623.0</ele><time>2026-03-30T15:05:24Z</time></trkpt><trkpt lat="44.5426469" lon="8.8803615"><ele>623.0</ele><time>2026-03-30T15:05:24.999Z</time></trkpt><trkpt lat="44.5426397" lon="8.8802672"><ele>623.0</ele><time>2026-03-30T15:05:26Z</time></trkpt><trkpt lat="44.5425995" lon="8.8801264"><ele>623.0</ele><time>2026-03-30T15:05:28.107Z</time></trkpt><trkpt lat="44.5425546" lon="8.8802958"><ele>623.0</ele><time>2026-03-30T15:05:32.999Z</time></trkpt><trkpt lat="44.5425663" lon="8.8804444"><ele>623.0</ele><time>2026-03-30T15:05:34Z</time></trkpt><trkpt lat="44.5424855" lon="8.8805488"><ele>623.0</ele><time>2026-03-30T15:05:35Z</time></trkpt><trkpt lat="44.5424672" lon="8.8806442"><ele>623.0</ele><time>2026-03-30T15:05:36Z</time></trkpt><trkpt lat="44.5425424" lon="8.8809384"><ele>623.0</ele><time>2026-03-30T15:05:38Z</time></trkpt><trkpt lat="44.5426091" lon="8.8810845"><ele>623.0</ele><time>2026-03-30T15:05:39Z</time></trkpt><trkpt lat="44.5426632" lon="8.8811929"><ele>624.5</ele><time>2026-03-30T15:05:40.152Z</time></trkpt><trkpt lat="44.5427464" lon="8.881303"><ele>626.0</ele><time>2026-03-30T15:05:41.112Z</time></trkpt><trkpt lat="44.5429312" lon="8.8814332"><ele>627.5</ele><time>2026-03-30T15:05:43Z</time></trkpt><trkpt lat="44.5430142" lon="8.881495"><ele>629.0</ele><time>2026-03-30T15:05:44Z</time></trkpt><trkpt lat="44.5430995" lon="8.8815738"><ele>629.0</ele><time>2026-03-30T15:05:45Z</time></trkpt><trkpt lat="44.5431802" lon="8.881656"><ele>629.0</ele><time>2026-03-30T15:05:46Z</time></trkpt><trkpt lat="44.5432481" lon="8.8817649"><ele>629.0</ele><time>2026-03-30T15:05:47.154Z</time></trkpt><trkpt lat="44.5433038" lon="8.881881"><ele>629.0</ele><time>2026-03-30T15:05:48.151Z</time></trkpt><trkpt lat="44.5433818" lon="8.8821027"><ele>628.1666666666666</ele><time>2026-03-30T15:05:50Z</time></trkpt><trkpt lat="44.5434196" lon="8.8822013"><ele>627.3333333333333</ele><time>2026-03-30T15:05:51Z</time></trkpt><trkpt lat="44.54347" lon="8.8822871"><ele>626.5</ele><time>2026-03-30T15:05:52Z</time></trkpt><trkpt lat="44.5435052" lon="8.8823708"><ele>625.6666666666666</ele><time>2026-03-30T15:05:53Z</time></trkpt><trkpt lat="44.5436106" lon="8.8824675"><ele>624.8333333333334</ele><time>2026-03-30T15:05:55Z</time></trkpt><trkpt lat="44.5436941" lon="8.8824991"><ele>624.0</ele><time>2026-03-30T15:05:56.176Z</time></trkpt><trkpt lat="44.5437437" lon="8.8825563"><ele>620.3333333333334</ele><time>2026-03-30T15:05:57.173Z</time></trkpt><trkpt lat="44.5437711" lon="8.8826387"><ele>616.6666666666666</ele><time>2026-03-30T15:05:58.145Z</time></trkpt><trkpt lat="44.5437223" lon="8.882761"><ele>613.0</ele><time>2026-03-30T15:06:00Z</time></trkpt><trkpt lat="44.5436589" lon="8.8827755"><ele>609.3333333333333</ele><time>2026-03-30T15:06:01.175Z</time></trkpt><trkpt lat="44.5435858" lon="8.8827577"><ele>605.6666666666666</ele><time>2026-03-30T15:06:02.156Z</time></trkpt><trkpt lat="44.5435029" lon="8.8827451"><ele>602.0</ele><time>2026-03-30T15:06:03.147Z</time></trkpt><trkpt lat="44.5433141" lon="8.8827041"><ele>604.3333333333333</ele><time>2026-03-30T15:06:05Z</time></trkpt><trkpt lat="44.5432174" lon="8.8826666"><ele>606.6666666666666</ele><time>2026-03-30T15:06:06.182Z</time></trkpt><trkpt lat="44.543038" lon="8.882584"><ele>609.0</ele><time>2026-03-30T15:06:08.174Z</time></trkpt><trkpt lat="44.5428644" lon="8.8824612"><ele>605.25</ele><time>2026-03-30T15:06:10Z</time></trkpt><trkpt lat="44.5427605" lon="8.8824302"><ele>601.5</ele><time>2026-03-30T15:06:11Z</time></trkpt><trkpt lat="44.5426711" lon="8.8823978"><ele>597.75</ele><time>2026-03-30T15:06:12.148Z</time></trkpt><trkpt lat="44.542579" lon="8.8823835"><ele>594.0</ele><time>2026-03-30T15:06:13.171Z</time></trkpt><trkpt lat="44.5423963" lon="8.8824361"><ele>594.0</ele><time>2026-03-30T15:06:15Z</time></trkpt><trkpt lat="44.5423138" lon="8.8824886"><ele>594.0</ele><time>2026-03-30T15:06:16.169Z</time></trkpt><trkpt lat="44.5422298" lon="8.8825548"><ele>594.0</ele><time>2026-03-30T15:06:17.149Z</time></trkpt><trkpt lat="44.5420425" lon="8.8826053"><ele>594.0</ele><time>2026-03-30T15:06:19Z</time></trkpt><trkpt lat="44.5419494" lon="8.8825961"><ele>591.6</ele><time>2026-03-30T15:06:20Z</time></trkpt><trkpt lat="44.5418615" lon="8.8825588"><ele>589.2</ele><time>2026-03-30T15:06:21.131Z</time></trkpt><trkpt lat="44.5418049" lon="8.8825001"><ele>586.8000000000001</ele><time>2026-03-30T15:06:22.146Z</time></trkpt><trkpt lat="44.5417471" lon="8.8822666"><ele>584.4</ele><time>2026-03-30T15:06:25Z</time></trkpt><trkpt lat="44.5417462" lon="8.8821465"><ele>582.0</ele><time>2026-03-30T15:06:26.13Z</time></trkpt><trkpt lat="44.541761" lon="8.8819699"><ele>582.0</ele><time>2026-03-30T15:06:28.11Z</time></trkpt><trkpt lat="44.5417533" lon="8.8818077"><ele>582.0</ele><time>2026-03-30T15:06:30Z</time></trkpt><trkpt lat="44.5416875" lon="8.881733"><ele>582.0</ele><time>2026-03-30T15:06:31.153Z</time></trkpt><trkpt lat="44.5416143" lon="8.8817128"><ele>582.0</ele><time>2026-03-30T15:06:32.134Z</time></trkpt><trkpt lat="44.5415358" lon="8.8817186"><ele>582.0</ele><time>2026-03-30T15:06:33.142Z</time></trkpt><trkpt lat="44.5413662" lon="8.8818122"><ele>582.0</ele><time>2026-03-30T15:06:35Z</time></trkpt><trkpt lat="44.5412664" lon="8.8818794"><ele>582.0</ele><time>2026-03-30T15:06:36.146Z</time></trkpt><trkpt lat="44.5411934" lon="8.8819372"><ele>582.0</ele><time>2026-03-30T15:06:37.157Z</time></trkpt><trkpt lat="44.5411435" lon="8.8820236"><ele>582.0</ele><time>2026-03-30T15:06:38.149Z</time></trkpt><trkpt lat="44.540934" lon="8.8821492"><ele>578.6</ele><time>2026-03-30T15:06:40Z</time></trkpt><trkpt lat="44.5408547" lon="8.8822127"><ele>575.2</ele><time>2026-03-30T15:06:41.135Z</time></trkpt><trkpt lat="44.5407817" lon="8.8822589"><ele>571.8</ele><time>2026-03-30T15:06:42.139Z</time></trkpt><trkpt lat="44.5407158" lon="8.8822868"><ele>568.4</ele><time>2026-03-30T15:06:43.141Z</time></trkpt><trkpt lat="44.5405711" lon="8.8822661"><ele>565.0</ele><time>2026-03-30T15:06:45Z</time></trkpt><trkpt lat="44.5405162" lon="8.8822148"><ele>565.0</ele><time>2026-03-30T15:06:46.135Z</time></trkpt><trkpt lat="44.5404718" lon="8.8821338"><ele>565.0</ele><time>2026-03-30T15:06:47.169Z</time></trkpt><trkpt lat="44.5404466" lon="8.8820388"><ele>565.0</ele><time>2026-03-30T15:06:48.148Z</time></trkpt><trkpt lat="44.5405014" lon="8.8819412"><ele>565.0</ele><time>2026-03-30T15:06:50Z</time></trkpt><trkpt lat="44.540514" lon="8.8818416"><ele>565.0</ele><time>2026-03-30T15:06:51Z</time></trkpt><trkpt lat="44.5405188" lon="8.8817097"><ele>565.0</ele><time>2026-03-30T15:06:52Z</time></trkpt><trkpt lat="44.5405082" lon="8.8815855"><ele>566.1666666666667</ele><time>2026-03-30T15:06:53Z</time></trkpt><trkpt lat="44.5405322" lon="8.8814742"><ele>567.3333333333334</ele><time>2026-03-30T15:06:54Z</time></trkpt><trkpt lat="44.5405504" lon="8.8813581"><ele>568.5</ele><time>2026-03-30T15:06:55Z</time></trkpt><trkpt lat="44.5405356" lon="8.8812201"><ele>569.6666666666666</ele><time>2026-03-30T15:06:56.182Z</time></trkpt><trkpt lat="44.5404909" lon="8.881115"><ele>570.8333333333333</ele><time>2026-03-30T15:06:57.174Z</time></trkpt><trkpt lat="44.5404347" lon="8.8810168"><ele>572.0</ele><time>2026-03-30T15:06:58.146Z</time></trkpt><trkpt lat="44.5402789" lon="8.880887"><ele>568.4</ele><time>2026-03-30T15:07:00Z</time></trkpt><trkpt lat="44.5401975" lon="8.8808524"><ele>564.8000000000001</ele><time>2026-03-30T15:07:01Z</time></trkpt><trkpt lat="44.5401214" lon="8.8807978"><ele>561.2</ele><time>2026-03-30T15:07:02Z</time></trkpt><trkpt lat="44.5400479" lon="8.8807386"><ele>557.6</ele><time>2026-03-30T15:07:03.159Z</time></trkpt><trkpt lat="44.5399117" lon="8.8805546"><ele>554.0</ele><time>2026-03-30T15:07:05Z</time></trkpt><trkpt lat="44.5398542" lon="8.8804358"><ele>554.0</ele><time>2026-03-30T15:07:06.147Z</time></trkpt><trkpt lat="44.5398101" lon="8.8803228"><ele>554.0</ele><time>2026-03-30T15:07:07.149Z</time></trkpt><trkpt lat="44.5397568" lon="8.8802227"><ele>554.0</ele><time>2026-03-30T15:07:08.121Z</time></trkpt><trkpt lat="44.5396266" lon="8.8800617"><ele>554.0</ele><time>2026-03-30T15:07:10Z</time></trkpt><trkpt lat="44.5395511" lon="8.8799836"><ele>554.0</ele><time>2026-03-30T15:07:11.122Z</time></trkpt><trkpt lat="44.5393592" lon="8.8798992"><ele>552.0</ele><time>2026-03-30T15:07:13.137Z</time></trkpt><trkpt lat="44.5391502" lon="8.8798708"><ele>550.0</ele><time>2026-03-30T15:07:14.999Z</time></trkpt><trkpt lat="44.5390547" lon="8.8798737"><ele>548.0</ele><time>2026-03-30T15:07:16.123Z</time></trkpt><trkpt lat="44.5389742" lon="8.8798773"><ele>546.0</ele><time>2026-03-30T15:07:17.13Z</time></trkpt><trkpt lat="44.5388915" lon="8.8799201"><ele>546.0</ele><time>2026-03-30T15:07:18.112Z</time></trkpt><trkpt lat="44.5387649" lon="8.880063"><ele>546.0</ele><time>2026-03-30T15:07:20Z</time></trkpt><trkpt lat="44.5387326" lon="8.8801646"><ele>546.0</ele><time>2026-03-30T15:07:21.137Z</time></trkpt><trkpt lat="44.53875" lon="8.8803856"><ele>546.0</ele><time>2026-03-30T15:07:23Z</time></trkpt><trkpt lat="44.5387901" lon="8.8804988"><ele>545.4</ele><time>2026-03-30T15:07:24Z</time></trkpt><trkpt lat="44.5388351" lon="8.8806107"><ele>544.8</ele><time>2026-03-30T15:07:25.143Z</time></trkpt><trkpt lat="44.5388821" lon="8.8807227"><ele>544.1999999999999</ele><time>2026-03-30T15:07:26.144Z</time></trkpt><trkpt lat="44.538943" lon="8.8808344"><ele>543.6</ele><time>2026-03-30T15:07:27.148Z</time></trkpt><trkpt lat="44.5390068" lon="8.880941"><ele>543.0</ele><time>2026-03-30T15:07:28.148Z</time></trkpt><trkpt lat="44.5391499" lon="8.8811124"><ele>539.5</ele><time>2026-03-30T15:07:30Z</time></trkpt><trkpt lat="44.5392113" lon="8.8811942"><ele>536.0</ele><time>2026-03-30T15:07:31.146Z</time></trkpt><trkpt lat="44.5392674" lon="8.8812874"><ele>532.5</ele><time>2026-03-30T15:07:32.157Z</time></trkpt><trkpt lat="44.5393027" lon="8.8815558"><ele>529.0</ele><time>2026-03-30T15:07:35Z</time></trkpt><trkpt lat="44.5392679" lon="8.881677"><ele>529.2</ele><time>2026-03-30T15:07:36Z</time></trkpt><trkpt lat="44.5392113" lon="8.8817723"><ele>529.4</ele><time>2026-03-30T15:07:37Z</time></trkpt><trkpt lat="44.5391513" lon="8.8818802"><ele>529.6</ele><time>2026-03-30T15:07:37.999Z</time></trkpt><trkpt lat="44.539096" lon="8.8819797"><ele>529.8</ele><time>2026-03-30T15:07:39Z</time></trkpt><trkpt lat="44.5390268" lon="8.8820667"><ele>530.0</ele><time>2026-03-30T15:07:40Z</time></trkpt><trkpt lat="44.5389845" lon="8.882173"><ele>530.0</ele><time>2026-03-30T15:07:41Z</time></trkpt><trkpt lat="44.5389599" lon="8.8822635"><ele>530.0</ele><time>2026-03-30T15:07:42.104Z</time></trkpt><trkpt lat="44.5389911" lon="8.8824776"><ele>530.0</ele><time>2026-03-30T15:07:44Z</time></trkpt><trkpt lat="44.5390699" lon="8.8826686"><ele>530.0</ele><time>2026-03-30T15:07:46Z</time></trkpt><trkpt lat="44.5390991" lon="8.8827836"><ele>527.8333333333333</ele><time>2026-03-30T15:07:47Z</time></trkpt><trkpt lat="44.5391036" lon="8.8828943"><ele>525.6666666666666</ele><time>2026-03-30T15:07:48Z</time></trkpt><trkpt lat="44.5390697" lon="8.8829801"><ele>523.5</ele><time>2026-03-30T15:07:49Z</time></trkpt><trkpt lat="44.5390345" lon="8.8830707"><ele>521.3333333333334</ele><time>2026-03-30T15:07:50Z</time></trkpt><trkpt lat="44.5389881" lon="8.8831328"><ele>519.1666666666667</ele><time>2026-03-30T15:07:51Z</time></trkpt><trkpt lat="44.5389203" lon="8.8831753"><ele>517.0</ele><time>2026-03-30T15:07:51.999Z</time></trkpt><trkpt lat="44.5388002" lon="8.8831632"><ele>515.3333333333334</ele><time>2026-03-30T15:07:53Z</time></trkpt><trkpt lat="44.5387107" lon="8.883158"><ele>513.6666666666667</ele><time>2026-03-30T15:07:54Z</time></trkpt><trkpt lat="44.5386068" lon="8.8831517"><ele>512.0</ele><time>2026-03-30T15:07:55Z</time></trkpt><trkpt lat="44.5385346" lon="8.8831141"><ele>510.33333333333337</ele><time>2026-03-30T15:07:56Z</time></trkpt><trkpt lat="44.538466" lon="8.8830724"><ele>508.6666666666667</ele><time>2026-03-30T15:07:57Z</time></trkpt><trkpt lat="44.5383899" lon="8.8830388"><ele>507.0</ele><time>2026-03-30T15:07:58Z</time></trkpt><trkpt lat="44.5383173" lon="8.8830459"><ele>507.0</ele><time>2026-03-30T15:07:59Z</time></trkpt><trkpt lat="44.538219" lon="8.8830279"><ele>507.0</ele><time>2026-03-30T15:08:00Z</time></trkpt><trkpt lat="44.5381323" lon="8.8830907"><ele>507.0</ele><time>2026-03-30T15:08:01Z</time></trkpt><trkpt lat="44.5380579" lon="8.8831135"><ele>507.0</ele><time>2026-03-30T15:08:02Z</time></trkpt><trkpt lat="44.5379947" lon="8.8831045"><ele>507.0</ele><time>2026-03-30T15:08:03Z</time></trkpt><trkpt lat="44.5379205" lon="8.8831134"><ele>507.0</ele><time>2026-03-30T15:08:04Z</time></trkpt><trkpt lat="44.5377929" lon="8.883152"><ele>505.5</ele><time>2026-03-30T15:08:06Z</time></trkpt><trkpt lat="44.5376684" lon="8.883198"><ele>504.0</ele><time>2026-03-30T15:08:07Z</time></trkpt><trkpt lat="44.5375437" lon="8.8832816"><ele>502.5</ele><time>2026-03-30T15:08:08Z</time></trkpt><trkpt lat="44.5374359" lon="8.8833519"><ele>501.0</ele><time>2026-03-30T15:08:09Z</time></trkpt><trkpt lat="44.5373486" lon="8.8834208"><ele>500.20000000000005</ele><time>2026-03-30T15:08:10Z</time></trkpt><trkpt lat="44.537239" lon="8.8834756"><ele>499.40000000000003</ele><time>2026-03-30T15:08:11Z</time></trkpt><trkpt lat="44.5371521" lon="8.8835186"><ele>498.6</ele><time>2026-03-30T15:08:12Z</time></trkpt><trkpt lat="44.5370674" lon="8.8835655"><ele>497.8</ele><time>2026-03-30T15:08:13Z</time></trkpt><trkpt lat="44.5369862" lon="8.8835827"><ele>497.0</ele><time>2026-03-30T15:08:14Z</time></trkpt><trkpt lat="44.5368954" lon="8.8835831"><ele>496.99999999999994</ele><time>2026-03-30T15:08:15Z</time></trkpt><trkpt lat="44.5368082" lon="8.8835747"><ele>497.0</ele><time>2026-03-30T15:08:16Z</time></trkpt><trkpt lat="44.536714" lon="8.8835677"><ele>497.0</ele><time>2026-03-30T15:08:17Z</time></trkpt><trkpt lat="44.536637" lon="8.8835812"><ele>497.0</ele><time>2026-03-30T15:08:18Z</time></trkpt><trkpt lat="44.5365528" lon="8.8835955"><ele>496.99999999999994</ele><time>2026-03-30T15:08:19Z</time></trkpt><trkpt lat="44.5364631" lon="8.8836093"><ele>497.0</ele><time>2026-03-30T15:08:20Z</time></trkpt><trkpt lat="44.5363718" lon="8.8836291"><ele>497.0</ele><time>2026-03-30T15:08:21Z</time></trkpt><trkpt lat="44.5362789" lon="8.8836626"><ele>497.00000000000006</ele><time>2026-03-30T15:08:22Z</time></trkpt><trkpt lat="44.5361832" lon="8.8836909"><ele>497.00000000000006</ele><time>2026-03-30T15:08:23Z</time></trkpt><trkpt lat="44.536088" lon="8.8837375"><ele>497.0</ele><time>2026-03-30T15:08:24Z</time></trkpt><trkpt lat="44.5359773" lon="8.8837917"><ele>497.0</ele><time>2026-03-30T15:08:24.999Z</time></trkpt><trkpt lat="44.5358689" lon="8.8838415"><ele>498.8</ele><time>2026-03-30T15:08:26Z</time></trkpt><trkpt lat="44.5357645" lon="8.8838794"><ele>500.6</ele><time>2026-03-30T15:08:27Z</time></trkpt><trkpt lat="44.5356657" lon="8.8839182"><ele>502.40000000000003</ele><time>2026-03-30T15:08:28Z</time></trkpt><trkpt lat="44.5355562" lon="8.8839622"><ele>504.20000000000005</ele><time>2026-03-30T15:08:29Z</time></trkpt><trkpt lat="44.5354482" lon="8.8840057"><ele>506.0</ele><time>2026-03-30T15:08:30.15Z</time></trkpt><trkpt lat="44.5352333" lon="8.8840725"><ele>506.0</ele><time>2026-03-30T15:08:32Z</time></trkpt><trkpt lat="44.5351303" lon="8.8841044"><ele>506.0</ele><time>2026-03-30T15:08:33Z</time></trkpt><trkpt lat="44.5350234" lon="8.8841434"><ele>506.0</ele><time>2026-03-30T15:08:34Z</time></trkpt><trkpt lat="44.5349268" lon="8.8841669"><ele>506.0</ele><time>2026-03-30T15:08:35Z</time></trkpt><trkpt lat="44.5348189" lon="8.8841789"><ele>506.0</ele><time>2026-03-30T15:08:36Z</time></trkpt><trkpt lat="44.5347281" lon="8.8841659"><ele>506.0</ele><time>2026-03-30T15:08:37Z</time></trkpt><trkpt lat="44.5346486" lon="8.8841137"><ele>506.0</ele><time>2026-03-30T15:08:37.999Z</time></trkpt><trkpt lat="44.5345612" lon="8.8840465"><ele>506.0</ele><time>2026-03-30T15:08:39Z</time></trkpt><trkpt lat="44.534477" lon="8.8839575"><ele>506.0</ele><time>2026-03-30T15:08:39.999Z</time></trkpt><trkpt lat="44.5343883" lon="8.8838635"><ele>506.0</ele><time>2026-03-30T15:08:40.999Z</time></trkpt><trkpt lat="44.5343021" lon="8.883759"><ele>508.20000000000005</ele><time>2026-03-30T15:08:41.999Z</time></trkpt><trkpt lat="44.5342326" lon="8.883655"><ele>510.40000000000003</ele><time>2026-03-30T15:08:43Z</time></trkpt><trkpt lat="44.5341596" lon="8.8835503"><ele>512.6</ele><time>2026-03-30T15:08:44Z</time></trkpt><trkpt lat="44.5340926" lon="8.8834543"><ele>514.8000000000001</ele><time>2026-03-30T15:08:45Z</time></trkpt><trkpt lat="44.5340233" lon="8.8833598"><ele>517.0</ele><time>2026-03-30T15:08:46Z</time></trkpt><trkpt lat="44.5339485" lon="8.8832692"><ele>516.75</ele><time>2026-03-30T15:08:47Z</time></trkpt><trkpt lat="44.5338564" lon="8.883191"><ele>516.5</ele><time>2026-03-30T15:08:48Z</time></trkpt><trkpt lat="44.5337619" lon="8.8831074"><ele>516.25</ele><time>2026-03-30T15:08:49Z</time></trkpt><trkpt lat="44.5336782" lon="8.8830202"><ele>516.0</ele><time>2026-03-30T15:08:50Z</time></trkpt><trkpt lat="44.5335279" lon="8.8828322"><ele>516.0</ele><time>2026-03-30T15:08:52.172Z</time></trkpt><trkpt lat="44.5334426" lon="8.8827236"><ele>516.0</ele><time>2026-03-30T15:08:53.178Z</time></trkpt><trkpt lat="44.533313" lon="8.8824991"><ele>516.0</ele><time>2026-03-30T15:08:55Z</time></trkpt><trkpt lat="44.5332847" lon="8.8823633"><ele>516.0</ele><time>2026-03-30T15:08:56.179Z</time></trkpt><trkpt lat="44.533253" lon="8.8822562"><ele>511.0</ele><time>2026-03-30T15:08:57.148Z</time></trkpt><trkpt lat="44.5332175" lon="8.882101"><ele>506.0</ele><time>2026-03-30T15:08:58.129Z</time></trkpt><trkpt lat="44.5330979" lon="8.881887"><ele>501.0</ele><time>2026-03-30T15:09:00Z</time></trkpt><trkpt lat="44.5330372" lon="8.8817858"><ele>496.0</ele><time>2026-03-30T15:09:01.153Z</time></trkpt><trkpt lat="44.5329363" lon="8.8817109"><ele>491.0</ele><time>2026-03-30T15:09:02.148Z</time></trkpt><trkpt lat="44.5328215" lon="8.8816288"><ele>486.0</ele><time>2026-03-30T15:09:03.14Z</time></trkpt><trkpt lat="44.5326248" lon="8.8814647"><ele>481.0</ele><time>2026-03-30T15:09:05Z</time></trkpt><trkpt lat="44.5325272" lon="8.881386"><ele>481.0</ele><time>2026-03-30T15:09:06.128Z</time></trkpt><trkpt lat="44.5324347" lon="8.8812961"><ele>481.0</ele><time>2026-03-30T15:09:07.142Z</time></trkpt><trkpt lat="44.5323345" lon="8.8812095"><ele>481.0</ele><time>2026-03-30T15:09:08.131Z</time></trkpt><trkpt lat="44.5321364" lon="8.8810648"><ele>481.75</ele><time>2026-03-30T15:09:09.999Z</time></trkpt><trkpt lat="44.5320393" lon="8.8809851"><ele>482.5</ele><time>2026-03-30T15:09:11.157Z</time></trkpt><trkpt lat="44.5319572" lon="8.8808938"><ele>483.25</ele><time>2026-03-30T15:09:12.142Z</time></trkpt><trkpt lat="44.5318016" lon="8.8807426"><ele>484.0</ele><time>2026-03-30T15:09:14Z</time></trkpt><trkpt lat="44.5317738" lon="8.8806469"><ele>484.0</ele><time>2026-03-30T15:09:14.999Z</time></trkpt><trkpt lat="44.5317404" lon="8.8805231"><ele>484.0</ele><time>2026-03-30T15:09:16Z</time></trkpt><trkpt lat="44.5317085" lon="8.8803793"><ele>484.0</ele><time>2026-03-30T15:09:16.999Z</time></trkpt><trkpt lat="44.5316829" lon="8.8802496"><ele>484.0</ele><time>2026-03-30T15:09:17.999Z</time></trkpt><trkpt lat="44.5316602" lon="8.8801319"><ele>484.0</ele><time>2026-03-30T15:09:19Z</time></trkpt><trkpt lat="44.5316364" lon="8.880032"><ele>480.4</ele><time>2026-03-30T15:09:20.159Z</time></trkpt><trkpt lat="44.5316202" lon="8.8799315"><ele>476.79999999999995</ele><time>2026-03-30T15:09:21.167Z</time></trkpt><trkpt lat="44.5315964" lon="8.8797823"><ele>473.20000000000005</ele><time>2026-03-30T15:09:23.132Z</time></trkpt><trkpt lat="44.5315502" lon="8.8796981"><ele>469.6</ele><time>2026-03-30T15:09:25Z</time></trkpt><trkpt lat="44.5314581" lon="8.8796265"><ele>466.0</ele><time>2026-03-30T15:09:27Z</time></trkpt><trkpt lat="44.5313681" lon="8.879626"><ele>466.0</ele><time>2026-03-30T15:09:28Z</time></trkpt><trkpt lat="44.5312295" lon="8.8797046"><ele>466.0</ele><time>2026-03-30T15:09:28.999Z</time></trkpt><trkpt lat="44.5309986" lon="8.8797379"><ele>466.0</ele><time>2026-03-30T15:09:30.177Z</time></trkpt><trkpt lat="44.5308554" lon="8.8797303"><ele>464.6666666666667</ele><time>2026-03-30T15:09:31.177Z</time></trkpt><trkpt lat="44.5306991" lon="8.8797538"><ele>463.33333333333337</ele><time>2026-03-30T15:09:32.197Z</time></trkpt><trkpt lat="44.5305607" lon="8.8797541"><ele>462.0</ele><time>2026-03-30T15:09:33.167Z</time></trkpt><trkpt lat="44.5303195" lon="8.8797274"><ele>458.75</ele><time>2026-03-30T15:09:34.999Z</time></trkpt><trkpt lat="44.530218" lon="8.879699"><ele>455.5</ele><time>2026-03-30T15:09:36.158Z</time></trkpt><trkpt lat="44.530132" lon="8.8796771"><ele>452.25</ele><time>2026-03-30T15:09:37.17Z</time></trkpt><trkpt lat="44.5300233" lon="8.8796707"><ele>449.0</ele><time>2026-03-30T15:09:38.129Z</time></trkpt><trkpt lat="44.5298891" lon="8.8798171"><ele>449.0</ele><time>2026-03-30T15:09:40Z</time></trkpt><trkpt lat="44.5298348" lon="8.8799362"><ele>449.0</ele><time>2026-03-30T15:09:41.12Z</time></trkpt><trkpt lat="44.5298191" lon="8.8800646"><ele>449.0</ele><time>2026-03-30T15:09:42.137Z</time></trkpt><trkpt lat="44.5298201" lon="8.880193"><ele>449.0</ele><time>2026-03-30T15:09:43.155Z</time></trkpt><trkpt lat="44.529772" lon="8.8804804"><ele>450.75</ele><time>2026-03-30T15:09:45Z</time></trkpt><trkpt lat="44.5297449" lon="8.8806204"><ele>452.5</ele><time>2026-03-30T15:09:46.155Z</time></trkpt><trkpt lat="44.5297361" lon="8.8807369"><ele>454.25</ele><time>2026-03-30T15:09:47.126Z</time></trkpt><trkpt lat="44.5297487" lon="8.8808684"><ele>456.0</ele><time>2026-03-30T15:09:48.159Z</time></trkpt><trkpt lat="44.5297846" lon="8.881128"><ele>458.0</ele><time>2026-03-30T15:09:50Z</time></trkpt><trkpt lat="44.5297745" lon="8.8812687"><ele>460.0</ele><time>2026-03-30T15:09:51.151Z</time></trkpt><trkpt lat="44.5297652" lon="8.8813843"><ele>462.0</ele><time>2026-03-30T15:09:52.137Z</time></trkpt><trkpt lat="44.5297191" lon="8.8814754"><ele>464.0</ele><time>2026-03-30T15:09:53.167Z</time></trkpt><trkpt lat="44.5295796" lon="8.8816089"><ele>466.0</ele><time>2026-03-30T15:09:55Z</time></trkpt><trkpt lat="44.5294816" lon="8.8816888"><ele>463.0</ele><time>2026-03-30T15:09:56.142Z</time></trkpt><trkpt lat="44.5292801" lon="8.8818243"><ele>460.0</ele><time>2026-03-30T15:09:58Z</time></trkpt><trkpt lat="44.5291855" lon="8.8818899"><ele>457.0</ele><time>2026-03-30T15:09:59Z</time></trkpt><trkpt lat="44.5290821" lon="8.8819667"><ele>454.0</ele><time>2026-03-30T15:09:59.999Z</time></trkpt><trkpt lat="44.5289764" lon="8.8820322"><ele>454.0</ele><time>2026-03-30T15:10:01.143Z</time></trkpt><trkpt lat="44.5288625" lon="8.882075"><ele>454.0</ele><time>2026-03-30T15:10:02.158Z</time></trkpt><trkpt lat="44.5287387" lon="8.8821095"><ele>454.0</ele><time>2026-03-30T15:10:03.141Z</time></trkpt><trkpt lat="44.5284969" lon="8.8821758"><ele>449.6</ele><time>2026-03-30T15:10:05Z</time></trkpt><trkpt lat="44.528395" lon="8.8822273"><ele>445.2</ele><time>2026-03-30T15:10:06.162Z</time></trkpt><trkpt lat="44.5283055" lon="8.8822622"><ele>440.80000000000007</ele><time>2026-03-30T15:10:07.16Z</time></trkpt><trkpt lat="44.5281997" lon="8.8823326"><ele>436.40000000000003</ele><time>2026-03-30T15:10:08.133Z</time></trkpt><trkpt lat="44.5280818" lon="8.8823867"><ele>432.0</ele><time>2026-03-30T15:10:09Z</time></trkpt><trkpt lat="44.5279737" lon="8.8824368"><ele>427.0</ele><time>2026-03-30T15:10:10Z</time></trkpt><trkpt lat="44.5278666" lon="8.8824782"><ele>422.0</ele><time>2026-03-30T15:10:11.178Z</time></trkpt><trkpt lat="44.5276787" lon="8.8825261"><ele>417.0</ele><time>2026-03-30T15:10:12.999Z</time></trkpt><trkpt lat="44.5275877" lon="8.8825609"><ele>412.0</ele><time>2026-03-30T15:10:14Z</time></trkpt><trkpt lat="44.5275254" lon="8.8826164"><ele>412.0</ele><time>2026-03-30T15:10:15.171Z</time></trkpt><trkpt lat="44.5274727" lon="8.8826989"><ele>412.0</ele><time>2026-03-30T15:10:16.132Z</time></trkpt><trkpt lat="44.5274292" lon="8.8828147"><ele>412.0</ele><time>2026-03-30T15:10:18.162Z</time></trkpt><trkpt lat="44.5275" lon="8.8830981"><ele>412.0</ele><time>2026-03-30T15:10:20Z</time></trkpt><trkpt lat="44.5275502" lon="8.8832361"><ele>412.0</ele><time>2026-03-30T15:10:20.999Z</time></trkpt><trkpt lat="44.527595" lon="8.8833779"><ele>412.0</ele><time>2026-03-30T15:10:22.153Z</time></trkpt><trkpt lat="44.5276446" lon="8.8834805"><ele>412.0</ele><time>2026-03-30T15:10:23.192Z</time></trkpt><trkpt lat="44.5277768" lon="8.8836913"><ele>412.0</ele><time>2026-03-30T15:10:25Z</time></trkpt><trkpt lat="44.5278588" lon="8.8837307"><ele>412.25</ele><time>2026-03-30T15:10:26Z</time></trkpt><trkpt lat="44.5279531" lon="8.8838061"><ele>412.5</ele><time>2026-03-30T15:10:27.107Z</time></trkpt><trkpt lat="44.528018" lon="8.883854"><ele>412.75</ele><time>2026-03-30T15:10:28.117Z</time></trkpt><trkpt lat="44.5282278" lon="8.8838708"><ele>413.0</ele><time>2026-03-30T15:10:30Z</time></trkpt><trkpt lat="44.5283322" lon="8.8838741"><ele>413.0</ele><time>2026-03-30T15:10:31.125Z</time></trkpt><trkpt lat="44.5284265" lon="8.8838984"><ele>413.0</ele><time>2026-03-30T15:10:32.155Z</time></trkpt><trkpt lat="44.5285055" lon="8.8839242"><ele>413.0</ele><time>2026-03-30T15:10:33.116Z</time></trkpt><trkpt lat="44.5285771" lon="8.8840664"><ele>413.0</ele><time>2026-03-30T15:10:35Z</time></trkpt><trkpt lat="44.5286506" lon="8.8841896"><ele>413.0</ele><time>2026-03-30T15:10:37.159Z</time></trkpt><trkpt lat="44.5287708" lon="8.884281"><ele>416.2</ele><time>2026-03-30T15:10:38.132Z</time></trkpt><trkpt lat="44.5288753" lon="8.8844517"><ele>419.4</ele><time>2026-03-30T15:10:40Z</time></trkpt><trkpt lat="44.5289352" lon="8.884515"><ele>422.59999999999997</ele><time>2026-03-30T15:10:41.164Z</time></trkpt><trkpt lat="44.5289723" lon="8.8846287"><ele>425.79999999999995</ele><time>2026-03-30T15:10:42.153Z</time></trkpt><trkpt lat="44.5289526" lon="8.8847165"><ele>429.0</ele><time>2026-03-30T15:10:45Z</time></trkpt><trkpt lat="44.5288461" lon="8.8847268"><ele>429.0</ele><time>2026-03-30T15:10:48Z</time></trkpt><trkpt lat="44.5287887" lon="8.884765"><ele>429.0</ele><time>2026-03-30T15:10:50Z</time></trkpt><trkpt lat="44.5286643" lon="8.8848394"><ele>429.0</ele><time>2026-03-30T15:10:51Z</time></trkpt><trkpt lat="44.5285776" lon="8.8848995"><ele>429.0</ele><time>2026-03-30T15:10:52.131Z</time></trkpt><trkpt lat="44.5284921" lon="8.8849707"><ele>429.0</ele><time>2026-03-30T15:10:53.169Z</time></trkpt><trkpt lat="44.5282743" lon="8.8851392"><ele>427.25</ele><time>2026-03-30T15:10:55Z</time></trkpt><trkpt lat="44.5281624" lon="8.8851974"><ele>425.5</ele><time>2026-03-30T15:10:56.146Z</time></trkpt><trkpt lat="44.5280409" lon="8.885273"><ele>423.75</ele><time>2026-03-30T15:10:57.101Z</time></trkpt><trkpt lat="44.5279061" lon="8.8853585"><ele>422.0</ele><time>2026-03-30T15:10:58.153Z</time></trkpt><trkpt lat="44.5277492" lon="8.8856121"><ele>415.0</ele><time>2026-03-30T15:11:00Z</time></trkpt><trkpt lat="44.5276694" lon="8.8857258"><ele>408.0</ele><time>2026-03-30T15:11:01.148Z</time></trkpt><trkpt lat="44.5275964" lon="8.8858158"><ele>401.0</ele><time>2026-03-30T15:11:02.171Z</time></trkpt><trkpt lat="44.5275186" lon="8.8858686"><ele>394.0</ele><time>2026-03-30T15:11:03.17Z</time></trkpt><trkpt lat="44.5273432" lon="8.8858843"><ele>394.0</ele><time>2026-03-30T15:11:04.999Z</time></trkpt><trkpt lat="44.5272536" lon="8.8858944"><ele>394.0</ele><time>2026-03-30T15:11:06.148Z</time></trkpt><trkpt lat="44.5272099" lon="8.8857701"><ele>394.0</ele><time>2026-03-30T15:11:07.155Z</time></trkpt><trkpt lat="44.5271417" lon="8.8856998"><ele>394.0</ele><time>2026-03-30T15:11:08.176Z</time></trkpt><trkpt lat="44.5269497" lon="8.8856447"><ele>392.5</ele><time>2026-03-30T15:11:10Z</time></trkpt><trkpt lat="44.5268481" lon="8.8856348"><ele>391.0</ele><time>2026-03-30T15:11:11.192Z</time></trkpt><trkpt lat="44.5266754" lon="8.8856844"><ele>389.5</ele><time>2026-03-30T15:11:13.167Z</time></trkpt><trkpt lat="44.5266088" lon="8.8858794"><ele>388.0</ele><time>2026-03-30T15:11:15Z</time></trkpt><trkpt lat="44.5265425" lon="8.8859869"><ele>388.0</ele><time>2026-03-30T15:11:17.12Z</time></trkpt><trkpt lat="44.5264661" lon="8.8860222"><ele>388.0</ele><time>2026-03-30T15:11:18.155Z</time></trkpt><trkpt lat="44.526303" lon="8.8860152"><ele>388.0</ele><time>2026-03-30T15:11:19.999Z</time></trkpt><trkpt lat="44.5262365" lon="8.8858966"><ele>388.0</ele><time>2026-03-30T15:11:21.155Z</time></trkpt><trkpt lat="44.5261102" lon="8.8858987"><ele>381.25</ele><time>2026-03-30T15:11:22.133Z</time></trkpt><trkpt lat="44.5260118" lon="8.885899"><ele>374.5</ele><time>2026-03-30T15:11:23.139Z</time></trkpt><trkpt lat="44.5257995" lon="8.8859274"><ele>367.75</ele><time>2026-03-30T15:11:25Z</time></trkpt><trkpt lat="44.5256932" lon="8.8859406"><ele>361.0</ele><time>2026-03-30T15:11:26.151Z</time></trkpt><trkpt lat="44.5255699" lon="8.8859708"><ele>354.0</ele><time>2026-03-30T15:11:27.129Z</time></trkpt><trkpt lat="44.5253241" lon="8.8859981"><ele>347.0</ele><time>2026-03-30T15:11:29Z</time></trkpt><trkpt lat="44.5252021" lon="8.8859896"><ele>340.0</ele><time>2026-03-30T15:11:30.14Z</time></trkpt><trkpt lat="44.5251236" lon="8.8859585"><ele>340.0</ele><time>2026-03-30T15:11:31.163Z</time></trkpt><trkpt lat="44.5250029" lon="8.8859487"><ele>340.0</ele><time>2026-03-30T15:11:32.14Z</time></trkpt><trkpt lat="44.5248968" lon="8.8859201"><ele>340.0</ele><time>2026-03-30T15:11:33.127Z</time></trkpt><trkpt lat="44.524696" lon="8.8858036"><ele>340.0</ele><time>2026-03-30T15:11:35Z</time></trkpt><trkpt lat="44.5245926" lon="8.8857152"><ele>339.5</ele><time>2026-03-30T15:11:36.133Z</time></trkpt><trkpt lat="44.5244989" lon="8.8856276"><ele>339.0</ele><time>2026-03-30T15:11:37.119Z</time></trkpt><trkpt lat="44.5243986" lon="8.8855423"><ele>338.5</ele><time>2026-03-30T15:11:38.145Z</time></trkpt><trkpt lat="44.5242112" lon="8.8853826"><ele>338.0</ele><time>2026-03-30T15:11:40Z</time></trkpt><trkpt lat="44.5241134" lon="8.8853009"><ele>338.0</ele><time>2026-03-30T15:11:41.155Z</time></trkpt><trkpt lat="44.5240255" lon="8.8852219"><ele>338.0</ele><time>2026-03-30T15:11:42.113Z</time></trkpt><trkpt lat="44.5239369" lon="8.8851387"><ele>338.0</ele><time>2026-03-30T15:11:43.18Z</time></trkpt><trkpt lat="44.5237271" lon="8.8850785"><ele>338.0</ele><time>2026-03-30T15:11:44.999Z</time></trkpt><trkpt lat="44.5236203" lon="8.8850939"><ele>335.0</ele><time>2026-03-30T15:11:46.168Z</time></trkpt><trkpt lat="44.5235075" lon="8.8850943"><ele>332.0</ele><time>2026-03-30T15:11:47.169Z</time></trkpt><trkpt lat="44.5233885" lon="8.8850822"><ele>329.0</ele><time>2026-03-30T15:11:48.174Z</time></trkpt><trkpt lat="44.5231442" lon="8.8850193"><ele>329.0</ele><time>2026-03-30T15:11:50Z</time></trkpt><trkpt lat="44.5230279" lon="8.8849719"><ele>329.0</ele><time>2026-03-30T15:11:51.141Z</time></trkpt><trkpt lat="44.5227894" lon="8.8848842"><ele>329.0</ele><time>2026-03-30T15:11:53Z</time></trkpt><trkpt lat="44.522671" lon="8.8848457"><ele>327.75</ele><time>2026-03-30T15:11:54Z</time></trkpt><trkpt lat="44.5225519" lon="8.8848072"><ele>326.5</ele><time>2026-03-30T15:11:55.158Z</time></trkpt><trkpt lat="44.5224425" lon="8.8847594"><ele>325.25</ele><time>2026-03-30T15:11:56.154Z</time></trkpt><trkpt lat="44.5223267" lon="8.8847163"><ele>324.0</ele><time>2026-03-30T15:11:57.164Z</time></trkpt><trkpt lat="44.5222096" lon="8.8846762"><ele>322.5</ele><time>2026-03-30T15:11:58.162Z</time></trkpt><trkpt lat="44.5220173" lon="8.8845573"><ele>321.0</ele><time>2026-03-30T15:12:00Z</time></trkpt><trkpt lat="44.5219132" lon="8.8845038"><ele>319.5</ele><time>2026-03-30T15:12:01Z</time></trkpt><trkpt lat="44.521804" lon="8.8844584"><ele>318.0</ele><time>2026-03-30T15:12:02Z</time></trkpt><trkpt lat="44.5217017" lon="8.8844189"><ele>318.0</ele><time>2026-03-30T15:12:03Z</time></trkpt><trkpt lat="44.5215775" lon="8.8844047"><ele>318.0</ele><time>2026-03-30T15:12:04Z</time></trkpt><trkpt lat="44.5214599" lon="8.8844056"><ele>318.0</ele><time>2026-03-30T15:12:05Z</time></trkpt><trkpt lat="44.5213614" lon="8.8844052"><ele>318.0</ele><time>2026-03-30T15:12:06Z</time></trkpt><trkpt lat="44.5212536" lon="8.8844341"><ele>318.6</ele><time>2026-03-30T15:12:06.999Z</time></trkpt><trkpt lat="44.521146" lon="8.8844617"><ele>319.20000000000005</ele><time>2026-03-30T15:12:08Z</time></trkpt><trkpt lat="44.5210447" lon="8.8844763"><ele>319.8</ele><time>2026-03-30T15:12:09Z</time></trkpt><trkpt lat="44.5209578" lon="8.8844823"><ele>320.40000000000003</ele><time>2026-03-30T15:12:10.172Z</time></trkpt><trkpt lat="44.5208615" lon="8.8844845"><ele>321.0</ele><time>2026-03-30T15:12:11.176Z</time></trkpt><trkpt lat="44.5207881" lon="8.884515"><ele>321.0</ele><time>2026-03-30T15:12:12.149Z</time></trkpt><trkpt lat="44.520692" lon="8.8844782"><ele>321.0</ele><time>2026-03-30T15:12:13.148Z</time></trkpt><trkpt lat="44.5205205" lon="8.8844729"><ele>321.0</ele><time>2026-03-30T15:12:14.999Z</time></trkpt><trkpt lat="44.5204386" lon="8.8844817"><ele>321.0</ele><time>2026-03-30T15:12:16.173Z</time></trkpt><trkpt lat="44.5203448" lon="8.8844966"><ele>321.0</ele><time>2026-03-30T15:12:17.18Z</time></trkpt><trkpt lat="44.5202561" lon="8.8845171"><ele>319.6666666666667</ele><time>2026-03-30T15:12:18.175Z</time></trkpt><trkpt lat="44.5200512" lon="8.8845365"><ele>318.33333333333337</ele><time>2026-03-30T15:12:20Z</time></trkpt><trkpt lat="44.519948" lon="8.8845466"><ele>317.0</ele><time>2026-03-30T15:12:21.178Z</time></trkpt><trkpt lat="44.5197357" lon="8.884566"><ele>317.25</ele><time>2026-03-30T15:12:23.15Z</time></trkpt><trkpt lat="44.5195212" lon="8.8846031"><ele>317.5</ele><time>2026-03-30T15:12:25Z</time></trkpt><trkpt lat="44.5194304" lon="8.8846406"><ele>317.75</ele><time>2026-03-30T15:12:26.125Z</time></trkpt><trkpt lat="44.5193459" lon="8.8846909"><ele>318.0</ele><time>2026-03-30T15:12:27.13Z</time></trkpt><trkpt lat="44.519255" lon="8.8847391"><ele>318.0</ele><time>2026-03-30T15:12:28.158Z</time></trkpt><trkpt lat="44.5190523" lon="8.8849039"><ele>318.0</ele><time>2026-03-30T15:12:30Z</time></trkpt><trkpt lat="44.5189603" lon="8.8849793"><ele>318.0</ele><time>2026-03-30T15:12:31.135Z</time></trkpt><trkpt lat="44.5188659" lon="8.8850551"><ele>316.75</ele><time>2026-03-30T15:12:32.122Z</time></trkpt><trkpt lat="44.5187728" lon="8.8851431"><ele>315.5</ele><time>2026-03-30T15:12:33.163Z</time></trkpt><trkpt lat="44.5185831" lon="8.8853079"><ele>314.25</ele><time>2026-03-30T15:12:34.999Z</time></trkpt><trkpt lat="44.5184912" lon="8.8853738"><ele>313.0</ele><time>2026-03-30T15:12:36Z</time></trkpt><trkpt lat="44.518395" lon="8.8854166"><ele>313.0</ele><time>2026-03-30T15:12:37Z</time></trkpt><trkpt lat="44.5182815" lon="8.8854393"><ele>313.0</ele><time>2026-03-30T15:12:38.13Z</time></trkpt><trkpt lat="44.5180811" lon="8.8854688"><ele>313.0</ele><time>2026-03-30T15:12:40Z</time></trkpt><trkpt lat="44.5179895" lon="8.8854772"><ele>313.0</ele><time>2026-03-30T15:12:41.165Z</time></trkpt><trkpt lat="44.5178981" lon="8.8854922"><ele>313.0</ele><time>2026-03-30T15:12:42.165Z</time></trkpt><trkpt lat="44.5178104" lon="8.88553"><ele>313.0</ele><time>2026-03-30T15:12:43.103Z</time></trkpt><trkpt lat="44.5176385" lon="8.8856701"><ele>313.0</ele><time>2026-03-30T15:12:45Z</time></trkpt><trkpt lat="44.5175588" lon="8.8857524"><ele>313.0</ele><time>2026-03-30T15:12:46.173Z</time></trkpt><trkpt lat="44.5174789" lon="8.8858262"><ele>313.0</ele><time>2026-03-30T15:12:47.144Z</time></trkpt><trkpt lat="44.5173889" lon="8.8859121"><ele>313.0</ele><time>2026-03-30T15:12:48.138Z</time></trkpt><trkpt lat="44.5172031" lon="8.8860489"><ele>313.0</ele><time>2026-03-30T15:12:50Z</time></trkpt><trkpt lat="44.5171102" lon="8.8861044"><ele>313.0</ele><time>2026-03-30T15:12:51.134Z</time></trkpt><trkpt lat="44.5170295" lon="8.8861565"><ele>310.75</ele><time>2026-03-30T15:12:52.139Z</time></trkpt><trkpt lat="44.5169556" lon="8.8862403"><ele>308.5</ele><time>2026-03-30T15:12:53.165Z</time></trkpt><trkpt lat="44.5168374" lon="8.8864636"><ele>306.25</ele><time>2026-03-30T15:12:54.999Z</time></trkpt><trkpt lat="44.516802" lon="8.8865755"><ele>304.0</ele><time>2026-03-30T15:12:56.18Z</time></trkpt><trkpt lat="44.5167756" lon="8.8866983"><ele>301.0</ele><time>2026-03-30T15:12:57.163Z</time></trkpt><trkpt lat="44.5167398" lon="8.886841"><ele>298.0</ele><time>2026-03-30T15:12:58.15Z</time></trkpt><trkpt lat="44.5166425" lon="8.8871242"><ele>295.0</ele><time>2026-03-30T15:13:00Z</time></trkpt><trkpt lat="44.5165945" lon="8.887236"><ele>292.0</ele><time>2026-03-30T15:13:01.181Z</time></trkpt><trkpt lat="44.5165544" lon="8.8873694"><ele>292.0</ele><time>2026-03-30T15:13:02.19Z</time></trkpt><trkpt lat="44.5165369" lon="8.887494"><ele>292.0</ele><time>2026-03-30T15:13:03.129Z</time></trkpt><trkpt lat="44.5165643" lon="8.8877643"><ele>292.0</ele><time>2026-03-30T15:13:05Z</time></trkpt><trkpt lat="44.5165881" lon="8.8878954"><ele>292.0</ele><time>2026-03-30T15:13:06.179Z</time></trkpt><trkpt lat="44.5166063" lon="8.8880149"><ele>288.8</ele><time>2026-03-30T15:13:07.145Z</time></trkpt><trkpt lat="44.5166075" lon="8.8881293"><ele>285.6</ele><time>2026-03-30T15:13:08.178Z</time></trkpt><trkpt lat="44.5165618" lon="8.8883202"><ele>282.40000000000003</ele><time>2026-03-30T15:13:10Z</time></trkpt><trkpt lat="44.5164962" lon="8.8884087"><ele>279.2</ele><time>2026-03-30T15:13:11.172Z</time></trkpt><trkpt lat="44.5164148" lon="8.8884762"><ele>276.0</ele><time>2026-03-30T15:13:12.155Z</time></trkpt><trkpt lat="44.516331" lon="8.8885281"><ele>273.75</ele><time>2026-03-30T15:13:13.182Z</time></trkpt><trkpt lat="44.5161608" lon="8.8885383"><ele>271.5</ele><time>2026-03-30T15:13:15Z</time></trkpt><trkpt lat="44.5160775" lon="8.8885032"><ele>269.25</ele><time>2026-03-30T15:13:16.146Z</time></trkpt><trkpt lat="44.515958" lon="8.8885232"><ele>267.0</ele><time>2026-03-30T15:13:18.16Z</time></trkpt><trkpt lat="44.5158327" lon="8.8886743"><ele>267.0</ele><time>2026-03-30T15:13:20Z</time></trkpt><trkpt lat="44.51579" lon="8.8888701"><ele>267.0</ele><time>2026-03-30T15:13:22.155Z</time></trkpt><trkpt lat="44.5157453" lon="8.8889658"><ele>267.0</ele><time>2026-03-30T15:13:23.13Z</time></trkpt><trkpt lat="44.5156141" lon="8.8891028"><ele>267.0</ele><time>2026-03-30T15:13:25Z</time></trkpt><trkpt lat="44.5155357" lon="8.8891304"><ele>267.4</ele><time>2026-03-30T15:13:26.167Z</time></trkpt><trkpt lat="44.5153968" lon="8.8891329"><ele>267.79999999999995</ele><time>2026-03-30T15:13:28.118Z</time></trkpt><trkpt lat="44.5152833" lon="8.889205"><ele>268.2</ele><time>2026-03-30T15:13:30Z</time></trkpt><trkpt lat="44.5152584" lon="8.8893307"><ele>268.59999999999997</ele><time>2026-03-30T15:13:32Z</time></trkpt><trkpt lat="44.515254" lon="8.8894311"><ele>269.0</ele><time>2026-03-30T15:13:33Z</time></trkpt><trkpt lat="44.5152228" lon="8.8896381"><ele>266.4</ele><time>2026-03-30T15:13:35.159Z</time></trkpt><trkpt lat="44.5151975" lon="8.889776"><ele>263.79999999999995</ele><time>2026-03-30T15:13:36Z</time></trkpt><trkpt lat="44.5151407" lon="8.8898363"><ele>261.20000000000005</ele><time>2026-03-30T15:13:37.156Z</time></trkpt><trkpt lat="44.5150905" lon="8.8899003"><ele>258.6</ele><time>2026-03-30T15:13:38.174Z</time></trkpt><trkpt lat="44.5149569" lon="8.8899848"><ele>256.0</ele><time>2026-03-30T15:13:40Z</time></trkpt><trkpt lat="44.5148799" lon="8.8899846"><ele>256.0</ele><time>2026-03-30T15:13:41.177Z</time></trkpt><trkpt lat="44.5147995" lon="8.8899373"><ele>256.0</ele><time>2026-03-30T15:13:42.148Z</time></trkpt><trkpt lat="44.5147252" lon="8.8898745"><ele>256.0</ele><time>2026-03-30T15:13:43.148Z</time></trkpt><trkpt lat="44.5145352" lon="8.8897748"><ele>256.0</ele><time>2026-03-30T15:13:45Z</time></trkpt><trkpt lat="44.5144454" lon="8.8897193"><ele>253.8</ele><time>2026-03-30T15:13:46.149Z</time></trkpt><trkpt lat="44.5143617" lon="8.889668"><ele>251.60000000000002</ele><time>2026-03-30T15:13:47.154Z</time></trkpt><trkpt lat="44.5142817" lon="8.8896101"><ele>249.4</ele><time>2026-03-30T15:13:48.152Z</time></trkpt><trkpt lat="44.5141644" lon="8.8894627"><ele>247.2</ele><time>2026-03-30T15:13:50Z</time></trkpt><trkpt lat="44.5140979" lon="8.8893963"><ele>245.0</ele><time>2026-03-30T15:13:51Z</time></trkpt><trkpt lat="44.5140129" lon="8.8893846"><ele>245.0</ele><time>2026-03-30T15:13:52.177Z</time></trkpt><trkpt lat="44.5139424" lon="8.8894018"><ele>245.0</ele><time>2026-03-30T15:13:53.154Z</time></trkpt><trkpt lat="44.5137722" lon="8.889568"><ele>245.0</ele><time>2026-03-30T15:13:54.999Z</time></trkpt><trkpt lat="44.5136843" lon="8.8896373"><ele>245.0</ele><time>2026-03-30T15:13:56.184Z</time></trkpt><trkpt lat="44.513587" lon="8.8896992"><ele>244.0</ele><time>2026-03-30T15:13:57.156Z</time></trkpt><trkpt lat="44.5135139" lon="8.8897769"><ele>243.0</ele><time>2026-03-30T15:13:58.182Z</time></trkpt><trkpt lat="44.5134179" lon="8.8899472"><ele>242.0</ele><time>2026-03-30T15:14:00Z</time></trkpt><trkpt lat="44.5133811" lon="8.8900884"><ele>241.0</ele><time>2026-03-30T15:14:01.151Z</time></trkpt><trkpt lat="44.5133471" lon="8.89022"><ele>238.20000000000002</ele><time>2026-03-30T15:14:02.153Z</time></trkpt><trkpt lat="44.5133261" lon="8.8903319"><ele>235.40000000000003</ele><time>2026-03-30T15:14:03.156Z</time></trkpt><trkpt lat="44.5132418" lon="8.8904689"><ele>232.6</ele><time>2026-03-30T15:14:05Z</time></trkpt><trkpt lat="44.513146" lon="8.8905001"><ele>229.8</ele><time>2026-03-30T15:14:06.146Z</time></trkpt><trkpt lat="44.5130555" lon="8.8905474"><ele>227.0</ele><time>2026-03-30T15:14:07.135Z</time></trkpt><trkpt lat="44.5129723" lon="8.8905751"><ele>225.0</ele><time>2026-03-30T15:14:08.152Z</time></trkpt><trkpt lat="44.5128096" lon="8.8905292"><ele>223.0</ele><time>2026-03-30T15:14:09.999Z</time></trkpt><trkpt lat="44.5127277" lon="8.8904938"><ele>221.0</ele><time>2026-03-30T15:14:11.157Z</time></trkpt><trkpt lat="44.5126821" lon="8.8903991"><ele>219.0</ele><time>2026-03-30T15:14:12.143Z</time></trkpt><trkpt lat="44.512609" lon="8.8903535"><ele>217.0</ele><time>2026-03-30T15:14:13.166Z</time></trkpt><trkpt lat="44.5124698" lon="8.8903262"><ele>217.0</ele><time>2026-03-30T15:14:15Z</time></trkpt><trkpt lat="44.5123907" lon="8.8903659"><ele>217.0</ele><time>2026-03-30T15:14:16.165Z</time></trkpt><trkpt lat="44.5123061" lon="8.8904408"><ele>217.0</ele><time>2026-03-30T15:14:17.156Z</time></trkpt><trkpt lat="44.51223" lon="8.8905261"><ele>217.0</ele><time>2026-03-30T15:14:18.153Z</time></trkpt><trkpt lat="44.5121021" lon="8.8907491"><ele>218.0</ele><time>2026-03-30T15:14:20Z</time></trkpt><trkpt lat="44.5120544" lon="8.8908599"><ele>219.0</ele><time>2026-03-30T15:14:21.168Z</time></trkpt><trkpt lat="44.5120009" lon="8.890956"><ele>220.0</ele><time>2026-03-30T15:14:22.156Z</time></trkpt><trkpt lat="44.511859" lon="8.8911025"><ele>221.0</ele><time>2026-03-30T15:14:25Z</time></trkpt><trkpt lat="44.5117014" lon="8.8910374"><ele>217.60000000000002</ele><time>2026-03-30T15:14:27.131Z</time></trkpt><trkpt lat="44.511624" lon="8.8910009"><ele>214.20000000000002</ele><time>2026-03-30T15:14:28.15Z</time></trkpt><trkpt lat="44.5114657" lon="8.8909642"><ele>210.8</ele><time>2026-03-30T15:14:29.999Z</time></trkpt><trkpt lat="44.5113904" lon="8.8909915"><ele>207.39999999999998</ele><time>2026-03-30T15:14:31.113Z</time></trkpt><trkpt lat="44.5113197" lon="8.8910887"><ele>204.0</ele><time>2026-03-30T15:14:32.162Z</time></trkpt><trkpt lat="44.5112741" lon="8.891162"><ele>204.0</ele><time>2026-03-30T15:14:33.142Z</time></trkpt><trkpt lat="44.5111951" lon="8.891329"><ele>204.0</ele><time>2026-03-30T15:14:35Z</time></trkpt><trkpt lat="44.5111274" lon="8.8913719"><ele>204.0</ele><time>2026-03-30T15:14:36.154Z</time></trkpt><trkpt lat="44.5110474" lon="8.8914415"><ele>204.0</ele><time>2026-03-30T15:14:37.104Z</time></trkpt><trkpt lat="44.5109171" lon="8.8915419"><ele>204.0</ele><time>2026-03-30T15:14:39Z</time></trkpt><trkpt lat="44.5108223" lon="8.8915695"><ele>204.0</ele><time>2026-03-30T15:14:40.172Z</time></trkpt><trkpt lat="44.5107226" lon="8.8915943"><ele>204.0</ele><time>2026-03-30T15:14:41.145Z</time></trkpt><trkpt lat="44.5106352" lon="8.891626"><ele>204.0</ele><time>2026-03-30T15:14:42.175Z</time></trkpt><trkpt lat="44.5105485" lon="8.8916465"><ele>204.0</ele><time>2026-03-30T15:14:43.159Z</time></trkpt><trkpt lat="44.5103645" lon="8.8916359"><ele>201.5</ele><time>2026-03-30T15:14:44.999Z</time></trkpt><trkpt lat="44.5102666" lon="8.8916177"><ele>199.0</ele><time>2026-03-30T15:14:46.182Z</time></trkpt><trkpt lat="44.5101722" lon="8.8915881"><ele>196.5</ele><time>2026-03-30T15:14:47.126Z</time></trkpt><trkpt lat="44.5101089" lon="8.8915426"><ele>194.0</ele><time>2026-03-30T15:14:48.133Z</time></trkpt><trkpt lat="44.5099294" lon="8.8914606"><ele>194.0</ele><time>2026-03-30T15:14:50Z</time></trkpt><trkpt lat="44.5098591" lon="8.8913842"><ele>194.0</ele><time>2026-03-30T15:14:51.159Z</time></trkpt><trkpt lat="44.5097876" lon="8.8912994"><ele>194.0</ele><time>2026-03-30T15:14:52.143Z</time></trkpt><trkpt lat="44.5097296" lon="8.8912247"><ele>194.0</ele><time>2026-03-30T15:14:53.151Z</time></trkpt><trkpt lat="44.5095918" lon="8.8910791"><ele>194.0</ele><time>2026-03-30T15:14:55Z</time></trkpt><trkpt lat="44.5094807" lon="8.8910307"><ele>188.0</ele><time>2026-03-30T15:14:57.131Z</time></trkpt><trkpt lat="44.5094417" lon="8.8912686"><ele>182.0</ele><time>2026-03-30T15:15:00Z</time></trkpt><trkpt lat="44.5094684" lon="8.8914118"><ele>176.0</ele><time>2026-03-30T15:15:02Z</time></trkpt><trkpt lat="44.5094954" lon="8.8915574"><ele>170.0</ele><time>2026-03-30T15:15:03.143Z</time></trkpt><trkpt lat="44.5095535" lon="8.8918141"><ele>170.2</ele><time>2026-03-30T15:15:05Z</time></trkpt><trkpt lat="44.509584" lon="8.8919285"><ele>170.4</ele><time>2026-03-30T15:15:06Z</time></trkpt><trkpt lat="44.5096341" lon="8.8920342"><ele>170.60000000000002</ele><time>2026-03-30T15:15:07.154Z</time></trkpt><trkpt lat="44.5096938" lon="8.8921266"><ele>170.8</ele><time>2026-03-30T15:15:08.147Z</time></trkpt><trkpt lat="44.5098116" lon="8.892212"><ele>171.0</ele><time>2026-03-30T15:15:10Z</time></trkpt><trkpt lat="44.5098492" lon="8.8923262"><ele>171.0</ele><time>2026-03-30T15:15:12Z</time></trkpt><trkpt lat="44.5097979" lon="8.8924085"><ele>171.0</ele><time>2026-03-30T15:15:14Z</time></trkpt><trkpt lat="44.5097284" lon="8.8923859"><ele>171.0</ele><time>2026-03-30T15:15:16Z</time></trkpt><trkpt lat="44.5096597" lon="8.892308"><ele>171.0</ele><time>2026-03-30T15:16:09Z</time></trkpt><trkpt lat="44.5096177" lon="8.8922313"><ele>171.0</ele><time>2026-03-30T15:16:11Z</time></trkpt><trkpt lat="44.5094086" lon="8.8921875"><ele>170.60000000000002</ele><time>2026-03-30T15:16:12Z</time></trkpt><trkpt lat="44.5093172" lon="8.8921475"><ele>170.2</ele><time>2026-03-30T15:16:13Z</time></trkpt><trkpt lat="44.5092383" lon="8.8920989"><ele>169.8</ele><time>2026-03-30T15:16:14Z</time></trkpt><trkpt lat="44.5091307" lon="8.892073"><ele>169.39999999999998</ele><time>2026-03-30T15:16:15Z</time></trkpt><trkpt lat="44.5090306" lon="8.8920553"><ele>169.0</ele><time>2026-03-30T15:16:16Z</time></trkpt><trkpt lat="44.5089398" lon="8.8920687"><ele>169.0</ele><time>2026-03-30T15:16:17Z</time></trkpt><trkpt lat="44.5088514" lon="8.8920973"><ele>169.0</ele><time>2026-03-30T15:16:18Z</time></trkpt><trkpt lat="44.5087559" lon="8.8921331"><ele>169.0</ele><time>2026-03-30T15:16:19.101Z</time></trkpt><trkpt lat="44.5085704" lon="8.8922036"><ele>169.0</ele><time>2026-03-30T15:16:21Z</time></trkpt><trkpt lat="44.5084766" lon="8.8922378"><ele>166.79999999999998</ele><time>2026-03-30T15:16:22Z</time></trkpt><trkpt lat="44.5083787" lon="8.8922841"><ele>164.6</ele><time>2026-03-30T15:16:22.999Z</time></trkpt><trkpt lat="44.5082731" lon="8.8923402"><ele>162.4</ele><time>2026-03-30T15:16:24Z</time></trkpt><trkpt lat="44.5082002" lon="8.892411"><ele>160.2</ele><time>2026-03-30T15:16:25Z</time></trkpt><trkpt lat="44.5081165" lon="8.8924854"><ele>158.0</ele><time>2026-03-30T15:16:26Z</time></trkpt><trkpt lat="44.5080412" lon="8.8925638"><ele>158.4</ele><time>2026-03-30T15:16:27Z</time></trkpt><trkpt lat="44.5079734" lon="8.8926335"><ele>158.8</ele><time>2026-03-30T15:16:28.102Z</time></trkpt><trkpt lat="44.507844" lon="8.892759"><ele>159.2</ele><time>2026-03-30T15:16:30Z</time></trkpt><trkpt lat="44.5077818" lon="8.892803"><ele>159.6</ele><time>2026-03-30T15:16:31Z</time></trkpt><trkpt lat="44.5077199" lon="8.8928215"><ele>160.0</ele><time>2026-03-30T15:16:32Z</time></trkpt><trkpt lat="44.5076353" lon="8.8927311"><ele>156.2</ele><time>2026-03-30T15:16:34Z</time></trkpt><trkpt lat="44.5075802" lon="8.8925474"><ele>152.4</ele><time>2026-03-30T15:16:36Z</time></trkpt><trkpt lat="44.5075715" lon="8.8924173"><ele>148.6</ele><time>2026-03-30T15:16:37Z</time></trkpt><trkpt lat="44.5075763" lon="8.8922863"><ele>144.8</ele><time>2026-03-30T15:16:38Z</time></trkpt><trkpt lat="44.507585" lon="8.8921572"><ele>141.0</ele><time>2026-03-30T15:16:39Z</time></trkpt><trkpt lat="44.5075984" lon="8.8920266"><ele>141.0</ele><time>2026-03-30T15:16:39.999Z</time></trkpt><trkpt lat="44.5076112" lon="8.8918937"><ele>141.0</ele><time>2026-03-30T15:16:41Z</time></trkpt><trkpt lat="44.5076156" lon="8.8917557"><ele>141.0</ele><time>2026-03-30T15:16:42Z</time></trkpt><trkpt lat="44.5076224" lon="8.8916287"><ele>141.0</ele><time>2026-03-30T15:16:42.999Z</time></trkpt><trkpt lat="44.507625" lon="8.8915162"><ele>141.0</ele><time>2026-03-30T15:16:44Z</time></trkpt><trkpt lat="44.5075995" lon="8.8913807"><ele>140.0</ele><time>2026-03-30T15:16:45Z</time></trkpt><trkpt lat="44.507617" lon="8.891253"><ele>139.0</ele><time>2026-03-30T15:16:45.999Z</time></trkpt><trkpt lat="44.5076067" lon="8.8911275"><ele>138.0</ele><time>2026-03-30T15:16:47Z</time></trkpt><trkpt lat="44.5076018" lon="8.8908924"><ele>137.0</ele><time>2026-03-30T15:16:49Z</time></trkpt><trkpt lat="44.5076036" lon="8.8907887"><ele>136.0</ele><time>2026-03-30T15:16:50Z</time></trkpt><trkpt lat="44.5076082" lon="8.8906918"><ele>136.0</ele><time>2026-03-30T15:16:51Z</time></trkpt><trkpt lat="44.5076037" lon="8.8905981"><ele>136.0</ele><time>2026-03-30T15:16:52Z</time></trkpt><trkpt lat="44.5075854" lon="8.890511"><ele>136.0</ele><time>2026-03-30T15:16:53Z</time></trkpt><trkpt lat="44.5075495" lon="8.8903867"><ele>136.0</ele><time>2026-03-30T15:16:55Z</time></trkpt><trkpt lat="44.5075165" lon="8.8903065"><ele>136.0</ele><time>2026-03-30T15:16:59Z</time></trkpt><trkpt lat="44.507436" lon="8.8902382"><ele>136.0</ele><time>2026-03-30T15:17:07Z</time></trkpt><trkpt lat="44.5073383" lon="8.890158"><ele>136.0</ele><time>2026-03-30T15:17:10Z</time></trkpt><trkpt lat="44.50726" lon="8.8901529"><ele>136.0</ele><time>2026-03-30T15:17:11Z</time></trkpt><trkpt lat="44.507171" lon="8.8901674"><ele>136.0</ele><time>2026-03-30T15:17:13Z</time></trkpt><trkpt lat="44.5070765" lon="8.8902293"><ele>136.0</ele><time>2026-03-30T15:17:15Z</time></trkpt><trkpt lat="44.5070311" lon="8.8903258"><ele>136.0</ele><time>2026-03-30T15:17:18Z</time></trkpt><trkpt lat="44.5070085" lon="8.8904586"><ele>134.4</ele><time>2026-03-30T15:17:21Z</time></trkpt><trkpt lat="44.5069963" lon="8.8905784"><ele>132.8</ele><time>2026-03-30T15:17:23Z</time></trkpt><trkpt lat="44.506996" lon="8.890676"><ele>131.20000000000002</ele><time>2026-03-30T15:17:25Z</time></trkpt><trkpt lat="44.506981" lon="8.8907853"><ele>129.6</ele><time>2026-03-30T15:17:26Z</time></trkpt><trkpt lat="44.5069525" lon="8.8909336"><ele>128.0</ele><time>2026-03-30T15:17:28.154Z</time></trkpt><trkpt lat="44.5069561" lon="8.891129"><ele>128.0</ele><time>2026-03-30T15:17:29.999Z</time></trkpt><trkpt lat="44.5069644" lon="8.8912331"><ele>128.0</ele><time>2026-03-30T15:17:31Z</time></trkpt><trkpt lat="44.5069113" lon="8.8913876"><ele>128.0</ele><time>2026-03-30T15:17:33Z</time></trkpt><trkpt lat="44.5068955" lon="8.8914739"><ele>128.0</ele><time>2026-03-30T15:17:34Z</time></trkpt><trkpt lat="44.5069082" lon="8.8916511"><ele>128.0</ele><time>2026-03-30T15:17:36.122Z</time></trkpt><trkpt lat="44.50689" lon="8.8917363"><ele>127.60000000000001</ele><time>2026-03-30T15:17:37.13Z</time></trkpt><trkpt lat="44.5068612" lon="8.8918347"><ele>127.20000000000002</ele><time>2026-03-30T15:17:38.157Z</time></trkpt><trkpt lat="44.5067958" lon="8.8920297"><ele>126.8</ele><time>2026-03-30T15:17:40Z</time></trkpt><trkpt lat="44.5067533" lon="8.892133"><ele>126.4</ele><time>2026-03-30T15:17:41Z</time></trkpt><trkpt lat="44.5067039" lon="8.8922261"><ele>126.0</ele><time>2026-03-30T15:17:42Z</time></trkpt><trkpt lat="44.5066632" lon="8.8923198"><ele>126.0</ele><time>2026-03-30T15:17:43Z</time></trkpt><trkpt lat="44.5066188" lon="8.8924197"><ele>126.0</ele><time>2026-03-30T15:17:44Z</time></trkpt><trkpt lat="44.5065852" lon="8.8925162"><ele>126.0</ele><time>2026-03-30T15:17:45Z</time></trkpt><trkpt lat="44.5065477" lon="8.8926154"><ele>126.0</ele><time>2026-03-30T15:17:46.15Z</time></trkpt><trkpt lat="44.5065043" lon="8.892831"><ele>126.0</ele><time>2026-03-30T15:17:48Z</time></trkpt><trkpt lat="44.5064993" lon="8.892934"><ele>125.83333333333333</ele><time>2026-03-30T15:17:49Z</time></trkpt><trkpt lat="44.5064862" lon="8.893044"><ele>125.66666666666666</ele><time>2026-03-30T15:17:50Z</time></trkpt><trkpt lat="44.5064991" lon="8.8931718"><ele>125.5</ele><time>2026-03-30T15:17:51Z</time></trkpt><trkpt lat="44.5065001" lon="8.8932866"><ele>125.33333333333333</ele><time>2026-03-30T15:17:52Z</time></trkpt><trkpt lat="44.5065162" lon="8.8934285"><ele>125.16666666666666</ele><time>2026-03-30T15:17:53Z</time></trkpt><trkpt lat="44.5065229" lon="8.8935527"><ele>125.0</ele><time>2026-03-30T15:17:54Z</time></trkpt><trkpt lat="44.5065305" lon="8.893675"><ele>124.66666666666666</ele><time>2026-03-30T15:17:55Z</time></trkpt><trkpt lat="44.5065043" lon="8.893773"><ele>124.33333333333333</ele><time>2026-03-30T15:17:56Z</time></trkpt><trkpt lat="44.5065013" lon="8.8938962"><ele>124.0</ele><time>2026-03-30T15:17:57Z</time></trkpt><trkpt lat="44.5064933" lon="8.8940146"><ele>123.66666666666666</ele><time>2026-03-30T15:17:58Z</time></trkpt><trkpt lat="44.5064852" lon="8.8941268"><ele>123.33333333333333</ele><time>2026-03-30T15:17:59Z</time></trkpt><trkpt lat="44.5064687" lon="8.8942159"><ele>123.0</ele><time>2026-03-30T15:18:00Z</time></trkpt><trkpt lat="44.5064526" lon="8.8943128"><ele>122.0</ele><time>2026-03-30T15:18:00.999Z</time></trkpt><trkpt lat="44.5064368" lon="8.8944311"><ele>121.0</ele><time>2026-03-30T15:18:02Z</time></trkpt><trkpt lat="44.5064245" lon="8.8945511"><ele>120.0</ele><time>2026-03-30T15:18:03Z</time></trkpt><trkpt lat="44.5064148" lon="8.8946762"><ele>119.0</ele><time>2026-03-30T15:18:04Z</time></trkpt><trkpt lat="44.5063967" lon="8.8947982"><ele>118.0</ele><time>2026-03-30T15:18:05Z</time></trkpt><trkpt lat="44.5063833" lon="8.8949303"><ele>117.0</ele><time>2026-03-30T15:18:06Z</time></trkpt><trkpt lat="44.506375" lon="8.8950607"><ele>117.0</ele><time>2026-03-30T15:18:07Z</time></trkpt><trkpt lat="44.5063715" lon="8.8951966"><ele>116.99999999999999</ele><time>2026-03-30T15:18:08Z</time></trkpt><trkpt lat="44.5063633" lon="8.8953312"><ele>116.99999999999999</ele><time>2026-03-30T15:18:09Z</time></trkpt><trkpt lat="44.506343" lon="8.895443"><ele>117.0</ele><time>2026-03-30T15:18:10Z</time></trkpt><trkpt lat="44.5063365" lon="8.8955747"><ele>117.0</ele><time>2026-03-30T15:18:11Z</time></trkpt><trkpt lat="44.5063171" lon="8.8956847"><ele>117.0</ele><time>2026-03-30T15:18:12.158Z</time></trkpt><trkpt lat="44.5062911" lon="8.8958095"><ele>116.99999999999999</ele><time>2026-03-30T15:18:13.104Z</time></trkpt><trkpt lat="44.5062099" lon="8.8960047"><ele>116.99999999999999</ele><time>2026-03-30T15:18:15Z</time></trkpt><trkpt lat="44.5061656" lon="8.8961031"><ele>117.0</ele><time>2026-03-30T15:18:16Z</time></trkpt><trkpt lat="44.5061057" lon="8.896189"><ele>117.0</ele><time>2026-03-30T15:18:16.999Z</time></trkpt><trkpt lat="44.5060501" lon="8.8962509"><ele>117.0</ele><time>2026-03-30T15:18:18Z</time></trkpt><trkpt lat="44.5060022" lon="8.8963145"><ele>116.99999999999999</ele><time>2026-03-30T15:18:19Z</time></trkpt><trkpt lat="44.5059547" lon="8.8963776"><ele>116.99999999999999</ele><time>2026-03-30T15:18:20Z</time></trkpt><trkpt lat="44.5058706" lon="8.8965028"><ele>117.0</ele><time>2026-03-30T15:18:22.146Z</time></trkpt><trkpt lat="44.5057568" lon="8.8966439"><ele>117.0</ele><time>2026-03-30T15:18:25Z</time></trkpt><trkpt lat="44.5056887" lon="8.8967294"><ele>118.0</ele><time>2026-03-30T15:18:27.148Z</time></trkpt><trkpt lat="44.5056073" lon="8.896838"><ele>119.0</ele><time>2026-03-30T15:18:29Z</time></trkpt><trkpt lat="44.5055206" lon="8.8969395"><ele>120.0</ele><time>2026-03-30T15:18:31.159Z</time></trkpt><trkpt lat="44.505442" lon="8.8970311"><ele>121.0</ele><time>2026-03-30T15:18:33.151Z</time></trkpt><trkpt lat="44.5053294" lon="8.8971364"><ele>121.0</ele><time>2026-03-30T15:18:35Z</time></trkpt><trkpt lat="44.5052719" lon="8.8971799"><ele>121.0</ele><time>2026-03-30T15:18:36.158Z</time></trkpt><trkpt lat="44.5051574" lon="8.8972756"><ele>121.0</ele><time>2026-03-30T15:18:38.179Z</time></trkpt><trkpt lat="44.5050484" lon="8.8973552"><ele>121.0</ele><time>2026-03-30T15:18:40Z</time></trkpt><trkpt lat="44.5049938" lon="8.8974007"><ele>121.0</ele><time>2026-03-30T15:18:41.146Z</time></trkpt><trkpt lat="44.5048793" lon="8.8974814"><ele>121.0</ele><time>2026-03-30T15:18:43.147Z</time></trkpt><trkpt lat="44.5047738" lon="8.8975598"><ele>121.0</ele><time>2026-03-30T15:18:45Z</time></trkpt><trkpt lat="44.5047147" lon="8.8975996"><ele>121.0</ele><time>2026-03-30T15:18:46.125Z</time></trkpt><trkpt lat="44.5046512" lon="8.897648"><ele>121.0</ele><time>2026-03-30T15:18:47.123Z</time></trkpt><trkpt lat="44.504576" lon="8.8977039"><ele>121.0</ele><time>2026-03-30T15:18:48.153Z</time></trkpt><trkpt lat="44.5044298" lon="8.897801"><ele>121.19999999999999</ele><time>2026-03-30T15:18:50Z</time></trkpt><trkpt lat="44.504363" lon="8.8978427"><ele>121.39999999999999</ele><time>2026-03-30T15:18:51.158Z</time></trkpt><trkpt lat="44.5042964" lon="8.897884"><ele>121.6</ele><time>2026-03-30T15:18:52.16Z</time></trkpt><trkpt lat="44.5042277" lon="8.8979246"><ele>121.8</ele><time>2026-03-30T15:18:53.159Z</time></trkpt><trkpt lat="44.5040693" lon="8.8980218"><ele>122.0</ele><time>2026-03-30T15:18:55Z</time></trkpt><trkpt lat="44.5039999" lon="8.8980732"><ele>122.0</ele><time>2026-03-30T15:18:56.157Z</time></trkpt><trkpt lat="44.5039198" lon="8.8981272"><ele>121.99999999999999</ele><time>2026-03-30T15:18:57.156Z</time></trkpt><trkpt lat="44.5038478" lon="8.8981832"><ele>121.99999999999999</ele><time>2026-03-30T15:18:58.158Z</time></trkpt><trkpt lat="44.503693" lon="8.8982734"><ele>122.0</ele><time>2026-03-30T15:19:00Z</time></trkpt><trkpt lat="44.5036292" lon="8.8983066"><ele>122.0</ele><time>2026-03-30T15:19:01Z</time></trkpt><trkpt lat="44.5035536" lon="8.8983672"><ele>121.19999999999999</ele><time>2026-03-30T15:19:02Z</time></trkpt><trkpt lat="44.5034475" lon="8.8984176"><ele>120.39999999999999</ele><time>2026-03-30T15:19:04Z</time></trkpt><trkpt lat="44.5033571" lon="8.8984399"><ele>119.60000000000001</ele><time>2026-03-30T15:19:06.165Z</time></trkpt><trkpt lat="44.5032903" lon="8.8985076"><ele>118.80000000000001</ele><time>2026-03-30T15:19:09Z</time></trkpt><trkpt lat="44.5032425" lon="8.8985984"><ele>118.0</ele><time>2026-03-30T15:19:11Z</time></trkpt><trkpt lat="44.5031445" lon="8.8986786"><ele>118.0</ele><time>2026-03-30T15:19:15Z</time></trkpt><trkpt lat="44.5029931" lon="8.8987199"><ele>118.0</ele><time>2026-03-30T15:19:18Z</time></trkpt><trkpt lat="44.5028837" lon="8.8986451"><ele>118.0</ele><time>2026-03-30T15:19:20Z</time></trkpt><trkpt lat="44.5027457" lon="8.8984948"><ele>115.50000000000001</ele><time>2026-03-30T15:19:22.999Z</time></trkpt><trkpt lat="44.5027183" lon="8.8983895"><ele>113.0</ele><time>2026-03-30T15:19:24Z</time></trkpt><trkpt lat="44.5026695" lon="8.898311"><ele>110.5</ele><time>2026-03-30T15:19:25Z</time></trkpt><trkpt lat="44.5025849" lon="8.8981829"><ele>108.0</ele><time>2026-03-30T15:19:27Z</time></trkpt><trkpt lat="44.5025188" lon="8.8981116"><ele>105.50000000000001</ele><time>2026-03-30T15:19:28Z</time></trkpt><trkpt lat="44.5024601" lon="8.8980631"><ele>103.0</ele><time>2026-03-30T15:19:29Z</time></trkpt><trkpt lat="44.5023967" lon="8.8980244"><ele>103.00000000000001</ele><time>2026-03-30T15:19:30Z</time></trkpt><trkpt lat="44.502341" lon="8.8979742"><ele>103.0</ele><time>2026-03-30T15:19:31Z</time></trkpt><trkpt lat="44.5022601" lon="8.8979537"><ele>103.0</ele><time>2026-03-30T15:19:33Z</time></trkpt><trkpt lat="44.5021971" lon="8.8979971"><ele>103.0</ele><time>2026-03-30T15:19:34Z</time></trkpt><trkpt lat="44.5021673" lon="8.8980834"><ele>103.00000000000001</ele><time>2026-03-30T15:19:35Z</time></trkpt><trkpt lat="44.5021162" lon="8.8982493"><ele>103.0</ele><time>2026-03-30T15:19:37.142Z</time></trkpt><trkpt lat="44.5020937" lon="8.8983563"><ele>102.4</ele><time>2026-03-30T15:19:38.119Z</time></trkpt><trkpt lat="44.5020111" lon="8.8985358"><ele>101.80000000000001</ele><time>2026-03-30T15:19:40Z</time></trkpt><trkpt lat="44.5019709" lon="8.8986279"><ele>101.2</ele><time>2026-03-30T15:19:41.134Z</time></trkpt><trkpt lat="44.50192" lon="8.8987192"><ele>100.6</ele><time>2026-03-30T15:19:42.152Z</time></trkpt><trkpt lat="44.5018597" lon="8.898804"><ele>100.0</ele><time>2026-03-30T15:19:43.156Z</time></trkpt><trkpt lat="44.5017083" lon="8.8990035"><ele>100.0</ele><time>2026-03-30T15:19:45Z</time></trkpt><trkpt lat="44.5016252" lon="8.8990989"><ele>100.0</ele><time>2026-03-30T15:19:46.156Z</time></trkpt><trkpt lat="44.5015325" lon="8.8992031"><ele>100.0</ele><time>2026-03-30T15:19:47.155Z</time></trkpt><trkpt lat="44.5014502" lon="8.8992757"><ele>100.0</ele><time>2026-03-30T15:19:48.133Z</time></trkpt><trkpt lat="44.5012877" lon="8.8993947"><ele>99.42857142857143</ele><time>2026-03-30T15:19:50.105Z</time></trkpt><trkpt lat="44.5012243" lon="8.8993995"><ele>98.85714285714286</ele><time>2026-03-30T15:19:51.167Z</time></trkpt><trkpt lat="44.5011261" lon="8.8994205"><ele>98.28571428571428</ele><time>2026-03-30T15:19:52.999Z</time></trkpt><trkpt lat="44.5010754" lon="8.8993254"><ele>97.71428571428572</ele><time>2026-03-30T15:19:57Z</time></trkpt><trkpt lat="44.5010521" lon="8.8992413"><ele>97.14285714285714</ele><time>2026-03-30T15:20:01.17Z</time></trkpt><trkpt lat="44.5010454" lon="8.899149"><ele>96.57142857142857</ele><time>2026-03-30T15:20:08.135Z</time></trkpt><trkpt lat="44.5010704" lon="8.8990647"><ele>96.0</ele><time>2026-03-30T15:20:11.999Z</time></trkpt><trkpt lat="44.5011493" lon="8.8990564"><ele>97.0</ele><time>2026-03-30T15:20:15.105Z</time></trkpt><trkpt lat="44.5012582" lon="8.8991189"><ele>98.0</ele><time>2026-03-30T15:20:20Z</time></trkpt><trkpt lat="44.5013102" lon="8.8991759"><ele>99.0</ele><time>2026-03-30T15:20:25Z</time></trkpt><trkpt lat="44.5015488" lon="8.8991653"><ele>100.0</ele><time>2026-03-30T15:20:28Z</time></trkpt><trkpt lat="44.5015653" lon="8.8990553"><ele>100.0</ele><time>2026-03-30T15:20:41Z</time></trkpt><trkpt lat="44.5012649" lon="8.8990638"><ele>100.0</ele><time>2026-03-30T15:20:49Z</time></trkpt><trkpt lat="44.5011178" lon="8.8989449"><ele>106.0</ele><time>2026-03-30T15:21:02Z</time></trkpt><trkpt lat="44.5011822" lon="8.89897"><ele>106.0</ele><time>2026-03-30T15:21:04Z</time></trkpt><trkpt lat="44.5012168" lon="8.8990685"><ele>106.0</ele><time>2026-03-30T15:21:07Z</time></trkpt><trkpt lat="44.5012857" lon="8.8990702"><ele>100.0</ele><time>2026-03-30T15:21:11Z</time></trkpt></trkseg></trk></gpx>